<?xml version='1.0' encoding='UTF-8'?><gpx version="1.1" creator="JPX - https://github.com/jenetics/jpx" xmlns="http://www.topografix.com/GPX/1/1"><trk><trkseg><trkpt lat="45.8811097" lon="11.0346283"><ele>192.99999999999997</ele><time>2026-04-25T07:02:01.17Z</time></trkpt><trkpt lat="45.8810347" lon="11.0346864"><ele>193.0</ele><time>2026-04-25T07:02:05.189Z</time></trkpt><trkpt lat="45.8809802" lon="11.0347505"><ele>193.0</ele><time>2026-04-25T07:02:08.209Z</time></trkpt><trkpt lat="45.8809252" lon="11.0348161"><ele>193.0</ele><time>2026-04-25T07:02:11.175Z</time></trkpt><trkpt lat="45.8808678" lon="11.0348835"><ele>192.99999999999997</ele><time>2026-04-25T07:02:14.24Z</time></trkpt><trkpt lat="45.8807963" lon="11.0349548"><ele>193.0</ele><time>2026-04-25T07:02:17.162Z</time></trkpt><trkpt lat="45.8807306" lon="11.0350233"><ele>192.99999999999997</ele><time>2026-04-25T07:02:20.227Z</time></trkpt><trkpt lat="45.8806674" lon="11.0350796"><ele>193.0</ele><time>2026-04-25T07:02:23.19Z</time></trkpt><trkpt lat="45.880582" lon="11.0351685"><ele>193.0</ele><time>2026-04-25T07:02:27.183Z</time></trkpt><trkpt lat="45.8805138" lon="11.0352331"><ele>193.0</ele><time>2026-04-25T07:02:30.196Z</time></trkpt><trkpt lat="45.880456" lon="11.035317"><ele>192.99999999999997</ele><time>2026-04-25T07:02:33.182Z</time></trkpt><trkpt lat="45.8804025" lon="11.0353647"><ele>193.0</ele><time>2026-04-25T07:02:35.22Z</time></trkpt><trkpt lat="45.8803272" lon="11.0354378"><ele>192.99999999999997</ele><time>2026-04-25T07:02:38.167Z</time></trkpt><trkpt lat="45.880266" lon="11.0354928"><ele>193.0</ele><time>2026-04-25T07:02:43.17Z</time></trkpt><trkpt lat="45.8802028" lon="11.0355075"><ele>193.0</ele><time>2026-04-25T07:02:56.218Z</time></trkpt><trkpt lat="45.880169" lon="11.0355938"><ele>193.0</ele><time>2026-04-25T07:02:59.167Z</time></trkpt><trkpt lat="45.8801656" lon="11.0356911"><ele>192.99999999999997</ele><time>2026-04-25T07:03:02.172Z</time></trkpt><trkpt lat="45.8802126" lon="11.035764"><ele>193.0</ele><time>2026-04-25T07:03:07.175Z</time></trkpt><trkpt lat="45.8803553" lon="11.0359573"><ele>193.33333333333331</ele><time>2026-04-25T07:03:09.172Z</time></trkpt><trkpt lat="45.8804139" lon="11.0360313"><ele>193.66666666666666</ele><time>2026-04-25T07:03:11.215Z</time></trkpt><trkpt lat="45.8804621" lon="11.0361108"><ele>194.0</ele><time>2026-04-25T07:03:13.158Z</time></trkpt><trkpt lat="45.880526" lon="11.0361575"><ele>194.33333333333331</ele><time>2026-04-25T07:03:15.227Z</time></trkpt><trkpt lat="45.8805907" lon="11.0362544"><ele>194.66666666666666</ele><time>2026-04-25T07:03:18.283Z</time></trkpt><trkpt lat="45.88064" lon="11.0363146"><ele>195.0</ele><time>2026-04-25T07:03:20.182Z</time></trkpt><trkpt lat="45.8806836" lon="11.0364221"><ele>195.0</ele><time>2026-04-25T07:03:23.171Z</time></trkpt><trkpt lat="45.8807234" lon="11.036507"><ele>195.0</ele><time>2026-04-25T07:03:25.235Z</time></trkpt><trkpt lat="45.8807728" lon="11.036585"><ele>195.0</ele><time>2026-04-25T07:03:27.237Z</time></trkpt><trkpt lat="45.8808302" lon="11.0366517"><ele>195.0</ele><time>2026-04-25T07:03:29.175Z</time></trkpt><trkpt lat="45.8808785" lon="11.036723"><ele>195.0</ele><time>2026-04-25T07:03:31.174Z</time></trkpt><trkpt lat="45.8809271" lon="11.036795"><ele>195.0</ele><time>2026-04-25T07:03:33.215Z</time></trkpt><trkpt lat="45.8809874" lon="11.0368597"><ele>195.0</ele><time>2026-04-25T07:03:35.167Z</time></trkpt><trkpt lat="45.881052" lon="11.0369409"><ele>195.0</ele><time>2026-04-25T07:03:38.185Z</time></trkpt><trkpt lat="45.8810946" lon="11.0370298"><ele>195.0</ele><time>2026-04-25T07:03:41.237Z</time></trkpt><trkpt lat="45.8811342" lon="11.0371318"><ele>195.0</ele><time>2026-04-25T07:03:44.174Z</time></trkpt><trkpt lat="45.8811682" lon="11.037231"><ele>195.0</ele><time>2026-04-25T07:03:47.22Z</time></trkpt><trkpt lat="45.8812141" lon="11.0373144"><ele>195.0</ele><time>2026-04-25T07:03:50.222Z</time></trkpt><trkpt lat="45.881269" lon="11.0373905"><ele>195.0</ele><time>2026-04-25T07:03:53.168Z</time></trkpt><trkpt lat="45.8813286" lon="11.0374817"><ele>195.0</ele><time>2026-04-25T07:03:56.21Z</time></trkpt><trkpt lat="45.8813694" lon="11.0375551"><ele>195.0</ele><time>2026-04-25T07:03:58.17Z</time></trkpt><trkpt lat="45.8814116" lon="11.0376313"><ele>195.0</ele><time>2026-04-25T07:04:00.176Z</time></trkpt><trkpt lat="45.8814576" lon="11.0377"><ele>195.0</ele><time>2026-04-25T07:04:02.276Z</time></trkpt><trkpt lat="45.8815053" lon="11.0377725"><ele>195.0</ele><time>2026-04-25T07:04:04.199Z</time></trkpt><trkpt lat="45.8815583" lon="11.0378372"><ele>195.0</ele><time>2026-04-25T07:04:06.173Z</time></trkpt><trkpt lat="45.8816211" lon="11.0379185"><ele>195.0</ele><time>2026-04-25T07:04:08.163Z</time></trkpt><trkpt lat="45.8816792" lon="11.0380207"><ele>195.0</ele><time>2026-04-25T07:04:11.162Z</time></trkpt><trkpt lat="45.8817299" lon="11.0381242"><ele>195.0</ele><time>2026-04-25T07:04:14.202Z</time></trkpt><trkpt lat="45.8818074" lon="11.0382829"><ele>195.0</ele><time>2026-04-25T07:04:18.176Z</time></trkpt><trkpt lat="45.8818704" lon="11.0383819"><ele>195.0</ele><time>2026-04-25T07:04:21.165Z</time></trkpt><trkpt lat="45.8819434" lon="11.0384689"><ele>195.0</ele><time>2026-04-25T07:04:24.162Z</time></trkpt><trkpt lat="45.8819939" lon="11.0385609"><ele>195.28571428571428</ele><time>2026-04-25T07:04:27.192Z</time></trkpt><trkpt lat="45.8820371" lon="11.0386617"><ele>195.57142857142856</ele><time>2026-04-25T07:04:30.184Z</time></trkpt><trkpt lat="45.8820869" lon="11.038737"><ele>195.85714285714286</ele><time>2026-04-25T07:04:32.17Z</time></trkpt><trkpt lat="45.8821544" lon="11.0388052"><ele>196.14285714285714</ele><time>2026-04-25T07:04:34.167Z</time></trkpt><trkpt lat="45.8822028" lon="11.0388738"><ele>196.42857142857144</ele><time>2026-04-25T07:04:36.226Z</time></trkpt><trkpt lat="45.8822321" lon="11.0389618"><ele>196.71428571428572</ele><time>2026-04-25T07:04:38.166Z</time></trkpt><trkpt lat="45.8822634" lon="11.0390539"><ele>197.0</ele><time>2026-04-25T07:04:40.172Z</time></trkpt><trkpt lat="45.8823111" lon="11.0391232"><ele>197.33333333333334</ele><time>2026-04-25T07:04:42.169Z</time></trkpt><trkpt lat="45.8823728" lon="11.0391431"><ele>197.66666666666669</ele><time>2026-04-25T07:04:44.199Z</time></trkpt><trkpt lat="45.8824485" lon="11.0391974"><ele>198.0</ele><time>2026-04-25T07:04:47.171Z</time></trkpt><trkpt lat="45.8825207" lon="11.0393096"><ele>198.33333333333331</ele><time>2026-04-25T07:04:50.207Z</time></trkpt><trkpt lat="45.8825733" lon="11.0393894"><ele>198.66666666666666</ele><time>2026-04-25T07:04:52.177Z</time></trkpt><trkpt lat="45.882626" lon="11.0394679"><ele>199.0</ele><time>2026-04-25T07:04:54.169Z</time></trkpt><trkpt lat="45.8826878" lon="11.0395308"><ele>198.99999999999997</ele><time>2026-04-25T07:04:56.175Z</time></trkpt><trkpt lat="45.8827432" lon="11.0395937"><ele>199.0</ele><time>2026-04-25T07:04:58.205Z</time></trkpt><trkpt lat="45.8828003" lon="11.0396642"><ele>199.0</ele><time>2026-04-25T07:05:00.165Z</time></trkpt><trkpt lat="45.8828559" lon="11.0397339"><ele>199.0</ele><time>2026-04-25T07:05:02.191Z</time></trkpt><trkpt lat="45.8829166" lon="11.0398079"><ele>199.0</ele><time>2026-04-25T07:05:04.211Z</time></trkpt><trkpt lat="45.8829675" lon="11.0398813"><ele>198.99999999999997</ele><time>2026-04-25T07:05:06.174Z</time></trkpt><trkpt lat="45.8830231" lon="11.0399502"><ele>199.0</ele><time>2026-04-25T07:05:08.172Z</time></trkpt><trkpt lat="45.8830842" lon="11.0400147"><ele>199.14285714285714</ele><time>2026-04-25T07:05:10.161Z</time></trkpt><trkpt lat="45.8831377" lon="11.0400892"><ele>199.28571428571428</ele><time>2026-04-25T07:05:12.169Z</time></trkpt><trkpt lat="45.8831933" lon="11.0401608"><ele>199.42857142857144</ele><time>2026-04-25T07:05:14.19Z</time></trkpt><trkpt lat="45.8832389" lon="11.040236"><ele>199.57142857142856</ele><time>2026-04-25T07:05:16.19Z</time></trkpt><trkpt lat="45.8832875" lon="11.0403112"><ele>199.71428571428572</ele><time>2026-04-25T07:05:18.175Z</time></trkpt><trkpt lat="45.8833376" lon="11.0403857"><ele>199.85714285714286</ele><time>2026-04-25T07:05:20.172Z</time></trkpt><trkpt lat="45.8833827" lon="11.040458"><ele>200.0</ele><time>2026-04-25T07:05:22.162Z</time></trkpt><trkpt lat="45.8834222" lon="11.0405306"><ele>200.00000000000003</ele><time>2026-04-25T07:05:24.168Z</time></trkpt><trkpt lat="45.8834687" lon="11.040599"><ele>200.0</ele><time>2026-04-25T07:05:26.162Z</time></trkpt><trkpt lat="45.8835253" lon="11.0407027"><ele>200.0</ele><time>2026-04-25T07:05:29.207Z</time></trkpt><trkpt lat="45.8835603" lon="11.0407782"><ele>200.0</ele><time>2026-04-25T07:05:31.166Z</time></trkpt><trkpt lat="45.8836041" lon="11.0408752"><ele>200.00000000000003</ele><time>2026-04-25T07:05:34.166Z</time></trkpt><trkpt lat="45.8836475" lon="11.0409688"><ele>200.0</ele><time>2026-04-25T07:05:38.168Z</time></trkpt><trkpt lat="45.8837078" lon="11.0410537"><ele>200.14285714285717</ele><time>2026-04-25T07:05:41.17Z</time></trkpt><trkpt lat="45.8837491" lon="11.0411268"><ele>200.28571428571428</ele><time>2026-04-25T07:05:43.201Z</time></trkpt><trkpt lat="45.883798" lon="11.0412017"><ele>200.42857142857144</ele><time>2026-04-25T07:05:45.171Z</time></trkpt><trkpt lat="45.8838335" lon="11.0412795"><ele>200.57142857142858</ele><time>2026-04-25T07:05:47.171Z</time></trkpt><trkpt lat="45.8838698" lon="11.0413584"><ele>200.71428571428572</ele><time>2026-04-25T07:05:49.238Z</time></trkpt><trkpt lat="45.8839111" lon="11.0414354"><ele>200.85714285714286</ele><time>2026-04-25T07:05:51.197Z</time></trkpt><trkpt lat="45.8839637" lon="11.0415098"><ele>201.0</ele><time>2026-04-25T07:05:53.172Z</time></trkpt><trkpt lat="45.8840105" lon="11.0415848"><ele>201.28571428571428</ele><time>2026-04-25T07:05:55.17Z</time></trkpt><trkpt lat="45.8840459" lon="11.0416845"><ele>201.57142857142858</ele><time>2026-04-25T07:05:57.169Z</time></trkpt><trkpt lat="45.8840826" lon="11.0417804"><ele>201.85714285714286</ele><time>2026-04-25T07:05:59.17Z</time></trkpt><trkpt lat="45.8841337" lon="11.0418589"><ele>202.14285714285714</ele><time>2026-04-25T07:06:01.232Z</time></trkpt><trkpt lat="45.8841699" lon="11.0419439"><ele>202.42857142857144</ele><time>2026-04-25T07:06:03.196Z</time></trkpt><trkpt lat="45.8842045" lon="11.0420324"><ele>202.71428571428572</ele><time>2026-04-25T07:06:05.173Z</time></trkpt><trkpt lat="45.8842428" lon="11.0421279"><ele>203.0</ele><time>2026-04-25T07:06:07.175Z</time></trkpt><trkpt lat="45.8842924" lon="11.0421928"><ele>202.71428571428572</ele><time>2026-04-25T07:06:09.177Z</time></trkpt><trkpt lat="45.8843306" lon="11.0422664"><ele>202.42857142857144</ele><time>2026-04-25T07:06:11.165Z</time></trkpt><trkpt lat="45.884367" lon="11.0423547"><ele>202.14285714285714</ele><time>2026-04-25T07:06:13.173Z</time></trkpt><trkpt lat="45.8843888" lon="11.0424483"><ele>201.85714285714286</ele><time>2026-04-25T07:06:15.161Z</time></trkpt><trkpt lat="45.8844247" lon="11.0425292"><ele>201.57142857142858</ele><time>2026-04-25T07:06:17.198Z</time></trkpt><trkpt lat="45.8844745" lon="11.0426063"><ele>201.28571428571428</ele><time>2026-04-25T07:06:19.164Z</time></trkpt><trkpt lat="45.8845311" lon="11.0426814"><ele>201.0</ele><time>2026-04-25T07:06:21.166Z</time></trkpt><trkpt lat="45.8845972" lon="11.0427612"><ele>201.0</ele><time>2026-04-25T07:06:23.195Z</time></trkpt><trkpt lat="45.8846472" lon="11.0428734"><ele>201.0</ele><time>2026-04-25T07:06:26.172Z</time></trkpt></trkseg><trkseg><trkpt lat="45.8595013" lon="11.0595608"><ele>721.0</ele><time>2026-04-25T09:15:41.187Z</time></trkpt><trkpt lat="45.8594347" lon="11.0594834"><ele>721.0</ele><time>2026-04-25T09:15:55.222Z</time></trkpt><trkpt lat="45.8593901" lon="11.0594006"><ele>721.0</ele><time>2026-04-25T09:15:59.202Z</time></trkpt><trkpt lat="45.8593328" lon="11.0593268"><ele>721.0</ele><time>2026-04-25T09:16:03.202Z</time></trkpt><trkpt lat="45.859282" lon="11.0592538"><ele>721.0</ele><time>2026-04-25T09:16:07.193Z</time></trkpt><trkpt lat="45.8592371" lon="11.059189"><ele>721.0</ele><time>2026-04-25T09:16:10.241Z</time></trkpt><trkpt lat="45.859183" lon="11.0591146"><ele>721.0</ele><time>2026-04-25T09:16:14.23Z</time></trkpt><trkpt lat="45.8591293" lon="11.0590427"><ele>722.1428571428571</ele><time>2026-04-25T09:16:18.2Z</time></trkpt><trkpt lat="45.8590825" lon="11.0589589"><ele>723.2857142857142</ele><time>2026-04-25T09:16:22.303Z</time></trkpt><trkpt lat="45.8590372" lon="11.0588735"><ele>724.4285714285714</ele><time>2026-04-25T09:16:27.198Z</time></trkpt><trkpt lat="45.8589911" lon="11.0588006"><ele>725.5714285714286</ele><time>2026-04-25T09:16:31.193Z</time></trkpt><trkpt lat="45.8589569" lon="11.0587245"><ele>726.7142857142857</ele><time>2026-04-25T09:16:35.217Z</time></trkpt><trkpt lat="45.8588956" lon="11.0586637"><ele>727.8571428571429</ele><time>2026-04-25T09:16:40.192Z</time></trkpt><trkpt lat="45.8588525" lon="11.0585755"><ele>729.0</ele><time>2026-04-25T09:16:44.23Z</time></trkpt><trkpt lat="45.8587945" lon="11.0585094"><ele>729.0</ele><time>2026-04-25T09:16:48.224Z</time></trkpt><trkpt lat="45.8587488" lon="11.0584472"><ele>729.0</ele><time>2026-04-25T09:16:51.208Z</time></trkpt><trkpt lat="45.8586874" lon="11.0583671"><ele>729.0</ele><time>2026-04-25T09:16:55.197Z</time></trkpt><trkpt lat="45.8586311" lon="11.0582995"><ele>729.0</ele><time>2026-04-25T09:16:59.202Z</time></trkpt><trkpt lat="45.858578" lon="11.0582389"><ele>729.0</ele><time>2026-04-25T09:17:03.206Z</time></trkpt><trkpt lat="45.8585426" lon="11.0581552"><ele>729.0</ele><time>2026-04-25T09:17:07.23Z</time></trkpt><trkpt lat="45.8584973" lon="11.0580737"><ele>729.0</ele><time>2026-04-25T09:17:11.192Z</time></trkpt><trkpt lat="45.8584432" lon="11.0579963"><ele>731.4285714285714</ele><time>2026-04-25T09:17:15.195Z</time></trkpt><trkpt lat="45.8584001" lon="11.0579189"><ele>733.8571428571428</ele><time>2026-04-25T09:17:19.227Z</time></trkpt><trkpt lat="45.8583472" lon="11.0578487"><ele>736.2857142857142</ele><time>2026-04-25T09:17:23.208Z</time></trkpt><trkpt lat="45.8582823" lon="11.0577838"><ele>738.7142857142858</ele><time>2026-04-25T09:17:27.194Z</time></trkpt><trkpt lat="45.8582184" lon="11.0577401"><ele>741.1428571428571</ele><time>2026-04-25T09:17:31.192Z</time></trkpt><trkpt lat="45.8581466" lon="11.0577416"><ele>743.5714285714286</ele><time>2026-04-25T09:17:36.215Z</time></trkpt><trkpt lat="45.8580918" lon="11.0578018"><ele>746.0</ele><time>2026-04-25T09:17:41.201Z</time></trkpt><trkpt lat="45.8580477" lon="11.0578895"><ele>746.0</ele><time>2026-04-25T09:17:45.197Z</time></trkpt><trkpt lat="45.85803" lon="11.0579921"><ele>746.0</ele><time>2026-04-25T09:17:49.221Z</time></trkpt><trkpt lat="45.858049" lon="11.058086"><ele>746.0</ele><time>2026-04-25T09:17:53.199Z</time></trkpt><trkpt lat="45.858083" lon="11.0581759"><ele>746.0</ele><time>2026-04-25T09:17:57.193Z</time></trkpt><trkpt lat="45.8581281" lon="11.0582728"><ele>746.0</ele><time>2026-04-25T09:18:01.226Z</time></trkpt><trkpt lat="45.8581766" lon="11.058356"><ele>746.0</ele><time>2026-04-25T09:18:05.206Z</time></trkpt><trkpt lat="45.8582088" lon="11.0584387"><ele>746.0</ele><time>2026-04-25T09:18:09.237Z</time></trkpt><trkpt lat="45.8582187" lon="11.0585322"><ele>746.7142857142858</ele><time>2026-04-25T09:18:13.201Z</time></trkpt><trkpt lat="45.8582219" lon="11.0586258"><ele>747.4285714285714</ele><time>2026-04-25T09:18:17.188Z</time></trkpt><trkpt lat="45.858208" lon="11.0587215"><ele>748.1428571428571</ele><time>2026-04-25T09:18:21.303Z</time></trkpt><trkpt lat="45.8582097" lon="11.0588286"><ele>748.8571428571429</ele><time>2026-04-25T09:18:26.206Z</time></trkpt><trkpt lat="45.8582108" lon="11.0589278"><ele>749.5714285714286</ele><time>2026-04-25T09:18:30.225Z</time></trkpt><trkpt lat="45.8582101" lon="11.0590305"><ele>750.2857142857143</ele><time>2026-04-25T09:18:34.194Z</time></trkpt><trkpt lat="45.8582007" lon="11.0591343"><ele>751.0</ele><time>2026-04-25T09:18:39.193Z</time></trkpt><trkpt lat="45.8582015" lon="11.0592262"><ele>751.5</ele><time>2026-04-25T09:18:43.203Z</time></trkpt><trkpt lat="45.8581958" lon="11.0593169"><ele>752.0</ele><time>2026-04-25T09:18:47.193Z</time></trkpt><trkpt lat="45.8581639" lon="11.059421"><ele>752.5</ele><time>2026-04-25T09:18:52.199Z</time></trkpt><trkpt lat="45.8581154" lon="11.0594854"><ele>753.0</ele><time>2026-04-25T09:18:56.202Z</time></trkpt><trkpt lat="45.8580169" lon="11.0595279"><ele>753.5</ele><time>2026-04-25T09:19:02.194Z</time></trkpt><trkpt lat="45.8579463" lon="11.0595402"><ele>754.0</ele><time>2026-04-25T09:19:07.227Z</time></trkpt><trkpt lat="45.8579032" lon="11.0594637"><ele>753.9999999999999</ele><time>2026-04-25T09:19:11.205Z</time></trkpt><trkpt lat="45.8578609" lon="11.0593925"><ele>754.0</ele><time>2026-04-25T09:19:16.197Z</time></trkpt><trkpt lat="45.8578288" lon="11.0593131"><ele>754.0</ele><time>2026-04-25T09:19:20.197Z</time></trkpt><trkpt lat="45.8578246" lon="11.059214"><ele>754.0</ele><time>2026-04-25T09:19:24.296Z</time></trkpt><trkpt lat="45.8577947" lon="11.0591125"><ele>754.0</ele><time>2026-04-25T09:19:29.255Z</time></trkpt><trkpt lat="45.8577673" lon="11.0590122"><ele>753.9999999999999</ele><time>2026-04-25T09:19:35.241Z</time></trkpt><trkpt lat="45.8577504" lon="11.0589239"><ele>754.0</ele><time>2026-04-25T09:19:40.224Z</time></trkpt><trkpt lat="45.857745" lon="11.0588292"><ele>753.5714285714286</ele><time>2026-04-25T09:19:44.234Z</time></trkpt><trkpt lat="45.8576965" lon="11.0587307"><ele>753.1428571428571</ele><time>2026-04-25T09:19:49.239Z</time></trkpt><trkpt lat="45.8576477" lon="11.0586589"><ele>752.7142857142858</ele><time>2026-04-25T09:19:53.196Z</time></trkpt><trkpt lat="45.8575961" lon="11.0585974"><ele>752.2857142857142</ele><time>2026-04-25T09:19:58.198Z</time></trkpt><trkpt lat="45.8575482" lon="11.0585281"><ele>751.8571428571429</ele><time>2026-04-25T09:20:02.193Z</time></trkpt><trkpt lat="45.8574925" lon="11.0584606"><ele>751.4285714285714</ele><time>2026-04-25T09:20:06.224Z</time></trkpt><trkpt lat="45.8574336" lon="11.0583892"><ele>751.0</ele><time>2026-04-25T09:20:11.255Z</time></trkpt><trkpt lat="45.8573801" lon="11.0583349"><ele>753.0000000000001</ele><time>2026-04-25T09:20:15.253Z</time></trkpt><trkpt lat="45.8573235" lon="11.0582609"><ele>755.0</ele><time>2026-04-25T09:20:20.191Z</time></trkpt><trkpt lat="45.8572824" lon="11.0581801"><ele>757.0</ele><time>2026-04-25T09:20:25.21Z</time></trkpt><trkpt lat="45.8572244" lon="11.0581007"><ele>759.0</ele><time>2026-04-25T09:20:30.2Z</time></trkpt><trkpt lat="45.8571767" lon="11.0580394"><ele>761.0</ele><time>2026-04-25T09:20:34.204Z</time></trkpt><trkpt lat="45.8571279" lon="11.0579561"><ele>763.0000000000001</ele><time>2026-04-25T09:20:38.217Z</time></trkpt><trkpt lat="45.8570713" lon="11.0578909"><ele>765.0</ele><time>2026-04-25T09:20:42.202Z</time></trkpt><trkpt lat="45.8570138" lon="11.0578341"><ele>765.0</ele><time>2026-04-25T09:20:46.205Z</time></trkpt><trkpt lat="45.8569625" lon="11.0577583"><ele>765.0</ele><time>2026-04-25T09:20:50.211Z</time></trkpt><trkpt lat="45.8569021" lon="11.0576801"><ele>765.0</ele><time>2026-04-25T09:20:55.21Z</time></trkpt><trkpt lat="45.8568411" lon="11.0576228"><ele>765.0</ele><time>2026-04-25T09:20:59.211Z</time></trkpt><trkpt lat="45.8567842" lon="11.0575561"><ele>765.0</ele><time>2026-04-25T09:21:03.24Z</time></trkpt><trkpt lat="45.8567297" lon="11.0574755"><ele>765.0</ele><time>2026-04-25T09:21:08.229Z</time></trkpt><trkpt lat="45.8566764" lon="11.0574076"><ele>765.8571428571429</ele><time>2026-04-25T09:21:12.259Z</time></trkpt><trkpt lat="45.8566211" lon="11.0573522"><ele>766.7142857142858</ele><time>2026-04-25T09:21:16.213Z</time></trkpt><trkpt lat="45.8565619" lon="11.0572809"><ele>767.5714285714287</ele><time>2026-04-25T09:21:21.205Z</time></trkpt><trkpt lat="45.8565051" lon="11.0572176"><ele>768.4285714285714</ele><time>2026-04-25T09:21:26.212Z</time></trkpt><trkpt lat="45.856441" lon="11.057152"><ele>769.2857142857142</ele><time>2026-04-25T09:21:31.206Z</time></trkpt><trkpt lat="45.8563873" lon="11.0570972"><ele>770.1428571428572</ele><time>2026-04-25T09:21:35.231Z</time></trkpt><trkpt lat="45.856334" lon="11.0570399"><ele>771.0</ele><time>2026-04-25T09:21:39.215Z</time></trkpt><trkpt lat="45.8562744" lon="11.0569991"><ele>771.0</ele><time>2026-04-25T09:21:43.206Z</time></trkpt><trkpt lat="45.8562117" lon="11.0569312"><ele>771.0</ele><time>2026-04-25T09:21:48.208Z</time></trkpt><trkpt lat="45.8561427" lon="11.0568788"><ele>771.0</ele><time>2026-04-25T09:21:53.199Z</time></trkpt><trkpt lat="45.8560787" lon="11.0568521"><ele>771.0</ele><time>2026-04-25T09:21:58.205Z</time></trkpt><trkpt lat="45.8560161" lon="11.0568358"><ele>771.0</ele><time>2026-04-25T09:22:02.202Z</time></trkpt><trkpt lat="45.8559413" lon="11.0568453"><ele>771.0</ele><time>2026-04-25T09:22:07.239Z</time></trkpt><trkpt lat="45.8558763" lon="11.0568279"><ele>771.0</ele><time>2026-04-25T09:22:11.232Z</time></trkpt><trkpt lat="45.8558001" lon="11.0568112"><ele>773.2857142857143</ele><time>2026-04-25T09:22:16.25Z</time></trkpt><trkpt lat="45.855728" lon="11.0568501"><ele>775.5714285714286</ele><time>2026-04-25T09:22:21.23Z</time></trkpt><trkpt lat="45.8556635" lon="11.0568817"><ele>777.8571428571429</ele><time>2026-04-25T09:22:27.196Z</time></trkpt><trkpt lat="45.8555853" lon="11.056913"><ele>780.1428571428571</ele><time>2026-04-25T09:22:31.266Z</time></trkpt><trkpt lat="45.8555174" lon="11.0569749"><ele>782.4285714285713</ele><time>2026-04-25T09:22:35.209Z</time></trkpt><trkpt lat="45.8554567" lon="11.0570301"><ele>784.7142857142857</ele><time>2026-04-25T09:22:38.211Z</time></trkpt><trkpt lat="45.8554126" lon="11.0571007"><ele>787.0</ele><time>2026-04-25T09:22:42.249Z</time></trkpt><trkpt lat="45.8553803" lon="11.0571783"><ele>787.0</ele><time>2026-04-25T09:22:46.198Z</time></trkpt><trkpt lat="45.8553418" lon="11.0572647"><ele>787.0</ele><time>2026-04-25T09:22:52.203Z</time></trkpt><trkpt lat="45.8552897" lon="11.0573199"><ele>787.0</ele><time>2026-04-25T09:22:58.23Z</time></trkpt><trkpt lat="45.855237" lon="11.0573759"><ele>787.0</ele><time>2026-04-25T09:23:03.199Z</time></trkpt><trkpt lat="45.855177" lon="11.0574394"><ele>787.0</ele><time>2026-04-25T09:23:08.248Z</time></trkpt><trkpt lat="45.853562" lon="11.0570589"><ele>795.0</ele><time>2026-04-25T09:25:06.191Z</time></trkpt><trkpt lat="45.8534151" lon="11.0571137"><ele>803.0</ele><time>2026-04-25T09:25:13.2Z</time></trkpt><trkpt lat="45.8533421" lon="11.0570878"><ele>811.0</ele><time>2026-04-25T09:25:18.236Z</time></trkpt><trkpt lat="45.8532753" lon="11.0570697"><ele>819.0</ele><time>2026-04-25T09:25:23.201Z</time></trkpt><trkpt lat="45.8532093" lon="11.0570255"><ele>827.0</ele><time>2026-04-25T09:25:28.201Z</time></trkpt><trkpt lat="45.8526315" lon="11.0567653"><ele>827.0000000000001</ele><time>2026-04-25T09:26:30.189Z</time></trkpt><trkpt lat="45.8526722" lon="11.0566931"><ele>827.0</ele><time>2026-04-25T09:30:12.192Z</time></trkpt><trkpt lat="45.8526287" lon="11.0566176"><ele>827.0</ele><time>2026-04-25T09:30:22.2Z</time></trkpt><trkpt lat="45.8525723" lon="11.0565642"><ele>827.0</ele><time>2026-04-25T09:30:27.195Z</time></trkpt><trkpt lat="45.8525105" lon="11.0565088"><ele>827.0000000000001</ele><time>2026-04-25T09:30:32.205Z</time></trkpt><trkpt lat="45.8524478" lon="11.0564752"><ele>827.0</ele><time>2026-04-25T09:30:37.184Z</time></trkpt><trkpt lat="45.8523499" lon="11.0563847"><ele>828.2857142857143</ele><time>2026-04-25T09:30:45.192Z</time></trkpt><trkpt lat="45.8522844" lon="11.0563399"><ele>829.5714285714286</ele><time>2026-04-25T09:30:50.197Z</time></trkpt><trkpt lat="45.8522272" lon="11.0562991"><ele>830.8571428571429</ele><time>2026-04-25T09:30:55.258Z</time></trkpt><trkpt lat="45.8521582" lon="11.0562522"><ele>832.1428571428571</ele><time>2026-04-25T09:31:00.192Z</time></trkpt><trkpt lat="45.8521018" lon="11.0562012"><ele>833.4285714285713</ele><time>2026-04-25T09:31:04.231Z</time></trkpt><trkpt lat="45.8520434" lon="11.056165"><ele>834.7142857142857</ele><time>2026-04-25T09:31:08.242Z</time></trkpt><trkpt lat="45.8519799" lon="11.056126"><ele>836.0</ele><time>2026-04-25T09:31:12.207Z</time></trkpt><trkpt lat="45.8519127" lon="11.0560639"><ele>836.0</ele><time>2026-04-25T09:31:17.25Z</time></trkpt><trkpt lat="45.8518533" lon="11.0560016"><ele>836.0</ele><time>2026-04-25T09:31:22.199Z</time></trkpt><trkpt lat="45.8518031" lon="11.0559326"><ele>836.0</ele><time>2026-04-25T09:31:28.209Z</time></trkpt><trkpt lat="45.8517481" lon="11.0558706"><ele>836.0</ele><time>2026-04-25T09:31:33.193Z</time></trkpt><trkpt lat="45.8516906" lon="11.0558026"><ele>836.0</ele><time>2026-04-25T09:31:38.217Z</time></trkpt><trkpt lat="45.8516407" lon="11.055747"><ele>836.0</ele><time>2026-04-25T09:31:42.2Z</time></trkpt><trkpt lat="45.851586" lon="11.0556937"><ele>836.0</ele><time>2026-04-25T09:31:47.209Z</time></trkpt><trkpt lat="45.851516" lon="11.0556489"><ele>837.7142857142857</ele><time>2026-04-25T09:31:52.192Z</time></trkpt><trkpt lat="45.8514495" lon="11.0556263"><ele>839.4285714285713</ele><time>2026-04-25T09:31:56.232Z</time></trkpt><trkpt lat="45.8513771" lon="11.055583"><ele>841.1428571428571</ele><time>2026-04-25T09:32:01.194Z</time></trkpt><trkpt lat="45.8513077" lon="11.0555528"><ele>842.8571428571429</ele><time>2026-04-25T09:32:06.229Z</time></trkpt><trkpt lat="45.8512355" lon="11.0555213"><ele>844.5714285714286</ele><time>2026-04-25T09:32:11.196Z</time></trkpt><trkpt lat="45.8511687" lon="11.0554964"><ele>846.2857142857143</ele><time>2026-04-25T09:32:15.203Z</time></trkpt><trkpt lat="45.8511064" lon="11.0554664"><ele>848.0</ele><time>2026-04-25T09:32:19.271Z</time></trkpt><trkpt lat="45.8510457" lon="11.0554307"><ele>848.0</ele><time>2026-04-25T09:32:23.199Z</time></trkpt><trkpt lat="45.8509818" lon="11.0553981"><ele>848.0</ele><time>2026-04-25T09:32:28.199Z</time></trkpt><trkpt lat="45.8509152" lon="11.0553628"><ele>848.0</ele><time>2026-04-25T09:32:33.223Z</time></trkpt><trkpt lat="45.8508582" lon="11.0553133"><ele>848.0</ele><time>2026-04-25T09:32:38.202Z</time></trkpt><trkpt lat="45.8507825" lon="11.0552885"><ele>848.0</ele><time>2026-04-25T09:32:44.201Z</time></trkpt><trkpt lat="45.8507154" lon="11.0552405"><ele>848.0</ele><time>2026-04-25T09:32:50.202Z</time></trkpt><trkpt lat="45.8506533" lon="11.0552071"><ele>848.0</ele><time>2026-04-25T09:32:56.207Z</time></trkpt><trkpt lat="45.8505807" lon="11.0551672"><ele>848.4285714285714</ele><time>2026-04-25T09:33:01.256Z</time></trkpt><trkpt lat="45.8505079" lon="11.0551435"><ele>848.8571428571428</ele><time>2026-04-25T09:33:06.208Z</time></trkpt><trkpt lat="45.8504398" lon="11.0551482"><ele>849.2857142857142</ele><time>2026-04-25T09:33:10.199Z</time></trkpt><trkpt lat="45.8503643" lon="11.0551519"><ele>849.7142857142858</ele><time>2026-04-25T09:33:15.205Z</time></trkpt><trkpt lat="45.8502996" lon="11.0551608"><ele>850.1428571428571</ele><time>2026-04-25T09:33:19.235Z</time></trkpt><trkpt lat="45.8502209" lon="11.0551645"><ele>850.5714285714286</ele><time>2026-04-25T09:33:24.231Z</time></trkpt><trkpt lat="45.8501541" lon="11.0551695"><ele>851.0</ele><time>2026-04-25T09:33:28.208Z</time></trkpt><trkpt lat="45.8500886" lon="11.0551865"><ele>851.0</ele><time>2026-04-25T09:33:32.21Z</time></trkpt><trkpt lat="45.8500228" lon="11.0551983"><ele>851.0</ele><time>2026-04-25T09:33:36.254Z</time></trkpt><trkpt lat="45.8499469" lon="11.0552173"><ele>851.0</ele><time>2026-04-25T09:33:41.219Z</time></trkpt><trkpt lat="45.8498842" lon="11.0552413"><ele>851.0</ele><time>2026-04-25T09:33:45.218Z</time></trkpt><trkpt lat="45.8498189" lon="11.0552614"><ele>851.0</ele><time>2026-04-25T09:33:49.203Z</time></trkpt><trkpt lat="45.8497519" lon="11.0552708"><ele>851.0</ele><time>2026-04-25T09:33:53.257Z</time></trkpt><trkpt lat="45.8496832" lon="11.0552835"><ele>851.0</ele><time>2026-04-25T09:34:00.2Z</time></trkpt><trkpt lat="45.849619" lon="11.0552742"><ele>851.0</ele><time>2026-04-25T09:34:07.198Z</time></trkpt></trkseg><trkseg><trkpt lat="45.8409339" lon="11.0460562"><ele>1048.0</ele><time>2026-04-25T10:44:09.21Z</time></trkpt><trkpt lat="45.8408867" lon="11.0459636"><ele>1048.0</ele><time>2026-04-25T10:44:51.203Z</time></trkpt><trkpt lat="45.8408679" lon="11.0460535"><ele>1048.0</ele><time>2026-04-25T10:45:26.214Z</time></trkpt><trkpt lat="45.8408441" lon="11.0462286"><ele>1048.0</ele><time>2026-04-25T10:45:45.205Z</time></trkpt><trkpt lat="45.8410239" lon="11.0463597"><ele>1048.142857142857</ele><time>2026-04-25T10:45:58.271Z</time></trkpt><trkpt lat="45.8410721" lon="11.0464181"><ele>1048.2857142857144</ele><time>2026-04-25T10:46:01.208Z</time></trkpt><trkpt lat="45.8411277" lon="11.0464939"><ele>1048.4285714285716</ele><time>2026-04-25T10:46:06.204Z</time></trkpt><trkpt lat="45.8411843" lon="11.0465811"><ele>1048.5714285714287</ele><time>2026-04-25T10:46:13.202Z</time></trkpt><trkpt lat="45.8412127" lon="11.0466715"><ele>1048.7142857142858</ele><time>2026-04-25T10:46:18.21Z</time></trkpt><trkpt lat="45.8412323" lon="11.0467726"><ele>1048.857142857143</ele><time>2026-04-25T10:46:24.205Z</time></trkpt><trkpt lat="45.8412503" lon="11.0468593"><ele>1049.0</ele><time>2026-04-25T10:46:29.209Z</time></trkpt><trkpt lat="45.841267" lon="11.0469629"><ele>1049.0</ele><time>2026-04-25T10:46:35.215Z</time></trkpt><trkpt lat="45.8413246" lon="11.0470343"><ele>1049.0</ele><time>2026-04-25T10:46:43.274Z</time></trkpt><trkpt lat="45.8413729" lon="11.0471175"><ele>1049.0</ele><time>2026-04-25T10:46:51.21Z</time></trkpt><trkpt lat="45.8414373" lon="11.0471623"><ele>1049.0</ele><time>2026-04-25T10:46:58.203Z</time></trkpt><trkpt lat="45.8414937" lon="11.0472118"><ele>1049.0</ele><time>2026-04-25T10:47:02.228Z</time></trkpt><trkpt lat="45.8415714" lon="11.0472554"><ele>1049.0</ele><time>2026-04-25T10:47:09.22Z</time></trkpt><trkpt lat="45.8416426" lon="11.0472818"><ele>1049.0</ele><time>2026-04-25T10:47:13.289Z</time></trkpt><trkpt lat="45.841704" lon="11.0473144"><ele>1049.0</ele><time>2026-04-25T10:47:19.219Z</time></trkpt><trkpt lat="45.8417773" lon="11.0473556"><ele>1049.0</ele><time>2026-04-25T10:47:26.208Z</time></trkpt><trkpt lat="45.8418594" lon="11.0473668"><ele>1049.0</ele><time>2026-04-25T10:47:32.21Z</time></trkpt><trkpt lat="45.8419256" lon="11.0473409"><ele>1049.0</ele><time>2026-04-25T10:47:37.215Z</time></trkpt><trkpt lat="45.8420191" lon="11.0473539"><ele>1049.0</ele><time>2026-04-25T10:47:43.209Z</time></trkpt><trkpt lat="45.8421067" lon="11.0473785"><ele>1049.0</ele><time>2026-04-25T10:47:49.209Z</time></trkpt><trkpt lat="45.842169" lon="11.0474297"><ele>1051.8333333333335</ele><time>2026-04-25T10:47:53.248Z</time></trkpt><trkpt lat="45.8422295" lon="11.0474805"><ele>1054.6666666666667</ele><time>2026-04-25T10:47:59.205Z</time></trkpt><trkpt lat="45.8422895" lon="11.0475385"><ele>1057.5</ele><time>2026-04-25T10:48:07.202Z</time></trkpt><trkpt lat="45.8423498" lon="11.0476469"><ele>1060.3333333333333</ele><time>2026-04-25T10:48:17.206Z</time></trkpt><trkpt lat="45.8424025" lon="11.0477462"><ele>1063.1666666666665</ele><time>2026-04-25T10:48:25.206Z</time></trkpt><trkpt lat="45.8424782" lon="11.0478077"><ele>1066.0</ele><time>2026-04-25T10:48:30.213Z</time></trkpt><trkpt lat="45.8425361" lon="11.0478938"><ele>1067.6</ele><time>2026-04-25T10:48:36.218Z</time></trkpt><trkpt lat="45.8426428" lon="11.0480525"><ele>1069.1999999999998</ele><time>2026-04-25T10:48:50.203Z</time></trkpt><trkpt lat="45.8426822" lon="11.0481233"><ele>1070.8000000000002</ele><time>2026-04-25T10:48:54.245Z</time></trkpt><trkpt lat="45.8427301" lon="11.0482066"><ele>1072.4</ele><time>2026-04-25T10:48:58.214Z</time></trkpt><trkpt lat="45.842776" lon="11.0482699"><ele>1074.0</ele><time>2026-04-25T10:49:03.202Z</time></trkpt><trkpt lat="45.8429109" lon="11.0483352"><ele>1074.0</ele><time>2026-04-25T10:49:15.212Z</time></trkpt><trkpt lat="45.8429672" lon="11.0483965"><ele>1074.0</ele><time>2026-04-25T10:49:18.204Z</time></trkpt><trkpt lat="45.8430681" lon="11.0484669"><ele>1074.0</ele><time>2026-04-25T10:49:25.209Z</time></trkpt><trkpt lat="45.8431315" lon="11.0485243"><ele>1074.0</ele><time>2026-04-25T10:49:31.215Z</time></trkpt><trkpt lat="45.8431812" lon="11.0485898"><ele>1074.0</ele><time>2026-04-25T10:49:35.219Z</time></trkpt><trkpt lat="45.8432354" lon="11.0486463"><ele>1074.0</ele><time>2026-04-25T10:49:39.215Z</time></trkpt><trkpt lat="45.8433037" lon="11.0487387"><ele>1073.9999999999998</ele><time>2026-04-25T10:49:45.212Z</time></trkpt><trkpt lat="45.8433529" lon="11.0488089"><ele>1074.0</ele><time>2026-04-25T10:49:50.203Z</time></trkpt><trkpt lat="45.8433939" lon="11.0488989"><ele>1074.0</ele><time>2026-04-25T10:49:54.225Z</time></trkpt><trkpt lat="45.8434298" lon="11.0489901"><ele>1074.0</ele><time>2026-04-25T10:49:58.212Z</time></trkpt><trkpt lat="45.8434769" lon="11.0490659"><ele>1074.0</ele><time>2026-04-25T10:50:02.213Z</time></trkpt><trkpt lat="45.8435153" lon="11.0491401"><ele>1073.9999999999998</ele><time>2026-04-25T10:50:06.214Z</time></trkpt><trkpt lat="45.8435649" lon="11.0492132"><ele>1074.0</ele><time>2026-04-25T10:50:11.205Z</time></trkpt><trkpt lat="45.8436526" lon="11.049275"><ele>1074.142857142857</ele><time>2026-04-25T10:50:21.214Z</time></trkpt><trkpt lat="45.8437147" lon="11.0493047"><ele>1074.2857142857142</ele><time>2026-04-25T10:50:27.209Z</time></trkpt><trkpt lat="45.8437836" lon="11.0493568"><ele>1074.4285714285716</ele><time>2026-04-25T10:50:32.211Z</time></trkpt><trkpt lat="45.8438472" lon="11.0493948"><ele>1074.5714285714284</ele><time>2026-04-25T10:50:36.211Z</time></trkpt><trkpt lat="45.8439156" lon="11.0494292"><ele>1074.7142857142858</ele><time>2026-04-25T10:50:41.217Z</time></trkpt><trkpt lat="45.8439853" lon="11.0494334"><ele>1074.857142857143</ele><time>2026-04-25T10:50:45.211Z</time></trkpt><trkpt lat="45.8440523" lon="11.0494453"><ele>1075.0</ele><time>2026-04-25T10:50:49.258Z</time></trkpt><trkpt lat="45.8441171" lon="11.0493965"><ele>1075.0000000000002</ele><time>2026-04-25T10:50:53.204Z</time></trkpt><trkpt lat="45.8441898" lon="11.0494087"><ele>1075.0</ele><time>2026-04-25T10:52:47.211Z</time></trkpt><trkpt lat="45.8442215" lon="11.0494869"><ele>1075.0</ele><time>2026-04-25T10:52:57.202Z</time></trkpt><trkpt lat="45.8441838" lon="11.0495825"><ele>1075.0</ele><time>2026-04-25T10:53:02.201Z</time></trkpt><trkpt lat="45.8441257" lon="11.049631"><ele>1075.0</ele><time>2026-04-25T10:53:06.21Z</time></trkpt><trkpt lat="45.844061" lon="11.0496495"><ele>1075.0000000000002</ele><time>2026-04-25T10:53:11.209Z</time></trkpt><trkpt lat="45.8439877" lon="11.0496559"><ele>1075.0</ele><time>2026-04-25T10:53:16.204Z</time></trkpt><trkpt lat="45.8439172" lon="11.0496448"><ele>1075.0</ele><time>2026-04-25T10:53:21.199Z</time></trkpt><trkpt lat="45.8438525" lon="11.0496013"><ele>1075.0</ele><time>2026-04-25T10:53:26.207Z</time></trkpt><trkpt lat="45.843812" lon="11.0495286"><ele>1075.0</ele><time>2026-04-25T10:53:33.209Z</time></trkpt><trkpt lat="45.8437445" lon="11.0494731"><ele>1075.0</ele><time>2026-04-25T10:53:38.209Z</time></trkpt><trkpt lat="45.8436722" lon="11.0494445"><ele>1075.0</ele><time>2026-04-25T10:53:43.205Z</time></trkpt><trkpt lat="45.8434943" lon="11.0494645"><ele>1077.0000000000002</ele><time>2026-04-25T10:53:56.208Z</time></trkpt><trkpt lat="45.8434307" lon="11.0495099"><ele>1079.0</ele><time>2026-04-25T10:54:01.209Z</time></trkpt><trkpt lat="45.8433681" lon="11.0495383"><ele>1081.0</ele><time>2026-04-25T10:54:05.198Z</time></trkpt><trkpt lat="45.8433104" lon="11.049592"><ele>1083.0</ele><time>2026-04-25T10:54:10.202Z</time></trkpt><trkpt lat="45.8432437" lon="11.0496234"><ele>1085.0</ele><time>2026-04-25T10:54:15.203Z</time></trkpt><trkpt lat="45.8431749" lon="11.0495971"><ele>1087.0000000000002</ele><time>2026-04-25T10:54:22.213Z</time></trkpt><trkpt lat="45.8431124" lon="11.0495314"><ele>1089.0</ele><time>2026-04-25T10:54:27.195Z</time></trkpt><trkpt lat="45.8430509" lon="11.0494865"><ele>1089.0000000000002</ele><time>2026-04-25T10:54:34.201Z</time></trkpt><trkpt lat="45.8429862" lon="11.049451"><ele>1089.0</ele><time>2026-04-25T10:54:42.208Z</time></trkpt><trkpt lat="45.8429272" lon="11.0493937"><ele>1089.0</ele><time>2026-04-25T10:54:48.202Z</time></trkpt><trkpt lat="45.842873" lon="11.0493164"><ele>1089.0</ele><time>2026-04-25T10:54:54.21Z</time></trkpt><trkpt lat="45.842805" lon="11.0492838"><ele>1089.0</ele><time>2026-04-25T10:54:58.193Z</time></trkpt><trkpt lat="45.8427398" lon="11.0492351"><ele>1089.0000000000002</ele><time>2026-04-25T10:55:03.215Z</time></trkpt><trkpt lat="45.8426678" lon="11.0492039"><ele>1089.0</ele><time>2026-04-25T10:55:08.214Z</time></trkpt><trkpt lat="45.8425978" lon="11.0491741"><ele>1089.0000000000002</ele><time>2026-04-25T10:55:14.204Z</time></trkpt><trkpt lat="45.8425386" lon="11.0491336"><ele>1089.0</ele><time>2026-04-25T10:55:19.214Z</time></trkpt><trkpt lat="45.8424767" lon="11.0490667"><ele>1089.0</ele><time>2026-04-25T10:55:25.222Z</time></trkpt><trkpt lat="45.8424117" lon="11.0490534"><ele>1089.0</ele><time>2026-04-25T10:55:29.199Z</time></trkpt><trkpt lat="45.8423581" lon="11.0489763"><ele>1089.0</ele><time>2026-04-25T10:55:34.236Z</time></trkpt><trkpt lat="45.8422883" lon="11.0489234"><ele>1089.0000000000002</ele><time>2026-04-25T10:55:39.209Z</time></trkpt><trkpt lat="45.8422317" lon="11.0488631"><ele>1089.0</ele><time>2026-04-25T10:55:44.224Z</time></trkpt><trkpt lat="45.8421648" lon="11.0487962"><ele>1089.0000000000002</ele><time>2026-04-25T10:55:49.202Z</time></trkpt><trkpt lat="45.8421167" lon="11.0487244"><ele>1089.0</ele><time>2026-04-25T10:55:53.216Z</time></trkpt><trkpt lat="45.8420618" lon="11.0486475"><ele>1089.0</ele><time>2026-04-25T10:55:58.22Z</time></trkpt><trkpt lat="45.8420044" lon="11.0486052"><ele>1089.0</ele><time>2026-04-25T10:56:02.217Z</time></trkpt><trkpt lat="45.8419501" lon="11.0485578"><ele>1089.0</ele><time>2026-04-25T10:56:06.209Z</time></trkpt><trkpt lat="45.8418777" lon="11.04853"><ele>1089.0000000000002</ele><time>2026-04-25T10:56:11.218Z</time></trkpt><trkpt lat="45.8418059" lon="11.0485461"><ele>1089.0</ele><time>2026-04-25T10:56:16.215Z</time></trkpt><trkpt lat="45.8417467" lon="11.0486165"><ele>1089.0</ele><time>2026-04-25T10:56:21.225Z</time></trkpt><trkpt lat="45.8417278" lon="11.0487196"><ele>1089.0</ele><time>2026-04-25T10:56:28.21Z</time></trkpt><trkpt lat="45.8417428" lon="11.0488139"><ele>1089.0</ele><time>2026-04-25T10:56:32.222Z</time></trkpt><trkpt lat="45.8417839" lon="11.048902"><ele>1089.0</ele><time>2026-04-25T10:56:37.208Z</time></trkpt><trkpt lat="45.8418556" lon="11.0489321"><ele>1089.0</ele><time>2026-04-25T10:56:46.205Z</time></trkpt><trkpt lat="45.8419243" lon="11.0489724"><ele>1089.0</ele><time>2026-04-25T10:56:51.278Z</time></trkpt><trkpt lat="45.8419994" lon="11.0490367"><ele>1089.0000000000002</ele><time>2026-04-25T10:56:55.207Z</time></trkpt><trkpt lat="45.8420596" lon="11.0491073"><ele>1089.0</ele><time>2026-04-25T10:56:59.214Z</time></trkpt><trkpt lat="45.8421071" lon="11.0491866"><ele>1089.0</ele><time>2026-04-25T10:57:03.214Z</time></trkpt><trkpt lat="45.842158" lon="11.0492729"><ele>1089.0</ele><time>2026-04-25T10:57:08.223Z</time></trkpt><trkpt lat="45.8421983" lon="11.0493511"><ele>1089.0</ele><time>2026-04-25T10:57:15.211Z</time></trkpt><trkpt lat="45.8422379" lon="11.0494363"><ele>1089.0000000000002</ele><time>2026-04-25T10:57:21.207Z</time></trkpt><trkpt lat="45.8422785" lon="11.0495272"><ele>1089.0</ele><time>2026-04-25T10:57:26.227Z</time></trkpt><trkpt lat="45.8423101" lon="11.0496247"><ele>1091.4285714285716</ele><time>2026-04-25T10:57:32.221Z</time></trkpt><trkpt lat="45.8423304" lon="11.0497174"><ele>1093.857142857143</ele><time>2026-04-25T10:57:37.214Z</time></trkpt><trkpt lat="45.8423687" lon="11.0497993"><ele>1096.2857142857142</ele><time>2026-04-25T10:57:41.213Z</time></trkpt><trkpt lat="45.8424258" lon="11.0498784"><ele>1098.7142857142858</ele><time>2026-04-25T10:57:46.215Z</time></trkpt><trkpt lat="45.8424733" lon="11.0499452"><ele>1101.142857142857</ele><time>2026-04-25T10:57:51.207Z</time></trkpt><trkpt lat="45.842516" lon="11.0500119"><ele>1103.5714285714287</ele><time>2026-04-25T10:57:55.217Z</time></trkpt><trkpt lat="45.8425664" lon="11.0500808"><ele>1106.0</ele><time>2026-04-25T10:57:59.254Z</time></trkpt><trkpt lat="45.8426264" lon="11.0501458"><ele>1106.3333333333335</ele><time>2026-04-25T10:58:04.232Z</time></trkpt><trkpt lat="45.8427276" lon="11.0502101"><ele>1106.6666666666667</ele><time>2026-04-25T10:58:12.205Z</time></trkpt><trkpt lat="45.8427991" lon="11.0502493"><ele>1107.0</ele><time>2026-04-25T10:58:17.261Z</time></trkpt><trkpt lat="45.842853" lon="11.0503014"><ele>1107.3333333333333</ele><time>2026-04-25T10:58:21.208Z</time></trkpt><trkpt lat="45.8429175" lon="11.0503396"><ele>1107.6666666666665</ele><time>2026-04-25T10:58:25.28Z</time></trkpt><trkpt lat="45.8429777" lon="11.050395"><ele>1108.0</ele><time>2026-04-25T10:58:29.208Z</time></trkpt><trkpt lat="45.8430354" lon="11.050438"><ele>1108.0</ele><time>2026-04-25T10:58:33.205Z</time></trkpt><trkpt lat="45.8430874" lon="11.0505222"><ele>1108.0</ele><time>2026-04-25T10:58:39.204Z</time></trkpt><trkpt lat="45.8431797" lon="11.0505569"><ele>1108.0</ele><time>2026-04-25T10:58:47.217Z</time></trkpt><trkpt lat="45.8432444" lon="11.0506178"><ele>1108.0</ele><time>2026-04-25T10:58:52.221Z</time></trkpt><trkpt lat="45.8432996" lon="11.0506866"><ele>1108.0</ele><time>2026-04-25T10:58:57.216Z</time></trkpt><trkpt lat="45.8433571" lon="11.0507596"><ele>1108.0</ele><time>2026-04-25T10:59:02.21Z</time></trkpt><trkpt lat="45.8434031" lon="11.0508386"><ele>1107.142857142857</ele><time>2026-04-25T10:59:07.212Z</time></trkpt><trkpt lat="45.8434347" lon="11.0509187"><ele>1106.2857142857142</ele><time>2026-04-25T10:59:11.234Z</time></trkpt><trkpt lat="45.8434455" lon="11.0510138"><ele>1105.4285714285713</ele><time>2026-04-25T10:59:16.207Z</time></trkpt><trkpt lat="45.8434759" lon="11.0510977"><ele>1104.5714285714284</ele><time>2026-04-25T10:59:20.201Z</time></trkpt><trkpt lat="45.8434725" lon="11.0512026"><ele>1103.7142857142858</ele><time>2026-04-25T10:59:27.217Z</time></trkpt><trkpt lat="45.8434726" lon="11.0512993"><ele>1102.8571428571427</ele><time>2026-04-25T10:59:32.215Z</time></trkpt><trkpt lat="45.8434702" lon="11.0514017"><ele>1102.0</ele><time>2026-04-25T10:59:38.222Z</time></trkpt><trkpt lat="45.8434602" lon="11.0515019"><ele>1105.8571428571427</ele><time>2026-04-25T10:59:43.212Z</time></trkpt><trkpt lat="45.843437" lon="11.0515917"><ele>1109.7142857142858</ele><time>2026-04-25T10:59:48.212Z</time></trkpt><trkpt lat="45.8434279" lon="11.0516978"><ele>1113.5714285714284</ele><time>2026-04-25T10:59:53.236Z</time></trkpt><trkpt lat="45.8433826" lon="11.0517633"><ele>1117.4285714285713</ele><time>2026-04-25T10:59:58.204Z</time></trkpt><trkpt lat="45.8433347" lon="11.0518265"><ele>1121.2857142857142</ele><time>2026-04-25T11:00:03.221Z</time></trkpt><trkpt lat="45.8432749" lon="11.051871"><ele>1125.142857142857</ele><time>2026-04-25T11:00:10.214Z</time></trkpt><trkpt lat="45.8432041" lon="11.0519158"><ele>1129.0</ele><time>2026-04-25T11:00:19.217Z</time></trkpt><trkpt lat="45.8431485" lon="11.051993"><ele>1129.5714285714284</ele><time>2026-04-25T11:00:25.212Z</time></trkpt><trkpt lat="45.8431076" lon="11.0520824"><ele>1130.142857142857</ele><time>2026-04-25T11:00:30.213Z</time></trkpt><trkpt lat="45.843074" lon="11.0521784"><ele>1130.7142857142858</ele><time>2026-04-25T11:00:35.218Z</time></trkpt><trkpt lat="45.8430661" lon="11.0522687"><ele>1131.2857142857142</ele><time>2026-04-25T11:00:39.204Z</time></trkpt><trkpt lat="45.84305" lon="11.0523775"><ele>1131.857142857143</ele><time>2026-04-25T11:00:44.219Z</time></trkpt><trkpt lat="45.8430334" lon="11.0524861"><ele>1132.4285714285713</ele><time>2026-04-25T11:00:49.225Z</time></trkpt><trkpt lat="45.8429789" lon="11.0525343"><ele>1133.0</ele><time>2026-04-25T11:00:54.21Z</time></trkpt><trkpt lat="45.8429613" lon="11.0524466"><ele>1133.2857142857142</ele><time>2026-04-25T11:01:06.215Z</time></trkpt><trkpt lat="45.8429678" lon="11.0523461"><ele>1133.5714285714287</ele><time>2026-04-25T11:01:13.208Z</time></trkpt><trkpt lat="45.8429688" lon="11.0522389"><ele>1133.857142857143</ele><time>2026-04-25T11:01:18.232Z</time></trkpt><trkpt lat="45.8429617" lon="11.0521433"><ele>1134.142857142857</ele><time>2026-04-25T11:01:23.208Z</time></trkpt><trkpt lat="45.8430056" lon="11.0520644"><ele>1134.4285714285713</ele><time>2026-04-25T11:01:28.218Z</time></trkpt><trkpt lat="45.8429537" lon="11.0519731"><ele>1134.7142857142858</ele><time>2026-04-25T11:02:33.24Z</time></trkpt><trkpt lat="45.8429895" lon="11.0518798"><ele>1135.0</ele><time>2026-04-25T11:03:05.216Z</time></trkpt><trkpt lat="45.8429421" lon="11.0517916"><ele>1135.0</ele><time>2026-04-25T11:03:08.207Z</time></trkpt><trkpt lat="45.8429049" lon="11.0517154"><ele>1135.0</ele><time>2026-04-25T11:03:11.209Z</time></trkpt><trkpt lat="45.8428819" lon="11.0516258"><ele>1135.0</ele><time>2026-04-25T11:03:15.202Z</time></trkpt><trkpt lat="45.8428527" lon="11.0515449"><ele>1135.0</ele><time>2026-04-25T11:03:20.21Z</time></trkpt><trkpt lat="45.8427997" lon="11.0514822"><ele>1135.0</ele><time>2026-04-25T11:03:23.203Z</time></trkpt><trkpt lat="45.8427265" lon="11.0514353"><ele>1135.0</ele><time>2026-04-25T11:03:27.197Z</time></trkpt><trkpt lat="45.8426594" lon="11.0513816"><ele>1135.0</ele><time>2026-04-25T11:03:31.208Z</time></trkpt><trkpt lat="45.8425879" lon="11.0513546"><ele>1136.4285714285716</ele><time>2026-04-25T11:03:36.207Z</time></trkpt><trkpt lat="45.8425264" lon="11.0512887"><ele>1137.857142857143</ele><time>2026-04-25T11:03:40.209Z</time></trkpt><trkpt lat="45.8424589" lon="11.0512293"><ele>1139.2857142857142</ele><time>2026-04-25T11:03:45.202Z</time></trkpt><trkpt lat="45.842403" lon="11.0511766"><ele>1140.7142857142858</ele><time>2026-04-25T11:03:50.205Z</time></trkpt><trkpt lat="45.8423402" lon="11.0511537"><ele>1142.142857142857</ele><time>2026-04-25T11:03:54.201Z</time></trkpt><trkpt lat="45.8422757" lon="11.0511301"><ele>1143.5714285714287</ele><time>2026-04-25T11:03:59.207Z</time></trkpt><trkpt lat="45.8422105" lon="11.0511075"><ele>1145.0</ele><time>2026-04-25T11:04:05.204Z</time></trkpt><trkpt lat="45.8421467" lon="11.0510731"><ele>1145.0000000000002</ele><time>2026-04-25T11:04:10.203Z</time></trkpt><trkpt lat="45.8420796" lon="11.0510385"><ele>1145.0</ele><time>2026-04-25T11:04:15.203Z</time></trkpt><trkpt lat="45.8420109" lon="11.0510142"><ele>1145.0</ele><time>2026-04-25T11:04:20.203Z</time></trkpt><trkpt lat="45.8419419" lon="11.0510009"><ele>1145.0</ele><time>2026-04-25T11:04:25.211Z</time></trkpt><trkpt lat="45.8418769" lon="11.0509946"><ele>1145.0</ele><time>2026-04-25T11:04:29.216Z</time></trkpt><trkpt lat="45.8418036" lon="11.0509661"><ele>1145.0000000000002</ele><time>2026-04-25T11:04:34.204Z</time></trkpt><trkpt lat="45.8417355" lon="11.0509714"><ele>1145.0</ele><time>2026-04-25T11:04:39.196Z</time></trkpt><trkpt lat="45.8416647" lon="11.0509629"><ele>1146.7142857142858</ele><time>2026-04-25T11:04:44.208Z</time></trkpt><trkpt lat="45.8416019" lon="11.0509707"><ele>1148.4285714285716</ele><time>2026-04-25T11:04:48.212Z</time></trkpt><trkpt lat="45.8415369" lon="11.0509552"><ele>1150.142857142857</ele><time>2026-04-25T11:04:53.245Z</time></trkpt><trkpt lat="45.8414687" lon="11.0509482"><ele>1151.857142857143</ele><time>2026-04-25T11:04:58.216Z</time></trkpt><trkpt lat="45.8414016" lon="11.0509502"><ele>1153.5714285714284</ele><time>2026-04-25T11:05:03.239Z</time></trkpt><trkpt lat="45.841339" lon="11.0509258"><ele>1155.2857142857142</ele><time>2026-04-25T11:05:07.238Z</time></trkpt><trkpt lat="45.8412779" lon="11.0509001"><ele>1157.0</ele><time>2026-04-25T11:05:11.238Z</time></trkpt><trkpt lat="45.8412088" lon="11.0509027"><ele>1157.0</ele><time>2026-04-25T11:05:16.223Z</time></trkpt><trkpt lat="45.8411422" lon="11.0508987"><ele>1157.0</ele><time>2026-04-25T11:05:21.217Z</time></trkpt><trkpt lat="45.8410731" lon="11.0509222"><ele>1157.0</ele><time>2026-04-25T11:05:28.231Z</time></trkpt><trkpt lat="45.8410138" lon="11.0508866"><ele>1157.0</ele><time>2026-04-25T11:05:33.21Z</time></trkpt><trkpt lat="45.8409476" lon="11.0508675"><ele>1157.0</ele><time>2026-04-25T11:05:39.206Z</time></trkpt><trkpt lat="45.8408769" lon="11.0508661"><ele>1157.0</ele><time>2026-04-25T11:05:45.251Z</time></trkpt><trkpt lat="45.8408087" lon="11.0508162"><ele>1157.0</ele><time>2026-04-25T11:05:51.21Z</time></trkpt><trkpt lat="45.84074" lon="11.050768"><ele>1156.857142857143</ele><time>2026-04-25T11:05:56.249Z</time></trkpt><trkpt lat="45.8406779" lon="11.0507422"><ele>1156.7142857142856</ele><time>2026-04-25T11:06:00.235Z</time></trkpt><trkpt lat="45.8406194" lon="11.050705"><ele>1156.5714285714284</ele><time>2026-04-25T11:06:04.248Z</time></trkpt><trkpt lat="45.8405498" lon="11.0506715"><ele>1156.4285714285713</ele><time>2026-04-25T11:06:09.209Z</time></trkpt><trkpt lat="45.8404762" lon="11.0506644"><ele>1156.2857142857142</ele><time>2026-04-25T11:06:15.251Z</time></trkpt><trkpt lat="45.8404064" lon="11.0506563"><ele>1156.142857142857</ele><time>2026-04-25T11:06:20.204Z</time></trkpt><trkpt lat="45.8403348" lon="11.0506258"><ele>1156.0</ele><time>2026-04-25T11:06:25.248Z</time></trkpt><trkpt lat="45.8402642" lon="11.0506248"><ele>1156.0</ele><time>2026-04-25T11:06:31.227Z</time></trkpt><trkpt lat="45.8401938" lon="11.0506203"><ele>1156.0</ele><time>2026-04-25T11:06:36.25Z</time></trkpt><trkpt lat="45.8401307" lon="11.0505839"><ele>1156.0</ele><time>2026-04-25T11:06:41.236Z</time></trkpt><trkpt lat="45.8400441" lon="11.050528"><ele>1156.0</ele><time>2026-04-25T11:06:47.28Z</time></trkpt><trkpt lat="45.8399904" lon="11.0504763"><ele>1156.0</ele><time>2026-04-25T11:06:51.233Z</time></trkpt><trkpt lat="45.8398987" lon="11.0504021"><ele>1156.0</ele><time>2026-04-25T11:06:56.25Z</time></trkpt><trkpt lat="45.8398331" lon="11.0503365"><ele>1157.857142857143</ele><time>2026-04-25T11:07:01.209Z</time></trkpt><trkpt lat="45.8397704" lon="11.0502756"><ele>1159.7142857142858</ele><time>2026-04-25T11:07:05.245Z</time></trkpt><trkpt lat="45.8397101" lon="11.0502199"><ele>1161.5714285714284</ele><time>2026-04-25T11:07:10.245Z</time></trkpt><trkpt lat="45.839652" lon="11.0501748"><ele>1163.4285714285716</ele><time>2026-04-25T11:07:16.24Z</time></trkpt><trkpt lat="45.8395928" lon="11.0501367"><ele>1165.2857142857142</ele><time>2026-04-25T11:07:21.236Z</time></trkpt><trkpt lat="45.8395203" lon="11.0501162"><ele>1167.142857142857</ele><time>2026-04-25T11:07:26.2Z</time></trkpt><trkpt lat="45.8394567" lon="11.0500998"><ele>1169.0</ele><time>2026-04-25T11:07:30.207Z</time></trkpt><trkpt lat="45.8393812" lon="11.0500783"><ele>1169.0</ele><time>2026-04-25T11:07:35.205Z</time></trkpt><trkpt lat="45.8393183" lon="11.0500619"><ele>1169.0</ele><time>2026-04-25T11:07:39.209Z</time></trkpt><trkpt lat="45.8392537" lon="11.0500532"><ele>1169.0</ele><time>2026-04-25T11:07:43.193Z</time></trkpt><trkpt lat="45.8391853" lon="11.0500379"><ele>1169.0</ele><time>2026-04-25T11:07:47.213Z</time></trkpt><trkpt lat="45.839119" lon="11.0500187"><ele>1169.0</ele><time>2026-04-25T11:07:50.208Z</time></trkpt><trkpt lat="45.8390508" lon="11.0500119"><ele>1169.0</ele><time>2026-04-25T11:07:54.21Z</time></trkpt><trkpt lat="45.8389857" lon="11.0499931"><ele>1169.0</ele><time>2026-04-25T11:07:58.257Z</time></trkpt><trkpt lat="45.8389172" lon="11.0499779"><ele>1169.5714285714287</ele><time>2026-04-25T11:08:02.235Z</time></trkpt><trkpt lat="45.8388546" lon="11.0499536"><ele>1170.142857142857</ele><time>2026-04-25T11:08:06.252Z</time></trkpt><trkpt lat="45.8387834" lon="11.0499488"><ele>1170.7142857142858</ele><time>2026-04-25T11:08:10.234Z</time></trkpt><trkpt lat="45.838721" lon="11.0498935"><ele>1171.2857142857142</ele><time>2026-04-25T11:08:14.254Z</time></trkpt><trkpt lat="45.8386573" lon="11.0498803"><ele>1171.857142857143</ele><time>2026-04-25T11:08:17.243Z</time></trkpt><trkpt lat="45.8385714" lon="11.0498581"><ele>1172.4285714285716</ele><time>2026-04-25T11:08:22.207Z</time></trkpt><trkpt lat="45.8384967" lon="11.0498624"><ele>1173.0</ele><time>2026-04-25T11:08:26.209Z</time></trkpt><trkpt lat="45.8384306" lon="11.0498999"><ele>1173.0000000000002</ele><time>2026-04-25T11:08:30.207Z</time></trkpt><trkpt lat="45.8383662" lon="11.0499583"><ele>1173.0</ele><time>2026-04-25T11:08:35.208Z</time></trkpt><trkpt lat="45.8383439" lon="11.0500469"><ele>1173.0</ele><time>2026-04-25T11:08:40.203Z</time></trkpt><trkpt lat="45.8383497" lon="11.0501373"><ele>1173.0</ele><time>2026-04-25T11:08:45.205Z</time></trkpt><trkpt lat="45.838383" lon="11.0502159"><ele>1173.0</ele><time>2026-04-25T11:08:48.205Z</time></trkpt><trkpt lat="45.8384324" lon="11.0502829"><ele>1173.0000000000002</ele><time>2026-04-25T11:08:53.3Z</time></trkpt><trkpt lat="45.8384927" lon="11.050323"><ele>1173.0</ele><time>2026-04-25T11:08:58.24Z</time></trkpt><trkpt lat="45.8385538" lon="11.0502941"><ele>1174.5714285714287</ele><time>2026-04-25T11:09:04.315Z</time></trkpt><trkpt lat="45.8386268" lon="11.0502829"><ele>1176.142857142857</ele><time>2026-04-25T11:09:09.231Z</time></trkpt><trkpt lat="45.8386843" lon="11.0502461"><ele>1177.7142857142858</ele><time>2026-04-25T11:09:12.272Z</time></trkpt><trkpt lat="45.8387459" lon="11.050177"><ele>1179.2857142857142</ele><time>2026-04-25T11:09:16.245Z</time></trkpt><trkpt lat="45.8387974" lon="11.050118"><ele>1180.857142857143</ele><time>2026-04-25T11:09:20.275Z</time></trkpt><trkpt lat="45.8388699" lon="11.0500915"><ele>1182.4285714285716</ele><time>2026-04-25T11:09:25.239Z</time></trkpt><trkpt lat="45.8389432" lon="11.050073"><ele>1184.0</ele><time>2026-04-25T11:09:29.207Z</time></trkpt><trkpt lat="45.8390114" lon="11.0501175"><ele>1184.0</ele><time>2026-04-25T11:09:34.249Z</time></trkpt><trkpt lat="45.839056" lon="11.0502092"><ele>1184.0</ele><time>2026-04-25T11:09:39.241Z</time></trkpt><trkpt lat="45.8390834" lon="11.0503067"><ele>1184.0</ele><time>2026-04-25T11:09:43.237Z</time></trkpt><trkpt lat="45.839079" lon="11.0503986"><ele>1184.0</ele><time>2026-04-25T11:09:47.215Z</time></trkpt><trkpt lat="45.8390407" lon="11.0504827"><ele>1184.0</ele><time>2026-04-25T11:09:51.242Z</time></trkpt><trkpt lat="45.8389716" lon="11.05053"><ele>1184.0</ele><time>2026-04-25T11:09:56.059Z</time></trkpt><trkpt lat="45.8389033" lon="11.0505592"><ele>1184.0</ele><time>2026-04-25T11:09:59.216Z</time></trkpt><trkpt lat="45.8388328" lon="11.0505427"><ele>1184.0</ele><time>2026-04-25T11:10:03.243Z</time></trkpt><trkpt lat="45.8387546" lon="11.0505305"><ele>1184.0</ele><time>2026-04-25T11:10:08.228Z</time></trkpt><trkpt lat="45.8386926" lon="11.0505136"><ele>1184.0</ele><time>2026-04-25T11:10:12.316Z</time></trkpt><trkpt lat="45.8386058" lon="11.0505143"><ele>1184.0</ele><time>2026-04-25T11:10:17.226Z</time></trkpt><trkpt lat="45.8385379" lon="11.0505084"><ele>1184.0</ele><time>2026-04-25T11:10:21.239Z</time></trkpt><trkpt lat="45.8384676" lon="11.0505405"><ele>1184.0</ele><time>2026-04-25T11:10:27.229Z</time></trkpt><trkpt lat="45.8383916" lon="11.0505392"><ele>1184.0</ele><time>2026-04-25T11:10:32.233Z</time></trkpt><trkpt lat="45.8383217" lon="11.050523"><ele>1185.2857142857142</ele><time>2026-04-25T11:10:37.2Z</time></trkpt><trkpt lat="45.8382732" lon="11.0504603"><ele>1186.5714285714284</ele><time>2026-04-25T11:10:43.23Z</time></trkpt><trkpt lat="45.8382216" lon="11.0504077"><ele>1187.8571428571427</ele><time>2026-04-25T11:10:48.245Z</time></trkpt><trkpt lat="45.8381577" lon="11.0503619"><ele>1189.142857142857</ele><time>2026-04-25T11:10:54.232Z</time></trkpt><trkpt lat="45.8380856" lon="11.0503412"><ele>1190.4285714285713</ele><time>2026-04-25T11:10:59.245Z</time></trkpt><trkpt lat="45.8380185" lon="11.050333"><ele>1191.7142857142856</ele><time>2026-04-25T11:11:03.248Z</time></trkpt><trkpt lat="45.8379598" lon="11.0503669"><ele>1193.0</ele><time>2026-04-25T11:11:07.225Z</time></trkpt><trkpt lat="45.8379005" lon="11.0504211"><ele>1192.9999999999998</ele><time>2026-04-25T11:11:12.315Z</time></trkpt><trkpt lat="45.8378336" lon="11.0504561"><ele>1193.0</ele><time>2026-04-25T11:11:17.239Z</time></trkpt><trkpt lat="45.837776" lon="11.0504929"><ele>1193.0</ele><time>2026-04-25T11:11:22.206Z</time></trkpt><trkpt lat="45.8377199" lon="11.0505377"><ele>1193.0</ele><time>2026-04-25T11:11:27.212Z</time></trkpt><trkpt lat="45.8376488" lon="11.0505556"><ele>1193.0</ele><time>2026-04-25T11:11:32.25Z</time></trkpt><trkpt lat="45.8375848" lon="11.0505733"><ele>1192.9999999999998</ele><time>2026-04-25T11:11:36.252Z</time></trkpt><trkpt lat="45.8375219" lon="11.0506236"><ele>1193.0</ele><time>2026-04-25T11:11:40.236Z</time></trkpt><trkpt lat="45.8374611" lon="11.0506778"><ele>1195.4285714285713</ele><time>2026-04-25T11:11:47.205Z</time></trkpt><trkpt lat="45.8373845" lon="11.050684"><ele>1197.857142857143</ele><time>2026-04-25T11:11:53.195Z</time></trkpt><trkpt lat="45.8373203" lon="11.0507248"><ele>1200.2857142857142</ele><time>2026-04-25T11:11:58.237Z</time></trkpt><trkpt lat="45.8372388" lon="11.0507864"><ele>1202.7142857142858</ele><time>2026-04-25T11:12:03.26Z</time></trkpt><trkpt lat="45.8371809" lon="11.0508232"><ele>1205.142857142857</ele><time>2026-04-25T11:12:07.206Z</time></trkpt><trkpt lat="45.8371177" lon="11.0508801"><ele>1207.5714285714284</ele><time>2026-04-25T11:12:11.246Z</time></trkpt><trkpt lat="45.8370553" lon="11.0509318"><ele>1210.0</ele><time>2026-04-25T11:12:15.254Z</time></trkpt><trkpt lat="45.8369865" lon="11.0509608"><ele>1211.2857142857142</ele><time>2026-04-25T11:12:19.235Z</time></trkpt><trkpt lat="45.8369185" lon="11.0509947"><ele>1212.5714285714287</ele><time>2026-04-25T11:12:23.241Z</time></trkpt><trkpt lat="45.8368594" lon="11.0510428"><ele>1213.857142857143</ele><time>2026-04-25T11:12:27.244Z</time></trkpt><trkpt lat="45.8367935" lon="11.0510854"><ele>1215.142857142857</ele><time>2026-04-25T11:12:31.234Z</time></trkpt><trkpt lat="45.8367208" lon="11.0511289"><ele>1216.4285714285713</ele><time>2026-04-25T11:12:35.251Z</time></trkpt><trkpt lat="45.836667" lon="11.0511859"><ele>1217.7142857142858</ele><time>2026-04-25T11:12:39.233Z</time></trkpt><trkpt lat="45.8365938" lon="11.0512351"><ele>1219.0</ele><time>2026-04-25T11:12:44.243Z</time></trkpt><trkpt lat="45.836541" lon="11.0512889"><ele>1220.7142857142858</ele><time>2026-04-25T11:12:48.264Z</time></trkpt><trkpt lat="45.8364884" lon="11.0513443"><ele>1222.4285714285713</ele><time>2026-04-25T11:12:52.254Z</time></trkpt><trkpt lat="45.8364223" lon="11.0513942"><ele>1224.142857142857</ele><time>2026-04-25T11:12:57.241Z</time></trkpt><trkpt lat="45.8363635" lon="11.0514607"><ele>1225.857142857143</ele><time>2026-04-25T11:13:02.221Z</time></trkpt><trkpt lat="45.8363062" lon="11.0515298"><ele>1227.5714285714287</ele><time>2026-04-25T11:13:07.203Z</time></trkpt><trkpt lat="45.8362546" lon="11.0515833"><ele>1229.2857142857142</ele><time>2026-04-25T11:13:13.206Z</time></trkpt><trkpt lat="45.8361984" lon="11.0516501"><ele>1231.0</ele><time>2026-04-25T11:13:17.202Z</time></trkpt><trkpt lat="45.8361337" lon="11.051693"><ele>1231.0</ele><time>2026-04-25T11:13:21.207Z</time></trkpt><trkpt lat="45.8360728" lon="11.0517313"><ele>1231.0</ele><time>2026-04-25T11:13:25.212Z</time></trkpt><trkpt lat="45.8360121" lon="11.0517743"><ele>1231.0</ele><time>2026-04-25T11:13:29.212Z</time></trkpt><trkpt lat="45.835947" lon="11.0518276"><ele>1231.0</ele><time>2026-04-25T11:13:33.21Z</time></trkpt><trkpt lat="45.8358798" lon="11.0518808"><ele>1231.0</ele><time>2026-04-25T11:13:38.212Z</time></trkpt><trkpt lat="45.8358162" lon="11.0519185"><ele>1231.0</ele><time>2026-04-25T11:13:42.236Z</time></trkpt><trkpt lat="45.8357473" lon="11.0519481"><ele>1231.0</ele><time>2026-04-25T11:13:46.228Z</time></trkpt><trkpt lat="45.8356869" lon="11.0519736"><ele>1232.857142857143</ele><time>2026-04-25T11:13:51.202Z</time></trkpt><trkpt lat="45.8356072" lon="11.0519865"><ele>1234.7142857142858</ele><time>2026-04-25T11:13:57.197Z</time></trkpt><trkpt lat="45.8355434" lon="11.0519933"><ele>1236.5714285714284</ele><time>2026-04-25T11:14:01.209Z</time></trkpt><trkpt lat="45.835476" lon="11.0519733"><ele>1238.4285714285716</ele><time>2026-04-25T11:14:05.217Z</time></trkpt><trkpt lat="45.8354144" lon="11.051954"><ele>1240.2857142857144</ele><time>2026-04-25T11:14:09.204Z</time></trkpt><trkpt lat="45.8353429" lon="11.0519569"><ele>1242.142857142857</ele><time>2026-04-25T11:14:14.215Z</time></trkpt><trkpt lat="45.8352662" lon="11.0519526"><ele>1244.0</ele><time>2026-04-25T11:14:19.232Z</time></trkpt><trkpt lat="45.8351934" lon="11.0519118"><ele>1244.0</ele><time>2026-04-25T11:14:25.297Z</time></trkpt><trkpt lat="45.8351596" lon="11.0518253"><ele>1244.0</ele><time>2026-04-25T11:14:31.21Z</time></trkpt><trkpt lat="45.8352141" lon="11.0517743"><ele>1244.0</ele><time>2026-04-25T11:14:35.312Z</time></trkpt><trkpt lat="45.8352788" lon="11.0517825"><ele>1244.0</ele><time>2026-04-25T11:14:40.213Z</time></trkpt><trkpt lat="45.835344" lon="11.0518156"><ele>1244.0</ele><time>2026-04-25T11:14:44.241Z</time></trkpt><trkpt lat="45.8354107" lon="11.0518087"><ele>1244.0</ele><time>2026-04-25T11:14:48.207Z</time></trkpt><trkpt lat="45.835487" lon="11.0517829"><ele>1244.0</ele><time>2026-04-25T11:14:53.243Z</time></trkpt><trkpt lat="45.8355523" lon="11.0517644"><ele>1244.0</ele><time>2026-04-25T11:14:57.24Z</time></trkpt><trkpt lat="45.8356195" lon="11.0517283"><ele>1244.0</ele><time>2026-04-25T11:15:01.252Z</time></trkpt><trkpt lat="45.8356821" lon="11.0517067"><ele>1244.0</ele><time>2026-04-25T11:15:06.24Z</time></trkpt><trkpt lat="45.8357477" lon="11.0516789"><ele>1244.0</ele><time>2026-04-25T11:15:11.257Z</time></trkpt><trkpt lat="45.8358123" lon="11.0516113"><ele>1244.0</ele><time>2026-04-25T11:15:15.319Z</time></trkpt><trkpt lat="45.8358767" lon="11.0515473"><ele>1244.0</ele><time>2026-04-25T11:15:20.255Z</time></trkpt><trkpt lat="45.8359326" lon="11.0514979"><ele>1244.0</ele><time>2026-04-25T11:15:25.279Z</time></trkpt><trkpt lat="45.8359823" lon="11.0514387"><ele>1243.4285714285713</ele><time>2026-04-25T11:15:29.254Z</time></trkpt><trkpt lat="45.8360324" lon="11.0513723"><ele>1242.857142857143</ele><time>2026-04-25T11:15:33.252Z</time></trkpt><trkpt lat="45.8360784" lon="11.0512955"><ele>1242.2857142857142</ele><time>2026-04-25T11:15:38.238Z</time></trkpt><trkpt lat="45.8361156" lon="11.0512054"><ele>1241.7142857142858</ele><time>2026-04-25T11:15:43.241Z</time></trkpt><trkpt lat="45.836156" lon="11.0511173"><ele>1241.142857142857</ele><time>2026-04-25T11:15:48.23Z</time></trkpt><trkpt lat="45.8361909" lon="11.05104"><ele>1240.5714285714287</ele><time>2026-04-25T11:15:53.236Z</time></trkpt><trkpt lat="45.8362242" lon="11.050948"><ele>1240.0</ele><time>2026-04-25T11:15:57.219Z</time></trkpt><trkpt lat="45.8362514" lon="11.0508565"><ele>1240.2857142857142</ele><time>2026-04-25T11:16:02.245Z</time></trkpt><trkpt lat="45.8362813" lon="11.0507708"><ele>1240.5714285714284</ele><time>2026-04-25T11:16:08.198Z</time></trkpt><trkpt lat="45.836331" lon="11.0506809"><ele>1240.8571428571427</ele><time>2026-04-25T11:16:12.235Z</time></trkpt><trkpt lat="45.8363399" lon="11.0505848"><ele>1241.142857142857</ele><time>2026-04-25T11:16:17.208Z</time></trkpt><trkpt lat="45.8363844" lon="11.0505086"><ele>1241.4285714285713</ele><time>2026-04-25T11:16:23.196Z</time></trkpt><trkpt lat="45.8364209" lon="11.0504248"><ele>1241.7142857142856</ele><time>2026-04-25T11:16:27.248Z</time></trkpt><trkpt lat="45.83648" lon="11.0503715"><ele>1242.0</ele><time>2026-04-25T11:16:33.2Z</time></trkpt><trkpt lat="45.8365284" lon="11.0503024"><ele>1241.9999999999998</ele><time>2026-04-25T11:16:39.223Z</time></trkpt><trkpt lat="45.8365664" lon="11.0502302"><ele>1242.0</ele><time>2026-04-25T11:16:43.25Z</time></trkpt><trkpt lat="45.8365797" lon="11.0501271"><ele>1242.0</ele><time>2026-04-25T11:16:48.229Z</time></trkpt><trkpt lat="45.8365833" lon="11.0500282"><ele>1242.0</ele><time>2026-04-25T11:16:52.249Z</time></trkpt><trkpt lat="45.8365775" lon="11.049932"><ele>1242.0</ele><time>2026-04-25T11:16:56.255Z</time></trkpt><trkpt lat="45.8365415" lon="11.0498496"><ele>1241.9999999999998</ele><time>2026-04-25T11:17:00.245Z</time></trkpt><trkpt lat="45.8364822" lon="11.0498103"><ele>1242.0</ele><time>2026-04-25T11:17:05.232Z</time></trkpt><trkpt lat="45.8364162" lon="11.0497825"><ele>1241.9999999999998</ele><time>2026-04-25T11:17:10.245Z</time></trkpt><trkpt lat="45.8363539" lon="11.0497594"><ele>1242.0</ele><time>2026-04-25T11:17:14.3Z</time></trkpt><trkpt lat="45.8362752" lon="11.0497456"><ele>1242.0</ele><time>2026-04-25T11:17:19.208Z</time></trkpt><trkpt lat="45.8362096" lon="11.0497209"><ele>1242.0</ele><time>2026-04-25T11:17:23.238Z</time></trkpt><trkpt lat="45.8361374" lon="11.0497271"><ele>1242.0</ele><time>2026-04-25T11:17:28.232Z</time></trkpt><trkpt lat="45.836104" lon="11.0498319"><ele>1241.9999999999998</ele><time>2026-04-25T11:17:33.217Z</time></trkpt><trkpt lat="45.8361498" lon="11.0499146"><ele>1242.0</ele><time>2026-04-25T11:17:38.252Z</time></trkpt><trkpt lat="45.8362098" lon="11.0499722"><ele>1241.9999999999998</ele><time>2026-04-25T11:17:43.212Z</time></trkpt><trkpt lat="45.8362432" lon="11.0500747"><ele>1242.0</ele><time>2026-04-25T11:17:52.213Z</time></trkpt><trkpt lat="45.8362445" lon="11.0501684"><ele>1242.0</ele><time>2026-04-25T11:17:56.203Z</time></trkpt><trkpt lat="45.8362571" lon="11.0502618"><ele>1242.0</ele><time>2026-04-25T11:18:01.212Z</time></trkpt><trkpt lat="45.8362101" lon="11.0503358"><ele>1242.0</ele><time>2026-04-25T11:18:06.208Z</time></trkpt><trkpt lat="45.8361656" lon="11.0504029"><ele>1241.9999999999998</ele><time>2026-04-25T11:18:11.211Z</time></trkpt><trkpt lat="45.836098" lon="11.0503984"><ele>1242.0</ele><time>2026-04-25T11:18:16.207Z</time></trkpt><trkpt lat="45.8360278" lon="11.0503699"><ele>1245.7142857142856</ele><time>2026-04-25T11:18:21.216Z</time></trkpt><trkpt lat="45.8359657" lon="11.0503198"><ele>1249.4285714285713</ele><time>2026-04-25T11:18:25.208Z</time></trkpt><trkpt lat="45.8358915" lon="11.0503235"><ele>1253.142857142857</ele><time>2026-04-25T11:18:31.209Z</time></trkpt><trkpt lat="45.8358276" lon="11.0503381"><ele>1256.8571428571427</ele><time>2026-04-25T11:18:35.207Z</time></trkpt><trkpt lat="45.8357517" lon="11.0503735"><ele>1260.5714285714284</ele><time>2026-04-25T11:18:40.263Z</time></trkpt><trkpt lat="45.835692" lon="11.0504328"><ele>1264.2857142857142</ele><time>2026-04-25T11:18:44.22Z</time></trkpt><trkpt lat="45.8356329" lon="11.0504873"><ele>1268.0</ele><time>2026-04-25T11:18:48.216Z</time></trkpt><trkpt lat="45.8355745" lon="11.0505373"><ele>1268.0</ele><time>2026-04-25T11:18:52.273Z</time></trkpt><trkpt lat="45.8355213" lon="11.0506095"><ele>1268.0</ele><time>2026-04-25T11:18:57.21Z</time></trkpt><trkpt lat="45.835455" lon="11.0506188"><ele>1268.0</ele><time>2026-04-25T11:19:01.208Z</time></trkpt><trkpt lat="45.8353746" lon="11.0506111"><ele>1268.0</ele><time>2026-04-25T11:19:06.206Z</time></trkpt><trkpt lat="45.8353003" lon="11.0506231"><ele>1268.0</ele><time>2026-04-25T11:19:12.21Z</time></trkpt><trkpt lat="45.8352353" lon="11.0506262"><ele>1268.0</ele><time>2026-04-25T11:19:17.211Z</time></trkpt><trkpt lat="45.8351634" lon="11.0506448"><ele>1268.0</ele><time>2026-04-25T11:19:22.217Z</time></trkpt><trkpt lat="45.8351002" lon="11.0506339"><ele>1271.2857142857142</ele><time>2026-04-25T11:19:26.204Z</time></trkpt><trkpt lat="45.835037" lon="11.050626"><ele>1274.5714285714284</ele><time>2026-04-25T11:19:31.207Z</time></trkpt><trkpt lat="45.8349623" lon="11.0506576"><ele>1277.8571428571427</ele><time>2026-04-25T11:19:37.235Z</time></trkpt><trkpt lat="45.8349049" lon="11.0507009"><ele>1281.142857142857</ele><time>2026-04-25T11:19:41.236Z</time></trkpt><trkpt lat="45.83484" lon="11.0506805"><ele>1284.4285714285713</ele><time>2026-04-25T11:19:46.235Z</time></trkpt><trkpt lat="45.8348223" lon="11.0505926"><ele>1287.7142857142856</ele><time>2026-04-25T11:19:56.209Z</time></trkpt><trkpt lat="45.8348929" lon="11.0505766"><ele>1291.0</ele><time>2026-04-25T11:20:22.218Z</time></trkpt><trkpt lat="45.8349583" lon="11.0505587"><ele>1290.9999999999998</ele><time>2026-04-25T11:20:26.205Z</time></trkpt><trkpt lat="45.8350284" lon="11.0505229"><ele>1291.0</ele><time>2026-04-25T11:20:30.24Z</time></trkpt><trkpt lat="45.8350963" lon="11.0504752"><ele>1291.0</ele><time>2026-04-25T11:20:34.221Z</time></trkpt><trkpt lat="45.8351602" lon="11.0504272"><ele>1291.0</ele><time>2026-04-25T11:20:39.314Z</time></trkpt><trkpt lat="45.8352313" lon="11.0503797"><ele>1291.0</ele><time>2026-04-25T11:20:43.243Z</time></trkpt><trkpt lat="45.8352901" lon="11.0503107"><ele>1290.9999999999998</ele><time>2026-04-25T11:20:47.323Z</time></trkpt><trkpt lat="45.8353243" lon="11.0502219"><ele>1291.0</ele><time>2026-04-25T11:20:51.319Z</time></trkpt><trkpt lat="45.8353583" lon="11.0501359"><ele>1287.7142857142856</ele><time>2026-04-25T11:20:55.267Z</time></trkpt><trkpt lat="45.8353787" lon="11.0500428"><ele>1284.4285714285713</ele><time>2026-04-25T11:21:00.255Z</time></trkpt><trkpt lat="45.8353849" lon="11.0499203"><ele>1281.142857142857</ele><time>2026-04-25T11:21:06.213Z</time></trkpt><trkpt lat="45.8353672" lon="11.0498258"><ele>1277.8571428571427</ele><time>2026-04-25T11:21:10.216Z</time></trkpt><trkpt lat="45.835317" lon="11.0497502"><ele>1274.5714285714284</ele><time>2026-04-25T11:21:14.223Z</time></trkpt><trkpt lat="45.835274" lon="11.0496732"><ele>1271.2857142857142</ele><time>2026-04-25T11:21:18.234Z</time></trkpt><trkpt lat="45.8352191" lon="11.0496166"><ele>1268.0</ele><time>2026-04-25T11:21:21.228Z</time></trkpt><trkpt lat="45.8351602" lon="11.0495558"><ele>1268.4285714285716</ele><time>2026-04-25T11:21:25.244Z</time></trkpt><trkpt lat="45.8350969" lon="11.0494933"><ele>1268.857142857143</ele><time>2026-04-25T11:21:30.213Z</time></trkpt><trkpt lat="45.8350326" lon="11.0494559"><ele>1269.2857142857142</ele><time>2026-04-25T11:21:34.257Z</time></trkpt><trkpt lat="45.8349798" lon="11.0493974"><ele>1269.7142857142858</ele><time>2026-04-25T11:21:38.239Z</time></trkpt><trkpt lat="45.8349071" lon="11.0493899"><ele>1270.142857142857</ele><time>2026-04-25T11:21:42.253Z</time></trkpt><trkpt lat="45.8348362" lon="11.0493812"><ele>1270.5714285714287</ele><time>2026-04-25T11:21:46.218Z</time></trkpt><trkpt lat="45.8347741" lon="11.049366"><ele>1271.0</ele><time>2026-04-25T11:21:50.25Z</time></trkpt><trkpt lat="45.8346946" lon="11.049353"><ele>1271.0000000000002</ele><time>2026-04-25T11:21:55.204Z</time></trkpt><trkpt lat="45.8346237" lon="11.0493432"><ele>1271.0</ele><time>2026-04-25T11:21:59.31Z</time></trkpt><trkpt lat="45.834551" lon="11.0493264"><ele>1271.0</ele><time>2026-04-25T11:22:03.233Z</time></trkpt><trkpt lat="45.8344833" lon="11.0493017"><ele>1271.0</ele><time>2026-04-25T11:22:07.214Z</time></trkpt><trkpt lat="45.834415" lon="11.0492805"><ele>1271.0</ele><time>2026-04-25T11:22:11.235Z</time></trkpt><trkpt lat="45.8343406" lon="11.0493198"><ele>1271.0000000000002</ele><time>2026-04-25T11:22:15.267Z</time></trkpt><trkpt lat="45.8342834" lon="11.0493579"><ele>1271.0</ele><time>2026-04-25T11:22:18.211Z</time></trkpt><trkpt lat="45.8342294" lon="11.0494194"><ele>1271.0000000000002</ele><time>2026-04-25T11:22:22.239Z</time></trkpt><trkpt lat="45.8341826" lon="11.0495026"><ele>1271.0</ele><time>2026-04-25T11:22:26.21Z</time></trkpt><trkpt lat="45.8341721" lon="11.0495917"><ele>1271.0</ele><time>2026-04-25T11:23:10.202Z</time></trkpt><trkpt lat="45.8341414" lon="11.0496765"><ele>1271.0</ele><time>2026-04-25T11:24:10.206Z</time></trkpt><trkpt lat="45.8341547" lon="11.0497836"><ele>1271.0</ele><time>2026-04-25T11:24:16.202Z</time></trkpt><trkpt lat="45.8341577" lon="11.0498755"><ele>1271.0000000000002</ele><time>2026-04-25T11:24:20.204Z</time></trkpt><trkpt lat="45.83416" lon="11.0499756"><ele>1271.0</ele><time>2026-04-25T11:24:24.287Z</time></trkpt><trkpt lat="45.8341711" lon="11.0500675"><ele>1274.7142857142858</ele><time>2026-04-25T11:24:28.201Z</time></trkpt><trkpt lat="45.8341353" lon="11.0501541"><ele>1278.4285714285716</ele><time>2026-04-25T11:24:32.203Z</time></trkpt><trkpt lat="45.834085" lon="11.0502218"><ele>1282.1428571428573</ele><time>2026-04-25T11:24:37.255Z</time></trkpt><trkpt lat="45.8340297" lon="11.050272"><ele>1285.857142857143</ele><time>2026-04-25T11:24:42.206Z</time></trkpt><trkpt lat="45.8339519" lon="11.050289"><ele>1289.5714285714284</ele><time>2026-04-25T11:24:47.206Z</time></trkpt><trkpt lat="45.8338888" lon="11.0502903"><ele>1293.2857142857144</ele><time>2026-04-25T11:24:53.199Z</time></trkpt><trkpt lat="45.8338082" lon="11.050277"><ele>1297.0</ele><time>2026-04-25T11:24:58.206Z</time></trkpt><trkpt lat="45.833737" lon="11.0502444"><ele>1297.0</ele><time>2026-04-25T11:25:02.205Z</time></trkpt><trkpt lat="45.8336665" lon="11.0502021"><ele>1297.0</ele><time>2026-04-25T11:25:09.201Z</time></trkpt><trkpt lat="45.8336009" lon="11.0501581"><ele>1297.0</ele><time>2026-04-25T11:25:14.201Z</time></trkpt><trkpt lat="45.8335457" lon="11.0501081"><ele>1297.0</ele><time>2026-04-25T11:25:18.246Z</time></trkpt><trkpt lat="45.8334876" lon="11.0500624"><ele>1297.0</ele><time>2026-04-25T11:25:21.234Z</time></trkpt><trkpt lat="45.8334341" lon="11.0499989"><ele>1297.0</ele><time>2026-04-25T11:25:25.203Z</time></trkpt><trkpt lat="45.8333885" lon="11.0499311"><ele>1297.0</ele><time>2026-04-25T11:25:29.237Z</time></trkpt><trkpt lat="45.8333429" lon="11.0498519"><ele>1298.4285714285716</ele><time>2026-04-25T11:25:34.196Z</time></trkpt><trkpt lat="45.8332803" lon="11.0497953"><ele>1299.8571428571427</ele><time>2026-04-25T11:25:39.227Z</time></trkpt><trkpt lat="45.8332151" lon="11.0497708"><ele>1301.2857142857142</ele><time>2026-04-25T11:25:43.204Z</time></trkpt><trkpt lat="45.833149" lon="11.0497902"><ele>1302.7142857142858</ele><time>2026-04-25T11:25:47.202Z</time></trkpt><trkpt lat="45.8330855" lon="11.0498166"><ele>1304.1428571428573</ele><time>2026-04-25T11:25:52.2Z</time></trkpt><trkpt lat="45.8330331" lon="11.0498727"><ele>1305.5714285714284</ele><time>2026-04-25T11:25:58.205Z</time></trkpt><trkpt lat="45.8330636" lon="11.0499707"><ele>1307.0</ele><time>2026-04-25T11:26:02.337Z</time></trkpt><trkpt lat="45.8330837" lon="11.0500678"><ele>1307.0</ele><time>2026-04-25T11:26:07.207Z</time></trkpt><trkpt lat="45.8330937" lon="11.0501675"><ele>1307.0</ele><time>2026-04-25T11:26:11.199Z</time></trkpt><trkpt lat="45.8331143" lon="11.0502561"><ele>1307.0</ele><time>2026-04-25T11:26:17.209Z</time></trkpt><trkpt lat="45.8331653" lon="11.050312"><ele>1307.0</ele><time>2026-04-25T11:26:22.224Z</time></trkpt><trkpt lat="45.8332104" lon="11.0503781"><ele>1307.0</ele><time>2026-04-25T11:26:26.199Z</time></trkpt><trkpt lat="45.8331807" lon="11.0504683"><ele>1307.0</ele><time>2026-04-25T11:26:30.197Z</time></trkpt><trkpt lat="45.8331275" lon="11.0505498"><ele>1307.0</ele><time>2026-04-25T11:26:34.249Z</time></trkpt><trkpt lat="45.8330717" lon="11.0506058"><ele>1307.0</ele><time>2026-04-25T11:26:38.201Z</time></trkpt><trkpt lat="45.8330076" lon="11.0506452"><ele>1307.0</ele><time>2026-04-25T11:26:42.253Z</time></trkpt><trkpt lat="45.8329318" lon="11.0506488"><ele>1307.0</ele><time>2026-04-25T11:26:46.207Z</time></trkpt><trkpt lat="45.832858" lon="11.0506184"><ele>1307.0</ele><time>2026-04-25T11:26:52.209Z</time></trkpt><trkpt lat="45.8328022" lon="11.050552"><ele>1307.0</ele><time>2026-04-25T11:27:00.196Z</time></trkpt><trkpt lat="45.8327517" lon="11.0504648"><ele>1307.0</ele><time>2026-04-25T11:27:05.207Z</time></trkpt><trkpt lat="45.8327193" lon="11.0503661"><ele>1307.0</ele><time>2026-04-25T11:27:10.201Z</time></trkpt><trkpt lat="45.8327054" lon="11.0502726"><ele>1307.0</ele><time>2026-04-25T11:27:14.206Z</time></trkpt><trkpt lat="45.8326859" lon="11.0501742"><ele>1307.0</ele><time>2026-04-25T11:27:18.199Z</time></trkpt><trkpt lat="45.8326678" lon="11.0500667"><ele>1307.0</ele><time>2026-04-25T11:27:23.212Z</time></trkpt><trkpt lat="45.8326409" lon="11.0499802"><ele>1307.0</ele><time>2026-04-25T11:27:28.204Z</time></trkpt><trkpt lat="45.8325907" lon="11.0499122"><ele>1307.0</ele><time>2026-04-25T11:27:33.221Z</time></trkpt><trkpt lat="45.8325352" lon="11.049839"><ele>1307.0</ele><time>2026-04-25T11:27:39.204Z</time></trkpt><trkpt lat="45.8324714" lon="11.0497977"><ele>1305.0</ele><time>2026-04-25T11:27:44.203Z</time></trkpt><trkpt lat="45.8324007" lon="11.049775"><ele>1303.0</ele><time>2026-04-25T11:27:49.207Z</time></trkpt><trkpt lat="45.8323329" lon="11.0497646"><ele>1301.0</ele><time>2026-04-25T11:27:53.205Z</time></trkpt><trkpt lat="45.8322632" lon="11.0497529"><ele>1299.0</ele><time>2026-04-25T11:27:59.198Z</time></trkpt><trkpt lat="45.8321841" lon="11.0497416"><ele>1297.0</ele><time>2026-04-25T11:28:04.251Z</time></trkpt><trkpt lat="45.8321208" lon="11.0497216"><ele>1295.0</ele><time>2026-04-25T11:28:08.198Z</time></trkpt><trkpt lat="45.8320581" lon="11.0497021"><ele>1293.0</ele><time>2026-04-25T11:28:13.207Z</time></trkpt><trkpt lat="45.8319846" lon="11.049682"><ele>1293.0</ele><time>2026-04-25T11:28:20.198Z</time></trkpt><trkpt lat="45.831923" lon="11.0496612"><ele>1293.0</ele><time>2026-04-25T11:28:24.249Z</time></trkpt><trkpt lat="45.8318538" lon="11.0496614"><ele>1293.0</ele><time>2026-04-25T11:28:29.226Z</time></trkpt><trkpt lat="45.8317826" lon="11.0496103"><ele>1293.0</ele><time>2026-04-25T11:28:35.317Z</time></trkpt><trkpt lat="45.8317275" lon="11.0495657"><ele>1293.0</ele><time>2026-04-25T11:28:39.2Z</time></trkpt><trkpt lat="45.831661" lon="11.0495245"><ele>1293.0</ele><time>2026-04-25T11:28:44.198Z</time></trkpt><trkpt lat="45.8315943" lon="11.0494946"><ele>1293.0</ele><time>2026-04-25T11:28:49.21Z</time></trkpt><trkpt lat="45.8315289" lon="11.0494633"><ele>1297.7142857142856</ele><time>2026-04-25T11:28:53.275Z</time></trkpt><trkpt lat="45.8314663" lon="11.0494514"><ele>1302.4285714285716</ele><time>2026-04-25T11:28:57.219Z</time></trkpt><trkpt lat="45.8314008" lon="11.0494485"><ele>1307.142857142857</ele><time>2026-04-25T11:29:01.199Z</time></trkpt><trkpt lat="45.8313379" lon="11.0494533"><ele>1311.8571428571427</ele><time>2026-04-25T11:29:05.204Z</time></trkpt><trkpt lat="45.8312636" lon="11.0494797"><ele>1316.5714285714284</ele><time>2026-04-25T11:29:10.219Z</time></trkpt><trkpt lat="45.8312063" lon="11.0495378"><ele>1321.2857142857142</ele><time>2026-04-25T11:29:15.2Z</time></trkpt><trkpt lat="45.8311565" lon="11.0496102"><ele>1326.0</ele><time>2026-04-25T11:29:20.2Z</time></trkpt><trkpt lat="45.8311062" lon="11.0496816"><ele>1325.9999999999998</ele><time>2026-04-25T11:29:26.208Z</time></trkpt><trkpt lat="45.8310561" lon="11.0497499"><ele>1326.0</ele><time>2026-04-25T11:29:31.279Z</time></trkpt><trkpt lat="45.8310018" lon="11.0498077"><ele>1326.0</ele><time>2026-04-25T11:29:35.217Z</time></trkpt><trkpt lat="45.8309444" lon="11.0498841"><ele>1326.0</ele><time>2026-04-25T11:29:52.247Z</time></trkpt><trkpt lat="45.8308939" lon="11.0499492"><ele>1326.0</ele><time>2026-04-25T11:30:09.202Z</time></trkpt><trkpt lat="45.8308634" lon="11.0500366"><ele>1325.9999999999998</ele><time>2026-04-25T11:30:13.232Z</time></trkpt><trkpt lat="45.8308244" lon="11.0501304"><ele>1326.0</ele><time>2026-04-25T11:30:17.202Z</time></trkpt><trkpt lat="45.8307911" lon="11.0502386"><ele>1329.142857142857</ele><time>2026-04-25T11:30:21.212Z</time></trkpt><trkpt lat="45.8307366" lon="11.0503189"><ele>1332.2857142857142</ele><time>2026-04-25T11:30:25.209Z</time></trkpt><trkpt lat="45.830683" lon="11.0503706"><ele>1335.4285714285716</ele><time>2026-04-25T11:30:29.208Z</time></trkpt><trkpt lat="45.8306527" lon="11.0504619"><ele>1338.5714285714284</ele><time>2026-04-25T11:30:33.204Z</time></trkpt><trkpt lat="45.8306175" lon="11.0505472"><ele>1341.7142857142858</ele><time>2026-04-25T11:30:37.201Z</time></trkpt><trkpt lat="45.8305628" lon="11.0506197"><ele>1344.857142857143</ele><time>2026-04-25T11:30:41.321Z</time></trkpt><trkpt lat="45.8305227" lon="11.0507103"><ele>1348.0</ele><time>2026-04-25T11:30:45.217Z</time></trkpt><trkpt lat="45.8304838" lon="11.0508023"><ele>1348.0000000000002</ele><time>2026-04-25T11:30:49.203Z</time></trkpt><trkpt lat="45.8304364" lon="11.0508628"><ele>1348.0</ele><time>2026-04-25T11:30:53.237Z</time></trkpt><trkpt lat="45.8303817" lon="11.050908"><ele>1348.0</ele><time>2026-04-25T11:30:57.2Z</time></trkpt><trkpt lat="45.8303129" lon="11.0509099"><ele>1348.0</ele><time>2026-04-25T11:31:01.255Z</time></trkpt><trkpt lat="45.83024" lon="11.0508997"><ele>1348.0</ele><time>2026-04-25T11:31:06.212Z</time></trkpt><trkpt lat="45.8301603" lon="11.0508986"><ele>1348.0000000000002</ele><time>2026-04-25T11:31:11.201Z</time></trkpt><trkpt lat="45.8300862" lon="11.0508544"><ele>1348.0</ele><time>2026-04-25T11:31:16.255Z</time></trkpt><trkpt lat="45.8300149" lon="11.0508262"><ele>1348.7142857142858</ele><time>2026-04-25T11:31:20.205Z</time></trkpt><trkpt lat="45.8299505" lon="11.0507759"><ele>1349.4285714285716</ele><time>2026-04-25T11:31:24.242Z</time></trkpt><trkpt lat="45.8298987" lon="11.0507187"><ele>1350.1428571428573</ele><time>2026-04-25T11:31:28.2Z</time></trkpt><trkpt lat="45.8298387" lon="11.0506535"><ele>1350.857142857143</ele><time>2026-04-25T11:31:32.203Z</time></trkpt><trkpt lat="45.8297827" lon="11.0506042"><ele>1351.5714285714284</ele><time>2026-04-25T11:31:36.256Z</time></trkpt><trkpt lat="45.8297204" lon="11.0505817"><ele>1352.2857142857144</ele><time>2026-04-25T11:31:40.202Z</time></trkpt><trkpt lat="45.8296452" lon="11.0505739"><ele>1353.0</ele><time>2026-04-25T11:31:44.212Z</time></trkpt><trkpt lat="45.8295687" lon="11.0505407"><ele>1353.0</ele><time>2026-04-25T11:31:48.215Z</time></trkpt><trkpt lat="45.8294937" lon="11.0505209"><ele>1353.0</ele><time>2026-04-25T11:31:53.208Z</time></trkpt><trkpt lat="45.8294301" lon="11.050508"><ele>1353.0</ele><time>2026-04-25T11:31:57.241Z</time></trkpt><trkpt lat="45.8293583" lon="11.0505263"><ele>1353.0</ele><time>2026-04-25T11:32:01.219Z</time></trkpt><trkpt lat="45.8292907" lon="11.0505234"><ele>1353.0</ele><time>2026-04-25T11:32:06.239Z</time></trkpt><trkpt lat="45.8292148" lon="11.050521"><ele>1353.0</ele><time>2026-04-25T11:32:11.208Z</time></trkpt><trkpt lat="45.8291483" lon="11.0505195"><ele>1353.0</ele><time>2026-04-25T11:32:15.208Z</time></trkpt><trkpt lat="45.8290795" lon="11.050506"><ele>1353.7142857142858</ele><time>2026-04-25T11:32:20.243Z</time></trkpt><trkpt lat="45.8290149" lon="11.0504886"><ele>1354.4285714285713</ele><time>2026-04-25T11:32:25.216Z</time></trkpt><trkpt lat="45.8289553" lon="11.0504566"><ele>1355.142857142857</ele><time>2026-04-25T11:32:29.212Z</time></trkpt><trkpt lat="45.8288933" lon="11.0504317"><ele>1355.857142857143</ele><time>2026-04-25T11:32:34.238Z</time></trkpt><trkpt lat="45.8288225" lon="11.0504168"><ele>1356.5714285714284</ele><time>2026-04-25T11:32:38.206Z</time></trkpt><trkpt lat="45.8287478" lon="11.0504278"><ele>1357.2857142857142</ele><time>2026-04-25T11:32:42.213Z</time></trkpt><trkpt lat="45.8286776" lon="11.0503991"><ele>1358.0</ele><time>2026-04-25T11:32:46.208Z</time></trkpt><trkpt lat="45.8286146" lon="11.0503774"><ele>1358.0</ele><time>2026-04-25T11:32:50.221Z</time></trkpt><trkpt lat="45.8285554" lon="11.0504132"><ele>1358.0</ele><time>2026-04-25T11:32:55.207Z</time></trkpt><trkpt lat="45.8284839" lon="11.0504232"><ele>1358.0</ele><time>2026-04-25T11:33:00.222Z</time></trkpt><trkpt lat="45.8284176" lon="11.0504021"><ele>1358.0</ele><time>2026-04-25T11:33:05.217Z</time></trkpt><trkpt lat="45.8283349" lon="11.0503808"><ele>1358.0</ele><time>2026-04-25T11:33:10.217Z</time></trkpt><trkpt lat="45.8282607" lon="11.0503624"><ele>1358.0</ele><time>2026-04-25T11:33:14.194Z</time></trkpt><trkpt lat="45.8281943" lon="11.0503327"><ele>1358.0</ele><time>2026-04-25T11:33:18.219Z</time></trkpt><trkpt lat="45.8281305" lon="11.0503076"><ele>1358.7142857142858</ele><time>2026-04-25T11:33:22.218Z</time></trkpt><trkpt lat="45.8280576" lon="11.0502867"><ele>1359.4285714285716</ele><time>2026-04-25T11:33:27.207Z</time></trkpt><trkpt lat="45.8279869" lon="11.0503142"><ele>1360.142857142857</ele><time>2026-04-25T11:33:32.205Z</time></trkpt><trkpt lat="45.8279334" lon="11.0503696"><ele>1360.857142857143</ele><time>2026-04-25T11:33:39.211Z</time></trkpt><trkpt lat="45.82794" lon="11.050466"><ele>1361.5714285714287</ele><time>2026-04-25T11:33:45.202Z</time></trkpt><trkpt lat="45.8279138" lon="11.0505525"><ele>1362.2857142857142</ele><time>2026-04-25T11:33:49.232Z</time></trkpt><trkpt lat="45.8278996" lon="11.0506514"><ele>1363.0</ele><time>2026-04-25T11:33:54.205Z</time></trkpt><trkpt lat="45.8279244" lon="11.0507352"><ele>1366.0</ele><time>2026-04-25T11:33:58.216Z</time></trkpt><trkpt lat="45.8279624" lon="11.0508139"><ele>1369.0</ele><time>2026-04-25T11:34:03.21Z</time></trkpt><trkpt lat="45.8280266" lon="11.0508629"><ele>1372.0</ele><time>2026-04-25T11:34:08.215Z</time></trkpt><trkpt lat="45.8280978" lon="11.0508624"><ele>1375.0</ele><time>2026-04-25T11:34:13.212Z</time></trkpt><trkpt lat="45.8281689" lon="11.0508974"><ele>1378.0</ele><time>2026-04-25T11:34:18.222Z</time></trkpt><trkpt lat="45.828227" lon="11.0509431"><ele>1381.0</ele><time>2026-04-25T11:34:23.229Z</time></trkpt><trkpt lat="45.8282868" lon="11.051"><ele>1384.0</ele><time>2026-04-25T11:34:28.207Z</time></trkpt><trkpt lat="45.8283507" lon="11.0510544"><ele>1384.0</ele><time>2026-04-25T11:34:34.209Z</time></trkpt><trkpt lat="45.8283964" lon="11.0511182"><ele>1384.0</ele><time>2026-04-25T11:34:38.219Z</time></trkpt><trkpt lat="45.8284207" lon="11.0512103"><ele>1384.0</ele><time>2026-04-25T11:34:42.216Z</time></trkpt><trkpt lat="45.8284917" lon="11.0512657"><ele>1384.0</ele><time>2026-04-25T11:34:48.247Z</time></trkpt><trkpt lat="45.8285192" lon="11.0513498"><ele>1384.0</ele><time>2026-04-25T11:34:53.235Z</time></trkpt><trkpt lat="45.8285457" lon="11.0514492"><ele>1384.0</ele><time>2026-04-25T11:34:59.216Z</time></trkpt><trkpt lat="45.8285351" lon="11.0515511"><ele>1384.0</ele><time>2026-04-25T11:35:04.257Z</time></trkpt><trkpt lat="45.828487" lon="11.0516327"><ele>1384.4285714285713</ele><time>2026-04-25T11:35:10.209Z</time></trkpt><trkpt lat="45.828422" lon="11.0516788"><ele>1384.857142857143</ele><time>2026-04-25T11:35:16.219Z</time></trkpt><trkpt lat="45.8283562" lon="11.0517251"><ele>1385.2857142857142</ele><time>2026-04-25T11:35:21.204Z</time></trkpt><trkpt lat="45.8282898" lon="11.0517541"><ele>1385.7142857142858</ele><time>2026-04-25T11:35:27.313Z</time></trkpt><trkpt lat="45.8282268" lon="11.0517336"><ele>1386.142857142857</ele><time>2026-04-25T11:35:32.214Z</time></trkpt><trkpt lat="45.8281729" lon="11.0516744"><ele>1386.5714285714287</ele><time>2026-04-25T11:35:46.202Z</time></trkpt><trkpt lat="45.8281979" lon="11.0517595"><ele>1387.0</ele><time>2026-04-25T11:36:04.205Z</time></trkpt><trkpt lat="45.8281562" lon="11.0516607"><ele>1387.0</ele><time>2026-04-25T11:40:38.217Z</time></trkpt><trkpt lat="45.8280678" lon="11.0516481"><ele>1387.0</ele><time>2026-04-25T11:40:55.235Z</time></trkpt><trkpt lat="45.8279991" lon="11.0516435"><ele>1387.0</ele><time>2026-04-25T11:40:59.213Z</time></trkpt><trkpt lat="45.8279264" lon="11.0516373"><ele>1387.0</ele><time>2026-04-25T11:41:04.257Z</time></trkpt><trkpt lat="45.8278562" lon="11.0516334"><ele>1387.0</ele><time>2026-04-25T11:41:10.2Z</time></trkpt><trkpt lat="45.8277867" lon="11.0516321"><ele>1387.0</ele><time>2026-04-25T11:41:16.215Z</time></trkpt><trkpt lat="45.8277242" lon="11.0516122"><ele>1387.0</ele><time>2026-04-25T11:41:20.205Z</time></trkpt><trkpt lat="45.8276493" lon="11.051595"><ele>1387.2857142857142</ele><time>2026-04-25T11:41:25.215Z</time></trkpt><trkpt lat="45.8275819" lon="11.051578"><ele>1387.5714285714284</ele><time>2026-04-25T11:41:30.223Z</time></trkpt><trkpt lat="45.8275126" lon="11.051551"><ele>1387.8571428571427</ele><time>2026-04-25T11:41:35.201Z</time></trkpt><trkpt lat="45.8274514" lon="11.0515177"><ele>1388.142857142857</ele><time>2026-04-25T11:41:40.215Z</time></trkpt><trkpt lat="45.8274004" lon="11.0514485"><ele>1388.4285714285713</ele><time>2026-04-25T11:41:45.205Z</time></trkpt><trkpt lat="45.8273576" lon="11.0513613"><ele>1388.7142857142856</ele><time>2026-04-25T11:41:52.205Z</time></trkpt><trkpt lat="45.8273274" lon="11.0512621"><ele>1389.0</ele><time>2026-04-25T11:41:58.26Z</time></trkpt><trkpt lat="45.8273019" lon="11.0511698"><ele>1388.9999999999998</ele><time>2026-04-25T11:42:03.235Z</time></trkpt><trkpt lat="45.8272594" lon="11.0510936"><ele>1389.0</ele><time>2026-04-25T11:42:08.242Z</time></trkpt><trkpt lat="45.8271891" lon="11.0510446"><ele>1389.0</ele><time>2026-04-25T11:42:13.22Z</time></trkpt><trkpt lat="45.8271168" lon="11.051021"><ele>1389.0</ele><time>2026-04-25T11:42:17.213Z</time></trkpt><trkpt lat="45.8270484" lon="11.0510405"><ele>1389.0</ele><time>2026-04-25T11:42:21.248Z</time></trkpt><trkpt lat="45.8270028" lon="11.0511192"><ele>1388.9999999999998</ele><time>2026-04-25T11:42:26.2Z</time></trkpt><trkpt lat="45.8269344" lon="11.0511571"><ele>1389.0</ele><time>2026-04-25T11:42:31.225Z</time></trkpt><trkpt lat="45.8269122" lon="11.0512507"><ele>1388.9999999999998</ele><time>2026-04-25T11:42:35.209Z</time></trkpt><trkpt lat="45.8269189" lon="11.0513577"><ele>1389.0</ele><time>2026-04-25T11:42:40.228Z</time></trkpt><trkpt lat="45.8269268" lon="11.0514669"><ele>1389.0</ele><time>2026-04-25T11:42:45.209Z</time></trkpt><trkpt lat="45.8269362" lon="11.0515658"><ele>1389.0</ele><time>2026-04-25T11:42:50.256Z</time></trkpt><trkpt lat="45.826955" lon="11.0516708"><ele>1389.0</ele><time>2026-04-25T11:42:56.244Z</time></trkpt><trkpt lat="45.8269857" lon="11.0517661"><ele>1388.9999999999998</ele><time>2026-04-25T11:43:01.217Z</time></trkpt><trkpt lat="45.8270203" lon="11.0518599"><ele>1389.0</ele><time>2026-04-25T11:43:06.23Z</time></trkpt><trkpt lat="45.8270265" lon="11.0519544"><ele>1390.9999999999998</ele><time>2026-04-25T11:43:11.204Z</time></trkpt><trkpt lat="45.8270193" lon="11.0520572"><ele>1393.0</ele><time>2026-04-25T11:43:17.207Z</time></trkpt><trkpt lat="45.8269925" lon="11.052158"><ele>1395.0</ele><time>2026-04-25T11:43:23.248Z</time></trkpt><trkpt lat="45.8269208" lon="11.0521824"><ele>1397.0</ele><time>2026-04-25T11:43:28.203Z</time></trkpt><trkpt lat="45.8268655" lon="11.0522292"><ele>1399.0</ele><time>2026-04-25T11:43:32.219Z</time></trkpt><trkpt lat="45.8267962" lon="11.0521856"><ele>1400.9999999999998</ele><time>2026-04-25T11:43:37.204Z</time></trkpt><trkpt lat="45.8267549" lon="11.0521023"><ele>1403.0</ele><time>2026-04-25T11:43:41.203Z</time></trkpt><trkpt lat="45.8267403" lon="11.0520085"><ele>1404.142857142857</ele><time>2026-04-25T11:43:45.254Z</time></trkpt><trkpt lat="45.8267279" lon="11.0519166"><ele>1405.2857142857142</ele><time>2026-04-25T11:43:49.205Z</time></trkpt><trkpt lat="45.8266644" lon="11.0518516"><ele>1406.4285714285716</ele><time>2026-04-25T11:43:53.243Z</time></trkpt><trkpt lat="45.8266784" lon="11.0517418"><ele>1407.5714285714284</ele><time>2026-04-25T11:43:57.249Z</time></trkpt><trkpt lat="45.8266112" lon="11.0516989"><ele>1408.7142857142858</ele><time>2026-04-25T11:44:02.209Z</time></trkpt><trkpt lat="45.826549" lon="11.0516644"><ele>1409.857142857143</ele><time>2026-04-25T11:44:08.211Z</time></trkpt><trkpt lat="45.8264796" lon="11.0516728"><ele>1411.0</ele><time>2026-04-25T11:44:13.198Z</time></trkpt><trkpt lat="45.8264158" lon="11.0516691"><ele>1411.0000000000002</ele><time>2026-04-25T11:44:17.201Z</time></trkpt><trkpt lat="45.826341" lon="11.051668"><ele>1411.0</ele><time>2026-04-25T11:44:24.199Z</time></trkpt><trkpt lat="45.8262731" lon="11.0516828"><ele>1411.0</ele><time>2026-04-25T11:44:28.238Z</time></trkpt><trkpt lat="45.8261988" lon="11.0516648"><ele>1411.0</ele><time>2026-04-25T11:44:33.225Z</time></trkpt><trkpt lat="45.8261212" lon="11.0516662"><ele>1411.0</ele><time>2026-04-25T11:44:38.245Z</time></trkpt><trkpt lat="45.8260582" lon="11.0516737"><ele>1411.0000000000002</ele><time>2026-04-25T11:44:42.237Z</time></trkpt><trkpt lat="45.8259881" lon="11.0516893"><ele>1411.0</ele><time>2026-04-25T11:44:47.213Z</time></trkpt><trkpt lat="45.8259246" lon="11.0517338"><ele>1411.0</ele><time>2026-04-25T11:44:52.216Z</time></trkpt><trkpt lat="45.8258804" lon="11.0518266"><ele>1411.0</ele><time>2026-04-25T11:44:57.224Z</time></trkpt><trkpt lat="45.8258659" lon="11.0519238"><ele>1411.0</ele><time>2026-04-25T11:45:01.214Z</time></trkpt><trkpt lat="45.8258779" lon="11.052032"><ele>1411.0</ele><time>2026-04-25T11:45:05.259Z</time></trkpt><trkpt lat="45.8259205" lon="11.0521247"><ele>1411.0</ele><time>2026-04-25T11:45:09.262Z</time></trkpt><trkpt lat="45.8259797" lon="11.0521986"><ele>1411.0</ele><time>2026-04-25T11:45:13.218Z</time></trkpt><trkpt lat="45.8260536" lon="11.0522446"><ele>1411.0000000000002</ele><time>2026-04-25T11:45:17.212Z</time></trkpt><trkpt lat="45.8261281" lon="11.0522598"><ele>1411.0</ele><time>2026-04-25T11:45:21.271Z</time></trkpt><trkpt lat="45.8262026" lon="11.0522646"><ele>1411.0</ele><time>2026-04-25T11:45:25.225Z</time></trkpt><trkpt lat="45.826271" lon="11.0522822"><ele>1411.0</ele><time>2026-04-25T11:45:29.199Z</time></trkpt><trkpt lat="45.8263135" lon="11.0523651"><ele>1411.0</ele><time>2026-04-25T11:45:34.208Z</time></trkpt><trkpt lat="45.8262385" lon="11.0523802"><ele>1411.0000000000002</ele><time>2026-04-25T11:45:39.213Z</time></trkpt><trkpt lat="45.8261745" lon="11.0523654"><ele>1411.0</ele><time>2026-04-25T11:45:43.215Z</time></trkpt><trkpt lat="45.8261081" lon="11.0523458"><ele>1411.0000000000002</ele><time>2026-04-25T11:45:47.229Z</time></trkpt><trkpt lat="45.8260411" lon="11.0523217"><ele>1411.0</ele><time>2026-04-25T11:45:51.217Z</time></trkpt><trkpt lat="45.8259686" lon="11.0522922"><ele>1411.0</ele><time>2026-04-25T11:45:55.215Z</time></trkpt><trkpt lat="45.8259107" lon="11.0522561"><ele>1411.0</ele><time>2026-04-25T11:45:59.199Z</time></trkpt><trkpt lat="45.8258426" lon="11.0522077"><ele>1411.0</ele><time>2026-04-25T11:46:04.209Z</time></trkpt><trkpt lat="45.825792" lon="11.0521516"><ele>1411.0000000000002</ele><time>2026-04-25T11:46:08.206Z</time></trkpt><trkpt lat="45.8257462" lon="11.0520767"><ele>1411.0</ele><time>2026-04-25T11:46:13.23Z</time></trkpt><trkpt lat="45.8256844" lon="11.0520179"><ele>1411.4285714285716</ele><time>2026-04-25T11:46:18.212Z</time></trkpt><trkpt lat="45.8256226" lon="11.0519973"><ele>1411.857142857143</ele><time>2026-04-25T11:46:23.25Z</time></trkpt><trkpt lat="45.8255441" lon="11.0519695"><ele>1412.2857142857142</ele><time>2026-04-25T11:46:28.219Z</time></trkpt><trkpt lat="45.8254789" lon="11.0519607"><ele>1412.7142857142858</ele><time>2026-04-25T11:46:32.225Z</time></trkpt><trkpt lat="45.8254068" lon="11.0520005"><ele>1413.142857142857</ele><time>2026-04-25T11:46:37.234Z</time></trkpt><trkpt lat="45.8253482" lon="11.0520378"><ele>1413.5714285714287</ele><time>2026-04-25T11:46:41.239Z</time></trkpt><trkpt lat="45.8252795" lon="11.052073"><ele>1414.0</ele><time>2026-04-25T11:46:46.068Z</time></trkpt><trkpt lat="45.8252134" lon="11.0520978"><ele>1414.0</ele><time>2026-04-25T11:46:49.212Z</time></trkpt><trkpt lat="45.8251466" lon="11.0521168"><ele>1414.0</ele><time>2026-04-25T11:46:54.198Z</time></trkpt><trkpt lat="45.8250734" lon="11.0521483"><ele>1414.0</ele><time>2026-04-25T11:46:59.199Z</time></trkpt><trkpt lat="45.825006" lon="11.0521386"><ele>1414.0</ele><time>2026-04-25T11:47:04.213Z</time></trkpt><trkpt lat="45.8249269" lon="11.05216"><ele>1414.0</ele><time>2026-04-25T11:47:09.211Z</time></trkpt><trkpt lat="45.824861" lon="11.0522116"><ele>1414.0</ele><time>2026-04-25T11:47:14.199Z</time></trkpt><trkpt lat="45.8248054" lon="11.0522725"><ele>1414.0</ele><time>2026-04-25T11:47:19.206Z</time></trkpt><trkpt lat="45.8247357" lon="11.0522907"><ele>1413.3333333333333</ele><time>2026-04-25T11:47:23.202Z</time></trkpt><trkpt lat="45.824666" lon="11.0523174"><ele>1412.6666666666665</ele><time>2026-04-25T11:47:29.2Z</time></trkpt><trkpt lat="45.8245965" lon="11.0523426"><ele>1412.0</ele><time>2026-04-25T11:47:35.227Z</time></trkpt><trkpt lat="45.8245093" lon="11.0523731"><ele>1411.3333333333333</ele><time>2026-04-25T11:47:41.206Z</time></trkpt><trkpt lat="45.8244413" lon="11.0523976"><ele>1410.6666666666667</ele><time>2026-04-25T11:47:45.246Z</time></trkpt><trkpt lat="45.8243694" lon="11.052428"><ele>1410.0</ele><time>2026-04-25T11:47:50.247Z</time></trkpt><trkpt lat="45.8242965" lon="11.052468"><ele>1413.5714285714284</ele><time>2026-04-25T11:47:56.234Z</time></trkpt><trkpt lat="45.8242218" lon="11.0525012"><ele>1417.142857142857</ele><time>2026-04-25T11:48:01.232Z</time></trkpt><trkpt lat="45.824158" lon="11.0525186"><ele>1420.7142857142858</ele><time>2026-04-25T11:48:05.226Z</time></trkpt><trkpt lat="45.8240867" lon="11.0525491"><ele>1424.2857142857142</ele><time>2026-04-25T11:48:10.242Z</time></trkpt><trkpt lat="45.8240171" lon="11.0525725"><ele>1427.857142857143</ele><time>2026-04-25T11:48:15.252Z</time></trkpt><trkpt lat="45.8239441" lon="11.0526008"><ele>1431.4285714285713</ele><time>2026-04-25T11:48:20.25Z</time></trkpt><trkpt lat="45.8238771" lon="11.0526438"><ele>1435.0</ele><time>2026-04-25T11:48:25.226Z</time></trkpt><trkpt lat="45.8238122" lon="11.052639"><ele>1435.0</ele><time>2026-04-25T11:48:29.209Z</time></trkpt><trkpt lat="45.8237419" lon="11.0526637"><ele>1435.0</ele><time>2026-04-25T11:48:34.203Z</time></trkpt><trkpt lat="45.8236799" lon="11.0527114"><ele>1435.0</ele><time>2026-04-25T11:48:39.208Z</time></trkpt><trkpt lat="45.8236153" lon="11.0527712"><ele>1435.0</ele><time>2026-04-25T11:48:44.22Z</time></trkpt><trkpt lat="45.8235583" lon="11.0528157"><ele>1435.0</ele><time>2026-04-25T11:48:48.211Z</time></trkpt><trkpt lat="45.8234933" lon="11.0528529"><ele>1435.0</ele><time>2026-04-25T11:48:52.282Z</time></trkpt><trkpt lat="45.8234313" lon="11.0528757"><ele>1435.0</ele><time>2026-04-25T11:48:56.199Z</time></trkpt><trkpt lat="45.8233592" lon="11.0528958"><ele>1436.4285714285713</ele><time>2026-04-25T11:49:01.216Z</time></trkpt><trkpt lat="45.8232879" lon="11.052885"><ele>1437.857142857143</ele><time>2026-04-25T11:49:07.212Z</time></trkpt><trkpt lat="45.823235" lon="11.0528319"><ele>1439.2857142857142</ele><time>2026-04-25T11:49:15.202Z</time></trkpt><trkpt lat="45.8231898" lon="11.0527641"><ele>1440.7142857142858</ele><time>2026-04-25T11:49:21.209Z</time></trkpt><trkpt lat="45.8231294" lon="11.0527033"><ele>1442.142857142857</ele><time>2026-04-25T11:49:28.21Z</time></trkpt><trkpt lat="45.8230732" lon="11.0526429"><ele>1443.5714285714284</ele><time>2026-04-25T11:49:34.214Z</time></trkpt><trkpt lat="45.8230098" lon="11.0525938"><ele>1445.0</ele><time>2026-04-25T11:49:39.208Z</time></trkpt><trkpt lat="45.8229507" lon="11.0525414"><ele>1444.9999999999998</ele><time>2026-04-25T11:49:44.2Z</time></trkpt><trkpt lat="45.8228705" lon="11.0525011"><ele>1445.0</ele><time>2026-04-25T11:49:48.23Z</time></trkpt><trkpt lat="45.8228002" lon="11.052479"><ele>1445.0</ele><time>2026-04-25T11:49:52.204Z</time></trkpt><trkpt lat="45.8227344" lon="11.0524517"><ele>1445.0</ele><time>2026-04-25T11:49:57.22Z</time></trkpt><trkpt lat="45.8226718" lon="11.052439"><ele>1445.0</ele><time>2026-04-25T11:50:01.252Z</time></trkpt><trkpt lat="45.8225963" lon="11.0524178"><ele>1444.9999999999998</ele><time>2026-04-25T11:50:07.234Z</time></trkpt><trkpt lat="45.8225234" lon="11.0524155"><ele>1445.0</ele><time>2026-04-25T11:50:11.208Z</time></trkpt><trkpt lat="45.8224553" lon="11.0524302"><ele>1445.142857142857</ele><time>2026-04-25T11:50:15.215Z</time></trkpt><trkpt lat="45.8223889" lon="11.0524266"><ele>1445.2857142857142</ele><time>2026-04-25T11:50:18.215Z</time></trkpt><trkpt lat="45.822323" lon="11.0524576"><ele>1445.4285714285716</ele><time>2026-04-25T11:50:22.254Z</time></trkpt><trkpt lat="45.8222509" lon="11.0524808"><ele>1445.5714285714284</ele><time>2026-04-25T11:50:26.219Z</time></trkpt><trkpt lat="45.8221814" lon="11.0525287"><ele>1445.7142857142858</ele><time>2026-04-25T11:50:31.244Z</time></trkpt><trkpt lat="45.822115" lon="11.0525503"><ele>1445.857142857143</ele><time>2026-04-25T11:50:36.261Z</time></trkpt><trkpt lat="45.8220494" lon="11.0525898"><ele>1446.0</ele><time>2026-04-25T11:50:40.23Z</time></trkpt><trkpt lat="45.8219904" lon="11.0526401"><ele>1447.857142857143</ele><time>2026-04-25T11:50:44.258Z</time></trkpt><trkpt lat="45.8219192" lon="11.0526657"><ele>1449.7142857142858</ele><time>2026-04-25T11:50:49.212Z</time></trkpt><trkpt lat="45.8218561" lon="11.0527047"><ele>1451.5714285714284</ele><time>2026-04-25T11:50:53.257Z</time></trkpt><trkpt lat="45.8217921" lon="11.0527387"><ele>1453.4285714285716</ele><time>2026-04-25T11:50:57.244Z</time></trkpt><trkpt lat="45.8217381" lon="11.0527895"><ele>1455.2857142857142</ele><time>2026-04-25T11:51:01.216Z</time></trkpt><trkpt lat="45.8216835" lon="11.052838"><ele>1457.142857142857</ele><time>2026-04-25T11:51:05.212Z</time></trkpt><trkpt lat="45.8216286" lon="11.0529006"><ele>1459.0</ele><time>2026-04-25T11:51:09.242Z</time></trkpt><trkpt lat="45.821564" lon="11.0529409"><ele>1459.4285714285713</ele><time>2026-04-25T11:51:13.223Z</time></trkpt><trkpt lat="45.8214999" lon="11.0529638"><ele>1459.857142857143</ele><time>2026-04-25T11:51:17.265Z</time></trkpt><trkpt lat="45.8214291" lon="11.0530102"><ele>1460.2857142857142</ele><time>2026-04-25T11:51:22.221Z</time></trkpt><trkpt lat="45.8213759" lon="11.0530744"><ele>1460.7142857142858</ele><time>2026-04-25T11:51:26.253Z</time></trkpt><trkpt lat="45.82132" lon="11.0531214"><ele>1461.142857142857</ele><time>2026-04-25T11:51:30.267Z</time></trkpt><trkpt lat="45.8212535" lon="11.0531537"><ele>1461.5714285714284</ele><time>2026-04-25T11:51:34.217Z</time></trkpt><trkpt lat="45.8211751" lon="11.0531946"><ele>1462.0</ele><time>2026-04-25T11:51:39.216Z</time></trkpt><trkpt lat="45.8211134" lon="11.0532393"><ele>1462.0</ele><time>2026-04-25T11:51:44.218Z</time></trkpt><trkpt lat="45.8210396" lon="11.0532595"><ele>1462.0</ele><time>2026-04-25T11:51:49.208Z</time></trkpt><trkpt lat="45.8209723" lon="11.0532526"><ele>1462.0</ele><time>2026-04-25T11:51:54.213Z</time></trkpt><trkpt lat="45.8209136" lon="11.0531957"><ele>1462.0</ele><time>2026-04-25T11:52:01.215Z</time></trkpt><trkpt lat="45.820843" lon="11.0531444"><ele>1462.0</ele><time>2026-04-25T11:52:05.204Z</time></trkpt><trkpt lat="45.8207871" lon="11.0531013"><ele>1462.0</ele><time>2026-04-25T11:52:08.211Z</time></trkpt><trkpt lat="45.8207128" lon="11.0530586"><ele>1462.0</ele><time>2026-04-25T11:52:12.218Z</time></trkpt><trkpt lat="45.8206505" lon="11.0530166"><ele>1462.6666666666665</ele><time>2026-04-25T11:52:15.209Z</time></trkpt><trkpt lat="45.8205797" lon="11.0529805"><ele>1463.3333333333333</ele><time>2026-04-25T11:52:18.225Z</time></trkpt><trkpt lat="45.8205118" lon="11.0529355"><ele>1464.0</ele><time>2026-04-25T11:52:21.221Z</time></trkpt><trkpt lat="45.8204436" lon="11.0528778"><ele>1464.6666666666667</ele><time>2026-04-25T11:52:24.234Z</time></trkpt><trkpt lat="45.8203692" lon="11.052823"><ele>1465.3333333333335</ele><time>2026-04-25T11:52:27.21Z</time></trkpt><trkpt lat="45.8202893" lon="11.0527725"><ele>1466.0</ele><time>2026-04-25T11:52:30.252Z</time></trkpt><trkpt lat="45.8202075" lon="11.0527277"><ele>1467.6666666666667</ele><time>2026-04-25T11:52:33.208Z</time></trkpt><trkpt lat="45.820125" lon="11.0526833"><ele>1469.3333333333335</ele><time>2026-04-25T11:52:36.227Z</time></trkpt><trkpt lat="45.8200443" lon="11.0526377"><ele>1471.0</ele><time>2026-04-25T11:52:39.211Z</time></trkpt><trkpt lat="45.819971" lon="11.0526071"><ele>1472.6666666666667</ele><time>2026-04-25T11:52:42.209Z</time></trkpt><trkpt lat="45.8198945" lon="11.0525839"><ele>1474.3333333333333</ele><time>2026-04-25T11:52:45.204Z</time></trkpt><trkpt lat="45.8198275" lon="11.052566"><ele>1476.0</ele><time>2026-04-25T11:52:48.216Z</time></trkpt><trkpt lat="45.8197615" lon="11.0525583"><ele>1476.0</ele><time>2026-04-25T11:52:52.211Z</time></trkpt><trkpt lat="45.8196856" lon="11.052543"><ele>1476.0</ele><time>2026-04-25T11:52:55.211Z</time></trkpt><trkpt lat="45.8196107" lon="11.0525314"><ele>1476.0</ele><time>2026-04-25T11:52:58.211Z</time></trkpt><trkpt lat="45.8195324" lon="11.0525389"><ele>1476.0</ele><time>2026-04-25T11:53:01.21Z</time></trkpt><trkpt lat="45.8194668" lon="11.0525448"><ele>1476.0</ele><time>2026-04-25T11:53:04.214Z</time></trkpt><trkpt lat="45.819388" lon="11.0525459"><ele>1476.0</ele><time>2026-04-25T11:53:08.215Z</time></trkpt><trkpt lat="45.8193083" lon="11.0525448"><ele>1477.7142857142858</ele><time>2026-04-25T11:53:12.201Z</time></trkpt><trkpt lat="45.8192329" lon="11.0525542"><ele>1479.4285714285713</ele><time>2026-04-25T11:53:16.212Z</time></trkpt><trkpt lat="45.81917" lon="11.0525638"><ele>1481.1428571428573</ele><time>2026-04-25T11:53:20.269Z</time></trkpt><trkpt lat="45.819097" lon="11.052583"><ele>1482.857142857143</ele><time>2026-04-25T11:53:24.216Z</time></trkpt><trkpt lat="45.819035" lon="11.0526003"><ele>1484.5714285714287</ele><time>2026-04-25T11:53:28.211Z</time></trkpt><trkpt lat="45.8189645" lon="11.0526041"><ele>1486.2857142857144</ele><time>2026-04-25T11:53:33.216Z</time></trkpt><trkpt lat="45.8188906" lon="11.0525929"><ele>1488.0</ele><time>2026-04-25T11:53:37.207Z</time></trkpt><trkpt lat="45.8188195" lon="11.0525754"><ele>1488.0000000000002</ele><time>2026-04-25T11:53:42.218Z</time></trkpt><trkpt lat="45.8187547" lon="11.0525801"><ele>1488.0</ele><time>2026-04-25T11:53:46.208Z</time></trkpt><trkpt lat="45.818689" lon="11.0525664"><ele>1488.0</ele><time>2026-04-25T11:53:50.227Z</time></trkpt><trkpt lat="45.8186398" lon="11.0525033"><ele>1488.0</ele><time>2026-04-25T11:53:55.215Z</time></trkpt><trkpt lat="45.8185719" lon="11.0524775"><ele>1488.0</ele><time>2026-04-25T11:54:00.249Z</time></trkpt><trkpt lat="45.8185005" lon="11.0524425"><ele>1488.0000000000002</ele><time>2026-04-25T11:54:05.212Z</time></trkpt><trkpt lat="45.8184276" lon="11.0524219"><ele>1488.0</ele><time>2026-04-25T11:54:10.212Z</time></trkpt><trkpt lat="45.8183562" lon="11.0524263"><ele>1489.4285714285716</ele><time>2026-04-25T11:54:15.214Z</time></trkpt><trkpt lat="45.8182873" lon="11.0524815"><ele>1490.857142857143</ele><time>2026-04-25T11:54:20.211Z</time></trkpt><trkpt lat="45.8182351" lon="11.0525359"><ele>1492.2857142857142</ele><time>2026-04-25T11:54:23.212Z</time></trkpt><trkpt lat="45.8181703" lon="11.0526085"><ele>1493.7142857142858</ele><time>2026-04-25T11:54:27.21Z</time></trkpt><trkpt lat="45.8181073" lon="11.0526447"><ele>1495.142857142857</ele><time>2026-04-25T11:54:31.205Z</time></trkpt><trkpt lat="45.8180564" lon="11.0527118"><ele>1496.5714285714287</ele><time>2026-04-25T11:54:35.215Z</time></trkpt><trkpt lat="45.8179948" lon="11.0527728"><ele>1498.0</ele><time>2026-04-25T11:54:39.229Z</time></trkpt><trkpt lat="45.8179349" lon="11.0528174"><ele>1498.0</ele><time>2026-04-25T11:54:43.215Z</time></trkpt><trkpt lat="45.8178786" lon="11.0528673"><ele>1498.0</ele><time>2026-04-25T11:54:47.228Z</time></trkpt><trkpt lat="45.8178169" lon="11.0529037"><ele>1498.0</ele><time>2026-04-25T11:54:51.21Z</time></trkpt><trkpt lat="45.817749" lon="11.0529096"><ele>1498.0</ele><time>2026-04-25T11:54:56.229Z</time></trkpt><trkpt lat="45.8176855" lon="11.0529321"><ele>1498.0</ele><time>2026-04-25T11:55:00.201Z</time></trkpt><trkpt lat="45.8176015" lon="11.0529406"><ele>1498.0</ele><time>2026-04-25T11:55:08.216Z</time></trkpt><trkpt lat="45.8175273" lon="11.0529397"><ele>1498.0</ele><time>2026-04-25T11:55:13.215Z</time></trkpt><trkpt lat="45.8174529" lon="11.0529335"><ele>1499.0</ele><time>2026-04-25T11:55:17.205Z</time></trkpt><trkpt lat="45.8173862" lon="11.052941"><ele>1500.0</ele><time>2026-04-25T11:55:23.201Z</time></trkpt><trkpt lat="45.8173212" lon="11.0529498"><ele>1501.0</ele><time>2026-04-25T11:55:28.218Z</time></trkpt><trkpt lat="45.8172437" lon="11.0529491"><ele>1502.0</ele><time>2026-04-25T11:55:33.229Z</time></trkpt><trkpt lat="45.8171745" lon="11.0529735"><ele>1503.0</ele><time>2026-04-25T11:55:39.197Z</time></trkpt><trkpt lat="45.8171002" lon="11.053009"><ele>1504.0</ele><time>2026-04-25T11:55:44.218Z</time></trkpt><trkpt lat="45.8170086" lon="11.0530274"><ele>1504.0</ele><time>2026-04-25T11:55:50.219Z</time></trkpt><trkpt lat="45.8169342" lon="11.0530639"><ele>1504.0</ele><time>2026-04-25T11:55:53.242Z</time></trkpt><trkpt lat="45.8168602" lon="11.0530833"><ele>1504.0</ele><time>2026-04-25T11:55:57.22Z</time></trkpt><trkpt lat="45.8167857" lon="11.0530884"><ele>1504.0</ele><time>2026-04-25T11:56:01.26Z</time></trkpt><trkpt lat="45.816725" lon="11.0530571"><ele>1504.0</ele><time>2026-04-25T11:56:06.209Z</time></trkpt><trkpt lat="45.8166442" lon="11.0530547"><ele>1504.0</ele><time>2026-04-25T11:56:15.211Z</time></trkpt><trkpt lat="45.8165665" lon="11.0530764"><ele>1504.7142857142858</ele><time>2026-04-25T11:56:20.253Z</time></trkpt><trkpt lat="45.8165001" lon="11.0530947"><ele>1505.4285714285713</ele><time>2026-04-25T11:56:24.219Z</time></trkpt><trkpt lat="45.8164259" lon="11.0531209"><ele>1506.1428571428573</ele><time>2026-04-25T11:56:28.219Z</time></trkpt><trkpt lat="45.8163633" lon="11.0531666"><ele>1506.857142857143</ele><time>2026-04-25T11:56:31.212Z</time></trkpt><trkpt lat="45.8163032" lon="11.0532085"><ele>1507.5714285714287</ele><time>2026-04-25T11:56:35.223Z</time></trkpt><trkpt lat="45.8162574" lon="11.0532706"><ele>1508.2857142857144</ele><time>2026-04-25T11:56:38.261Z</time></trkpt><trkpt lat="45.8162251" lon="11.0533523"><ele>1509.0</ele><time>2026-04-25T11:56:42.206Z</time></trkpt><trkpt lat="45.8162256" lon="11.0534507"><ele>1509.7142857142858</ele><time>2026-04-25T11:56:46.255Z</time></trkpt><trkpt lat="45.8162436" lon="11.0535501"><ele>1510.4285714285716</ele><time>2026-04-25T11:56:51.218Z</time></trkpt><trkpt lat="45.816271" lon="11.0536356"><ele>1511.1428571428573</ele><time>2026-04-25T11:56:54.213Z</time></trkpt><trkpt lat="45.8163081" lon="11.0537249"><ele>1511.857142857143</ele><time>2026-04-25T11:56:58.211Z</time></trkpt><trkpt lat="45.8163471" lon="11.0538258"><ele>1512.5714285714284</ele><time>2026-04-25T11:57:01.214Z</time></trkpt><trkpt lat="45.8164125" lon="11.0538775"><ele>1513.2857142857144</ele><time>2026-04-25T11:57:06.265Z</time></trkpt><trkpt lat="45.8164687" lon="11.0539249"><ele>1514.0</ele><time>2026-04-25T11:57:14.263Z</time></trkpt><trkpt lat="45.8165568" lon="11.0539596"><ele>1514.0</ele><time>2026-04-25T11:57:17.218Z</time></trkpt><trkpt lat="45.8166001" lon="11.0540303"><ele>1514.0</ele><time>2026-04-25T11:57:22.249Z</time></trkpt><trkpt lat="45.8166764" lon="11.0540718"><ele>1514.0</ele><time>2026-04-25T11:57:26.212Z</time></trkpt><trkpt lat="45.8167321" lon="11.0541359"><ele>1514.0</ele><time>2026-04-25T11:57:30.248Z</time></trkpt><trkpt lat="45.8168151" lon="11.0542091"><ele>1514.0</ele><time>2026-04-25T11:57:35.213Z</time></trkpt><trkpt lat="45.816889" lon="11.0542587"><ele>1514.0</ele><time>2026-04-25T11:57:39.215Z</time></trkpt><trkpt lat="45.8169643" lon="11.0542906"><ele>1515.142857142857</ele><time>2026-04-25T11:57:44.207Z</time></trkpt><trkpt lat="45.8170326" lon="11.0543111"><ele>1516.2857142857142</ele><time>2026-04-25T11:57:48.202Z</time></trkpt><trkpt lat="45.81711" lon="11.0543323"><ele>1517.4285714285713</ele><time>2026-04-25T11:57:52.211Z</time></trkpt><trkpt lat="45.8171826" lon="11.0543829"><ele>1518.5714285714284</ele><time>2026-04-25T11:57:56.209Z</time></trkpt><trkpt lat="45.8172479" lon="11.0544067"><ele>1519.7142857142858</ele><time>2026-04-25T11:58:01.223Z</time></trkpt><trkpt lat="45.817309" lon="11.0544517"><ele>1520.8571428571427</ele><time>2026-04-25T11:58:05.21Z</time></trkpt><trkpt lat="45.8173737" lon="11.0544837"><ele>1522.0</ele><time>2026-04-25T11:58:10.202Z</time></trkpt><trkpt lat="45.8174355" lon="11.0545265"><ele>1521.9999999999998</ele><time>2026-04-25T11:58:16.249Z</time></trkpt><trkpt lat="45.8175027" lon="11.0545523"><ele>1522.0</ele><time>2026-04-25T11:58:22.214Z</time></trkpt><trkpt lat="45.8175631" lon="11.0546098"><ele>1522.0</ele><time>2026-04-25T11:58:28.205Z</time></trkpt><trkpt lat="45.8176385" lon="11.0546417"><ele>1522.0</ele><time>2026-04-25T11:58:32.233Z</time></trkpt><trkpt lat="45.8177045" lon="11.0546907"><ele>1522.0</ele><time>2026-04-25T11:58:35.21Z</time></trkpt><trkpt lat="45.8177796" lon="11.0547222"><ele>1521.9999999999998</ele><time>2026-04-25T11:58:39.226Z</time></trkpt><trkpt lat="45.8178479" lon="11.0547504"><ele>1522.0</ele><time>2026-04-25T11:58:43.207Z</time></trkpt><trkpt lat="45.8179062" lon="11.0548025"><ele>1521.2857142857142</ele><time>2026-04-25T11:58:47.254Z</time></trkpt><trkpt lat="45.8179654" lon="11.0548697"><ele>1520.5714285714284</ele><time>2026-04-25T11:58:52.21Z</time></trkpt><trkpt lat="45.8179857" lon="11.0549587"><ele>1519.8571428571427</ele><time>2026-04-25T11:58:57.208Z</time></trkpt><trkpt lat="45.8179631" lon="11.0550576"><ele>1519.142857142857</ele><time>2026-04-25T11:59:02.213Z</time></trkpt><trkpt lat="45.817911" lon="11.0551288"><ele>1518.4285714285716</ele><time>2026-04-25T11:59:07.247Z</time></trkpt><trkpt lat="45.8178546" lon="11.0551736"><ele>1517.7142857142856</ele><time>2026-04-25T11:59:11.218Z</time></trkpt><trkpt lat="45.8178138" lon="11.0552476"><ele>1517.0</ele><time>2026-04-25T11:59:15.263Z</time></trkpt><trkpt lat="45.8177796" lon="11.0553343"><ele>1518.6666666666667</ele><time>2026-04-25T11:59:20.218Z</time></trkpt><trkpt lat="45.8177115" lon="11.0553515"><ele>1520.3333333333335</ele><time>2026-04-25T11:59:43.211Z</time></trkpt><trkpt lat="45.8178512" lon="11.0554212"><ele>1522.0</ele><time>2026-04-25T12:01:23.2Z</time></trkpt><trkpt lat="45.8178389" lon="11.0555261"><ele>1523.6666666666667</ele><time>2026-04-25T12:02:08.2Z</time></trkpt><trkpt lat="45.8177765" lon="11.0555811"><ele>1525.3333333333333</ele><time>2026-04-25T12:02:11.207Z</time></trkpt><trkpt lat="45.8177442" lon="11.055675"><ele>1527.0</ele><time>2026-04-25T12:02:15.21Z</time></trkpt><trkpt lat="45.8176951" lon="11.0557566"><ele>1529.5714285714287</ele><time>2026-04-25T12:02:18.204Z</time></trkpt><trkpt lat="45.8176388" lon="11.055828"><ele>1532.1428571428573</ele><time>2026-04-25T12:02:21.202Z</time></trkpt><trkpt lat="45.8175816" lon="11.0558991"><ele>1534.7142857142858</ele><time>2026-04-25T12:02:24.207Z</time></trkpt><trkpt lat="45.817535" lon="11.055979"><ele>1537.2857142857142</ele><time>2026-04-25T12:02:27.205Z</time></trkpt><trkpt lat="45.8174604" lon="11.0560066"><ele>1539.857142857143</ele><time>2026-04-25T12:02:31.208Z</time></trkpt><trkpt lat="45.8174019" lon="11.0560555"><ele>1542.4285714285713</ele><time>2026-04-25T12:02:35.204Z</time></trkpt><trkpt lat="45.8173337" lon="11.0560811"><ele>1545.0</ele><time>2026-04-25T12:02:39.219Z</time></trkpt><trkpt lat="45.8172664" lon="11.0560979"><ele>1545.0</ele><time>2026-04-25T12:02:43.199Z</time></trkpt><trkpt lat="45.8172004" lon="11.0561251"><ele>1545.0</ele><time>2026-04-25T12:02:47.205Z</time></trkpt><trkpt lat="45.8171325" lon="11.0561404"><ele>1545.0</ele><time>2026-04-25T12:02:51.212Z</time></trkpt><trkpt lat="45.8170723" lon="11.0561719"><ele>1545.0</ele><time>2026-04-25T12:02:54.209Z</time></trkpt><trkpt lat="45.8169976" lon="11.0562106"><ele>1545.0</ele><time>2026-04-25T12:02:58.207Z</time></trkpt><trkpt lat="45.8169209" lon="11.0562521"><ele>1545.0</ele><time>2026-04-25T12:03:02.205Z</time></trkpt><trkpt lat="45.8168537" lon="11.0562666"><ele>1545.0</ele><time>2026-04-25T12:03:05.211Z</time></trkpt><trkpt lat="45.8167817" lon="11.056289"><ele>1546.8333333333333</ele><time>2026-04-25T12:03:08.213Z</time></trkpt><trkpt lat="45.8167139" lon="11.0562765"><ele>1548.6666666666665</ele><time>2026-04-25T12:03:12.205Z</time></trkpt><trkpt lat="45.816642" lon="11.0562684"><ele>1550.5</ele><time>2026-04-25T12:03:15.207Z</time></trkpt><trkpt lat="45.8165616" lon="11.0562493"><ele>1552.3333333333333</ele><time>2026-04-25T12:03:19.203Z</time></trkpt><trkpt lat="45.8164777" lon="11.0562592"><ele>1554.1666666666665</ele><time>2026-04-25T12:03:23.214Z</time></trkpt><trkpt lat="45.8163906" lon="11.0563216"><ele>1556.0</ele><time>2026-04-25T12:03:28.207Z</time></trkpt><trkpt lat="45.8163158" lon="11.0563575"><ele>1556.0</ele><time>2026-04-25T12:03:31.213Z</time></trkpt><trkpt lat="45.8162533" lon="11.0563812"><ele>1556.0</ele><time>2026-04-25T12:03:34.214Z</time></trkpt><trkpt lat="45.8161904" lon="11.0564221"><ele>1556.0</ele><time>2026-04-25T12:03:37.207Z</time></trkpt><trkpt lat="45.8161225" lon="11.0564614"><ele>1556.0</ele><time>2026-04-25T12:03:40.203Z</time></trkpt><trkpt lat="45.8160566" lon="11.0565098"><ele>1556.0</ele><time>2026-04-25T12:03:43.204Z</time></trkpt><trkpt lat="45.8159916" lon="11.0565483"><ele>1556.0</ele><time>2026-04-25T12:03:46.204Z</time></trkpt><trkpt lat="45.8159107" lon="11.0565882"><ele>1556.0</ele><time>2026-04-25T12:03:49.2Z</time></trkpt><trkpt lat="45.8158301" lon="11.0566036"><ele>1556.9999999999998</ele><time>2026-04-25T12:03:52.213Z</time></trkpt><trkpt lat="45.8157389" lon="11.0566319"><ele>1558.0</ele><time>2026-04-25T12:03:55.208Z</time></trkpt><trkpt lat="45.8156722" lon="11.0566389"><ele>1559.0</ele><time>2026-04-25T12:03:57.214Z</time></trkpt><trkpt lat="45.8156094" lon="11.0566539"><ele>1560.0</ele><time>2026-04-25T12:03:59.214Z</time></trkpt><trkpt lat="45.8155449" lon="11.0566583"><ele>1560.9999999999998</ele><time>2026-04-25T12:04:01.222Z</time></trkpt><trkpt lat="45.8154634" lon="11.0566609"><ele>1562.0</ele><time>2026-04-25T12:04:04.21Z</time></trkpt><trkpt lat="45.8153774" lon="11.0566732"><ele>1562.0</ele><time>2026-04-25T12:04:07.21Z</time></trkpt><trkpt lat="45.8153007" lon="11.0566701"><ele>1562.0</ele><time>2026-04-25T12:04:10.201Z</time></trkpt><trkpt lat="45.8152284" lon="11.0566532"><ele>1562.0</ele><time>2026-04-25T12:04:13.208Z</time></trkpt><trkpt lat="45.8151557" lon="11.0566607"><ele>1562.0</ele><time>2026-04-25T12:04:16.21Z</time></trkpt><trkpt lat="45.8150843" lon="11.0566771"><ele>1562.0</ele><time>2026-04-25T12:04:19.2Z</time></trkpt><trkpt lat="45.8150169" lon="11.0566957"><ele>1562.0</ele><time>2026-04-25T12:04:22.217Z</time></trkpt><trkpt lat="45.8149525" lon="11.0567122"><ele>1562.0</ele><time>2026-04-25T12:04:25.211Z</time></trkpt><trkpt lat="45.8148869" lon="11.0567076"><ele>1562.5714285714287</ele><time>2026-04-25T12:04:28.205Z</time></trkpt><trkpt lat="45.8148036" lon="11.0567355"><ele>1563.1428571428573</ele><time>2026-04-25T12:04:32.202Z</time></trkpt><trkpt lat="45.8147253" lon="11.0567502"><ele>1563.7142857142858</ele><time>2026-04-25T12:04:36.204Z</time></trkpt><trkpt lat="45.8146597" lon="11.0567573"><ele>1564.2857142857142</ele><time>2026-04-25T12:04:39.21Z</time></trkpt><trkpt lat="45.8145953" lon="11.056773"><ele>1564.857142857143</ele><time>2026-04-25T12:04:42.21Z</time></trkpt><trkpt lat="45.814523" lon="11.0567859"><ele>1565.4285714285713</ele><time>2026-04-25T12:04:46.214Z</time></trkpt><trkpt lat="45.8144562" lon="11.0567927"><ele>1566.0</ele><time>2026-04-25T12:04:50.209Z</time></trkpt><trkpt lat="45.8143832" lon="11.056803"><ele>1567.142857142857</ele><time>2026-04-25T12:04:55.215Z</time></trkpt><trkpt lat="45.8143117" lon="11.0568139"><ele>1568.2857142857144</ele><time>2026-04-25T12:04:58.202Z</time></trkpt><trkpt lat="45.8142479" lon="11.0568281"><ele>1569.4285714285716</ele><time>2026-04-25T12:05:01.21Z</time></trkpt><trkpt lat="45.8141869" lon="11.0568644"><ele>1570.5714285714284</ele><time>2026-04-25T12:05:05.217Z</time></trkpt><trkpt lat="45.8141143" lon="11.0568984"><ele>1571.7142857142858</ele><time>2026-04-25T12:05:09.226Z</time></trkpt><trkpt lat="45.8140519" lon="11.0569359"><ele>1572.857142857143</ele><time>2026-04-25T12:05:12.207Z</time></trkpt><trkpt lat="45.8139902" lon="11.0569578"><ele>1574.0</ele><time>2026-04-25T12:05:16.218Z</time></trkpt><trkpt lat="45.8139203" lon="11.0569706"><ele>1574.0</ele><time>2026-04-25T12:05:20.232Z</time></trkpt><trkpt lat="45.8138486" lon="11.0569954"><ele>1574.0</ele><time>2026-04-25T12:05:25.258Z</time></trkpt><trkpt lat="45.8137852" lon="11.0570428"><ele>1574.0</ele><time>2026-04-25T12:05:30.213Z</time></trkpt><trkpt lat="45.8137202" lon="11.057076"><ele>1574.0</ele><time>2026-04-25T12:05:34.205Z</time></trkpt><trkpt lat="45.8136579" lon="11.0570899"><ele>1574.0</ele><time>2026-04-25T12:05:38.224Z</time></trkpt><trkpt lat="45.8135862" lon="11.0571106"><ele>1574.0</ele><time>2026-04-25T12:05:43.21Z</time></trkpt><trkpt lat="45.8135088" lon="11.0571023"><ele>1574.0</ele><time>2026-04-25T12:05:48.225Z</time></trkpt><trkpt lat="45.8134327" lon="11.0571203"><ele>1574.857142857143</ele><time>2026-04-25T12:05:53.215Z</time></trkpt><trkpt lat="45.8133661" lon="11.0571272"><ele>1575.7142857142858</ele><time>2026-04-25T12:05:57.212Z</time></trkpt><trkpt lat="45.813287" lon="11.0571313"><ele>1576.5714285714284</ele><time>2026-04-25T12:06:01.218Z</time></trkpt><trkpt lat="45.8132227" lon="11.0571302"><ele>1577.4285714285716</ele><time>2026-04-25T12:06:05.214Z</time></trkpt><trkpt lat="45.8131547" lon="11.0571479"><ele>1578.2857142857144</ele><time>2026-04-25T12:06:09.204Z</time></trkpt><trkpt lat="45.8130724" lon="11.0571662"><ele>1579.142857142857</ele><time>2026-04-25T12:06:14.201Z</time></trkpt><trkpt lat="45.8130035" lon="11.057182"><ele>1580.0</ele><time>2026-04-25T12:06:18.205Z</time></trkpt><trkpt lat="45.8129399" lon="11.0571685"><ele>1579.9999999999998</ele><time>2026-04-25T12:06:22.205Z</time></trkpt><trkpt lat="45.8128706" lon="11.0571591"><ele>1580.0</ele><time>2026-04-25T12:06:26.213Z</time></trkpt><trkpt lat="45.8127909" lon="11.0571747"><ele>1580.0</ele><time>2026-04-25T12:06:31.215Z</time></trkpt><trkpt lat="45.8126958" lon="11.057162"><ele>1580.0</ele><time>2026-04-25T12:06:36.224Z</time></trkpt><trkpt lat="45.8126244" lon="11.0571467"><ele>1579.9999999999998</ele><time>2026-04-25T12:06:39.218Z</time></trkpt><trkpt lat="45.8125664" lon="11.057191"><ele>1580.0</ele><time>2026-04-25T12:06:42.22Z</time></trkpt><trkpt lat="45.8124986" lon="11.057223"><ele>1580.9999999999998</ele><time>2026-04-25T12:06:46.216Z</time></trkpt><trkpt lat="45.8124241" lon="11.0572655"><ele>1582.0</ele><time>2026-04-25T12:06:51.219Z</time></trkpt><trkpt lat="45.8123523" lon="11.0572845"><ele>1583.0</ele><time>2026-04-25T12:06:55.213Z</time></trkpt><trkpt lat="45.8122825" lon="11.057307"><ele>1584.0</ele><time>2026-04-25T12:07:00.209Z</time></trkpt><trkpt lat="45.8122038" lon="11.0573399"><ele>1584.9999999999998</ele><time>2026-04-25T12:07:05.215Z</time></trkpt><trkpt lat="45.8121264" lon="11.0573536"><ele>1586.0</ele><time>2026-04-25T12:07:10.225Z</time></trkpt><trkpt lat="45.8120622" lon="11.0573937"><ele>1586.0000000000002</ele><time>2026-04-25T12:07:14.221Z</time></trkpt><trkpt lat="45.8120005" lon="11.0574124"><ele>1586.0</ele><time>2026-04-25T12:07:18.23Z</time></trkpt><trkpt lat="45.8119306" lon="11.0574184"><ele>1586.0</ele><time>2026-04-25T12:07:22.219Z</time></trkpt><trkpt lat="45.8118622" lon="11.057441"><ele>1586.0</ele><time>2026-04-25T12:07:26.222Z</time></trkpt><trkpt lat="45.8117959" lon="11.0574538"><ele>1586.0</ele><time>2026-04-25T12:07:30.21Z</time></trkpt><trkpt lat="45.811719" lon="11.0574476"><ele>1586.0000000000002</ele><time>2026-04-25T12:07:34.213Z</time></trkpt><trkpt lat="45.8116448" lon="11.0574571"><ele>1586.0</ele><time>2026-04-25T12:07:38.222Z</time></trkpt><trkpt lat="45.8115658" lon="11.0574754"><ele>1587.3333333333333</ele><time>2026-04-25T12:07:42.211Z</time></trkpt><trkpt lat="45.8114922" lon="11.0574923"><ele>1588.6666666666665</ele><time>2026-04-25T12:07:46.219Z</time></trkpt><trkpt lat="45.8114099" lon="11.0575264"><ele>1590.0</ele><time>2026-04-25T12:07:50.217Z</time></trkpt><trkpt lat="45.8113411" lon="11.0575287"><ele>1591.3333333333335</ele><time>2026-04-25T12:07:54.228Z</time></trkpt><trkpt lat="45.8112566" lon="11.057527"><ele>1592.6666666666667</ele><time>2026-04-25T12:07:57.219Z</time></trkpt><trkpt lat="45.8111831" lon="11.0575434"><ele>1594.0</ele><time>2026-04-25T12:08:00.206Z</time></trkpt><trkpt lat="45.8111088" lon="11.0575663"><ele>1594.0</ele><time>2026-04-25T12:08:04.213Z</time></trkpt><trkpt lat="45.8110401" lon="11.0575908"><ele>1594.0</ele><time>2026-04-25T12:08:08.225Z</time></trkpt><trkpt lat="45.8109685" lon="11.0575919"><ele>1594.0</ele><time>2026-04-25T12:08:12.214Z</time></trkpt><trkpt lat="45.8108992" lon="11.0576154"><ele>1594.0</ele><time>2026-04-25T12:08:17.21Z</time></trkpt><trkpt lat="45.8108164" lon="11.0576159"><ele>1594.0</ele><time>2026-04-25T12:08:21.209Z</time></trkpt><trkpt lat="45.8107447" lon="11.0576365"><ele>1594.0</ele><time>2026-04-25T12:08:26.226Z</time></trkpt><trkpt lat="45.8106727" lon="11.0576489"><ele>1594.0</ele><time>2026-04-25T12:08:31.228Z</time></trkpt><trkpt lat="45.810612" lon="11.0576898"><ele>1595.2857142857142</ele><time>2026-04-25T12:08:35.284Z</time></trkpt><trkpt lat="45.8105436" lon="11.0577101"><ele>1596.5714285714287</ele><time>2026-04-25T12:08:39.21Z</time></trkpt><trkpt lat="45.8104692" lon="11.0577042"><ele>1597.857142857143</ele><time>2026-04-25T12:08:44.273Z</time></trkpt><trkpt lat="45.8104019" lon="11.0577111"><ele>1599.142857142857</ele><time>2026-04-25T12:08:49.225Z</time></trkpt><trkpt lat="45.8103285" lon="11.0577115"><ele>1600.4285714285716</ele><time>2026-04-25T12:08:57.219Z</time></trkpt><trkpt lat="45.8102506" lon="11.0577169"><ele>1601.7142857142858</ele><time>2026-04-25T12:09:01.212Z</time></trkpt><trkpt lat="45.8101729" lon="11.0577163"><ele>1603.0</ele><time>2026-04-25T12:09:05.26Z</time></trkpt><trkpt lat="45.8101095" lon="11.0577194"><ele>1603.6666666666667</ele><time>2026-04-25T12:09:09.216Z</time></trkpt><trkpt lat="45.8100366" lon="11.0577055"><ele>1604.3333333333335</ele><time>2026-04-25T12:09:15.211Z</time></trkpt><trkpt lat="45.8099627" lon="11.0577226"><ele>1605.0</ele><time>2026-04-25T12:09:21.213Z</time></trkpt><trkpt lat="45.8098943" lon="11.0577056"><ele>1605.6666666666665</ele><time>2026-04-25T12:09:24.214Z</time></trkpt><trkpt lat="45.8098111" lon="11.0577323"><ele>1606.3333333333333</ele><time>2026-04-25T12:09:28.213Z</time></trkpt><trkpt lat="45.8097313" lon="11.0577708"><ele>1607.0</ele><time>2026-04-25T12:09:32.221Z</time></trkpt><trkpt lat="45.809653" lon="11.0577686"><ele>1607.0000000000002</ele><time>2026-04-25T12:09:35.228Z</time></trkpt><trkpt lat="45.8095747" lon="11.0577789"><ele>1607.0</ele><time>2026-04-25T12:09:38.222Z</time></trkpt><trkpt lat="45.8095075" lon="11.0577983"><ele>1607.0</ele><time>2026-04-25T12:09:41.223Z</time></trkpt><trkpt lat="45.8094324" lon="11.0578057"><ele>1607.0</ele><time>2026-04-25T12:09:44.223Z</time></trkpt><trkpt lat="45.8093601" lon="11.0578309"><ele>1607.0</ele><time>2026-04-25T12:09:47.218Z</time></trkpt><trkpt lat="45.8092948" lon="11.0578491"><ele>1607.0000000000002</ele><time>2026-04-25T12:09:50.231Z</time></trkpt><trkpt lat="45.8092208" lon="11.0578786"><ele>1607.0</ele><time>2026-04-25T12:09:53.214Z</time></trkpt><trkpt lat="45.8091542" lon="11.0579194"><ele>1607.1428571428573</ele><time>2026-04-25T12:09:56.222Z</time></trkpt><trkpt lat="45.8090977" lon="11.0579752"><ele>1607.2857142857142</ele><time>2026-04-25T12:10:00.216Z</time></trkpt><trkpt lat="45.8090247" lon="11.0580206"><ele>1607.4285714285716</ele><time>2026-04-25T12:10:04.224Z</time></trkpt><trkpt lat="45.8089595" lon="11.0580735"><ele>1607.5714285714287</ele><time>2026-04-25T12:10:07.22Z</time></trkpt><trkpt lat="45.8088971" lon="11.0581236"><ele>1607.7142857142858</ele><time>2026-04-25T12:10:10.258Z</time></trkpt><trkpt lat="45.8088199" lon="11.0581334"><ele>1607.857142857143</ele><time>2026-04-25T12:10:14.227Z</time></trkpt><trkpt lat="45.8087471" lon="11.0581365"><ele>1608.0</ele><time>2026-04-25T12:10:17.215Z</time></trkpt><trkpt lat="45.8086759" lon="11.058163"><ele>1608.0</ele><time>2026-04-25T12:10:20.221Z</time></trkpt><trkpt lat="45.8086163" lon="11.0581964"><ele>1608.0</ele><time>2026-04-25T12:10:24.208Z</time></trkpt><trkpt lat="45.8085498" lon="11.0582179"><ele>1608.0</ele><time>2026-04-25T12:10:29.21Z</time></trkpt><trkpt lat="45.8085451" lon="11.0583284"><ele>1608.0</ele><time>2026-04-25T12:10:34.217Z</time></trkpt><trkpt lat="45.8088223" lon="11.0581062"><ele>1608.0</ele><time>2026-04-25T12:10:46.257Z</time></trkpt><trkpt lat="45.8086356" lon="11.0582516"><ele>1608.0</ele><time>2026-04-25T12:11:09.289Z</time></trkpt><trkpt lat="45.8087295" lon="11.0581773"><ele>1608.0</ele><time>2026-04-25T12:11:11.243Z</time></trkpt><trkpt lat="45.8085112" lon="11.0583514"><ele>1607.7142857142856</ele><time>2026-04-25T12:11:13.203Z</time></trkpt><trkpt lat="45.8084439" lon="11.0583314"><ele>1607.4285714285716</ele><time>2026-04-25T12:24:54.22Z</time></trkpt><trkpt lat="45.8083731" lon="11.0582821"><ele>1607.142857142857</ele><time>2026-04-25T12:25:01.207Z</time></trkpt><trkpt lat="45.8082994" lon="11.0582674"><ele>1606.8571428571427</ele><time>2026-04-25T12:25:05.211Z</time></trkpt><trkpt lat="45.8082325" lon="11.0582462"><ele>1606.5714285714284</ele><time>2026-04-25T12:25:09.205Z</time></trkpt><trkpt lat="45.808166" lon="11.0582265"><ele>1606.2857142857142</ele><time>2026-04-25T12:25:13.21Z</time></trkpt><trkpt lat="45.8081024" lon="11.0582127"><ele>1606.0</ele><time>2026-04-25T12:25:17.208Z</time></trkpt><trkpt lat="45.8080364" lon="11.0582065"><ele>1605.9999999999998</ele><time>2026-04-25T12:25:21.21Z</time></trkpt><trkpt lat="45.8079727" lon="11.0582302"><ele>1606.0</ele><time>2026-04-25T12:25:26.208Z</time></trkpt><trkpt lat="45.8079313" lon="11.0581392"><ele>1606.0</ele><time>2026-04-25T12:25:33.204Z</time></trkpt><trkpt lat="45.8079435" lon="11.0580474"><ele>1606.0</ele><time>2026-04-25T12:25:37.2Z</time></trkpt><trkpt lat="45.8079419" lon="11.0581386"><ele>1606.0</ele><time>2026-04-25T12:26:26.223Z</time></trkpt><trkpt lat="45.8079569" lon="11.0582318"><ele>1605.9999999999998</ele><time>2026-04-25T12:26:35.211Z</time></trkpt><trkpt lat="45.8079191" lon="11.0583213"><ele>1606.0</ele><time>2026-04-25T12:26:45.214Z</time></trkpt><trkpt lat="45.807878" lon="11.0582421"><ele>1606.0</ele><time>2026-04-25T12:28:49.131Z</time></trkpt><trkpt lat="45.807861" lon="11.0581367"><ele>1606.0</ele><time>2026-04-25T12:28:57.268Z</time></trkpt><trkpt lat="45.8078188" lon="11.0580591"><ele>1606.0</ele><time>2026-04-25T12:29:02.123Z</time></trkpt><trkpt lat="45.8078786" lon="11.058289"><ele>1606.0</ele><time>2026-04-25T12:59:11.516Z</time></trkpt><trkpt lat="45.8079111" lon="11.0581967"><ele>1606.0</ele><time>2026-04-25T13:04:49.206Z</time></trkpt><trkpt lat="45.8079199" lon="11.0581008"><ele>1605.9999999999998</ele><time>2026-04-25T13:04:59.22Z</time></trkpt><trkpt lat="45.8079314" lon="11.0580073"><ele>1606.0</ele><time>2026-04-25T13:05:03.202Z</time></trkpt><trkpt lat="45.8079269" lon="11.0581014"><ele>1606.0</ele><time>2026-04-25T13:08:11.217Z</time></trkpt><trkpt lat="45.8079235" lon="11.0581991"><ele>1606.0</ele><time>2026-04-25T13:08:17.204Z</time></trkpt><trkpt lat="45.8078664" lon="11.0582473"><ele>1606.0</ele><time>2026-04-25T13:08:20.208Z</time></trkpt><trkpt lat="45.8078132" lon="11.0582975"><ele>1605.9999999999998</ele><time>2026-04-25T13:08:24.226Z</time></trkpt><trkpt lat="45.8077504" lon="11.0583223"><ele>1606.0</ele><time>2026-04-25T13:08:30.233Z</time></trkpt><trkpt lat="45.8076837" lon="11.0583296"><ele>1607.4285714285713</ele><time>2026-04-25T13:08:35.209Z</time></trkpt><trkpt lat="45.807614" lon="11.0583495"><ele>1608.857142857143</ele><time>2026-04-25T13:08:39.211Z</time></trkpt><trkpt lat="45.8075405" lon="11.0583633"><ele>1610.2857142857142</ele><time>2026-04-25T13:08:43.233Z</time></trkpt><trkpt lat="45.8074709" lon="11.0583722"><ele>1611.7142857142858</ele><time>2026-04-25T13:08:47.224Z</time></trkpt><trkpt lat="45.8074038" lon="11.0583859"><ele>1613.142857142857</ele><time>2026-04-25T13:08:51.222Z</time></trkpt><trkpt lat="45.8073392" lon="11.0583997"><ele>1614.5714285714284</ele><time>2026-04-25T13:08:55.223Z</time></trkpt><trkpt lat="45.8072605" lon="11.0584156"><ele>1616.0</ele><time>2026-04-25T13:09:00.205Z</time></trkpt><trkpt lat="45.8071948" lon="11.0584372"><ele>1616.0</ele><time>2026-04-25T13:09:04.237Z</time></trkpt><trkpt lat="45.8071297" lon="11.0584645"><ele>1616.0</ele><time>2026-04-25T13:09:08.234Z</time></trkpt><trkpt lat="45.8070657" lon="11.0585022"><ele>1616.0</ele><time>2026-04-25T13:09:12.222Z</time></trkpt><trkpt lat="45.8070073" lon="11.0585397"><ele>1616.0</ele><time>2026-04-25T13:09:16.219Z</time></trkpt><trkpt lat="45.8069483" lon="11.0585823"><ele>1616.0</ele><time>2026-04-25T13:09:20.209Z</time></trkpt><trkpt lat="45.8068842" lon="11.0586153"><ele>1616.0</ele><time>2026-04-25T13:09:24.208Z</time></trkpt><trkpt lat="45.8068186" lon="11.0586474"><ele>1616.0</ele><time>2026-04-25T13:09:29.225Z</time></trkpt><trkpt lat="45.8067496" lon="11.0586918"><ele>1617.0</ele><time>2026-04-25T13:09:33.217Z</time></trkpt><trkpt lat="45.806679" lon="11.0587212"><ele>1618.0</ele><time>2026-04-25T13:09:37.262Z</time></trkpt><trkpt lat="45.8066164" lon="11.0587673"><ele>1619.0</ele><time>2026-04-25T13:09:41.221Z</time></trkpt><trkpt lat="45.8065485" lon="11.0588121"><ele>1620.0</ele><time>2026-04-25T13:09:45.254Z</time></trkpt><trkpt lat="45.8065018" lon="11.0588739"><ele>1621.0</ele><time>2026-04-25T13:09:49.237Z</time></trkpt><trkpt lat="45.8064522" lon="11.0589377"><ele>1622.0</ele><time>2026-04-25T13:09:53.212Z</time></trkpt><trkpt lat="45.8064161" lon="11.0590133"><ele>1623.0</ele><time>2026-04-25T13:09:57.207Z</time></trkpt><trkpt lat="45.8063634" lon="11.0590877"><ele>1623.2857142857142</ele><time>2026-04-25T13:10:02.217Z</time></trkpt><trkpt lat="45.8063081" lon="11.0591397"><ele>1623.5714285714284</ele><time>2026-04-25T13:10:06.208Z</time></trkpt><trkpt lat="45.8062517" lon="11.0592013"><ele>1623.857142857143</ele><time>2026-04-25T13:10:10.229Z</time></trkpt><trkpt lat="45.8062122" lon="11.0592722"><ele>1624.142857142857</ele><time>2026-04-25T13:10:14.224Z</time></trkpt><trkpt lat="45.8061672" lon="11.0593528"><ele>1624.4285714285716</ele><time>2026-04-25T13:10:18.244Z</time></trkpt><trkpt lat="45.8061313" lon="11.0594361"><ele>1624.7142857142858</ele><time>2026-04-25T13:10:22.212Z</time></trkpt><trkpt lat="45.8060802" lon="11.0595191"><ele>1625.0</ele><time>2026-04-25T13:10:28.206Z</time></trkpt><trkpt lat="45.806033" lon="11.0595984"><ele>1627.2857142857142</ele><time>2026-04-25T13:10:33.228Z</time></trkpt><trkpt lat="45.8059861" lon="11.0596712"><ele>1629.5714285714287</ele><time>2026-04-25T13:10:38.219Z</time></trkpt><trkpt lat="45.8059334" lon="11.0597398"><ele>1631.8571428571427</ele><time>2026-04-25T13:10:43.219Z</time></trkpt><trkpt lat="45.805885" lon="11.0598151"><ele>1634.142857142857</ele><time>2026-04-25T13:10:49.222Z</time></trkpt><trkpt lat="45.8058298" lon="11.0599074"><ele>1636.4285714285713</ele><time>2026-04-25T13:10:53.222Z</time></trkpt><trkpt lat="45.8057742" lon="11.0599778"><ele>1638.7142857142856</ele><time>2026-04-25T13:10:57.232Z</time></trkpt><trkpt lat="45.8057518" lon="11.0600709"><ele>1641.0</ele><time>2026-04-25T13:11:02.268Z</time></trkpt><trkpt lat="45.8057069" lon="11.0601406"><ele>1641.142857142857</ele><time>2026-04-25T13:11:05.22Z</time></trkpt><trkpt lat="45.8056582" lon="11.0602018"><ele>1641.2857142857142</ele><time>2026-04-25T13:11:09.263Z</time></trkpt><trkpt lat="45.8056512" lon="11.0603032"><ele>1641.4285714285716</ele><time>2026-04-25T13:11:16.217Z</time></trkpt><trkpt lat="45.8056436" lon="11.0604076"><ele>1641.5714285714284</ele><time>2026-04-25T13:11:22.208Z</time></trkpt><trkpt lat="45.8056418" lon="11.060515"><ele>1641.7142857142858</ele><time>2026-04-25T13:11:28.206Z</time></trkpt><trkpt lat="45.8056585" lon="11.0606165"><ele>1641.857142857143</ele><time>2026-04-25T13:11:32.246Z</time></trkpt><trkpt lat="45.8056627" lon="11.0607175"><ele>1642.0</ele><time>2026-04-25T13:11:36.209Z</time></trkpt><trkpt lat="45.8056417" lon="11.0608254"><ele>1641.5714285714287</ele><time>2026-04-25T13:11:41.21Z</time></trkpt><trkpt lat="45.8056074" lon="11.06091"><ele>1641.142857142857</ele><time>2026-04-25T13:11:47.239Z</time></trkpt><trkpt lat="45.8055575" lon="11.0609813"><ele>1640.7142857142858</ele><time>2026-04-25T13:11:53.241Z</time></trkpt><trkpt lat="45.8054949" lon="11.0609917"><ele>1640.2857142857142</ele><time>2026-04-25T13:11:56.218Z</time></trkpt><trkpt lat="45.8054217" lon="11.0610305"><ele>1639.857142857143</ele><time>2026-04-25T13:12:00.222Z</time></trkpt><trkpt lat="45.8053497" lon="11.061063"><ele>1639.4285714285716</ele><time>2026-04-25T13:12:04.267Z</time></trkpt><trkpt lat="45.8053069" lon="11.0611308"><ele>1639.0</ele><time>2026-04-25T13:12:08.235Z</time></trkpt><trkpt lat="45.8052645" lon="11.0612093"><ele>1639.0</ele><time>2026-04-25T13:12:14.236Z</time></trkpt><trkpt lat="45.8052191" lon="11.061284"><ele>1639.0</ele><time>2026-04-25T13:12:21.212Z</time></trkpt><trkpt lat="45.8051712" lon="11.0613625"><ele>1639.0</ele><time>2026-04-25T13:12:26.224Z</time></trkpt><trkpt lat="45.8051186" lon="11.0614173"><ele>1639.0</ele><time>2026-04-25T13:12:30.208Z</time></trkpt><trkpt lat="45.8050722" lon="11.0614881"><ele>1639.0</ele><time>2026-04-25T13:12:35.205Z</time></trkpt><trkpt lat="45.8050093" lon="11.0615393"><ele>1639.0</ele><time>2026-04-25T13:12:41.223Z</time></trkpt><trkpt lat="45.804945" lon="11.0615252"><ele>1639.0</ele><time>2026-04-25T13:12:48.228Z</time></trkpt><trkpt lat="45.8048848" lon="11.0614948"><ele>1642.0</ele><time>2026-04-25T13:12:56.259Z</time></trkpt><trkpt lat="45.8048262" lon="11.0614493"><ele>1645.0</ele><time>2026-04-25T13:13:03.232Z</time></trkpt><trkpt lat="45.8047515" lon="11.0614442"><ele>1648.0</ele><time>2026-04-25T13:13:10.211Z</time></trkpt><trkpt lat="45.8046816" lon="11.0614372"><ele>1651.0</ele><time>2026-04-25T13:13:15.221Z</time></trkpt><trkpt lat="45.8046183" lon="11.061456"><ele>1654.0</ele><time>2026-04-25T13:13:21.253Z</time></trkpt><trkpt lat="45.8045549" lon="11.061482"><ele>1657.0</ele><time>2026-04-25T13:13:26.212Z</time></trkpt><trkpt lat="45.8044915" lon="11.0615108"><ele>1660.0</ele><time>2026-04-25T13:13:30.261Z</time></trkpt><trkpt lat="45.804431" lon="11.0615629"><ele>1659.6666666666667</ele><time>2026-04-25T13:13:35.222Z</time></trkpt><trkpt lat="45.8043725" lon="11.0616274"><ele>1659.3333333333335</ele><time>2026-04-25T13:13:39.212Z</time></trkpt><trkpt lat="45.8043169" lon="11.0616824"><ele>1659.0</ele><time>2026-04-25T13:13:43.214Z</time></trkpt><trkpt lat="45.8042622" lon="11.061732"><ele>1658.6666666666665</ele><time>2026-04-25T13:13:48.21Z</time></trkpt><trkpt lat="45.8042656" lon="11.0618222"><ele>1658.3333333333333</ele><time>2026-04-25T13:15:20.213Z</time></trkpt><trkpt lat="45.8042727" lon="11.0619421"><ele>1658.0</ele><time>2026-04-25T13:15:37.206Z</time></trkpt><trkpt lat="45.8042411" lon="11.0621749"><ele>1658.0</ele><time>2026-04-25T13:15:46.25Z</time></trkpt><trkpt lat="45.8042307" lon="11.062268"><ele>1658.0</ele><time>2026-04-25T13:15:49.242Z</time></trkpt><trkpt lat="45.8043041" lon="11.0622919"><ele>1658.0</ele><time>2026-04-25T13:15:54.199Z</time></trkpt><trkpt lat="45.8043788" lon="11.0623255"><ele>1658.0</ele><time>2026-04-25T13:15:58.212Z</time></trkpt><trkpt lat="45.8044478" lon="11.0623885"><ele>1658.0</ele><time>2026-04-25T13:16:03.204Z</time></trkpt><trkpt lat="45.8045148" lon="11.0624437"><ele>1658.0</ele><time>2026-04-25T13:16:07.202Z</time></trkpt><trkpt lat="45.8045669" lon="11.062499"><ele>1658.0</ele><time>2026-04-25T13:16:10.2Z</time></trkpt><trkpt lat="45.8046263" lon="11.0625685"><ele>1659.857142857143</ele><time>2026-04-25T13:16:14.207Z</time></trkpt><trkpt lat="45.8046696" lon="11.0626494"><ele>1661.7142857142858</ele><time>2026-04-25T13:16:19.202Z</time></trkpt><trkpt lat="45.8047105" lon="11.0627268"><ele>1663.5714285714284</ele><time>2026-04-25T13:16:25.2Z</time></trkpt><trkpt lat="45.8047474" lon="11.0628048"><ele>1665.4285714285716</ele><time>2026-04-25T13:16:31.205Z</time></trkpt><trkpt lat="45.8048048" lon="11.0628472"><ele>1667.2857142857144</ele><time>2026-04-25T13:16:35.203Z</time></trkpt><trkpt lat="45.8048591" lon="11.062901"><ele>1669.142857142857</ele><time>2026-04-25T13:16:40.202Z</time></trkpt><trkpt lat="45.8049122" lon="11.0629798"><ele>1671.0</ele><time>2026-04-25T13:16:47.202Z</time></trkpt><trkpt lat="45.8049761" lon="11.0630101"><ele>1671.0</ele><time>2026-04-25T13:16:51.203Z</time></trkpt><trkpt lat="45.8050334" lon="11.0630649"><ele>1671.0</ele><time>2026-04-25T13:16:55.215Z</time></trkpt><trkpt lat="45.8051001" lon="11.0630995"><ele>1671.0</ele><time>2026-04-25T13:16:59.208Z</time></trkpt><trkpt lat="45.805168" lon="11.0631451"><ele>1671.0</ele><time>2026-04-25T13:17:04.201Z</time></trkpt><trkpt lat="45.8052303" lon="11.0631815"><ele>1671.0</ele><time>2026-04-25T13:17:09.202Z</time></trkpt><trkpt lat="45.8052843" lon="11.0632287"><ele>1671.0</ele><time>2026-04-25T13:17:16.201Z</time></trkpt><trkpt lat="45.8053805" lon="11.063271"><ele>1671.0</ele><time>2026-04-25T13:17:22.205Z</time></trkpt><trkpt lat="45.8054421" lon="11.0633394"><ele>1672.4285714285713</ele><time>2026-04-25T13:17:28.205Z</time></trkpt><trkpt lat="45.8055058" lon="11.0633673"><ele>1673.857142857143</ele><time>2026-04-25T13:17:34.205Z</time></trkpt><trkpt lat="45.8055625" lon="11.0634202"><ele>1675.2857142857142</ele><time>2026-04-25T13:17:40.209Z</time></trkpt><trkpt lat="45.8056343" lon="11.0634844"><ele>1676.7142857142858</ele><time>2026-04-25T13:17:48.201Z</time></trkpt><trkpt lat="45.8056962" lon="11.0635474"><ele>1678.1428571428573</ele><time>2026-04-25T13:17:53.207Z</time></trkpt><trkpt lat="45.8057477" lon="11.0636063"><ele>1679.5714285714287</ele><time>2026-04-25T13:17:59.207Z</time></trkpt><trkpt lat="45.805808" lon="11.0636523"><ele>1681.0</ele><time>2026-04-25T13:18:05.201Z</time></trkpt><trkpt lat="45.8058809" lon="11.0636956"><ele>1681.0</ele><time>2026-04-25T13:18:11.209Z</time></trkpt><trkpt lat="45.8059288" lon="11.0637622"><ele>1681.0</ele><time>2026-04-25T13:18:17.203Z</time></trkpt><trkpt lat="45.8058716" lon="11.0638142"><ele>1681.0</ele><time>2026-04-25T13:18:28.214Z</time></trkpt><trkpt lat="45.8058196" lon="11.0637584"><ele>1681.0</ele><time>2026-04-25T13:18:34.217Z</time></trkpt><trkpt lat="45.8057607" lon="11.0638057"><ele>1681.0</ele><time>2026-04-25T13:18:41.207Z</time></trkpt><trkpt lat="45.8056925" lon="11.0638295"><ele>1681.0</ele><time>2026-04-25T13:18:48.202Z</time></trkpt><trkpt lat="45.8056283" lon="11.0638608"><ele>1681.0</ele><time>2026-04-25T13:18:54.207Z</time></trkpt><trkpt lat="45.805565" lon="11.0638569"><ele>1681.0</ele><time>2026-04-25T13:19:01.202Z</time></trkpt><trkpt lat="45.8055058" lon="11.0639195"><ele>1681.0</ele><time>2026-04-25T13:19:05.203Z</time></trkpt><trkpt lat="45.8054394" lon="11.0639408"><ele>1681.0</ele><time>2026-04-25T13:19:12.204Z</time></trkpt><trkpt lat="45.8053782" lon="11.0639797"><ele>1681.0</ele><time>2026-04-25T13:19:19.207Z</time></trkpt><trkpt lat="45.8053142" lon="11.0640129"><ele>1681.0</ele><time>2026-04-25T13:19:27.205Z</time></trkpt><trkpt lat="45.8052451" lon="11.0640082"><ele>1681.0</ele><time>2026-04-25T13:19:32.211Z</time></trkpt><trkpt lat="45.8051789" lon="11.0640254"><ele>1681.0</ele><time>2026-04-25T13:19:40.201Z</time></trkpt><trkpt lat="45.8051135" lon="11.0640182"><ele>1682.142857142857</ele><time>2026-04-25T13:19:46.212Z</time></trkpt><trkpt lat="45.8050505" lon="11.0640508"><ele>1683.2857142857142</ele><time>2026-04-25T13:19:51.202Z</time></trkpt><trkpt lat="45.8049898" lon="11.0640949"><ele>1684.4285714285716</ele><time>2026-04-25T13:19:59.2Z</time></trkpt><trkpt lat="45.8049282" lon="11.0641367"><ele>1685.5714285714284</ele><time>2026-04-25T13:20:05.206Z</time></trkpt><trkpt lat="45.8048613" lon="11.0641475"><ele>1686.7142857142856</ele><time>2026-04-25T13:20:17.208Z</time></trkpt><trkpt lat="45.8048076" lon="11.0642127"><ele>1687.857142857143</ele><time>2026-04-25T13:20:23.203Z</time></trkpt><trkpt lat="45.8047445" lon="11.0642466"><ele>1689.0</ele><time>2026-04-25T13:20:28.206Z</time></trkpt><trkpt lat="45.8047227" lon="11.0643439"><ele>1691.4285714285716</ele><time>2026-04-25T13:20:36.208Z</time></trkpt><trkpt lat="45.8047092" lon="11.0644397"><ele>1693.8571428571427</ele><time>2026-04-25T13:21:23.201Z</time></trkpt><trkpt lat="45.8047432" lon="11.0645239"><ele>1696.2857142857142</ele><time>2026-04-25T13:21:49.208Z</time></trkpt><trkpt lat="45.8047749" lon="11.064612"><ele>1698.7142857142858</ele><time>2026-04-25T13:21:55.224Z</time></trkpt><trkpt lat="45.8048085" lon="11.0647051"><ele>1701.1428571428573</ele><time>2026-04-25T13:22:02.251Z</time></trkpt><trkpt lat="45.8048484" lon="11.0647842"><ele>1703.5714285714284</ele><time>2026-04-25T13:22:06.212Z</time></trkpt><trkpt lat="45.8048624" lon="11.0648726"><ele>1706.0</ele><time>2026-04-25T13:22:13.219Z</time></trkpt><trkpt lat="45.8048889" lon="11.0649648"><ele>1707.857142857143</ele><time>2026-04-25T13:22:18.215Z</time></trkpt><trkpt lat="45.8049332" lon="11.0650388"><ele>1709.7142857142858</ele><time>2026-04-25T13:22:24.255Z</time></trkpt><trkpt lat="45.8049555" lon="11.0651307"><ele>1711.5714285714287</ele><time>2026-04-25T13:22:33.214Z</time></trkpt><trkpt lat="45.8049544" lon="11.0652298"><ele>1713.4285714285716</ele><time>2026-04-25T13:22:40.274Z</time></trkpt><trkpt lat="45.8049034" lon="11.065302"><ele>1715.2857142857142</ele><time>2026-04-25T13:22:48.217Z</time></trkpt><trkpt lat="45.8048388" lon="11.0653228"><ele>1717.1428571428573</ele><time>2026-04-25T13:23:18.258Z</time></trkpt><trkpt lat="45.8047781" lon="11.0653476"><ele>1719.0</ele><time>2026-04-25T13:23:34.278Z</time></trkpt><trkpt lat="45.8047595" lon="11.0652461"><ele>1719.0</ele><time>2026-04-25T13:23:36.265Z</time></trkpt><trkpt lat="45.804661" lon="11.0653088"><ele>1719.0</ele><time>2026-04-25T13:24:45.214Z</time></trkpt><trkpt lat="45.8045985" lon="11.0652946"><ele>1719.0</ele><time>2026-04-25T13:24:50.222Z</time></trkpt><trkpt lat="45.8045386" lon="11.0653497"><ele>1719.0</ele><time>2026-04-25T13:24:55.206Z</time></trkpt><trkpt lat="45.8044771" lon="11.0653898"><ele>1719.0</ele><time>2026-04-25T13:25:01.21Z</time></trkpt><trkpt lat="45.8044059" lon="11.0654129"><ele>1719.0</ele><time>2026-04-25T13:25:07.21Z</time></trkpt><trkpt lat="45.8043361" lon="11.0654286"><ele>1722.3333333333333</ele><time>2026-04-25T13:25:39.23Z</time></trkpt><trkpt lat="45.8042708" lon="11.0654117"><ele>1725.6666666666665</ele><time>2026-04-25T13:25:48.223Z</time></trkpt><trkpt lat="45.8041999" lon="11.0655062"><ele>1729.0</ele><time>2026-04-25T13:26:58.203Z</time></trkpt><trkpt lat="45.8041493" lon="11.0655647"><ele>1732.3333333333333</ele><time>2026-04-25T13:27:09.186Z</time></trkpt><trkpt lat="45.804087" lon="11.0655861"><ele>1735.6666666666665</ele><time>2026-04-25T13:27:15.203Z</time></trkpt><trkpt lat="45.803986" lon="11.0656527"><ele>1739.0</ele><time>2026-04-25T13:27:19.224Z</time></trkpt><trkpt lat="45.8039119" lon="11.0656758"><ele>1738.9999999999998</ele><time>2026-04-25T13:27:25.205Z</time></trkpt><trkpt lat="45.8038457" lon="11.0657128"><ele>1739.0</ele><time>2026-04-25T13:27:32.221Z</time></trkpt><trkpt lat="45.8037841" lon="11.0657417"><ele>1739.0</ele><time>2026-04-25T13:27:38.205Z</time></trkpt><trkpt lat="45.8037146" lon="11.0657641"><ele>1739.0</ele><time>2026-04-25T13:27:45.215Z</time></trkpt><trkpt lat="45.8036435" lon="11.0657654"><ele>1739.0</ele><time>2026-04-25T13:27:52.254Z</time></trkpt><trkpt lat="45.8035735" lon="11.0657717"><ele>1738.9999999999998</ele><time>2026-04-25T13:27:59.258Z</time></trkpt><trkpt lat="45.8035056" lon="11.0657447"><ele>1739.0</ele><time>2026-04-25T13:28:06.215Z</time></trkpt><trkpt lat="45.8034418" lon="11.0657481"><ele>1741.5714285714284</ele><time>2026-04-25T13:28:11.228Z</time></trkpt><trkpt lat="45.8033673" lon="11.0657452"><ele>1744.142857142857</ele><time>2026-04-25T13:28:17.25Z</time></trkpt><trkpt lat="45.8033062" lon="11.0657851"><ele>1746.7142857142858</ele><time>2026-04-25T13:28:23.201Z</time></trkpt><trkpt lat="45.803246" lon="11.0658347"><ele>1749.2857142857142</ele><time>2026-04-25T13:28:30.212Z</time></trkpt><trkpt lat="45.8031743" lon="11.0658445"><ele>1751.857142857143</ele><time>2026-04-25T13:28:36.25Z</time></trkpt><trkpt lat="45.8031028" lon="11.0658498"><ele>1754.4285714285713</ele><time>2026-04-25T13:28:44.255Z</time></trkpt><trkpt lat="45.8030284" lon="11.0658555"><ele>1757.0</ele><time>2026-04-25T13:28:51.217Z</time></trkpt><trkpt lat="45.8029576" lon="11.0658716"><ele>1757.0</ele><time>2026-04-25T13:28:57.253Z</time></trkpt><trkpt lat="45.8028865" lon="11.0658272"><ele>1757.0</ele><time>2026-04-25T13:33:12.248Z</time></trkpt><trkpt lat="45.8028253" lon="11.0657811"><ele>1757.0</ele><time>2026-04-25T13:33:17.215Z</time></trkpt><trkpt lat="45.8027542" lon="11.0657345"><ele>1757.0</ele><time>2026-04-25T13:33:21.206Z</time></trkpt><trkpt lat="45.802696" lon="11.065694"><ele>1757.0</ele><time>2026-04-25T13:33:26.208Z</time></trkpt><trkpt lat="45.802633" lon="11.0656878"><ele>1757.0</ele><time>2026-04-25T13:33:30.272Z</time></trkpt><trkpt lat="45.8025629" lon="11.065697"><ele>1757.0</ele><time>2026-04-25T13:33:33.231Z</time></trkpt><trkpt lat="45.8024992" lon="11.0657271"><ele>1757.857142857143</ele><time>2026-04-25T13:33:37.215Z</time></trkpt><trkpt lat="45.8024291" lon="11.0657279"><ele>1758.7142857142858</ele><time>2026-04-25T13:33:41.222Z</time></trkpt><trkpt lat="45.8023512" lon="11.0657338"><ele>1759.5714285714284</ele><time>2026-04-25T13:33:45.277Z</time></trkpt><trkpt lat="45.8022733" lon="11.0657555"><ele>1760.4285714285716</ele><time>2026-04-25T13:33:49.252Z</time></trkpt><trkpt lat="45.802211" lon="11.0657976"><ele>1761.2857142857142</ele><time>2026-04-25T13:33:53.214Z</time></trkpt><trkpt lat="45.8021586" lon="11.0658484"><ele>1762.142857142857</ele><time>2026-04-25T13:33:57.288Z</time></trkpt><trkpt lat="45.8021062" lon="11.0659121"><ele>1763.0</ele><time>2026-04-25T13:34:01.264Z</time></trkpt><trkpt lat="45.8020613" lon="11.0659924"><ele>1763.857142857143</ele><time>2026-04-25T13:34:06.218Z</time></trkpt><trkpt lat="45.8020148" lon="11.0660767"><ele>1764.7142857142858</ele><time>2026-04-25T13:34:11.215Z</time></trkpt><trkpt lat="45.8019712" lon="11.0661593"><ele>1765.5714285714284</ele><time>2026-04-25T13:34:17.24Z</time></trkpt><trkpt lat="45.8019147" lon="11.0662136"><ele>1766.4285714285716</ele><time>2026-04-25T13:34:22.218Z</time></trkpt><trkpt lat="45.801857" lon="11.0662671"><ele>1767.2857142857144</ele><time>2026-04-25T13:34:28.223Z</time></trkpt><trkpt lat="45.8017836" lon="11.0662638"><ele>1768.142857142857</ele><time>2026-04-25T13:34:33.224Z</time></trkpt><trkpt lat="45.8017428" lon="11.0661921"><ele>1769.0</ele><time>2026-04-25T13:35:18.221Z</time></trkpt><trkpt lat="45.8017576" lon="11.0660965"><ele>1769.0</ele><time>2026-04-25T13:35:21.222Z</time></trkpt><trkpt lat="45.8017677" lon="11.0659944"><ele>1769.0</ele><time>2026-04-25T13:35:25.209Z</time></trkpt><trkpt lat="45.8018151" lon="11.0659142"><ele>1769.0</ele><time>2026-04-25T13:35:31.202Z</time></trkpt><trkpt lat="45.8018464" lon="11.0658114"><ele>1769.0</ele><time>2026-04-25T13:36:32.197Z</time></trkpt><trkpt lat="45.8018412" lon="11.0657068"><ele>1769.0</ele><time>2026-04-25T13:37:11.202Z</time></trkpt><trkpt lat="45.8018092" lon="11.0656248"><ele>1769.0</ele><time>2026-04-25T13:37:18.205Z</time></trkpt><trkpt lat="45.8017477" lon="11.065604"><ele>1769.0</ele><time>2026-04-25T13:37:26.207Z</time></trkpt><trkpt lat="45.8016918" lon="11.0656598"><ele>1769.0</ele><time>2026-04-25T13:37:33.211Z</time></trkpt><trkpt lat="45.8017571" lon="11.0656785"><ele>1769.0</ele><time>2026-04-25T13:37:41.2Z</time></trkpt><trkpt lat="45.8018035" lon="11.0656149"><ele>1769.0</ele><time>2026-04-25T13:37:44.222Z</time></trkpt><trkpt lat="45.8018214" lon="11.0657036"><ele>1769.0</ele><time>2026-04-25T13:38:29.204Z</time></trkpt><trkpt lat="45.8018376" lon="11.0657934"><ele>1769.0</ele><time>2026-04-25T13:40:01.202Z</time></trkpt><trkpt lat="45.801842" lon="11.0658865"><ele>1769.0</ele><time>2026-04-25T13:40:14.209Z</time></trkpt><trkpt lat="45.8018512" lon="11.0657964"><ele>1769.0</ele><time>2026-04-25T13:40:39.215Z</time></trkpt><trkpt lat="45.8018094" lon="11.0657206"><ele>1769.4999999999998</ele><time>2026-04-25T13:41:07.209Z</time></trkpt><trkpt lat="45.8018612" lon="11.065662"><ele>1770.0</ele><time>2026-04-25T13:42:24.213Z</time></trkpt><trkpt lat="45.8017626" lon="11.065817"><ele>1770.5</ele><time>2026-04-25T13:56:50.208Z</time></trkpt><trkpt lat="45.8018131" lon="11.065734"><ele>1771.0</ele><time>2026-04-25T13:57:24.205Z</time></trkpt><trkpt lat="45.8018962" lon="11.0657181"><ele>1771.4999999999998</ele><time>2026-04-25T13:58:08.204Z</time></trkpt><trkpt lat="45.8018633" lon="11.0656326"><ele>1772.0</ele><time>2026-04-25T13:59:30.267Z</time></trkpt><trkpt lat="45.8018198" lon="11.0657042"><ele>1770.4285714285716</ele><time>2026-04-25T13:59:48.2Z</time></trkpt><trkpt lat="45.8017557" lon="11.0657043"><ele>1768.857142857143</ele><time>2026-04-25T13:59:53.218Z</time></trkpt><trkpt lat="45.8017276" lon="11.0656226"><ele>1767.2857142857142</ele><time>2026-04-25T14:00:15.205Z</time></trkpt><trkpt lat="45.8017243" lon="11.065528"><ele>1765.7142857142858</ele><time>2026-04-25T14:00:21.347Z</time></trkpt><trkpt lat="45.8016827" lon="11.065443"><ele>1764.142857142857</ele><time>2026-04-25T14:00:25.272Z</time></trkpt><trkpt lat="45.8016076" lon="11.0653768"><ele>1762.5714285714287</ele><time>2026-04-25T14:00:28.22Z</time></trkpt><trkpt lat="45.8015498" lon="11.0653403"><ele>1761.0</ele><time>2026-04-25T14:00:30.249Z</time></trkpt><trkpt lat="45.8014809" lon="11.06532"><ele>1761.0000000000002</ele><time>2026-04-25T14:00:32.219Z</time></trkpt><trkpt lat="45.8014052" lon="11.0653221"><ele>1761.0</ele><time>2026-04-25T14:00:36.23Z</time></trkpt><trkpt lat="45.8013443" lon="11.0653459"><ele>1761.0</ele><time>2026-04-25T14:00:40.256Z</time></trkpt><trkpt lat="45.8012767" lon="11.0654"><ele>1761.0</ele><time>2026-04-25T14:00:44.224Z</time></trkpt><trkpt lat="45.8012279" lon="11.0654653"><ele>1761.0</ele><time>2026-04-25T14:00:49.212Z</time></trkpt><trkpt lat="45.8011688" lon="11.0655335"><ele>1761.0000000000002</ele><time>2026-04-25T14:01:40.198Z</time></trkpt><trkpt lat="45.8011149" lon="11.0655998"><ele>1761.0</ele><time>2026-04-25T14:03:10.202Z</time></trkpt><trkpt lat="45.8010547" lon="11.0656525"><ele>1761.0000000000002</ele><time>2026-04-25T14:03:14.203Z</time></trkpt><trkpt lat="45.8010018" lon="11.0657115"><ele>1761.0</ele><time>2026-04-25T14:03:18.205Z</time></trkpt><trkpt lat="45.8009507" lon="11.0657715"><ele>1761.0</ele><time>2026-04-25T14:03:39.21Z</time></trkpt><trkpt lat="45.800878" lon="11.0658487"><ele>1761.0</ele><time>2026-04-25T14:03:42.205Z</time></trkpt><trkpt lat="45.8008213" lon="11.0658893"><ele>1761.0</ele><time>2026-04-25T14:03:44.208Z</time></trkpt><trkpt lat="45.8007596" lon="11.0659304"><ele>1761.0000000000002</ele><time>2026-04-25T14:03:47.207Z</time></trkpt><trkpt lat="45.8006756" lon="11.0659675"><ele>1761.0</ele><time>2026-04-25T14:03:50.214Z</time></trkpt><trkpt lat="45.8006105" lon="11.0659814"><ele>1760.1666666666667</ele><time>2026-04-25T14:03:52.213Z</time></trkpt><trkpt lat="45.8005283" lon="11.066008"><ele>1759.3333333333335</ele><time>2026-04-25T14:03:54.213Z</time></trkpt><trkpt lat="45.8004382" lon="11.0660267"><ele>1758.5</ele><time>2026-04-25T14:03:56.218Z</time></trkpt><trkpt lat="45.800355" lon="11.0660315"><ele>1757.6666666666667</ele><time>2026-04-25T14:03:58.222Z</time></trkpt><trkpt lat="45.8002832" lon="11.0660442"><ele>1756.8333333333335</ele><time>2026-04-25T14:04:00.214Z</time></trkpt><trkpt lat="45.8002008" lon="11.0660444"><ele>1756.0</ele><time>2026-04-25T14:04:02.211Z</time></trkpt><trkpt lat="45.8001051" lon="11.0660446"><ele>1756.0</ele><time>2026-04-25T14:04:05.219Z</time></trkpt><trkpt lat="45.800037" lon="11.0660439"><ele>1756.0</ele><time>2026-04-25T14:04:07.254Z</time></trkpt><trkpt lat="45.7999609" lon="11.0660418"><ele>1756.0</ele><time>2026-04-25T14:04:09.21Z</time></trkpt><trkpt lat="45.7998783" lon="11.06603"><ele>1756.0</ele><time>2026-04-25T14:04:11.208Z</time></trkpt><trkpt lat="45.7998062" lon="11.0660382"><ele>1756.0</ele><time>2026-04-25T14:04:13.263Z</time></trkpt><trkpt lat="45.7997366" lon="11.0660695"><ele>1756.0</ele><time>2026-04-25T14:04:17.219Z</time></trkpt><trkpt lat="45.7996777" lon="11.0661149"><ele>1756.0</ele><time>2026-04-25T14:04:24.211Z</time></trkpt><trkpt lat="45.7996044" lon="11.0661387"><ele>1756.0</ele><time>2026-04-25T14:04:27.208Z</time></trkpt><trkpt lat="45.7995175" lon="11.0661717"><ele>1756.0</ele><time>2026-04-25T14:04:30.21Z</time></trkpt><trkpt lat="45.7994601" lon="11.0662127"><ele>1756.0</ele><time>2026-04-25T14:04:32.2Z</time></trkpt><trkpt lat="45.7994211" lon="11.0662951"><ele>1756.0</ele><time>2026-04-25T14:04:34.214Z</time></trkpt><trkpt lat="45.7993758" lon="11.0663579"><ele>1756.0</ele><time>2026-04-25T14:04:36.209Z</time></trkpt><trkpt lat="45.7993203" lon="11.0664248"><ele>1756.0</ele><time>2026-04-25T14:04:38.226Z</time></trkpt><trkpt lat="45.7992557" lon="11.0664921"><ele>1756.0</ele><time>2026-04-25T14:04:40.249Z</time></trkpt><trkpt lat="45.7991771" lon="11.0665548"><ele>1756.8333333333335</ele><time>2026-04-25T14:04:43.217Z</time></trkpt><trkpt lat="45.799125" lon="11.0666182"><ele>1757.6666666666667</ele><time>2026-04-25T14:04:45.207Z</time></trkpt><trkpt lat="45.7991145" lon="11.0667378"><ele>1758.5</ele><time>2026-04-25T14:05:12.209Z</time></trkpt><trkpt lat="45.7990829" lon="11.0668284"><ele>1759.3333333333335</ele><time>2026-04-25T14:05:17.203Z</time></trkpt><trkpt lat="45.7990437" lon="11.0669005"><ele>1760.1666666666667</ele><time>2026-04-25T14:05:19.209Z</time></trkpt><trkpt lat="45.7989866" lon="11.0669799"><ele>1761.0</ele><time>2026-04-25T14:05:21.223Z</time></trkpt><trkpt lat="45.7989036" lon="11.0670228"><ele>1761.0000000000002</ele><time>2026-04-25T14:05:23.218Z</time></trkpt><trkpt lat="45.7988243" lon="11.0670622"><ele>1761.0</ele><time>2026-04-25T14:05:25.227Z</time></trkpt><trkpt lat="45.7987601" lon="11.0671295"><ele>1761.0</ele><time>2026-04-25T14:05:27.216Z</time></trkpt><trkpt lat="45.7987359" lon="11.0672148"><ele>1761.0</ele><time>2026-04-25T14:05:29.225Z</time></trkpt><trkpt lat="45.7987216" lon="11.0673184"><ele>1761.0</ele><time>2026-04-25T14:05:32.204Z</time></trkpt><trkpt lat="45.7986981" lon="11.0674227"><ele>1761.0000000000002</ele><time>2026-04-25T14:05:35.204Z</time></trkpt><trkpt lat="45.7986686" lon="11.0675026"><ele>1761.0</ele><time>2026-04-25T14:05:37.233Z</time></trkpt><trkpt lat="45.7986226" lon="11.0675916"><ele>1766.0</ele><time>2026-04-25T14:05:39.244Z</time></trkpt><trkpt lat="45.7985809" lon="11.0676825"><ele>1771.0</ele><time>2026-04-25T14:05:41.208Z</time></trkpt><trkpt lat="45.7985746" lon="11.0678041"><ele>1776.0</ele><time>2026-04-25T14:05:44.212Z</time></trkpt><trkpt lat="45.7985937" lon="11.0679144"><ele>1781.0</ele><time>2026-04-25T14:05:47.245Z</time></trkpt><trkpt lat="45.7985668" lon="11.0679995"><ele>1786.0</ele><time>2026-04-25T14:05:51.203Z</time></trkpt><trkpt lat="45.7985247" lon="11.0680675"><ele>1791.0</ele><time>2026-04-25T14:05:54.264Z</time></trkpt><trkpt lat="45.798479" lon="11.068198"><ele>1794.142857142857</ele><time>2026-04-25T14:06:01.212Z</time></trkpt><trkpt lat="45.7984249" lon="11.0682569"><ele>1797.2857142857142</ele><time>2026-04-25T14:06:05.208Z</time></trkpt><trkpt lat="45.7983473" lon="11.0682458"><ele>1800.4285714285716</ele><time>2026-04-25T14:06:09.211Z</time></trkpt><trkpt lat="45.7983771" lon="11.0683283"><ele>1803.5714285714284</ele><time>2026-04-25T14:07:31.242Z</time></trkpt><trkpt lat="45.7984443" lon="11.0683714"><ele>1806.7142857142858</ele><time>2026-04-25T14:08:00.208Z</time></trkpt><trkpt lat="45.7984741" lon="11.0684749"><ele>1809.857142857143</ele><time>2026-04-25T14:08:04.231Z</time></trkpt><trkpt lat="45.7985196" lon="11.0685388"><ele>1813.0</ele><time>2026-04-25T14:08:08.206Z</time></trkpt><trkpt lat="45.7984506" lon="11.0685311"><ele>1800.6666666666667</ele><time>2026-04-25T14:08:16.202Z</time></trkpt><trkpt lat="45.7983865" lon="11.0684647"><ele>1788.3333333333335</ele><time>2026-04-25T14:08:20.207Z</time></trkpt><trkpt lat="45.7983294" lon="11.0683894"><ele>1776.0</ele><time>2026-04-25T14:08:23.208Z</time></trkpt><trkpt lat="45.798273" lon="11.0683383"><ele>1763.6666666666665</ele><time>2026-04-25T14:08:28.205Z</time></trkpt><trkpt lat="45.798255" lon="11.0684329"><ele>1751.3333333333333</ele><time>2026-04-25T14:09:59.208Z</time></trkpt><trkpt lat="45.7982981" lon="11.0685236"><ele>1739.0</ele><time>2026-04-25T14:10:02.203Z</time></trkpt><trkpt lat="45.798316" lon="11.0686414"><ele>1738.9999999999998</ele><time>2026-04-25T14:10:06.211Z</time></trkpt><trkpt lat="45.7983133" lon="11.0687402"><ele>1739.0</ele><time>2026-04-25T14:10:10.209Z</time></trkpt><trkpt lat="45.7982487" lon="11.0687302"><ele>1739.0</ele><time>2026-04-25T14:10:16.205Z</time></trkpt><trkpt lat="45.7982248" lon="11.0686245"><ele>1739.0</ele><time>2026-04-25T14:10:20.295Z</time></trkpt><trkpt lat="45.798187" lon="11.0687054"><ele>1739.0</ele><time>2026-04-25T14:10:35.205Z</time></trkpt><trkpt lat="45.798154" lon="11.0688044"><ele>1738.9999999999998</ele><time>2026-04-25T14:10:39.236Z</time></trkpt><trkpt lat="45.7981319" lon="11.0689127"><ele>1739.0</ele><time>2026-04-25T14:10:42.241Z</time></trkpt><trkpt lat="45.7980941" lon="11.0689964"><ele>1738.9999999999998</ele><time>2026-04-25T14:10:45.212Z</time></trkpt><trkpt lat="45.7980516" lon="11.0690925"><ele>1739.0</ele><time>2026-04-25T14:11:16.219Z</time></trkpt><trkpt lat="45.7979938" lon="11.0691566"><ele>1739.0</ele><time>2026-04-25T14:11:22.204Z</time></trkpt><trkpt lat="45.7979198" lon="11.0691942"><ele>1739.0</ele><time>2026-04-25T14:11:27.206Z</time></trkpt><trkpt lat="45.7978657" lon="11.0692514"><ele>1738.9999999999998</ele><time>2026-04-25T14:11:37.21Z</time></trkpt><trkpt lat="45.7978006" lon="11.0692862"><ele>1739.0</ele><time>2026-04-25T14:11:40.209Z</time></trkpt><trkpt lat="45.7977193" lon="11.0693373"><ele>1732.8333333333333</ele><time>2026-04-25T14:11:43.211Z</time></trkpt><trkpt lat="45.7976581" lon="11.0693861"><ele>1726.6666666666665</ele><time>2026-04-25T14:11:45.248Z</time></trkpt><trkpt lat="45.7975945" lon="11.0694642"><ele>1720.5</ele><time>2026-04-25T14:11:47.209Z</time></trkpt><trkpt lat="45.7975274" lon="11.0695302"><ele>1714.3333333333335</ele><time>2026-04-25T14:11:49.208Z</time></trkpt><trkpt lat="45.7974646" lon="11.069543"><ele>1708.1666666666667</ele><time>2026-04-25T14:11:51.232Z</time></trkpt><trkpt lat="45.7973702" lon="11.0695212"><ele>1702.0</ele><time>2026-04-25T14:11:54.215Z</time></trkpt><trkpt lat="45.797315" lon="11.0694358"><ele>1702.0</ele><time>2026-04-25T14:11:57.258Z</time></trkpt><trkpt lat="45.7972726" lon="11.0693478"><ele>1702.0</ele><time>2026-04-25T14:12:00.207Z</time></trkpt><trkpt lat="45.7972042" lon="11.0692704"><ele>1702.0</ele><time>2026-04-25T14:12:03.195Z</time></trkpt><trkpt lat="45.7971368" lon="11.069235"><ele>1702.0</ele><time>2026-04-25T14:12:06.203Z</time></trkpt><trkpt lat="45.7970639" lon="11.0691882"><ele>1702.0</ele><time>2026-04-25T14:12:10.22Z</time></trkpt><trkpt lat="45.7969968" lon="11.0691751"><ele>1702.0</ele><time>2026-04-25T14:12:14.213Z</time></trkpt><trkpt lat="45.7969322" lon="11.0691795"><ele>1702.0</ele><time>2026-04-25T14:12:21.206Z</time></trkpt><trkpt lat="45.7968593" lon="11.0691833"><ele>1699.0</ele><time>2026-04-25T14:12:26.21Z</time></trkpt><trkpt lat="45.7967836" lon="11.069192"><ele>1696.0</ele><time>2026-04-25T14:13:30.204Z</time></trkpt><trkpt lat="45.7967129" lon="11.0691803"><ele>1693.0</ele><time>2026-04-25T14:13:35.255Z</time></trkpt><trkpt lat="45.7966411" lon="11.0691915"><ele>1690.0</ele><time>2026-04-25T14:13:40.212Z</time></trkpt><trkpt lat="45.7965723" lon="11.0692222"><ele>1687.0</ele><time>2026-04-25T14:14:09.205Z</time></trkpt><trkpt lat="45.7964946" lon="11.0692274"><ele>1684.0</ele><time>2026-04-25T14:14:12.259Z</time></trkpt><trkpt lat="45.7964285" lon="11.06924"><ele>1681.0</ele><time>2026-04-25T14:14:15.269Z</time></trkpt><trkpt lat="45.7963676" lon="11.0692948"><ele>1681.0000000000002</ele><time>2026-04-25T14:14:17.262Z</time></trkpt><trkpt lat="45.796285" lon="11.0693376"><ele>1681.0</ele><time>2026-04-25T14:14:20.225Z</time></trkpt><trkpt lat="45.7961974" lon="11.0693468"><ele>1681.0</ele><time>2026-04-25T14:14:21.274Z</time></trkpt><trkpt lat="45.7961306" lon="11.0693677"><ele>1681.0</ele><time>2026-04-25T14:14:24.268Z</time></trkpt><trkpt lat="45.7960535" lon="11.0693764"><ele>1681.0000000000002</ele><time>2026-04-25T14:14:27.258Z</time></trkpt><trkpt lat="45.7959558" lon="11.0693917"><ele>1681.0</ele><time>2026-04-25T14:14:30.27Z</time></trkpt><trkpt lat="45.7958634" lon="11.0694068"><ele>1681.0</ele><time>2026-04-25T14:14:32.213Z</time></trkpt><trkpt lat="45.7957758" lon="11.0694402"><ele>1681.0</ele><time>2026-04-25T14:14:34.253Z</time></trkpt><trkpt lat="45.7956757" lon="11.0694843"><ele>1681.0</ele><time>2026-04-25T14:14:36.22Z</time></trkpt><trkpt lat="45.7955737" lon="11.0695257"><ele>1681.0</ele><time>2026-04-25T14:14:38.222Z</time></trkpt><trkpt lat="45.795479" lon="11.0695798"><ele>1681.0</ele><time>2026-04-25T14:14:40.214Z</time></trkpt><trkpt lat="45.7953739" lon="11.0696313"><ele>1683.6666666666667</ele><time>2026-04-25T14:14:42.281Z</time></trkpt><trkpt lat="45.7953093" lon="11.069664"><ele>1686.3333333333335</ele><time>2026-04-25T14:14:46.245Z</time></trkpt><trkpt lat="45.7952198" lon="11.069702"><ele>1689.0</ele><time>2026-04-25T14:14:51.241Z</time></trkpt><trkpt lat="45.7951512" lon="11.0697463"><ele>1691.6666666666665</ele><time>2026-04-25T14:14:53.211Z</time></trkpt><trkpt lat="45.7950739" lon="11.0697811"><ele>1694.3333333333333</ele><time>2026-04-25T14:14:55.334Z</time></trkpt><trkpt lat="45.7949558" lon="11.0698389"><ele>1697.0</ele><time>2026-04-25T14:14:57.257Z</time></trkpt><trkpt lat="45.794854" lon="11.0699131"><ele>1689.1666666666665</ele><time>2026-04-25T14:14:59.213Z</time></trkpt><trkpt lat="45.7948002" lon="11.0699676"><ele>1681.3333333333333</ele><time>2026-04-25T14:15:01.217Z</time></trkpt><trkpt lat="45.794724" lon="11.0699659"><ele>1673.5</ele><time>2026-04-25T14:15:07.216Z</time></trkpt><trkpt lat="45.7946575" lon="11.0700152"><ele>1665.6666666666665</ele><time>2026-04-25T14:15:13.238Z</time></trkpt><trkpt lat="45.7946167" lon="11.0700896"><ele>1657.8333333333333</ele><time>2026-04-25T14:15:16.241Z</time></trkpt><trkpt lat="45.794562" lon="11.0701416"><ele>1650.0</ele><time>2026-04-25T14:15:19.208Z</time></trkpt><trkpt lat="45.7944665" lon="11.0701913"><ele>1650.0</ele><time>2026-04-25T14:15:22.241Z</time></trkpt><trkpt lat="45.7943999" lon="11.070227"><ele>1650.0</ele><time>2026-04-25T14:15:25.204Z</time></trkpt><trkpt lat="45.7943409" lon="11.0703071"><ele>1650.0</ele><time>2026-04-25T14:15:28.213Z</time></trkpt><trkpt lat="45.7943046" lon="11.0704042"><ele>1650.0</ele><time>2026-04-25T14:15:31.213Z</time></trkpt><trkpt lat="45.7942628" lon="11.0704814"><ele>1650.0</ele><time>2026-04-25T14:15:34.219Z</time></trkpt><trkpt lat="45.794184" lon="11.0705427"><ele>1650.0</ele><time>2026-04-25T14:15:37.219Z</time></trkpt><trkpt lat="45.7941241" lon="11.0705842"><ele>1652.3333333333333</ele><time>2026-04-25T14:15:39.213Z</time></trkpt><trkpt lat="45.7940486" lon="11.070581"><ele>1654.6666666666665</ele><time>2026-04-25T14:15:43.205Z</time></trkpt><trkpt lat="45.7939964" lon="11.0704889"><ele>1657.0</ele><time>2026-04-25T14:15:47.206Z</time></trkpt><trkpt lat="45.7939334" lon="11.0703978"><ele>1659.3333333333333</ele><time>2026-04-25T14:15:49.216Z</time></trkpt><trkpt lat="45.7938506" lon="11.0703599"><ele>1661.6666666666665</ele><time>2026-04-25T14:15:51.21Z</time></trkpt><trkpt lat="45.7937623" lon="11.0703347"><ele>1664.0</ele><time>2026-04-25T14:15:53.217Z</time></trkpt><trkpt lat="45.7936978" lon="11.0703601"><ele>1664.0</ele><time>2026-04-25T14:15:55.205Z</time></trkpt><trkpt lat="45.7936366" lon="11.0704166"><ele>1664.0</ele><time>2026-04-25T14:15:58.217Z</time></trkpt><trkpt lat="45.7935707" lon="11.0704411"><ele>1664.0</ele><time>2026-04-25T14:16:01.21Z</time></trkpt><trkpt lat="45.7934904" lon="11.0704466"><ele>1664.0</ele><time>2026-04-25T14:16:05.202Z</time></trkpt><trkpt lat="45.7934221" lon="11.0704393"><ele>1664.0</ele><time>2026-04-25T14:16:08.219Z</time></trkpt><trkpt lat="45.7933681" lon="11.0703809"><ele>1664.0</ele><time>2026-04-25T14:16:11.208Z</time></trkpt><trkpt lat="45.7932972" lon="11.070355"><ele>1664.0</ele><time>2026-04-25T14:16:14.208Z</time></trkpt><trkpt lat="45.7932185" lon="11.0703624"><ele>1662.0</ele><time>2026-04-25T14:16:18.204Z</time></trkpt><trkpt lat="45.7931567" lon="11.0703308"><ele>1660.0</ele><time>2026-04-25T14:16:21.214Z</time></trkpt><trkpt lat="45.793058" lon="11.0703341"><ele>1658.0</ele><time>2026-04-25T14:16:24.212Z</time></trkpt><trkpt lat="45.792956" lon="11.0704015"><ele>1656.0</ele><time>2026-04-25T14:16:26.207Z</time></trkpt><trkpt lat="45.792867" lon="11.0704508"><ele>1654.0</ele><time>2026-04-25T14:16:28.206Z</time></trkpt><trkpt lat="45.7927601" lon="11.070493"><ele>1649.5000000000002</ele><time>2026-04-25T14:16:30.212Z</time></trkpt><trkpt lat="45.7926628" lon="11.0705205"><ele>1645.0</ele><time>2026-04-25T14:16:32.216Z</time></trkpt><trkpt lat="45.7926029" lon="11.0705696"><ele>1640.5</ele><time>2026-04-25T14:16:33.215Z</time></trkpt><trkpt lat="45.7925062" lon="11.0705705"><ele>1636.0</ele><time>2026-04-25T14:16:35.22Z</time></trkpt><trkpt lat="45.7924501" lon="11.0705281"><ele>1631.5000000000002</ele><time>2026-04-25T14:16:40.212Z</time></trkpt><trkpt lat="45.792379" lon="11.0705443"><ele>1627.0</ele><time>2026-04-25T14:16:43.215Z</time></trkpt><trkpt lat="45.7923014" lon="11.0705519"><ele>1627.0000000000002</ele><time>2026-04-25T14:16:47.211Z</time></trkpt><trkpt lat="45.7922224" lon="11.0705241"><ele>1627.0</ele><time>2026-04-25T14:16:51.212Z</time></trkpt><trkpt lat="45.7921658" lon="11.0705908"><ele>1627.0</ele><time>2026-04-25T14:16:55.207Z</time></trkpt><trkpt lat="45.7921257" lon="11.0706699"><ele>1627.0</ele><time>2026-04-25T14:16:58.211Z</time></trkpt><trkpt lat="45.7920729" lon="11.0707247"><ele>1627.0000000000002</ele><time>2026-04-25T14:17:00.214Z</time></trkpt><trkpt lat="45.7920076" lon="11.0707829"><ele>1627.0</ele><time>2026-04-25T14:17:03.235Z</time></trkpt><trkpt lat="45.7919231" lon="11.070799"><ele>1629.0000000000002</ele><time>2026-04-25T14:17:06.211Z</time></trkpt><trkpt lat="45.7918412" lon="11.0708135"><ele>1631.0</ele><time>2026-04-25T14:17:09.208Z</time></trkpt><trkpt lat="45.7917617" lon="11.0708573"><ele>1633.0</ele><time>2026-04-25T14:17:12.213Z</time></trkpt><trkpt lat="45.7916919" lon="11.0708825"><ele>1635.0</ele><time>2026-04-25T14:17:15.224Z</time></trkpt><trkpt lat="45.7916084" lon="11.0709219"><ele>1637.0000000000002</ele><time>2026-04-25T14:17:18.331Z</time></trkpt><trkpt lat="45.791524" lon="11.0709836"><ele>1639.0</ele><time>2026-04-25T14:17:22.214Z</time></trkpt><trkpt lat="45.7914453" lon="11.0709767"><ele>1639.0000000000002</ele><time>2026-04-25T14:17:25.216Z</time></trkpt><trkpt lat="45.7913791" lon="11.0710004"><ele>1639.0</ele><time>2026-04-25T14:17:27.223Z</time></trkpt><trkpt lat="45.7913029" lon="11.0710373"><ele>1639.0</ele><time>2026-04-25T14:17:29.219Z</time></trkpt><trkpt lat="45.7912332" lon="11.0710063"><ele>1639.0</ele><time>2026-04-25T14:17:30.215Z</time></trkpt><trkpt lat="45.7911839" lon="11.0709485"><ele>1639.0000000000002</ele><time>2026-04-25T14:17:31.214Z</time></trkpt><trkpt lat="45.7911111" lon="11.0708589"><ele>1639.0</ele><time>2026-04-25T14:17:33.216Z</time></trkpt><trkpt lat="45.7910192" lon="11.0708631"><ele>1639.8000000000002</ele><time>2026-04-25T14:17:35.23Z</time></trkpt><trkpt lat="45.7909151" lon="11.0708504"><ele>1640.6000000000001</ele><time>2026-04-25T14:17:37.245Z</time></trkpt><trkpt lat="45.7908419" lon="11.0708881"><ele>1641.4</ele><time>2026-04-25T14:17:38.228Z</time></trkpt><trkpt lat="45.7906865" lon="11.0709426"><ele>1642.2</ele><time>2026-04-25T14:17:41.225Z</time></trkpt><trkpt lat="45.7905928" lon="11.070931"><ele>1643.0</ele><time>2026-04-25T14:17:43.251Z</time></trkpt><trkpt lat="45.7905145" lon="11.0710078"><ele>1643.0</ele><time>2026-04-25T14:17:45.262Z</time></trkpt><trkpt lat="45.7904507" lon="11.0710375"><ele>1643.0</ele><time>2026-04-25T14:17:47.219Z</time></trkpt><trkpt lat="45.7903888" lon="11.0710927"><ele>1643.0</ele><time>2026-04-25T14:17:49.211Z</time></trkpt><trkpt lat="45.7903197" lon="11.071146"><ele>1643.0</ele><time>2026-04-25T14:17:51.211Z</time></trkpt><trkpt lat="45.7902552" lon="11.071178"><ele>1643.0</ele><time>2026-04-25T14:17:53.266Z</time></trkpt><trkpt lat="45.7901963" lon="11.0711338"><ele>1643.0</ele><time>2026-04-25T14:17:55.218Z</time></trkpt><trkpt lat="45.7901232" lon="11.0710895"><ele>1643.0</ele><time>2026-04-25T14:17:58.226Z</time></trkpt><trkpt lat="45.7900683" lon="11.0710325"><ele>1644.4999999999998</ele><time>2026-04-25T14:18:00.216Z</time></trkpt><trkpt lat="45.7900356" lon="11.0709154"><ele>1646.0</ele><time>2026-04-25T14:18:03.215Z</time></trkpt><trkpt lat="45.7899996" lon="11.0708289"><ele>1647.5</ele><time>2026-04-25T14:18:05.23Z</time></trkpt><trkpt lat="45.7899558" lon="11.0707371"><ele>1649.0</ele><time>2026-04-25T14:18:07.226Z</time></trkpt><trkpt lat="45.7898551" lon="11.0706502"><ele>1650.4999999999998</ele><time>2026-04-25T14:18:09.222Z</time></trkpt><trkpt lat="45.7897627" lon="11.0706302"><ele>1652.0</ele><time>2026-04-25T14:18:11.222Z</time></trkpt><trkpt lat="45.7896861" lon="11.070596"><ele>1652.3333333333333</ele><time>2026-04-25T14:18:13.213Z</time></trkpt><trkpt lat="45.7895782" lon="11.0705626"><ele>1652.6666666666665</ele><time>2026-04-25T14:18:15.217Z</time></trkpt><trkpt lat="45.789513" lon="11.0705367"><ele>1653.0</ele><time>2026-04-25T14:18:17.219Z</time></trkpt><trkpt lat="45.7894437" lon="11.0705536"><ele>1653.3333333333335</ele><time>2026-04-25T14:18:19.221Z</time></trkpt><trkpt lat="45.7893689" lon="11.0706266"><ele>1653.6666666666667</ele><time>2026-04-25T14:18:21.222Z</time></trkpt><trkpt lat="45.7893086" lon="11.0707134"><ele>1654.0</ele><time>2026-04-25T14:18:23.214Z</time></trkpt><trkpt lat="45.7892541" lon="11.0708033"><ele>1654.0000000000002</ele><time>2026-04-25T14:18:25.209Z</time></trkpt><trkpt lat="45.7891865" lon="11.0708856"><ele>1654.0</ele><time>2026-04-25T14:18:28.223Z</time></trkpt><trkpt lat="45.7891168" lon="11.0709366"><ele>1654.0</ele><time>2026-04-25T14:18:31.214Z</time></trkpt><trkpt lat="45.7890525" lon="11.0709605"><ele>1654.0</ele><time>2026-04-25T14:18:33.216Z</time></trkpt><trkpt lat="45.7889595" lon="11.0709864"><ele>1654.0000000000002</ele><time>2026-04-25T14:18:36.214Z</time></trkpt><trkpt lat="45.7888864" lon="11.071011"><ele>1654.0</ele><time>2026-04-25T14:18:38.214Z</time></trkpt><trkpt lat="45.7888006" lon="11.0710268"><ele>1654.0</ele><time>2026-04-25T14:18:41.217Z</time></trkpt><trkpt lat="45.7887437" lon="11.0710987"><ele>1654.0</ele><time>2026-04-25T14:18:43.214Z</time></trkpt><trkpt lat="45.7886989" lon="11.071169"><ele>1654.0</ele><time>2026-04-25T14:18:45.212Z</time></trkpt><trkpt lat="45.7886516" lon="11.0712338"><ele>1654.0</ele><time>2026-04-25T14:18:48.228Z</time></trkpt><trkpt lat="45.788584" lon="11.071262"><ele>1654.0</ele><time>2026-04-25T14:19:34.211Z</time></trkpt><trkpt lat="45.7886453" lon="11.0712396"><ele>1654.0</ele><time>2026-04-25T14:19:54.219Z</time></trkpt><trkpt lat="45.7886483" lon="11.0711458"><ele>1654.0</ele><time>2026-04-25T14:20:07.212Z</time></trkpt><trkpt lat="45.7885797" lon="11.0711523"><ele>1650.8333333333335</ele><time>2026-04-25T14:20:50.208Z</time></trkpt><trkpt lat="45.7884942" lon="11.0711847"><ele>1647.6666666666667</ele><time>2026-04-25T14:20:53.211Z</time></trkpt><trkpt lat="45.7884306" lon="11.0711889"><ele>1644.5</ele><time>2026-04-25T14:20:55.217Z</time></trkpt><trkpt lat="45.7883629" lon="11.071255"><ele>1641.3333333333335</ele><time>2026-04-25T14:20:58.218Z</time></trkpt><trkpt lat="45.7882985" lon="11.071315"><ele>1638.1666666666667</ele><time>2026-04-25T14:21:01.222Z</time></trkpt><trkpt lat="45.7882208" lon="11.0713568"><ele>1635.0</ele><time>2026-04-25T14:21:04.355Z</time></trkpt><trkpt lat="45.7881373" lon="11.0713626"><ele>1635.0</ele><time>2026-04-25T14:21:07.261Z</time></trkpt><trkpt lat="45.7880751" lon="11.0713312"><ele>1635.0</ele><time>2026-04-25T14:21:10.242Z</time></trkpt><trkpt lat="45.7880133" lon="11.0712453"><ele>1635.0</ele><time>2026-04-25T14:21:13.221Z</time></trkpt><trkpt lat="45.787971" lon="11.0711551"><ele>1635.0</ele><time>2026-04-25T14:21:16.214Z</time></trkpt><trkpt lat="45.7879284" lon="11.0710546"><ele>1635.0</ele><time>2026-04-25T14:21:19.235Z</time></trkpt><trkpt lat="45.7878663" lon="11.0709956"><ele>1635.0</ele><time>2026-04-25T14:21:23.215Z</time></trkpt><trkpt lat="45.7877933" lon="11.0709852"><ele>1635.0</ele><time>2026-04-25T14:21:26.218Z</time></trkpt><trkpt lat="45.7877144" lon="11.0709892"><ele>1635.0</ele><time>2026-04-25T14:21:29.217Z</time></trkpt><trkpt lat="45.7876455" lon="11.0710057"><ele>1635.0</ele><time>2026-04-25T14:21:32.223Z</time></trkpt><trkpt lat="45.7875818" lon="11.0709943"><ele>1635.0</ele><time>2026-04-25T14:21:35.23Z</time></trkpt><trkpt lat="45.7875015" lon="11.0710361"><ele>1635.0</ele><time>2026-04-25T14:21:38.219Z</time></trkpt><trkpt lat="45.7874262" lon="11.0710972"><ele>1635.0</ele><time>2026-04-25T14:21:41.265Z</time></trkpt><trkpt lat="45.7873539" lon="11.0711137"><ele>1634.4</ele><time>2026-04-25T14:21:44.218Z</time></trkpt><trkpt lat="45.7872539" lon="11.0711105"><ele>1633.8</ele><time>2026-04-25T14:21:47.223Z</time></trkpt><trkpt lat="45.7871679" lon="11.0711071"><ele>1633.1999999999998</ele><time>2026-04-25T14:21:49.224Z</time></trkpt><trkpt lat="45.7870891" lon="11.0711349"><ele>1632.6</ele><time>2026-04-25T14:21:51.223Z</time></trkpt><trkpt lat="45.787005" lon="11.0711238"><ele>1632.0</ele><time>2026-04-25T14:21:53.218Z</time></trkpt><trkpt lat="45.7869053" lon="11.0710689"><ele>1634.6</ele><time>2026-04-25T14:21:55.213Z</time></trkpt><trkpt lat="45.7868014" lon="11.0710395"><ele>1637.1999999999998</ele><time>2026-04-25T14:21:57.217Z</time></trkpt><trkpt lat="45.7866944" lon="11.0710081"><ele>1639.8</ele><time>2026-04-25T14:21:59.24Z</time></trkpt><trkpt lat="45.7866453" lon="11.0709177"><ele>1642.4</ele><time>2026-04-25T14:22:01.208Z</time></trkpt><trkpt lat="45.7865803" lon="11.070877"><ele>1645.0</ele><time>2026-04-25T14:22:03.261Z</time></trkpt><trkpt lat="45.7865201" lon="11.0707828"><ele>1637.0</ele><time>2026-04-25T14:22:05.219Z</time></trkpt><trkpt lat="45.7864655" lon="11.0706355"><ele>1629.0</ele><time>2026-04-25T14:22:07.233Z</time></trkpt><trkpt lat="45.7864179" lon="11.0705303"><ele>1621.0</ele><time>2026-04-25T14:22:09.208Z</time></trkpt><trkpt lat="45.786326" lon="11.0704268"><ele>1613.0</ele><time>2026-04-25T14:22:11.221Z</time></trkpt><trkpt lat="45.7862418" lon="11.070338"><ele>1605.0</ele><time>2026-04-25T14:22:13.228Z</time></trkpt><trkpt lat="45.7861777" lon="11.0702654"><ele>1605.0</ele><time>2026-04-25T14:22:15.249Z</time></trkpt><trkpt lat="45.7861195" lon="11.0701299"><ele>1605.0</ele><time>2026-04-25T14:22:17.22Z</time></trkpt><trkpt lat="45.7860685" lon="11.0700084"><ele>1605.0</ele><time>2026-04-25T14:22:19.216Z</time></trkpt><trkpt lat="45.7859984" lon="11.0698813"><ele>1605.0</ele><time>2026-04-25T14:22:21.227Z</time></trkpt><trkpt lat="45.7859692" lon="11.0697738"><ele>1605.0</ele><time>2026-04-25T14:22:22.222Z</time></trkpt><trkpt lat="45.7859456" lon="11.0696833"><ele>1604.8333333333333</ele><time>2026-04-25T14:22:23.215Z</time></trkpt><trkpt lat="45.7858653" lon="11.0696412"><ele>1604.6666666666665</ele><time>2026-04-25T14:22:25.208Z</time></trkpt><trkpt lat="45.7858023" lon="11.0696146"><ele>1604.5</ele><time>2026-04-25T14:22:28.219Z</time></trkpt><trkpt lat="45.785816" lon="11.0695195"><ele>1604.3333333333333</ele><time>2026-04-25T14:23:05.21Z</time></trkpt><trkpt lat="45.7857864" lon="11.0696143"><ele>1604.1666666666665</ele><time>2026-04-25T14:24:01.222Z</time></trkpt><trkpt lat="45.7857438" lon="11.0697096"><ele>1604.0</ele><time>2026-04-25T14:24:04.218Z</time></trkpt><trkpt lat="45.7856683" lon="11.0697659"><ele>1603.9999999999998</ele><time>2026-04-25T14:24:06.209Z</time></trkpt><trkpt lat="45.7856044" lon="11.0698257"><ele>1604.0</ele><time>2026-04-25T14:24:08.211Z</time></trkpt><trkpt lat="45.7855334" lon="11.0698984"><ele>1604.0</ele><time>2026-04-25T14:24:10.216Z</time></trkpt><trkpt lat="45.7854738" lon="11.0699605"><ele>1604.0</ele><time>2026-04-25T14:24:12.215Z</time></trkpt><trkpt lat="45.7854015" lon="11.0699929"><ele>1603.9999999999998</ele><time>2026-04-25T14:24:14.208Z</time></trkpt><trkpt lat="45.7853244" lon="11.0700588"><ele>1604.0</ele><time>2026-04-25T14:24:16.215Z</time></trkpt><trkpt lat="45.7852444" lon="11.070175"><ele>1603.2</ele><time>2026-04-25T14:24:18.221Z</time></trkpt><trkpt lat="45.7851588" lon="11.0702761"><ele>1602.4</ele><time>2026-04-25T14:24:20.257Z</time></trkpt><trkpt lat="45.7850597" lon="11.0703603"><ele>1601.6</ele><time>2026-04-25T14:24:22.268Z</time></trkpt><trkpt lat="45.7849689" lon="11.0704653"><ele>1600.8</ele><time>2026-04-25T14:24:24.216Z</time></trkpt><trkpt lat="45.7849219" lon="11.070526"><ele>1600.0</ele><time>2026-04-25T14:24:25.221Z</time></trkpt><trkpt lat="45.7848718" lon="11.0705889"><ele>1600.0000000000002</ele><time>2026-04-25T14:24:26.227Z</time></trkpt><trkpt lat="45.7848192" lon="11.0706514"><ele>1600.0</ele><time>2026-04-25T14:24:27.21Z</time></trkpt><trkpt lat="45.784768" lon="11.0707095"><ele>1600.0</ele><time>2026-04-25T14:24:28.243Z</time></trkpt><trkpt lat="45.7847077" lon="11.070769"><ele>1600.0</ele><time>2026-04-25T14:24:29.222Z</time></trkpt><trkpt lat="45.7846462" lon="11.0708257"><ele>1600.0000000000002</ele><time>2026-04-25T14:24:30.222Z</time></trkpt><trkpt lat="45.7845937" lon="11.0708791"><ele>1600.0</ele><time>2026-04-25T14:24:31.222Z</time></trkpt><trkpt lat="45.7844982" lon="11.0709532"><ele>1604.8333333333335</ele><time>2026-04-25T14:24:33.234Z</time></trkpt><trkpt lat="45.784412" lon="11.0709897"><ele>1609.6666666666667</ele><time>2026-04-25T14:24:35.223Z</time></trkpt><trkpt lat="45.7843758" lon="11.071066"><ele>1614.5</ele><time>2026-04-25T14:25:17.26Z</time></trkpt><trkpt lat="45.7844215" lon="11.0711815"><ele>1619.3333333333335</ele><time>2026-04-25T14:25:20.211Z</time></trkpt><trkpt lat="45.784455" lon="11.0712999"><ele>1624.1666666666667</ele><time>2026-04-25T14:25:22.212Z</time></trkpt><trkpt lat="45.7844943" lon="11.0714151"><ele>1629.0</ele><time>2026-04-25T14:25:24.287Z</time></trkpt><trkpt lat="45.7845619" lon="11.0715541"><ele>1628.8000000000002</ele><time>2026-04-25T14:25:26.217Z</time></trkpt><trkpt lat="45.7846055" lon="11.0716274"><ele>1628.6000000000001</ele><time>2026-04-25T14:25:27.219Z</time></trkpt><trkpt lat="45.7846806" lon="11.0717448"><ele>1628.4</ele><time>2026-04-25T14:25:29.215Z</time></trkpt><trkpt lat="45.7847424" lon="11.0718958"><ele>1628.2</ele><time>2026-04-25T14:25:31.213Z</time></trkpt><trkpt lat="45.7847842" lon="11.0720511"><ele>1628.0</ele><time>2026-04-25T14:25:33.22Z</time></trkpt><trkpt lat="45.7848019" lon="11.0722033"><ele>1628.0</ele><time>2026-04-25T14:25:35.221Z</time></trkpt><trkpt lat="45.7848228" lon="11.07238"><ele>1628.0</ele><time>2026-04-25T14:25:37.224Z</time></trkpt><trkpt lat="45.7848322" lon="11.072484"><ele>1628.0</ele><time>2026-04-25T14:25:38.242Z</time></trkpt><trkpt lat="45.7848817" lon="11.0725412"><ele>1628.0</ele><time>2026-04-25T14:25:39.222Z</time></trkpt><trkpt lat="45.7849037" lon="11.0726281"><ele>1628.0</ele><time>2026-04-25T14:25:40.222Z</time></trkpt><trkpt lat="45.784909" lon="11.0728208"><ele>1625.3333333333333</ele><time>2026-04-25T14:25:42.214Z</time></trkpt><trkpt lat="45.7848912" lon="11.0729109"><ele>1622.6666666666665</ele><time>2026-04-25T14:25:43.233Z</time></trkpt><trkpt lat="45.7848422" lon="11.0730774"><ele>1620.0</ele><time>2026-04-25T14:25:45.224Z</time></trkpt><trkpt lat="45.7847952" lon="11.0731533"><ele>1617.3333333333335</ele><time>2026-04-25T14:25:46.228Z</time></trkpt><trkpt lat="45.7847429" lon="11.0732174"><ele>1614.6666666666667</ele><time>2026-04-25T14:25:47.283Z</time></trkpt><trkpt lat="45.784641" lon="11.0732982"><ele>1612.0</ele><time>2026-04-25T14:25:49.229Z</time></trkpt><trkpt lat="45.7845439" lon="11.0733795"><ele>1612.0</ele><time>2026-04-25T14:25:51.221Z</time></trkpt><trkpt lat="45.7844896" lon="11.0734381"><ele>1612.0</ele><time>2026-04-25T14:25:52.224Z</time></trkpt><trkpt lat="45.7844444" lon="11.073506"><ele>1612.0</ele><time>2026-04-25T14:25:53.222Z</time></trkpt><trkpt lat="45.7843625" lon="11.0736234"><ele>1612.0</ele><time>2026-04-25T14:25:55.259Z</time></trkpt><trkpt lat="45.784273" lon="11.0737001"><ele>1612.0</ele><time>2026-04-25T14:25:57.221Z</time></trkpt><trkpt lat="45.7842237" lon="11.0738326"><ele>1602.0</ele><time>2026-04-25T14:25:59.254Z</time></trkpt><trkpt lat="45.7842034" lon="11.0739865"><ele>1592.0</ele><time>2026-04-25T14:26:01.201Z</time></trkpt><trkpt lat="45.7842006" lon="11.0741295"><ele>1582.0</ele><time>2026-04-25T14:26:03.228Z</time></trkpt><trkpt lat="45.784126" lon="11.0742587"><ele>1572.0</ele><time>2026-04-25T14:26:05.268Z</time></trkpt><trkpt lat="45.7840583" lon="11.0744115"><ele>1572.0</ele><time>2026-04-25T14:26:07.231Z</time></trkpt><trkpt lat="45.7840032" lon="11.074556"><ele>1572.0</ele><time>2026-04-25T14:26:09.23Z</time></trkpt><trkpt lat="45.7840001" lon="11.074739"><ele>1572.0</ele><time>2026-04-25T14:26:11.222Z</time></trkpt><trkpt lat="45.7839372" lon="11.0748921"><ele>1572.0</ele><time>2026-04-25T14:26:13.221Z</time></trkpt><trkpt lat="45.7838779" lon="11.0750465"><ele>1575.6</ele><time>2026-04-25T14:26:15.219Z</time></trkpt><trkpt lat="45.7838495" lon="11.0751271"><ele>1579.1999999999998</ele><time>2026-04-25T14:26:16.222Z</time></trkpt><trkpt lat="45.7838068" lon="11.0752094"><ele>1582.8</ele><time>2026-04-25T14:26:17.226Z</time></trkpt><trkpt lat="45.7837512" lon="11.0752969"><ele>1586.4</ele><time>2026-04-25T14:26:18.271Z</time></trkpt><trkpt lat="45.7837131" lon="11.0753871"><ele>1590.0</ele><time>2026-04-25T14:26:19.342Z</time></trkpt><trkpt lat="45.7835761" lon="11.0755281"><ele>1580.4</ele><time>2026-04-25T14:26:21.226Z</time></trkpt><trkpt lat="45.7835018" lon="11.075564"><ele>1570.8</ele><time>2026-04-25T14:26:22.227Z</time></trkpt><trkpt lat="45.7833521" lon="11.0755835"><ele>1561.1999999999998</ele><time>2026-04-25T14:26:24.219Z</time></trkpt><trkpt lat="45.7832774" lon="11.0755868"><ele>1551.6</ele><time>2026-04-25T14:26:25.23Z</time></trkpt><trkpt lat="45.7831851" lon="11.075577"><ele>1542.0</ele><time>2026-04-25T14:26:26.223Z</time></trkpt><trkpt lat="45.7830842" lon="11.0755586"><ele>1542.0</ele><time>2026-04-25T14:26:27.221Z</time></trkpt><trkpt lat="45.7830068" lon="11.0755819"><ele>1542.0</ele><time>2026-04-25T14:26:28.216Z</time></trkpt><trkpt lat="45.7829369" lon="11.0755948"><ele>1542.0</ele><time>2026-04-25T14:26:29.217Z</time></trkpt><trkpt lat="45.7828706" lon="11.0756037"><ele>1542.0</ele><time>2026-04-25T14:26:30.223Z</time></trkpt><trkpt lat="45.7827939" lon="11.0756086"><ele>1542.0</ele><time>2026-04-25T14:26:31.223Z</time></trkpt><trkpt lat="45.7827305" lon="11.0756291"><ele>1542.0</ele><time>2026-04-25T14:26:32.224Z</time></trkpt><trkpt lat="45.7826442" lon="11.0756593"><ele>1542.0</ele><time>2026-04-25T14:26:33.219Z</time></trkpt><trkpt lat="45.7825576" lon="11.0757004"><ele>1543.1999999999998</ele><time>2026-04-25T14:26:34.218Z</time></trkpt><trkpt lat="45.7824769" lon="11.0757465"><ele>1544.4</ele><time>2026-04-25T14:26:35.223Z</time></trkpt><trkpt lat="45.7824071" lon="11.0757803"><ele>1545.6</ele><time>2026-04-25T14:26:36.222Z</time></trkpt><trkpt lat="45.7822742" lon="11.0758501"><ele>1546.8000000000002</ele><time>2026-04-25T14:26:38.252Z</time></trkpt><trkpt lat="45.7822065" lon="11.0758799"><ele>1548.0</ele><time>2026-04-25T14:26:39.218Z</time></trkpt><trkpt lat="45.7820877" lon="11.0759269"><ele>1548.0</ele><time>2026-04-25T14:26:42.092Z</time></trkpt><trkpt lat="45.7819783" lon="11.0760132"><ele>1548.0</ele><time>2026-04-25T14:26:43.222Z</time></trkpt><trkpt lat="45.7819426" lon="11.0761703"><ele>1548.0</ele><time>2026-04-25T14:26:45.228Z</time></trkpt><trkpt lat="45.7819029" lon="11.076325"><ele>1548.0</ele><time>2026-04-25T14:26:47.227Z</time></trkpt><trkpt lat="45.7818917" lon="11.0764208"><ele>1548.0</ele><time>2026-04-25T14:26:48.223Z</time></trkpt><trkpt lat="45.7818739" lon="11.076514"><ele>1552.1666666666667</ele><time>2026-04-25T14:26:49.291Z</time></trkpt><trkpt lat="45.7818689" lon="11.0766216"><ele>1556.3333333333335</ele><time>2026-04-25T14:26:50.223Z</time></trkpt><trkpt lat="45.7818397" lon="11.0768043"><ele>1560.5</ele><time>2026-04-25T14:26:52.217Z</time></trkpt><trkpt lat="45.7818243" lon="11.0769453"><ele>1564.6666666666667</ele><time>2026-04-25T14:26:54.219Z</time></trkpt><trkpt lat="45.7817826" lon="11.0770259"><ele>1568.8333333333335</ele><time>2026-04-25T14:26:55.227Z</time></trkpt><trkpt lat="45.781732" lon="11.0770876"><ele>1573.0</ele><time>2026-04-25T14:26:56.219Z</time></trkpt><trkpt lat="45.7816772" lon="11.077135"><ele>1567.0000000000002</ele><time>2026-04-25T14:26:57.219Z</time></trkpt><trkpt lat="45.7816032" lon="11.0771791"><ele>1561.0</ele><time>2026-04-25T14:26:58.205Z</time></trkpt><trkpt lat="45.7815298" lon="11.0772233"><ele>1555.0</ele><time>2026-04-25T14:26:59.218Z</time></trkpt><trkpt lat="45.7814615" lon="11.0772619"><ele>1549.0</ele><time>2026-04-25T14:27:00.215Z</time></trkpt><trkpt lat="45.7813536" lon="11.0773605"><ele>1543.0000000000002</ele><time>2026-04-25T14:27:02.217Z</time></trkpt><trkpt lat="45.7813152" lon="11.0774396"><ele>1537.0</ele><time>2026-04-25T14:27:03.217Z</time></trkpt><trkpt lat="45.7812546" lon="11.0775975"><ele>1537.0000000000002</ele><time>2026-04-25T14:27:05.222Z</time></trkpt><trkpt lat="45.7812132" lon="11.0776806"><ele>1537.0</ele><time>2026-04-25T14:27:06.22Z</time></trkpt><trkpt lat="45.7811727" lon="11.0777602"><ele>1537.0</ele><time>2026-04-25T14:27:07.293Z</time></trkpt><trkpt lat="45.7811189" lon="11.0778413"><ele>1537.0</ele><time>2026-04-25T14:27:08.33Z</time></trkpt><trkpt lat="45.7810562" lon="11.0780123"><ele>1537.0000000000002</ele><time>2026-04-25T14:27:10.221Z</time></trkpt><trkpt lat="45.7810203" lon="11.0780925"><ele>1537.0</ele><time>2026-04-25T14:27:11.264Z</time></trkpt><trkpt lat="45.7809795" lon="11.0781648"><ele>1531.6</ele><time>2026-04-25T14:27:12.22Z</time></trkpt><trkpt lat="45.7809008" lon="11.078319"><ele>1526.1999999999998</ele><time>2026-04-25T14:27:14.217Z</time></trkpt><trkpt lat="45.780856" lon="11.0784074"><ele>1520.8</ele><time>2026-04-25T14:27:15.221Z</time></trkpt><trkpt lat="45.7808135" lon="11.0785035"><ele>1515.4</ele><time>2026-04-25T14:27:16.224Z</time></trkpt><trkpt lat="45.7807711" lon="11.0786007"><ele>1510.0</ele><time>2026-04-25T14:27:17.222Z</time></trkpt><trkpt lat="45.7807268" lon="11.0786995"><ele>1510.0</ele><time>2026-04-25T14:27:18.2Z</time></trkpt><trkpt lat="45.7807109" lon="11.0788093"><ele>1510.0</ele><time>2026-04-25T14:27:19.225Z</time></trkpt><trkpt lat="45.7806973" lon="11.078916"><ele>1510.0</ele><time>2026-04-25T14:27:20.252Z</time></trkpt><trkpt lat="45.7806921" lon="11.0790179"><ele>1510.0</ele><time>2026-04-25T14:27:21.22Z</time></trkpt><trkpt lat="45.7806902" lon="11.0791103"><ele>1510.0</ele><time>2026-04-25T14:27:22.225Z</time></trkpt><trkpt lat="45.7807267" lon="11.0792702"><ele>1510.0</ele><time>2026-04-25T14:27:24.223Z</time></trkpt><trkpt lat="45.7807315" lon="11.0794023"><ele>1510.6666666666665</ele><time>2026-04-25T14:27:26.222Z</time></trkpt><trkpt lat="45.780778" lon="11.0795452"><ele>1511.3333333333333</ele><time>2026-04-25T14:27:28.228Z</time></trkpt><trkpt lat="45.7808099" lon="11.0796262"><ele>1512.0</ele><time>2026-04-25T14:27:29.217Z</time></trkpt><trkpt lat="45.7808284" lon="11.0797125"><ele>1512.6666666666667</ele><time>2026-04-25T14:27:30.223Z</time></trkpt><trkpt lat="45.780885" lon="11.0798654"><ele>1513.3333333333335</ele><time>2026-04-25T14:27:32.211Z</time></trkpt><trkpt lat="45.7809064" lon="11.0799525"><ele>1514.0</ele><time>2026-04-25T14:27:33.226Z</time></trkpt><trkpt lat="45.7809292" lon="11.0800427"><ele>1511.8333333333335</ele><time>2026-04-25T14:27:34.221Z</time></trkpt><trkpt lat="45.7809642" lon="11.0801465"><ele>1509.6666666666667</ele><time>2026-04-25T14:27:35.225Z</time></trkpt><trkpt lat="45.7809709" lon="11.0802427"><ele>1507.5</ele><time>2026-04-25T14:27:36.226Z</time></trkpt><trkpt lat="45.7809796" lon="11.0803344"><ele>1505.3333333333333</ele><time>2026-04-25T14:27:37.22Z</time></trkpt><trkpt lat="45.780989" lon="11.0804425"><ele>1503.1666666666665</ele><time>2026-04-25T14:27:38.221Z</time></trkpt><trkpt lat="45.7809625" lon="11.0805434"><ele>1501.0</ele><time>2026-04-25T14:27:39.224Z</time></trkpt><trkpt lat="45.7809467" lon="11.0807359"><ele>1500.7142857142856</ele><time>2026-04-25T14:27:41.224Z</time></trkpt><trkpt lat="45.7809072" lon="11.0808228"><ele>1500.4285714285713</ele><time>2026-04-25T14:27:42.224Z</time></trkpt><trkpt lat="45.7808684" lon="11.0809007"><ele>1500.142857142857</ele><time>2026-04-25T14:27:43.223Z</time></trkpt><trkpt lat="45.7808082" lon="11.0809603"><ele>1499.8571428571427</ele><time>2026-04-25T14:27:44.219Z</time></trkpt><trkpt lat="45.780784" lon="11.0810505"><ele>1499.5714285714287</ele><time>2026-04-25T14:27:45.224Z</time></trkpt><trkpt lat="45.7807418" lon="11.081128"><ele>1499.2857142857142</ele><time>2026-04-25T14:27:46.231Z</time></trkpt><trkpt lat="45.7807059" lon="11.0812203"><ele>1499.0</ele><time>2026-04-25T14:27:47.22Z</time></trkpt><trkpt lat="45.7806583" lon="11.0812979"><ele>1499.0</ele><time>2026-04-25T14:27:48.224Z</time></trkpt><trkpt lat="45.7806179" lon="11.0813907"><ele>1499.0</ele><time>2026-04-25T14:27:49.232Z</time></trkpt><trkpt lat="45.7805684" lon="11.081481"><ele>1499.0</ele><time>2026-04-25T14:27:50.221Z</time></trkpt><trkpt lat="45.780525" lon="11.0815746"><ele>1499.0</ele><time>2026-04-25T14:27:51.254Z</time></trkpt><trkpt lat="45.7804702" lon="11.0816743"><ele>1499.0</ele><time>2026-04-25T14:27:52.269Z</time></trkpt><trkpt lat="45.780416" lon="11.0817734"><ele>1499.0</ele><time>2026-04-25T14:27:53.22Z</time></trkpt><trkpt lat="45.7803608" lon="11.0818729"><ele>1500.6666666666667</ele><time>2026-04-25T14:27:54.22Z</time></trkpt><trkpt lat="45.7803166" lon="11.0819724"><ele>1502.3333333333335</ele><time>2026-04-25T14:27:55.219Z</time></trkpt><trkpt lat="45.780248" lon="11.0820579"><ele>1504.0</ele><time>2026-04-25T14:27:56.224Z</time></trkpt><trkpt lat="45.7802089" lon="11.0821353"><ele>1505.6666666666667</ele><time>2026-04-25T14:27:57.266Z</time></trkpt><trkpt lat="45.7801768" lon="11.0822158"><ele>1507.3333333333333</ele><time>2026-04-25T14:27:58.219Z</time></trkpt><trkpt lat="45.7801037" lon="11.0823787"><ele>1509.0</ele><time>2026-04-25T14:28:00.22Z</time></trkpt><trkpt lat="45.780068" lon="11.0824703"><ele>1504.3333333333333</ele><time>2026-04-25T14:28:01.223Z</time></trkpt><trkpt lat="45.7800359" lon="11.0825747"><ele>1499.6666666666667</ele><time>2026-04-25T14:28:02.313Z</time></trkpt><trkpt lat="45.7800033" lon="11.0826884"><ele>1495.0</ele><time>2026-04-25T14:28:03.239Z</time></trkpt><trkpt lat="45.7799631" lon="11.0827833"><ele>1490.3333333333335</ele><time>2026-04-25T14:28:04.22Z</time></trkpt><trkpt lat="45.7799213" lon="11.0828603"><ele>1485.6666666666667</ele><time>2026-04-25T14:28:05.229Z</time></trkpt><trkpt lat="45.7798854" lon="11.0829719"><ele>1481.0</ele><time>2026-04-25T14:28:06.223Z</time></trkpt><trkpt lat="45.7798582" lon="11.0830812"><ele>1481.0</ele><time>2026-04-25T14:28:07.226Z</time></trkpt><trkpt lat="45.7798503" lon="11.0831844"><ele>1481.0</ele><time>2026-04-25T14:28:08.223Z</time></trkpt><trkpt lat="45.7798499" lon="11.0832987"><ele>1481.0</ele><time>2026-04-25T14:28:09.228Z</time></trkpt><trkpt lat="45.779786" lon="11.083396"><ele>1481.0</ele><time>2026-04-25T14:28:10.25Z</time></trkpt><trkpt lat="45.7797016" lon="11.0834678"><ele>1481.0</ele><time>2026-04-25T14:28:11.224Z</time></trkpt><trkpt lat="45.7796114" lon="11.0835306"><ele>1481.0</ele><time>2026-04-25T14:28:12.23Z</time></trkpt><trkpt lat="45.7795141" lon="11.0835886"><ele>1481.4</ele><time>2026-04-25T14:28:13.267Z</time></trkpt><trkpt lat="45.7794076" lon="11.083641"><ele>1481.8</ele><time>2026-04-25T14:28:14.221Z</time></trkpt><trkpt lat="45.7792977" lon="11.0837491"><ele>1482.2</ele><time>2026-04-25T14:28:15.22Z</time></trkpt><trkpt lat="45.779195" lon="11.0837715"><ele>1482.6000000000001</ele><time>2026-04-25T14:28:16.22Z</time></trkpt><trkpt lat="45.7791008" lon="11.0838032"><ele>1483.0</ele><time>2026-04-25T14:28:17.223Z</time></trkpt><trkpt lat="45.7790147" lon="11.0838507"><ele>1478.0</ele><time>2026-04-25T14:28:18.227Z</time></trkpt><trkpt lat="45.7789285" lon="11.0839075"><ele>1473.0</ele><time>2026-04-25T14:28:19.22Z</time></trkpt><trkpt lat="45.7788563" lon="11.0839999"><ele>1468.0</ele><time>2026-04-25T14:28:20.222Z</time></trkpt><trkpt lat="45.7787893" lon="11.0840852"><ele>1463.0</ele><time>2026-04-25T14:28:21.227Z</time></trkpt><trkpt lat="45.7787145" lon="11.0841798"><ele>1458.0</ele><time>2026-04-25T14:28:22.222Z</time></trkpt><trkpt lat="45.778647" lon="11.0842548"><ele>1458.0</ele><time>2026-04-25T14:28:23.274Z</time></trkpt><trkpt lat="45.778585" lon="11.0843252"><ele>1458.0</ele><time>2026-04-25T14:28:24.227Z</time></trkpt><trkpt lat="45.7785199" lon="11.0844225"><ele>1458.0</ele><time>2026-04-25T14:28:25.22Z</time></trkpt><trkpt lat="45.7784516" lon="11.0844772"><ele>1458.0</ele><time>2026-04-25T14:28:26.268Z</time></trkpt><trkpt lat="45.7783636" lon="11.0845723"><ele>1458.0</ele><time>2026-04-25T14:28:28.22Z</time></trkpt><trkpt lat="45.7783106" lon="11.0846353"><ele>1458.0</ele><time>2026-04-25T14:28:52.222Z</time></trkpt><trkpt lat="45.7783263" lon="11.0847275"><ele>1457.2857142857144</ele><time>2026-04-25T14:29:13.22Z</time></trkpt><trkpt lat="45.77839" lon="11.0847796"><ele>1456.5714285714284</ele><time>2026-04-25T14:29:19.221Z</time></trkpt><trkpt lat="45.7784543" lon="11.084742"><ele>1455.857142857143</ele><time>2026-04-25T14:29:23.209Z</time></trkpt><trkpt lat="45.7784364" lon="11.0848328"><ele>1455.1428571428573</ele><time>2026-04-25T14:29:37.2Z</time></trkpt><trkpt lat="45.7784199" lon="11.0849238"><ele>1454.4285714285716</ele><time>2026-04-25T14:29:43.271Z</time></trkpt><trkpt lat="45.7783525" lon="11.0849462"><ele>1453.7142857142858</ele><time>2026-04-25T14:29:48.23Z</time></trkpt><trkpt lat="45.7782801" lon="11.0850155"><ele>1453.0</ele><time>2026-04-25T14:37:35.222Z</time></trkpt><trkpt lat="45.7783078" lon="11.0849343"><ele>1453.0000000000002</ele><time>2026-04-25T14:39:37.223Z</time></trkpt><trkpt lat="45.7783838" lon="11.0849096"><ele>1453.0</ele><time>2026-04-25T14:41:32.215Z</time></trkpt><trkpt lat="45.77846" lon="11.0848729"><ele>1453.0</ele><time>2026-04-25T14:41:34.216Z</time></trkpt><trkpt lat="45.7785121" lon="11.0849273"><ele>1453.0</ele><time>2026-04-25T14:41:41.219Z</time></trkpt><trkpt lat="45.7785077" lon="11.08503"><ele>1453.0</ele><time>2026-04-25T14:41:46.248Z</time></trkpt><trkpt lat="45.7784736" lon="11.0851167"><ele>1453.0000000000002</ele><time>2026-04-25T14:41:52.215Z</time></trkpt><trkpt lat="45.77843" lon="11.0852055"><ele>1453.0</ele><time>2026-04-25T14:41:57.223Z</time></trkpt><trkpt lat="45.7783709" lon="11.0852392"><ele>1453.0</ele><time>2026-04-25T14:41:59.22Z</time></trkpt><trkpt lat="45.7783087" lon="11.0852675"><ele>1453.0</ele><time>2026-04-25T14:42:01.219Z</time></trkpt><trkpt lat="45.778239" lon="11.0853238"><ele>1453.0</ele><time>2026-04-25T14:42:06.249Z</time></trkpt><trkpt lat="45.7781594" lon="11.0853654"><ele>1453.0</ele><time>2026-04-25T14:42:08.22Z</time></trkpt><trkpt lat="45.7780703" lon="11.0854181"><ele>1453.0</ele><time>2026-04-25T14:42:10.219Z</time></trkpt><trkpt lat="45.7780069" lon="11.0854821"><ele>1453.0</ele><time>2026-04-25T14:42:12.218Z</time></trkpt><trkpt lat="45.7779324" lon="11.0855683"><ele>1453.0</ele><time>2026-04-25T14:42:15.274Z</time></trkpt><trkpt lat="45.7778597" lon="11.0855905"><ele>1453.0</ele><time>2026-04-25T14:42:17.227Z</time></trkpt><trkpt lat="45.7777831" lon="11.0856221"><ele>1453.0</ele><time>2026-04-25T14:42:18.224Z</time></trkpt><trkpt lat="45.7777053" lon="11.0856626"><ele>1453.0</ele><time>2026-04-25T14:42:20.216Z</time></trkpt><trkpt lat="45.7776444" lon="11.0857343"><ele>1453.0</ele><time>2026-04-25T14:42:22.214Z</time></trkpt><trkpt lat="45.7775839" lon="11.0858049"><ele>1453.0</ele><time>2026-04-25T14:42:24.22Z</time></trkpt><trkpt lat="45.7775211" lon="11.0858793"><ele>1451.3333333333333</ele><time>2026-04-25T14:42:27.226Z</time></trkpt><trkpt lat="45.7774623" lon="11.0859298"><ele>1449.6666666666665</ele><time>2026-04-25T14:42:30.224Z</time></trkpt><trkpt lat="45.7773963" lon="11.0860123"><ele>1448.0</ele><time>2026-04-25T14:42:34.249Z</time></trkpt><trkpt lat="45.7773459" lon="11.0861031"><ele>1446.3333333333333</ele><time>2026-04-25T14:42:38.225Z</time></trkpt><trkpt lat="45.7772907" lon="11.0861699"><ele>1444.6666666666667</ele><time>2026-04-25T14:42:43.217Z</time></trkpt><trkpt lat="45.7772354" lon="11.0862145"><ele>1443.0</ele><time>2026-04-25T14:42:46.223Z</time></trkpt><trkpt lat="45.7771704" lon="11.0863094"><ele>1443.0</ele><time>2026-04-25T14:42:49.217Z</time></trkpt><trkpt lat="45.7770809" lon="11.0864076"><ele>1443.0</ele><time>2026-04-25T14:42:52.231Z</time></trkpt><trkpt lat="45.7770283" lon="11.0865002"><ele>1443.0</ele><time>2026-04-25T14:42:54.228Z</time></trkpt><trkpt lat="45.7770108" lon="11.0866103"><ele>1443.0</ele><time>2026-04-25T14:42:56.223Z</time></trkpt><trkpt lat="45.77696" lon="11.0866965"><ele>1443.0</ele><time>2026-04-25T14:42:59.215Z</time></trkpt><trkpt lat="45.7770246" lon="11.0867302"><ele>1443.0</ele><time>2026-04-25T14:43:07.221Z</time></trkpt><trkpt lat="45.7770835" lon="11.0866847"><ele>1443.0</ele><time>2026-04-25T14:43:10.223Z</time></trkpt><trkpt lat="45.7772227" lon="11.086673"><ele>1443.0</ele><time>2026-04-25T14:43:16.211Z</time></trkpt><trkpt lat="45.7772977" lon="11.086641"><ele>1443.0</ele><time>2026-04-25T14:43:20.223Z</time></trkpt><trkpt lat="45.7774383" lon="11.0866125"><ele>1443.0</ele><time>2026-04-25T14:43:26.218Z</time></trkpt><trkpt lat="45.7774888" lon="11.0865551"><ele>1443.0</ele><time>2026-04-25T14:43:28.221Z</time></trkpt><trkpt lat="45.7775526" lon="11.086488"><ele>1443.0</ele><time>2026-04-25T14:43:31.223Z</time></trkpt><trkpt lat="45.7776307" lon="11.0864321"><ele>1443.0</ele><time>2026-04-25T14:43:34.223Z</time></trkpt><trkpt lat="45.7777015" lon="11.0864344"><ele>1443.0</ele><time>2026-04-25T14:43:39.223Z</time></trkpt><trkpt lat="45.7777726" lon="11.0864203"><ele>1443.0</ele><time>2026-04-25T14:43:42.227Z</time></trkpt><trkpt lat="45.7778664" lon="11.0864411"><ele>1443.0</ele><time>2026-04-25T14:43:47.215Z</time></trkpt><trkpt lat="45.7779325" lon="11.0864704"><ele>1443.0</ele><time>2026-04-25T14:43:50.225Z</time></trkpt><trkpt lat="45.7780237" lon="11.0864586"><ele>1440.5</ele><time>2026-04-25T14:43:52.232Z</time></trkpt><trkpt lat="45.7781271" lon="11.08646"><ele>1438.0</ele><time>2026-04-25T14:43:55.209Z</time></trkpt><trkpt lat="45.7781965" lon="11.0864707"><ele>1435.5</ele><time>2026-04-25T14:43:58.259Z</time></trkpt><trkpt lat="45.7782435" lon="11.0865643"><ele>1433.0</ele><time>2026-04-25T14:44:01.22Z</time></trkpt><trkpt lat="45.7782694" lon="11.086669"><ele>1430.5</ele><time>2026-04-25T14:44:03.231Z</time></trkpt><trkpt lat="45.7783555" lon="11.0867233"><ele>1428.0</ele><time>2026-04-25T14:44:06.266Z</time></trkpt><trkpt lat="45.7784303" lon="11.0867576"><ele>1421.5</ele><time>2026-04-25T14:44:08.227Z</time></trkpt><trkpt lat="45.7784986" lon="11.0867636"><ele>1415.0</ele><time>2026-04-25T14:44:10.279Z</time></trkpt><trkpt lat="45.7785807" lon="11.0867346"><ele>1408.5</ele><time>2026-04-25T14:44:12.232Z</time></trkpt><trkpt lat="45.778654" lon="11.0867185"><ele>1402.0</ele><time>2026-04-25T14:44:14.217Z</time></trkpt><trkpt lat="45.7787266" lon="11.0867088"><ele>1395.5</ele><time>2026-04-25T14:44:16.226Z</time></trkpt><trkpt lat="45.7788035" lon="11.0866731"><ele>1389.0</ele><time>2026-04-25T14:44:18.221Z</time></trkpt><trkpt lat="45.7788634" lon="11.0866121"><ele>1390.6666666666667</ele><time>2026-04-25T14:44:20.261Z</time></trkpt><trkpt lat="45.7789341" lon="11.0865473"><ele>1392.3333333333333</ele><time>2026-04-25T14:44:22.218Z</time></trkpt><trkpt lat="45.7790084" lon="11.0864899"><ele>1394.0</ele><time>2026-04-25T14:44:24.221Z</time></trkpt><trkpt lat="45.7791018" lon="11.0864356"><ele>1395.6666666666665</ele><time>2026-04-25T14:44:26.219Z</time></trkpt><trkpt lat="45.7791756" lon="11.0863994"><ele>1397.3333333333333</ele><time>2026-04-25T14:44:28.223Z</time></trkpt><trkpt lat="45.7792442" lon="11.0863492"><ele>1399.0</ele><time>2026-04-25T14:44:30.215Z</time></trkpt><trkpt lat="45.7793207" lon="11.0862736"><ele>1394.142857142857</ele><time>2026-04-25T14:44:33.224Z</time></trkpt><trkpt lat="45.7793737" lon="11.0862014"><ele>1389.2857142857142</ele><time>2026-04-25T14:44:35.271Z</time></trkpt><trkpt lat="45.7794243" lon="11.0861342"><ele>1384.4285714285716</ele><time>2026-04-25T14:44:38.223Z</time></trkpt><trkpt lat="45.7794817" lon="11.0860473"><ele>1379.5714285714284</ele><time>2026-04-25T14:44:41.217Z</time></trkpt><trkpt lat="45.7795354" lon="11.0859924"><ele>1374.7142857142858</ele><time>2026-04-25T14:44:50.216Z</time></trkpt><trkpt lat="45.7795641" lon="11.0859028"><ele>1369.857142857143</ele><time>2026-04-25T14:45:06.208Z</time></trkpt><trkpt lat="45.7796186" lon="11.0858454"><ele>1365.0</ele><time>2026-04-25T14:46:17.221Z</time></trkpt><trkpt lat="45.7796945" lon="11.085828"><ele>1365.0</ele><time>2026-04-25T14:46:34.222Z</time></trkpt><trkpt lat="45.7797579" lon="11.0858393"><ele>1365.0</ele><time>2026-04-25T14:46:39.212Z</time></trkpt><trkpt lat="45.7798281" lon="11.0857893"><ele>1365.0</ele><time>2026-04-25T14:46:42.224Z</time></trkpt><trkpt lat="45.7799065" lon="11.08576"><ele>1365.0</ele><time>2026-04-25T14:46:45.222Z</time></trkpt><trkpt lat="45.779974" lon="11.0857372"><ele>1365.0</ele><time>2026-04-25T14:46:48.22Z</time></trkpt><trkpt lat="45.7800629" lon="11.085782"><ele>1365.0</ele><time>2026-04-25T14:46:57.208Z</time></trkpt><trkpt lat="45.7801289" lon="11.0858439"><ele>1365.0</ele><time>2026-04-25T14:46:59.216Z</time></trkpt><trkpt lat="45.7802164" lon="11.0858848"><ele>1365.0</ele><time>2026-04-25T14:47:01.223Z</time></trkpt><trkpt lat="45.7803078" lon="11.0858825"><ele>1365.0</ele><time>2026-04-25T14:47:03.218Z</time></trkpt><trkpt lat="45.7803753" lon="11.0858621"><ele>1365.0</ele><time>2026-04-25T14:47:05.218Z</time></trkpt><trkpt lat="45.7804554" lon="11.0858716"><ele>1365.0</ele><time>2026-04-25T14:47:08.214Z</time></trkpt><trkpt lat="45.7805107" lon="11.0859538"><ele>1365.0</ele><time>2026-04-25T14:47:10.232Z</time></trkpt><trkpt lat="45.7805817" lon="11.0860493"><ele>1365.0</ele><time>2026-04-25T14:47:12.21Z</time></trkpt><trkpt lat="45.7806322" lon="11.0861383"><ele>1365.0</ele><time>2026-04-25T14:47:14.221Z</time></trkpt><trkpt lat="45.7807205" lon="11.0862622"><ele>1365.0</ele><time>2026-04-25T14:47:16.223Z</time></trkpt><trkpt lat="45.7808024" lon="11.0864021"><ele>1365.0</ele><time>2026-04-25T14:47:18.221Z</time></trkpt><trkpt lat="45.7808618" lon="11.0865282"><ele>1365.0</ele><time>2026-04-25T14:47:20.222Z</time></trkpt><trkpt lat="45.7809215" lon="11.0866148"><ele>1357.5</ele><time>2026-04-25T14:47:23.219Z</time></trkpt><trkpt lat="45.781144" lon="11.0866405"><ele>1350.0</ele><time>2026-04-25T14:47:29.222Z</time></trkpt><trkpt lat="45.7812269" lon="11.0866628"><ele>1342.5</ele><time>2026-04-25T14:47:31.244Z</time></trkpt><trkpt lat="45.7812908" lon="11.0867008"><ele>1335.0</ele><time>2026-04-25T14:47:33.218Z</time></trkpt><trkpt lat="45.7813505" lon="11.0867856"><ele>1335.0</ele><time>2026-04-25T14:47:35.22Z</time></trkpt><trkpt lat="45.781413" lon="11.0868371"><ele>1335.0</ele><time>2026-04-25T14:47:37.249Z</time></trkpt><trkpt lat="45.7814762" lon="11.0868633"><ele>1335.0</ele><time>2026-04-25T14:47:39.228Z</time></trkpt><trkpt lat="45.7815508" lon="11.0869096"><ele>1335.0</ele><time>2026-04-25T14:47:41.212Z</time></trkpt><trkpt lat="45.7816293" lon="11.0869417"><ele>1335.0</ele><time>2026-04-25T14:47:43.222Z</time></trkpt><trkpt lat="45.781722" lon="11.0870022"><ele>1335.0</ele><time>2026-04-25T14:47:46.22Z</time></trkpt><trkpt lat="45.7817795" lon="11.0870524"><ele>1335.0</ele><time>2026-04-25T14:47:48.227Z</time></trkpt><trkpt lat="45.7818062" lon="11.0871613"><ele>1335.0</ele><time>2026-04-25T14:47:50.232Z</time></trkpt><trkpt lat="45.7818132" lon="11.0872748"><ele>1335.0</ele><time>2026-04-25T14:47:52.224Z</time></trkpt><trkpt lat="45.781896" lon="11.0873123"><ele>1335.0</ele><time>2026-04-25T14:47:55.215Z</time></trkpt><trkpt lat="45.7819727" lon="11.087302"><ele>1335.0</ele><time>2026-04-25T14:47:57.232Z</time></trkpt><trkpt lat="45.7820402" lon="11.0873297"><ele>1335.0</ele><time>2026-04-25T14:47:59.257Z</time></trkpt><trkpt lat="45.7820903" lon="11.0874382"><ele>1330.142857142857</ele><time>2026-04-25T14:48:01.272Z</time></trkpt><trkpt lat="45.782132" lon="11.0875215"><ele>1325.2857142857144</ele><time>2026-04-25T14:48:04.222Z</time></trkpt><trkpt lat="45.7821742" lon="11.0875888"><ele>1320.4285714285716</ele><time>2026-04-25T14:48:19.223Z</time></trkpt><trkpt lat="45.7822243" lon="11.0876774"><ele>1315.5714285714284</ele><time>2026-04-25T14:48:23.221Z</time></trkpt><trkpt lat="45.782232" lon="11.0877713"><ele>1310.7142857142858</ele><time>2026-04-25T14:48:26.266Z</time></trkpt><trkpt lat="45.7822009" lon="11.0878539"><ele>1305.857142857143</ele><time>2026-04-25T14:48:29.226Z</time></trkpt><trkpt lat="45.7822314" lon="11.0879372"><ele>1301.0</ele><time>2026-04-25T14:48:35.213Z</time></trkpt><trkpt lat="45.7823017" lon="11.0880119"><ele>1301.0</ele><time>2026-04-25T14:48:40.228Z</time></trkpt><trkpt lat="45.7823761" lon="11.0880697"><ele>1301.0</ele><time>2026-04-25T14:48:44.233Z</time></trkpt><trkpt lat="45.7824709" lon="11.0881157"><ele>1301.0</ele><time>2026-04-25T14:48:47.224Z</time></trkpt><trkpt lat="45.7825201" lon="11.0881734"><ele>1301.0</ele><time>2026-04-25T14:48:49.33Z</time></trkpt><trkpt lat="45.7825861" lon="11.0882342"><ele>1301.0</ele><time>2026-04-25T14:48:52.227Z</time></trkpt><trkpt lat="45.7826439" lon="11.0882901"><ele>1301.0</ele><time>2026-04-25T14:48:57.209Z</time></trkpt><trkpt lat="45.7826321" lon="11.0883918"><ele>1301.0</ele><time>2026-04-25T14:49:34.216Z</time></trkpt><trkpt lat="45.7825458" lon="11.0883641"><ele>1301.0</ele><time>2026-04-25T14:49:37.262Z</time></trkpt><trkpt lat="45.7824797" lon="11.088348"><ele>1301.0</ele><time>2026-04-25T14:49:39.223Z</time></trkpt><trkpt lat="45.7823935" lon="11.0883755"><ele>1301.0</ele><time>2026-04-25T14:49:41.22Z</time></trkpt><trkpt lat="45.782324" lon="11.0883723"><ele>1301.0</ele><time>2026-04-25T14:49:43.217Z</time></trkpt><trkpt lat="45.7822553" lon="11.0883419"><ele>1301.0</ele><time>2026-04-25T14:49:45.219Z</time></trkpt><trkpt lat="45.7822203" lon="11.0882415"><ele>1301.0</ele><time>2026-04-25T14:49:48.26Z</time></trkpt><trkpt lat="45.7821596" lon="11.0881821"><ele>1301.0</ele><time>2026-04-25T14:49:52.226Z</time></trkpt><trkpt lat="45.7820979" lon="11.0882075"><ele>1301.0</ele><time>2026-04-25T14:50:13.221Z</time></trkpt><trkpt lat="45.7820905" lon="11.0883071"><ele>1301.0</ele><time>2026-04-25T14:50:17.258Z</time></trkpt><trkpt lat="45.7821159" lon="11.0883961"><ele>1301.0</ele><time>2026-04-25T14:50:20.224Z</time></trkpt><trkpt lat="45.7821073" lon="11.0884889"><ele>1301.0</ele><time>2026-04-25T14:50:22.289Z</time></trkpt><trkpt lat="45.7821067" lon="11.0885794"><ele>1301.0</ele><time>2026-04-25T14:50:25.221Z</time></trkpt><trkpt lat="45.7821832" lon="11.0886593"><ele>1297.6666666666667</ele><time>2026-04-25T14:50:28.282Z</time></trkpt><trkpt lat="45.782245" lon="11.0887078"><ele>1294.3333333333335</ele><time>2026-04-25T14:50:30.292Z</time></trkpt><trkpt lat="45.7823572" lon="11.0887509"><ele>1291.0</ele><time>2026-04-25T14:50:34.257Z</time></trkpt><trkpt lat="45.7824059" lon="11.0888207"><ele>1287.6666666666667</ele><time>2026-04-25T14:50:36.242Z</time></trkpt><trkpt lat="45.7824608" lon="11.0888977"><ele>1284.3333333333333</ele><time>2026-04-25T14:50:38.279Z</time></trkpt><trkpt lat="45.7825413" lon="11.0889202"><ele>1281.0</ele><time>2026-04-25T14:50:40.218Z</time></trkpt><trkpt lat="45.7826305" lon="11.0888941"><ele>1275.5714285714287</ele><time>2026-04-25T14:50:42.23Z</time></trkpt><trkpt lat="45.7827095" lon="11.0888833"><ele>1270.142857142857</ele><time>2026-04-25T14:50:44.285Z</time></trkpt><trkpt lat="45.7827853" lon="11.0888796"><ele>1264.7142857142858</ele><time>2026-04-25T14:50:46.257Z</time></trkpt><trkpt lat="45.782859" lon="11.0889148"><ele>1259.2857142857142</ele><time>2026-04-25T14:50:49.242Z</time></trkpt><trkpt lat="45.782905" lon="11.0889816"><ele>1253.857142857143</ele><time>2026-04-25T14:50:53.232Z</time></trkpt><trkpt lat="45.7829316" lon="11.0890681"><ele>1248.4285714285716</ele><time>2026-04-25T14:50:56.221Z</time></trkpt><trkpt lat="45.7828641" lon="11.0891295"><ele>1243.0</ele><time>2026-04-25T14:51:55.223Z</time></trkpt><trkpt lat="45.7828005" lon="11.0891645"><ele>1242.2857142857144</ele><time>2026-04-25T14:51:58.265Z</time></trkpt><trkpt lat="45.7827214" lon="11.0891897"><ele>1241.5714285714287</ele><time>2026-04-25T14:52:01.223Z</time></trkpt><trkpt lat="45.782657" lon="11.089221"><ele>1240.857142857143</ele><time>2026-04-25T14:52:03.228Z</time></trkpt><trkpt lat="45.7825914" lon="11.0892225"><ele>1240.1428571428573</ele><time>2026-04-25T14:52:05.27Z</time></trkpt><trkpt lat="45.7825158" lon="11.0892023"><ele>1239.4285714285716</ele><time>2026-04-25T14:52:07.282Z</time></trkpt><trkpt lat="45.7824683" lon="11.0891415"><ele>1238.7142857142858</ele><time>2026-04-25T14:52:10.222Z</time></trkpt><trkpt lat="45.7825121" lon="11.089226"><ele>1238.0</ele><time>2026-04-25T14:52:24.254Z</time></trkpt><trkpt lat="45.7825846" lon="11.0892889"><ele>1238.0</ele><time>2026-04-25T14:52:27.228Z</time></trkpt><trkpt lat="45.7826602" lon="11.0893059"><ele>1238.0</ele><time>2026-04-25T14:52:30.221Z</time></trkpt><trkpt lat="45.7827389" lon="11.0893079"><ele>1238.0</ele><time>2026-04-25T14:52:34.248Z</time></trkpt><trkpt lat="45.7828254" lon="11.0893237"><ele>1238.0</ele><time>2026-04-25T14:52:38.216Z</time></trkpt><trkpt lat="45.782889" lon="11.0893854"><ele>1238.0</ele><time>2026-04-25T14:52:41.215Z</time></trkpt><trkpt lat="45.7829728" lon="11.0894392"><ele>1238.0</ele><time>2026-04-25T14:52:44.227Z</time></trkpt><trkpt lat="45.7830362" lon="11.0894713"><ele>1236.3333333333335</ele><time>2026-04-25T14:52:46.257Z</time></trkpt><trkpt lat="45.7831" lon="11.0895277"><ele>1234.6666666666667</ele><time>2026-04-25T14:52:50.221Z</time></trkpt><trkpt lat="45.7830432" lon="11.0894767"><ele>1233.0</ele><time>2026-04-25T14:53:00.274Z</time></trkpt><trkpt lat="45.782964" lon="11.0894782"><ele>1231.3333333333333</ele><time>2026-04-25T14:53:03.231Z</time></trkpt><trkpt lat="45.7829005" lon="11.089417"><ele>1229.6666666666665</ele><time>2026-04-25T14:53:08.223Z</time></trkpt><trkpt lat="45.7828323" lon="11.0894184"><ele>1228.0</ele><time>2026-04-25T14:53:13.221Z</time></trkpt><trkpt lat="45.7827484" lon="11.0894637"><ele>1229.4285714285713</ele><time>2026-04-25T14:53:17.245Z</time></trkpt><trkpt lat="45.7826793" lon="11.0894993"><ele>1230.857142857143</ele><time>2026-04-25T14:53:19.264Z</time></trkpt><trkpt lat="45.7826075" lon="11.089545"><ele>1232.2857142857142</ele><time>2026-04-25T14:53:22.222Z</time></trkpt><trkpt lat="45.7825241" lon="11.0895569"><ele>1233.7142857142858</ele><time>2026-04-25T14:53:25.25Z</time></trkpt><trkpt lat="45.7824602" lon="11.0895462"><ele>1235.142857142857</ele><time>2026-04-25T14:53:27.233Z</time></trkpt><trkpt lat="45.7823972" lon="11.0895457"><ele>1236.5714285714284</ele><time>2026-04-25T14:53:29.218Z</time></trkpt><trkpt lat="45.7823229" lon="11.0895688"><ele>1238.0</ele><time>2026-04-25T14:53:32.22Z</time></trkpt><trkpt lat="45.7822554" lon="11.0895518"><ele>1238.0</ele><time>2026-04-25T14:53:36.211Z</time></trkpt><trkpt lat="45.7821902" lon="11.0895881"><ele>1238.0</ele><time>2026-04-25T14:53:39.269Z</time></trkpt><trkpt lat="45.7822456" lon="11.0896789"><ele>1238.0</ele><time>2026-04-25T14:53:41.235Z</time></trkpt><trkpt lat="45.7823088" lon="11.0897691"><ele>1238.0</ele><time>2026-04-25T14:53:44.221Z</time></trkpt><trkpt lat="45.782369" lon="11.0898041"><ele>1238.0</ele><time>2026-04-25T14:53:47.274Z</time></trkpt><trkpt lat="45.782423" lon="11.0898548"><ele>1238.0</ele><time>2026-04-25T14:53:49.24Z</time></trkpt><trkpt lat="45.7824917" lon="11.0899079"><ele>1231.5714285714284</ele><time>2026-04-25T14:53:51.221Z</time></trkpt><trkpt lat="45.7825676" lon="11.089949"><ele>1225.142857142857</ele><time>2026-04-25T14:53:53.222Z</time></trkpt><trkpt lat="45.78263" lon="11.0899837"><ele>1218.7142857142858</ele><time>2026-04-25T14:53:55.21Z</time></trkpt><trkpt lat="45.782719" lon="11.0900275"><ele>1212.2857142857142</ele><time>2026-04-25T14:53:58.288Z</time></trkpt><trkpt lat="45.7827865" lon="11.0900842"><ele>1205.857142857143</ele><time>2026-04-25T14:54:01.244Z</time></trkpt><trkpt lat="45.7828465" lon="11.0901117"><ele>1199.4285714285713</ele><time>2026-04-25T14:54:03.22Z</time></trkpt><trkpt lat="45.7829087" lon="11.0901329"><ele>1193.0</ele><time>2026-04-25T14:54:05.216Z</time></trkpt><trkpt lat="45.7829953" lon="11.0901749"><ele>1193.0</ele><time>2026-04-25T14:54:07.274Z</time></trkpt><trkpt lat="45.7830913" lon="11.0902335"><ele>1193.0</ele><time>2026-04-25T14:54:09.238Z</time></trkpt><trkpt lat="45.7831685" lon="11.0902874"><ele>1193.0</ele><time>2026-04-25T14:54:11.225Z</time></trkpt><trkpt lat="45.7832461" lon="11.0903357"><ele>1193.0</ele><time>2026-04-25T14:54:13.226Z</time></trkpt><trkpt lat="45.7833332" lon="11.0903981"><ele>1193.0</ele><time>2026-04-25T14:54:15.263Z</time></trkpt><trkpt lat="45.7834141" lon="11.0904331"><ele>1193.0</ele><time>2026-04-25T14:54:17.22Z</time></trkpt><trkpt lat="45.783495" lon="11.0904299"><ele>1193.0</ele><time>2026-04-25T14:54:20.316Z</time></trkpt><trkpt lat="45.7834368" lon="11.090472"><ele>1193.0</ele><time>2026-04-25T14:54:29.233Z</time></trkpt><trkpt lat="45.7833658" lon="11.0904714"><ele>1193.0</ele><time>2026-04-25T14:54:31.223Z</time></trkpt><trkpt lat="45.7832867" lon="11.0904848"><ele>1193.0</ele><time>2026-04-25T14:54:33.263Z</time></trkpt><trkpt lat="45.7832022" lon="11.090474"><ele>1193.0</ele><time>2026-04-25T14:54:35.279Z</time></trkpt><trkpt lat="45.7830925" lon="11.0905088"><ele>1193.0</ele><time>2026-04-25T14:54:37.225Z</time></trkpt><trkpt lat="45.7829356" lon="11.0905556"><ele>1193.0</ele><time>2026-04-25T14:54:39.223Z</time></trkpt><trkpt lat="45.7828356" lon="11.0905647"><ele>1193.0</ele><time>2026-04-25T14:54:41.219Z</time></trkpt><trkpt lat="45.7827446" lon="11.0905458"><ele>1193.0</ele><time>2026-04-25T14:54:44.219Z</time></trkpt><trkpt lat="45.7826397" lon="11.0905693"><ele>1192.2</ele><time>2026-04-25T14:54:46.301Z</time></trkpt><trkpt lat="45.7825618" lon="11.0906134"><ele>1191.4</ele><time>2026-04-25T14:54:48.274Z</time></trkpt><trkpt lat="45.7824371" lon="11.0906288"><ele>1190.6000000000001</ele><time>2026-04-25T14:54:50.223Z</time></trkpt><trkpt lat="45.7823118" lon="11.090636"><ele>1189.8</ele><time>2026-04-25T14:54:52.24Z</time></trkpt><trkpt lat="45.7822023" lon="11.0906741"><ele>1189.0</ele><time>2026-04-25T14:54:54.236Z</time></trkpt><trkpt lat="45.7821111" lon="11.0906684"><ele>1189.0</ele><time>2026-04-25T14:54:56.218Z</time></trkpt><trkpt lat="45.7820236" lon="11.090669"><ele>1189.0</ele><time>2026-04-25T14:54:58.229Z</time></trkpt><trkpt lat="45.7819859" lon="11.0905704"><ele>1189.0</ele><time>2026-04-25T14:56:58.218Z</time></trkpt><trkpt lat="45.7819165" lon="11.0906424"><ele>1189.0</ele><time>2026-04-25T14:58:43.219Z</time></trkpt><trkpt lat="45.7818815" lon="11.0907383"><ele>1189.0</ele><time>2026-04-25T14:58:46.213Z</time></trkpt><trkpt lat="45.7818136" lon="11.0907122"><ele>1189.0</ele><time>2026-04-25T14:58:52.226Z</time></trkpt><trkpt lat="45.7817321" lon="11.0907607"><ele>1185.142857142857</ele><time>2026-04-25T14:58:56.21Z</time></trkpt><trkpt lat="45.7817155" lon="11.090874"><ele>1181.2857142857142</ele><time>2026-04-25T14:58:59.219Z</time></trkpt><trkpt lat="45.7816968" lon="11.090963"><ele>1177.4285714285716</ele><time>2026-04-25T14:59:12.217Z</time></trkpt><trkpt lat="45.7816115" lon="11.0909434"><ele>1173.5714285714284</ele><time>2026-04-25T14:59:20.222Z</time></trkpt><trkpt lat="45.7815504" lon="11.0908982"><ele>1169.7142857142858</ele><time>2026-04-25T14:59:23.225Z</time></trkpt><trkpt lat="45.7814909" lon="11.0908679"><ele>1165.857142857143</ele><time>2026-04-25T14:59:25.22Z</time></trkpt><trkpt lat="45.7814257" lon="11.0908212"><ele>1162.0</ele><time>2026-04-25T14:59:29.212Z</time></trkpt><trkpt lat="45.7813667" lon="11.0907577"><ele>1162.0</ele><time>2026-04-25T14:59:32.215Z</time></trkpt><trkpt lat="45.7813043" lon="11.0907151"><ele>1162.0</ele><time>2026-04-25T14:59:35.223Z</time></trkpt><trkpt lat="45.7812428" lon="11.0906367"><ele>1162.0</ele><time>2026-04-25T14:59:38.23Z</time></trkpt><trkpt lat="45.781182" lon="11.0905877"><ele>1162.0</ele><time>2026-04-25T14:59:41.258Z</time></trkpt><trkpt lat="45.7811212" lon="11.0905579"><ele>1162.0</ele><time>2026-04-25T14:59:44.226Z</time></trkpt><trkpt lat="45.7810541" lon="11.0905793"><ele>1162.0</ele><time>2026-04-25T14:59:47.259Z</time></trkpt><trkpt lat="45.7809883" lon="11.0906002"><ele>1162.0</ele><time>2026-04-25T14:59:51.252Z</time></trkpt><trkpt lat="45.7809243" lon="11.0906126"><ele>1156.7142857142858</ele><time>2026-04-25T14:59:55.222Z</time></trkpt><trkpt lat="45.780859" lon="11.0906431"><ele>1151.4285714285716</ele><time>2026-04-25T15:00:51.241Z</time></trkpt><trkpt lat="45.7808187" lon="11.0907198"><ele>1146.142857142857</ele><time>2026-04-25T15:01:10.223Z</time></trkpt><trkpt lat="45.7807545" lon="11.0907622"><ele>1140.857142857143</ele><time>2026-04-25T15:01:14.217Z</time></trkpt><trkpt lat="45.7806889" lon="11.0908189"><ele>1135.5714285714287</ele><time>2026-04-25T15:01:18.272Z</time></trkpt><trkpt lat="45.7806464" lon="11.0909034"><ele>1130.2857142857142</ele><time>2026-04-25T15:01:20.223Z</time></trkpt><trkpt lat="45.780592" lon="11.0909545"><ele>1125.0</ele><time>2026-04-25T15:01:24.268Z</time></trkpt><trkpt lat="45.7806091" lon="11.0910436"><ele>1120.857142857143</ele><time>2026-04-25T15:02:08.256Z</time></trkpt><trkpt lat="45.780601" lon="11.0911364"><ele>1116.7142857142858</ele><time>2026-04-25T15:02:13.219Z</time></trkpt><trkpt lat="45.7806617" lon="11.0911813"><ele>1112.5714285714287</ele><time>2026-04-25T15:02:20.23Z</time></trkpt><trkpt lat="45.7806874" lon="11.0912638"><ele>1108.4285714285716</ele><time>2026-04-25T15:02:25.217Z</time></trkpt><trkpt lat="45.7806903" lon="11.091374"><ele>1104.2857142857142</ele><time>2026-04-25T15:02:29.284Z</time></trkpt><trkpt lat="45.7806998" lon="11.0914692"><ele>1100.1428571428573</ele><time>2026-04-25T15:02:33.222Z</time></trkpt><trkpt lat="45.7806588" lon="11.0915431"><ele>1096.0</ele><time>2026-04-25T15:02:37.243Z</time></trkpt><trkpt lat="45.7806128" lon="11.0916329"><ele>1092.1428571428573</ele><time>2026-04-25T15:02:42.224Z</time></trkpt><trkpt lat="45.7805634" lon="11.0917038"><ele>1088.2857142857142</ele><time>2026-04-25T15:02:47.267Z</time></trkpt><trkpt lat="45.780583" lon="11.0917933"><ele>1084.4285714285716</ele><time>2026-04-25T15:02:51.226Z</time></trkpt><trkpt lat="45.7805917" lon="11.0919019"><ele>1080.5714285714287</ele><time>2026-04-25T15:02:56.221Z</time></trkpt><trkpt lat="45.7805901" lon="11.0919928"><ele>1076.7142857142858</ele><time>2026-04-25T15:03:13.227Z</time></trkpt><trkpt lat="45.7806082" lon="11.092087"><ele>1072.857142857143</ele><time>2026-04-25T15:03:24.23Z</time></trkpt><trkpt lat="45.7806048" lon="11.0921774"><ele>1069.0</ele><time>2026-04-25T15:03:30.216Z</time></trkpt><trkpt lat="45.780577" lon="11.0922733"><ele>1069.0</ele><time>2026-04-25T15:14:00.22Z</time></trkpt><trkpt lat="45.7805759" lon="11.0924192"><ele>1069.0</ele><time>2026-04-25T15:14:05.303Z</time></trkpt><trkpt lat="45.7805511" lon="11.0925098"><ele>1069.0</ele><time>2026-04-25T15:14:08.275Z</time></trkpt><trkpt lat="45.7805306" lon="11.0926205"><ele>1069.0</ele><time>2026-04-25T15:14:11.249Z</time></trkpt><trkpt lat="45.7805587" lon="11.0927052"><ele>1069.0</ele><time>2026-04-25T15:14:14.274Z</time></trkpt><trkpt lat="45.7805709" lon="11.0928464"><ele>1069.0</ele><time>2026-04-25T15:14:17.275Z</time></trkpt><trkpt lat="45.780556" lon="11.092969"><ele>1065.2857142857142</ele><time>2026-04-25T15:14:20.282Z</time></trkpt><trkpt lat="45.7805595" lon="11.0930741"><ele>1061.5714285714287</ele><time>2026-04-25T15:14:22.284Z</time></trkpt><trkpt lat="45.7805592" lon="11.0931683"><ele>1057.857142857143</ele><time>2026-04-25T15:14:24.275Z</time></trkpt><trkpt lat="45.7805603" lon="11.0932771"><ele>1054.142857142857</ele><time>2026-04-25T15:14:30.274Z</time></trkpt><trkpt lat="45.7804982" lon="11.0933092"><ele>1050.4285714285716</ele><time>2026-04-25T15:14:39.27Z</time></trkpt><trkpt lat="45.7804905" lon="11.0932059"><ele>1046.7142857142858</ele><time>2026-04-25T15:14:45.214Z</time></trkpt><trkpt lat="45.7804176" lon="11.0932541"><ele>1043.0</ele><time>2026-04-25T15:14:53.275Z</time></trkpt><trkpt lat="45.780355" lon="11.0932851"><ele>1039.4285714285713</ele><time>2026-04-25T15:14:57.29Z</time></trkpt><trkpt lat="45.7802972" lon="11.0933645"><ele>1035.857142857143</ele><time>2026-04-25T15:15:31.255Z</time></trkpt><trkpt lat="45.780238" lon="11.0934237"><ele>1032.2857142857142</ele><time>2026-04-25T15:15:37.219Z</time></trkpt><trkpt lat="45.7802016" lon="11.0934997"><ele>1028.7142857142858</ele><time>2026-04-25T15:15:41.294Z</time></trkpt><trkpt lat="45.780134" lon="11.0935451"><ele>1025.142857142857</ele><time>2026-04-25T15:15:51.266Z</time></trkpt><trkpt lat="45.7800661" lon="11.0936004"><ele>1021.5714285714284</ele><time>2026-04-25T15:16:06.221Z</time></trkpt><trkpt lat="45.7801301" lon="11.093618"><ele>1017.9999999999999</ele><time>2026-04-25T15:18:24.261Z</time></trkpt><trkpt lat="45.7801904" lon="11.0936471"><ele>1017.9999999999999</ele><time>2026-04-25T15:18:54.243Z</time></trkpt><trkpt lat="45.7802224" lon="11.0937313"><ele>1018.0</ele><time>2026-04-25T15:19:03.269Z</time></trkpt><trkpt lat="45.7803058" lon="11.093867"><ele>1018.0</ele><time>2026-04-25T15:19:09.221Z</time></trkpt><trkpt lat="45.7803534" lon="11.0939267"><ele>1018.0</ele><time>2026-04-25T15:19:15.288Z</time></trkpt><trkpt lat="45.7803856" lon="11.0940058"><ele>1017.9999999999999</ele><time>2026-04-25T15:19:18.299Z</time></trkpt><trkpt lat="45.7803991" lon="11.0940997"><ele>1018.0</ele><time>2026-04-25T15:19:21.28Z</time></trkpt><trkpt lat="45.7804343" lon="11.0941767"><ele>1017.9999999999999</ele><time>2026-04-25T15:19:26.292Z</time></trkpt><trkpt lat="45.7804707" lon="11.0940971"><ele>1018.0</ele><time>2026-04-25T15:20:02.225Z</time></trkpt><trkpt lat="45.7804708" lon="11.0940057"><ele>1018.0</ele><time>2026-04-25T15:20:13.222Z</time></trkpt><trkpt lat="45.780433" lon="11.0939163"><ele>1018.0</ele><time>2026-04-25T15:20:40.224Z</time></trkpt><trkpt lat="45.780402" lon="11.0938285"><ele>1017.9999999999999</ele><time>2026-04-25T15:20:44.288Z</time></trkpt><trkpt lat="45.7803571" lon="11.0937464"><ele>1018.0</ele><time>2026-04-25T15:21:08.221Z</time></trkpt><trkpt lat="45.7802248" lon="11.0935328"><ele>1014.4285714285713</ele><time>2026-04-25T15:21:15.225Z</time></trkpt><trkpt lat="45.78017" lon="11.0935822"><ele>1010.8571428571429</ele><time>2026-04-25T15:21:18.27Z</time></trkpt><trkpt lat="45.7801243" lon="11.0936623"><ele>1007.2857142857142</ele><time>2026-04-25T15:21:22.255Z</time></trkpt><trkpt lat="45.7801146" lon="11.0937606"><ele>1003.7142857142857</ele><time>2026-04-25T15:21:26.225Z</time></trkpt><trkpt lat="45.7801491" lon="11.0938377"><ele>1000.1428571428571</ele><time>2026-04-25T15:21:30.285Z</time></trkpt><trkpt lat="45.7801368" lon="11.0939269"><ele>996.5714285714286</ele><time>2026-04-25T15:21:33.293Z</time></trkpt><trkpt lat="45.7801203" lon="11.0940253"><ele>993.0</ele><time>2026-04-25T15:21:36.282Z</time></trkpt><trkpt lat="45.7800803" lon="11.0941184"><ele>987.2</ele><time>2026-04-25T15:21:39.284Z</time></trkpt><trkpt lat="45.7800442" lon="11.0942093"><ele>981.4</ele><time>2026-04-25T15:21:41.283Z</time></trkpt><trkpt lat="45.7800179" lon="11.094344"><ele>975.6000000000001</ele><time>2026-04-25T15:21:43.255Z</time></trkpt><trkpt lat="45.7799631" lon="11.0944443"><ele>969.8000000000001</ele><time>2026-04-25T15:21:46.236Z</time></trkpt><trkpt lat="45.7799119" lon="11.0945718"><ele>964.0</ele><time>2026-04-25T15:21:49.28Z</time></trkpt><trkpt lat="45.7798643" lon="11.0946816"><ele>963.9999999999999</ele><time>2026-04-25T15:21:52.232Z</time></trkpt><trkpt lat="45.7798122" lon="11.0947882"><ele>964.0</ele><time>2026-04-25T15:21:55.306Z</time></trkpt><trkpt lat="45.7798032" lon="11.0948982"><ele>964.0</ele><time>2026-04-25T15:21:58.294Z</time></trkpt><trkpt lat="45.7797989" lon="11.0950113"><ele>964.0</ele><time>2026-04-25T15:22:01.289Z</time></trkpt><trkpt lat="45.7797963" lon="11.0951184"><ele>963.9999999999999</ele><time>2026-04-25T15:22:04.292Z</time></trkpt><trkpt lat="45.779795" lon="11.0952714"><ele>964.0</ele><time>2026-04-25T15:22:08.284Z</time></trkpt><trkpt lat="45.7798095" lon="11.0953729"><ele>961.0</ele><time>2026-04-25T15:22:11.284Z</time></trkpt><trkpt lat="45.7798177" lon="11.0954817"><ele>958.0000000000001</ele><time>2026-04-25T15:22:14.262Z</time></trkpt><trkpt lat="45.7798248" lon="11.0955734"><ele>955.0</ele><time>2026-04-25T15:22:17.262Z</time></trkpt><trkpt lat="45.779838" lon="11.09568"><ele>952.0</ele><time>2026-04-25T15:22:20.276Z</time></trkpt><trkpt lat="45.7798637" lon="11.0957748"><ele>949.0000000000001</ele><time>2026-04-25T15:22:23.293Z</time></trkpt><trkpt lat="45.7799022" lon="11.0958751"><ele>946.0</ele><time>2026-04-25T15:22:26.27Z</time></trkpt><trkpt lat="45.7798851" lon="11.0959762"><ele>943.0</ele><time>2026-04-25T15:22:31.281Z</time></trkpt><trkpt lat="45.7798725" lon="11.0960973"><ele>939.7142857142858</ele><time>2026-04-25T15:22:36.271Z</time></trkpt><trkpt lat="45.779841" lon="11.0962067"><ele>936.4285714285716</ele><time>2026-04-25T15:22:40.284Z</time></trkpt><trkpt lat="45.779838" lon="11.096298"><ele>933.1428571428571</ele><time>2026-04-25T15:22:45.261Z</time></trkpt><trkpt lat="45.779869" lon="11.0963827"><ele>929.8571428571429</ele><time>2026-04-25T15:22:48.262Z</time></trkpt><trkpt lat="45.7798888" lon="11.0964897"><ele>926.5714285714286</ele><time>2026-04-25T15:22:52.286Z</time></trkpt><trkpt lat="45.779891" lon="11.0966073"><ele>923.2857142857142</ele><time>2026-04-25T15:22:58.229Z</time></trkpt><trkpt lat="45.7798271" lon="11.0966393"><ele>919.9999999999999</ele><time>2026-04-25T15:23:02.23Z</time></trkpt><trkpt lat="45.7798228" lon="11.0967639"><ele>916.5714285714284</ele><time>2026-04-25T15:23:05.271Z</time></trkpt><trkpt lat="45.7798658" lon="11.09684"><ele>913.1428571428571</ele><time>2026-04-25T15:23:07.215Z</time></trkpt><trkpt lat="45.7798701" lon="11.0969365"><ele>909.7142857142857</ele><time>2026-04-25T15:23:11.275Z</time></trkpt><trkpt lat="45.7798179" lon="11.0969959"><ele>906.2857142857142</ele><time>2026-04-25T15:23:14.293Z</time></trkpt><trkpt lat="45.7797703" lon="11.0970715"><ele>902.8571428571429</ele><time>2026-04-25T15:23:17.29Z</time></trkpt><trkpt lat="45.7797495" lon="11.0971644"><ele>899.4285714285714</ele><time>2026-04-25T15:23:36.28Z</time></trkpt><trkpt lat="45.7797401" lon="11.0972728"><ele>896.0</ele><time>2026-04-25T15:23:40.249Z</time></trkpt><trkpt lat="45.7797997" lon="11.0973378"><ele>896.0000000000001</ele><time>2026-04-25T15:23:43.265Z</time></trkpt><trkpt lat="45.7798791" lon="11.0973969"><ele>896.0</ele><time>2026-04-25T15:23:47.258Z</time></trkpt><trkpt lat="45.7799559" lon="11.0974531"><ele>896.0</ele><time>2026-04-25T15:23:50.253Z</time></trkpt><trkpt lat="45.7800232" lon="11.0975037"><ele>896.0</ele><time>2026-04-25T15:23:52.272Z</time></trkpt><trkpt lat="45.7800998" lon="11.0975346"><ele>896.0000000000001</ele><time>2026-04-25T15:23:54.279Z</time></trkpt><trkpt lat="45.7801791" lon="11.0975512"><ele>896.0</ele><time>2026-04-25T15:23:56.269Z</time></trkpt><trkpt lat="45.7802485" lon="11.097589"><ele>893.7142857142857</ele><time>2026-04-25T15:23:59.227Z</time></trkpt><trkpt lat="45.7802513" lon="11.0976956"><ele>891.4285714285714</ele><time>2026-04-25T15:24:53.239Z</time></trkpt><trkpt lat="45.7802238" lon="11.0978052"><ele>889.1428571428571</ele><time>2026-04-25T15:24:57.281Z</time></trkpt><trkpt lat="45.7801972" lon="11.097903"><ele>886.8571428571429</ele><time>2026-04-25T15:25:00.266Z</time></trkpt><trkpt lat="45.7801719" lon="11.0980036"><ele>884.5714285714286</ele><time>2026-04-25T15:25:04.287Z</time></trkpt><trkpt lat="45.7801771" lon="11.0981088"><ele>882.2857142857142</ele><time>2026-04-25T15:25:07.285Z</time></trkpt><trkpt lat="45.7802063" lon="11.0981972"><ele>880.0</ele><time>2026-04-25T15:25:15.289Z</time></trkpt><trkpt lat="45.7802481" lon="11.0982666"><ele>876.1666666666666</ele><time>2026-04-25T15:25:21.317Z</time></trkpt><trkpt lat="45.7802811" lon="11.0983572"><ele>872.3333333333333</ele><time>2026-04-25T15:26:42.253Z</time></trkpt><trkpt lat="45.7802769" lon="11.0984585"><ele>868.5</ele><time>2026-04-25T15:26:46.212Z</time></trkpt><trkpt lat="45.7802189" lon="11.0985344"><ele>864.6666666666667</ele><time>2026-04-25T15:26:51.267Z</time></trkpt><trkpt lat="45.7802147" lon="11.098632"><ele>860.8333333333334</ele><time>2026-04-25T15:26:53.231Z</time></trkpt><trkpt lat="45.7802073" lon="11.0987716"><ele>857.0</ele><time>2026-04-25T15:26:55.31Z</time></trkpt><trkpt lat="45.7802088" lon="11.0988726"><ele>856.8333333333334</ele><time>2026-04-25T15:26:56.245Z</time></trkpt><trkpt lat="45.7801726" lon="11.0989767"><ele>856.6666666666667</ele><time>2026-04-25T15:26:59.215Z</time></trkpt><trkpt lat="45.7801369" lon="11.0990763"><ele>856.5</ele><time>2026-04-25T15:27:02.27Z</time></trkpt><trkpt lat="45.7801503" lon="11.0991722"><ele>856.3333333333333</ele><time>2026-04-25T15:27:04.229Z</time></trkpt><trkpt lat="45.7801488" lon="11.0993074"><ele>856.1666666666666</ele><time>2026-04-25T15:27:06.261Z</time></trkpt><trkpt lat="45.7801377" lon="11.0994428"><ele>856.0</ele><time>2026-04-25T15:27:08.225Z</time></trkpt><trkpt lat="45.780121" lon="11.0995315"><ele>852.9999999999999</ele><time>2026-04-25T15:27:10.288Z</time></trkpt><trkpt lat="45.7800853" lon="11.0996512"><ele>850.0</ele><time>2026-04-25T15:27:13.263Z</time></trkpt><trkpt lat="45.7800286" lon="11.0997302"><ele>847.0</ele><time>2026-04-25T15:27:16.27Z</time></trkpt><trkpt lat="45.779972" lon="11.0998151"><ele>844.0</ele><time>2026-04-25T15:27:19.219Z</time></trkpt><trkpt lat="45.7798986" lon="11.0998722"><ele>840.9999999999999</ele><time>2026-04-25T15:27:22.23Z</time></trkpt><trkpt lat="45.7798374" lon="11.0999231"><ele>838.0</ele><time>2026-04-25T15:27:31.216Z</time></trkpt><trkpt lat="45.7798599" lon="11.1000386"><ele>833.8333333333333</ele><time>2026-04-25T15:27:35.221Z</time></trkpt><trkpt lat="45.7798866" lon="11.1001226"><ele>829.6666666666666</ele><time>2026-04-25T15:27:37.216Z</time></trkpt><trkpt lat="45.779914" lon="11.1002367"><ele>825.5</ele><time>2026-04-25T15:27:39.223Z</time></trkpt><trkpt lat="45.7799471" lon="11.1003251"><ele>821.3333333333333</ele><time>2026-04-25T15:27:40.214Z</time></trkpt><trkpt lat="45.779991" lon="11.1004476"><ele>817.1666666666666</ele><time>2026-04-25T15:27:42.231Z</time></trkpt><trkpt lat="45.7800078" lon="11.1005516"><ele>813.0</ele><time>2026-04-25T15:27:43.224Z</time></trkpt><trkpt lat="45.7800312" lon="11.1006455"><ele>811.5999999999999</ele><time>2026-04-25T15:27:44.22Z</time></trkpt><trkpt lat="45.7800681" lon="11.1007906"><ele>810.1999999999999</ele><time>2026-04-25T15:27:46.222Z</time></trkpt><trkpt lat="45.7801049" lon="11.1009025"><ele>808.8</ele><time>2026-04-25T15:27:48.219Z</time></trkpt><trkpt lat="45.7801878" lon="11.1010516"><ele>807.4</ele><time>2026-04-25T15:28:02.228Z</time></trkpt><trkpt lat="45.7803024" lon="11.1010061"><ele>806.0</ele><time>2026-04-25T15:32:14.22Z</time></trkpt><trkpt lat="45.7803758" lon="11.1010771"><ele>806.0</ele><time>2026-04-25T15:32:16.283Z</time></trkpt><trkpt lat="45.780418" lon="11.1011444"><ele>806.0</ele><time>2026-04-25T15:33:36.226Z</time></trkpt><trkpt lat="45.7804724" lon="11.1012262"><ele>806.0</ele><time>2026-04-25T15:33:41.233Z</time></trkpt><trkpt lat="45.7804932" lon="11.1013325"><ele>806.0</ele><time>2026-04-25T15:33:45.231Z</time></trkpt><trkpt lat="45.7805341" lon="11.1014034"><ele>806.0</ele><time>2026-04-25T15:33:48.232Z</time></trkpt><trkpt lat="45.7805753" lon="11.1014947"><ele>806.0</ele><time>2026-04-25T15:33:51.234Z</time></trkpt><trkpt lat="45.780621" lon="11.1015607"><ele>806.0</ele><time>2026-04-25T15:33:53.232Z</time></trkpt><trkpt lat="45.7806853" lon="11.1016104"><ele>805.0000000000001</ele><time>2026-04-25T15:33:56.222Z</time></trkpt><trkpt lat="45.7807407" lon="11.1016673"><ele>804.0</ele><time>2026-04-25T15:34:24.234Z</time></trkpt><trkpt lat="45.7808055" lon="11.1016827"><ele>803.0</ele><time>2026-04-25T15:34:27.247Z</time></trkpt><trkpt lat="45.7808763" lon="11.1018596"><ele>802.0</ele><time>2026-04-25T15:34:29.235Z</time></trkpt><trkpt lat="45.7809574" lon="11.1019471"><ele>801.0000000000001</ele><time>2026-04-25T15:34:31.333Z</time></trkpt><trkpt lat="45.7810238" lon="11.101969"><ele>800.0</ele><time>2026-04-25T15:34:32.24Z</time></trkpt><trkpt lat="45.7810845" lon="11.1020345"><ele>800.0</ele><time>2026-04-25T15:34:33.263Z</time></trkpt><trkpt lat="45.7812043" lon="11.1021295"><ele>800.0</ele><time>2026-04-25T15:34:35.29Z</time></trkpt><trkpt lat="45.7812749" lon="11.1021729"><ele>800.0</ele><time>2026-04-25T15:34:36.303Z</time></trkpt><trkpt lat="45.7813358" lon="11.1022292"><ele>800.0</ele><time>2026-04-25T15:34:37.212Z</time></trkpt><trkpt lat="45.7814679" lon="11.1023501"><ele>800.0</ele><time>2026-04-25T15:34:40.276Z</time></trkpt><trkpt lat="45.7815618" lon="11.1024381"><ele>796.1666666666667</ele><time>2026-04-25T15:34:42.287Z</time></trkpt><trkpt lat="45.7816346" lon="11.1024588"><ele>792.3333333333334</ele><time>2026-04-25T15:34:43.26Z</time></trkpt><trkpt lat="45.7817065" lon="11.1024674"><ele>788.5</ele><time>2026-04-25T15:34:44.269Z</time></trkpt><trkpt lat="45.7818024" lon="11.1024498"><ele>784.6666666666667</ele><time>2026-04-25T15:34:45.266Z</time></trkpt><trkpt lat="45.7819181" lon="11.1024237"><ele>780.8333333333334</ele><time>2026-04-25T15:34:47.25Z</time></trkpt><trkpt lat="45.7819916" lon="11.1024313"><ele>777.0</ele><time>2026-04-25T15:34:48.273Z</time></trkpt><trkpt lat="45.7820827" lon="11.1024282"><ele>774.6666666666666</ele><time>2026-04-25T15:34:49.274Z</time></trkpt><trkpt lat="45.7821636" lon="11.1024219"><ele>772.3333333333334</ele><time>2026-04-25T15:34:50.274Z</time></trkpt><trkpt lat="45.782248" lon="11.1023983"><ele>770.0</ele><time>2026-04-25T15:34:51.267Z</time></trkpt><trkpt lat="45.7823107" lon="11.1023639"><ele>767.6666666666667</ele><time>2026-04-25T15:34:52.263Z</time></trkpt><trkpt lat="45.7824068" lon="11.1023442"><ele>765.3333333333334</ele><time>2026-04-25T15:34:54.251Z</time></trkpt><trkpt lat="45.7824412" lon="11.1024404"><ele>763.0</ele><time>2026-04-25T15:34:57.279Z</time></trkpt><trkpt lat="45.7823562" lon="11.1024185"><ele>763.0</ele><time>2026-04-25T15:35:00.235Z</time></trkpt><trkpt lat="45.7822636" lon="11.1024589"><ele>763.0</ele><time>2026-04-25T15:35:03.264Z</time></trkpt><trkpt lat="45.7821543" lon="11.1024881"><ele>763.0</ele><time>2026-04-25T15:35:05.229Z</time></trkpt><trkpt lat="45.7820295" lon="11.1025346"><ele>763.0</ele><time>2026-04-25T15:35:07.263Z</time></trkpt><trkpt lat="45.7819269" lon="11.1026179"><ele>763.0</ele><time>2026-04-25T15:35:09.27Z</time></trkpt><trkpt lat="45.7818673" lon="11.1026501"><ele>763.0</ele><time>2026-04-25T15:35:10.271Z</time></trkpt><trkpt lat="45.7818148" lon="11.102701"><ele>763.0</ele><time>2026-04-25T15:35:11.276Z</time></trkpt><trkpt lat="45.7817517" lon="11.1027378"><ele>763.0</ele><time>2026-04-25T15:35:12.28Z</time></trkpt><trkpt lat="45.7816794" lon="11.1027616"><ele>763.0</ele><time>2026-04-25T15:35:13.28Z</time></trkpt><trkpt lat="45.7815855" lon="11.1027472"><ele>763.0</ele><time>2026-04-25T15:35:14.273Z</time></trkpt><trkpt lat="45.7815033" lon="11.1027459"><ele>763.0</ele><time>2026-04-25T15:35:15.295Z</time></trkpt><trkpt lat="45.781428" lon="11.1027418"><ele>765.8</ele><time>2026-04-25T15:35:16.274Z</time></trkpt><trkpt lat="45.7813587" lon="11.1027615"><ele>768.5999999999999</ele><time>2026-04-25T15:35:17.294Z</time></trkpt><trkpt lat="45.7812307" lon="11.1027198"><ele>771.4000000000001</ele><time>2026-04-25T15:35:19.266Z</time></trkpt><trkpt lat="45.7811627" lon="11.1027345"><ele>774.2</ele><time>2026-04-25T15:35:20.282Z</time></trkpt><trkpt lat="45.781127" lon="11.1028134"><ele>777.0</ele><time>2026-04-25T15:35:22.285Z</time></trkpt><trkpt lat="45.7812665" lon="11.1028354"><ele>777.0</ele><time>2026-04-25T15:35:23.224Z</time></trkpt><trkpt lat="45.7813823" lon="11.1028961"><ele>777.0</ele><time>2026-04-25T15:35:25.244Z</time></trkpt><trkpt lat="45.7814538" lon="11.1029294"><ele>777.0</ele><time>2026-04-25T15:35:26.25Z</time></trkpt><trkpt lat="45.7815128" lon="11.1029661"><ele>777.0</ele><time>2026-04-25T15:35:27.251Z</time></trkpt><trkpt lat="45.781608" lon="11.1030082"><ele>777.0</ele><time>2026-04-25T15:35:29.26Z</time></trkpt><trkpt lat="45.7815623" lon="11.1031043"><ele>777.0</ele><time>2026-04-25T15:35:32.273Z</time></trkpt><trkpt lat="45.7814662" lon="11.1031285"><ele>777.0</ele><time>2026-04-25T15:35:34.24Z</time></trkpt><trkpt lat="45.7814002" lon="11.1031378"><ele>777.0</ele><time>2026-04-25T15:35:35.236Z</time></trkpt><trkpt lat="45.781293" lon="11.103154"><ele>777.0</ele><time>2026-04-25T15:35:37.27Z</time></trkpt><trkpt lat="45.7812172" lon="11.1031781"><ele>777.0</ele><time>2026-04-25T15:35:38.277Z</time></trkpt><trkpt lat="45.7811269" lon="11.1031832"><ele>777.0</ele><time>2026-04-25T15:35:39.27Z</time></trkpt><trkpt lat="45.7810365" lon="11.1032001"><ele>777.0</ele><time>2026-04-25T15:35:40.269Z</time></trkpt><trkpt lat="45.7809555" lon="11.1032016"><ele>775.0</ele><time>2026-04-25T15:35:41.265Z</time></trkpt><trkpt lat="45.7808623" lon="11.103222"><ele>773.0</ele><time>2026-04-25T15:35:42.274Z</time></trkpt><trkpt lat="45.7807846" lon="11.1032438"><ele>771.0</ele><time>2026-04-25T15:35:43.279Z</time></trkpt><trkpt lat="45.7806945" lon="11.1032897"><ele>769.0</ele><time>2026-04-25T15:35:44.268Z</time></trkpt><trkpt lat="45.7806245" lon="11.1033532"><ele>767.0</ele><time>2026-04-25T15:35:45.271Z</time></trkpt><trkpt lat="45.7805798" lon="11.1034504"><ele>765.0</ele><time>2026-04-25T15:35:46.262Z</time></trkpt><trkpt lat="45.7805324" lon="11.1035566"><ele>760.2</ele><time>2026-04-25T15:35:47.269Z</time></trkpt><trkpt lat="45.7804585" lon="11.1036901"><ele>755.4</ele><time>2026-04-25T15:35:49.282Z</time></trkpt><trkpt lat="45.7803991" lon="11.1037777"><ele>750.5999999999999</ele><time>2026-04-25T15:35:51.233Z</time></trkpt><trkpt lat="45.7804183" lon="11.1038851"><ele>745.8</ele><time>2026-04-25T15:35:53.276Z</time></trkpt><trkpt lat="45.7804933" lon="11.1038635"><ele>741.0</ele><time>2026-04-25T15:35:54.279Z</time></trkpt><trkpt lat="45.7805996" lon="11.1038188"><ele>741.0</ele><time>2026-04-25T15:35:56.261Z</time></trkpt><trkpt lat="45.780676" lon="11.1037862"><ele>741.0</ele><time>2026-04-25T15:35:57.229Z</time></trkpt><trkpt lat="45.7807774" lon="11.1037201"><ele>741.0</ele><time>2026-04-25T15:35:59.236Z</time></trkpt><trkpt lat="45.7808449" lon="11.1037903"><ele>741.0</ele><time>2026-04-25T15:36:01.283Z</time></trkpt><trkpt lat="45.7808906" lon="11.1038582"><ele>741.0</ele><time>2026-04-25T15:36:02.273Z</time></trkpt><trkpt lat="45.7809515" lon="11.1038813"><ele>741.0</ele><time>2026-04-25T15:36:03.28Z</time></trkpt><trkpt lat="45.7810234" lon="11.103888"><ele>741.3333333333334</ele><time>2026-04-25T15:36:04.245Z</time></trkpt><trkpt lat="45.7810971" lon="11.1038545"><ele>741.6666666666666</ele><time>2026-04-25T15:36:05.249Z</time></trkpt><trkpt lat="45.7811852" lon="11.1038095"><ele>742.0</ele><time>2026-04-25T15:36:07.284Z</time></trkpt><trkpt lat="45.7812491" lon="11.1037912"><ele>742.3333333333333</ele><time>2026-04-25T15:36:12.235Z</time></trkpt><trkpt lat="45.7813191" lon="11.1037734"><ele>742.6666666666666</ele><time>2026-04-25T15:36:14.236Z</time></trkpt><trkpt lat="45.7813706" lon="11.1038271"><ele>743.0</ele><time>2026-04-25T15:36:16.217Z</time></trkpt><trkpt lat="45.7812689" lon="11.1038546"><ele>743.0</ele><time>2026-04-25T15:36:18.272Z</time></trkpt><trkpt lat="45.7811688" lon="11.1039596"><ele>743.0</ele><time>2026-04-25T15:36:20.219Z</time></trkpt><trkpt lat="45.7810383" lon="11.1040715"><ele>743.0</ele><time>2026-04-25T15:36:22.239Z</time></trkpt><trkpt lat="45.7809758" lon="11.1041146"><ele>743.0</ele><time>2026-04-25T15:36:23.235Z</time></trkpt><trkpt lat="45.7809186" lon="11.104192"><ele>743.0</ele><time>2026-04-25T15:36:25.257Z</time></trkpt><trkpt lat="45.781006" lon="11.104259"><ele>736.5999999999999</ele><time>2026-04-25T15:36:29.262Z</time></trkpt><trkpt lat="45.7810761" lon="11.104267"><ele>730.1999999999999</ele><time>2026-04-25T15:36:31.267Z</time></trkpt><trkpt lat="45.7811432" lon="11.1042769"><ele>723.8</ele><time>2026-04-25T15:36:42.223Z</time></trkpt><trkpt lat="45.7812422" lon="11.1042369"><ele>717.4</ele><time>2026-04-25T15:36:45.216Z</time></trkpt><trkpt lat="45.7813607" lon="11.104175"><ele>711.0</ele><time>2026-04-25T15:36:47.216Z</time></trkpt><trkpt lat="45.7814675" lon="11.1041194"><ele>711.0</ele><time>2026-04-25T15:36:49.216Z</time></trkpt><trkpt lat="45.781561" lon="11.1040815"><ele>711.0</ele><time>2026-04-25T15:36:51.272Z</time></trkpt><trkpt lat="45.7816777" lon="11.1040274"><ele>711.0</ele><time>2026-04-25T15:36:53.227Z</time></trkpt><trkpt lat="45.7817249" lon="11.1039659"><ele>711.0</ele><time>2026-04-25T15:36:54.216Z</time></trkpt><trkpt lat="45.7817856" lon="11.1038904"><ele>711.0</ele><time>2026-04-25T15:36:55.219Z</time></trkpt><trkpt lat="45.7819124" lon="11.1038155"><ele>713.6666666666666</ele><time>2026-04-25T15:36:57.225Z</time></trkpt><trkpt lat="45.7819801" lon="11.1037872"><ele>716.3333333333334</ele><time>2026-04-25T15:36:58.284Z</time></trkpt><trkpt lat="45.7820951" lon="11.1037164"><ele>719.0</ele><time>2026-04-25T15:37:00.262Z</time></trkpt><trkpt lat="45.7821721" lon="11.103697"><ele>721.6666666666667</ele><time>2026-04-25T15:37:01.277Z</time></trkpt><trkpt lat="45.7822325" lon="11.1036644"><ele>724.3333333333334</ele><time>2026-04-25T15:37:02.268Z</time></trkpt><trkpt lat="45.7822982" lon="11.1036324"><ele>727.0</ele><time>2026-04-25T15:37:03.223Z</time></trkpt><trkpt lat="45.7823653" lon="11.1036148"><ele>727.0</ele><time>2026-04-25T15:37:04.258Z</time></trkpt><trkpt lat="45.7824652" lon="11.1035307"><ele>727.0</ele><time>2026-04-25T15:37:06.237Z</time></trkpt><trkpt lat="45.7825796" lon="11.1034953"><ele>727.0</ele><time>2026-04-25T15:37:08.274Z</time></trkpt><trkpt lat="45.7826665" lon="11.1034754"><ele>727.0</ele><time>2026-04-25T15:37:10.309Z</time></trkpt><trkpt lat="45.7827396" lon="11.1034666"><ele>727.0</ele><time>2026-04-25T15:37:11.291Z</time></trkpt><trkpt lat="45.7828233" lon="11.1034584"><ele>724.0</ele><time>2026-04-25T15:37:12.315Z</time></trkpt><trkpt lat="45.7828946" lon="11.1034509"><ele>721.0</ele><time>2026-04-25T15:37:13.282Z</time></trkpt><trkpt lat="45.7829649" lon="11.1034342"><ele>718.0</ele><time>2026-04-25T15:37:14.251Z</time></trkpt><trkpt lat="45.7830374" lon="11.1034312"><ele>715.0</ele><time>2026-04-25T15:37:15.251Z</time></trkpt><trkpt lat="45.7831613" lon="11.1034179"><ele>712.0</ele><time>2026-04-25T15:37:17.273Z</time></trkpt><trkpt lat="45.7832241" lon="11.1034045"><ele>709.0</ele><time>2026-04-25T15:37:18.272Z</time></trkpt><trkpt lat="45.7832943" lon="11.1034198"><ele>709.0</ele><time>2026-04-25T15:37:19.257Z</time></trkpt><trkpt lat="45.7833622" lon="11.1033926"><ele>709.0</ele><time>2026-04-25T15:37:20.277Z</time></trkpt><trkpt lat="45.7835557" lon="11.1034218"><ele>709.0</ele><time>2026-04-25T15:37:23.278Z</time></trkpt><trkpt lat="45.783671" lon="11.1034304"><ele>709.0</ele><time>2026-04-25T15:37:25.279Z</time></trkpt><trkpt lat="45.7837354" lon="11.1034217"><ele>709.0</ele><time>2026-04-25T15:37:26.279Z</time></trkpt><trkpt lat="45.7838451" lon="11.1034087"><ele>708.6</ele><time>2026-04-25T15:37:28.215Z</time></trkpt><trkpt lat="45.7839315" lon="11.1034022"><ele>708.2</ele><time>2026-04-25T15:37:30.322Z</time></trkpt><trkpt lat="45.7841" lon="11.1033917"><ele>707.8000000000001</ele><time>2026-04-25T15:37:33.293Z</time></trkpt><trkpt lat="45.7841993" lon="11.1033804"><ele>707.4000000000001</ele><time>2026-04-25T15:37:35.212Z</time></trkpt><trkpt lat="45.7842659" lon="11.1033654"><ele>707.0</ele><time>2026-04-25T15:37:36.263Z</time></trkpt><trkpt lat="45.7843627" lon="11.1033361"><ele>703.75</ele><time>2026-04-25T15:37:38.252Z</time></trkpt><trkpt lat="45.7844726" lon="11.1033182"><ele>700.5</ele><time>2026-04-25T15:37:40.255Z</time></trkpt><trkpt lat="45.784574" lon="11.1032771"><ele>697.25</ele><time>2026-04-25T15:37:42.232Z</time></trkpt><trkpt lat="45.7846856" lon="11.1032323"><ele>694.0</ele><time>2026-04-25T15:37:44.234Z</time></trkpt><trkpt lat="45.7848011" lon="11.1031857"><ele>694.1666666666667</ele><time>2026-04-25T15:37:46.228Z</time></trkpt><trkpt lat="45.7849104" lon="11.1031571"><ele>694.3333333333334</ele><time>2026-04-25T15:37:48.229Z</time></trkpt><trkpt lat="45.7850312" lon="11.1031061"><ele>694.5</ele><time>2026-04-25T15:37:50.218Z</time></trkpt><trkpt lat="45.7850952" lon="11.1030666"><ele>694.6666666666666</ele><time>2026-04-25T15:37:51.224Z</time></trkpt><trkpt lat="45.7851604" lon="11.1030363"><ele>694.8333333333333</ele><time>2026-04-25T15:37:52.231Z</time></trkpt><trkpt lat="45.7852251" lon="11.1030037"><ele>695.0</ele><time>2026-04-25T15:37:53.226Z</time></trkpt><trkpt lat="45.7852863" lon="11.1029584"><ele>695.0</ele><time>2026-04-25T15:37:54.315Z</time></trkpt><trkpt lat="45.7853538" lon="11.1029234"><ele>695.0</ele><time>2026-04-25T15:37:55.235Z</time></trkpt><trkpt lat="45.7854645" lon="11.1028383"><ele>695.0</ele><time>2026-04-25T15:37:57.232Z</time></trkpt><trkpt lat="45.785568" lon="11.1027486"><ele>695.0</ele><time>2026-04-25T15:37:59.229Z</time></trkpt><trkpt lat="45.785608" lon="11.1026767"><ele>695.0</ele><time>2026-04-25T15:38:00.238Z</time></trkpt><trkpt lat="45.7856649" lon="11.1025963"><ele>695.0</ele><time>2026-04-25T15:38:01.234Z</time></trkpt><trkpt lat="45.7857319" lon="11.1024629"><ele>695.0</ele><time>2026-04-25T15:38:03.234Z</time></trkpt><trkpt lat="45.7857773" lon="11.1023921"><ele>695.0</ele><time>2026-04-25T15:38:04.23Z</time></trkpt><trkpt lat="45.7858298" lon="11.1023162"><ele>695.0</ele><time>2026-04-25T15:38:05.229Z</time></trkpt><trkpt lat="45.7858766" lon="11.1022425"><ele>695.0</ele><time>2026-04-25T15:38:06.33Z</time></trkpt><trkpt lat="45.7859263" lon="11.1021646"><ele>695.0</ele><time>2026-04-25T15:38:07.267Z</time></trkpt><trkpt lat="45.7859818" lon="11.102115"><ele>695.5714285714287</ele><time>2026-04-25T15:38:08.263Z</time></trkpt><trkpt lat="45.7860367" lon="11.1020659"><ele>696.1428571428571</ele><time>2026-04-25T15:38:09.315Z</time></trkpt><trkpt lat="45.7861066" lon="11.1020276"><ele>696.7142857142858</ele><time>2026-04-25T15:38:10.29Z</time></trkpt><trkpt lat="45.7861646" lon="11.1019881"><ele>697.2857142857143</ele><time>2026-04-25T15:38:11.304Z</time></trkpt><trkpt lat="45.7862211" lon="11.1019381"><ele>697.8571428571429</ele><time>2026-04-25T15:38:12.238Z</time></trkpt><trkpt lat="45.7862919" lon="11.101917"><ele>698.4285714285714</ele><time>2026-04-25T15:38:13.233Z</time></trkpt><trkpt lat="45.7863521" lon="11.1018822"><ele>699.0</ele><time>2026-04-25T15:38:14.238Z</time></trkpt><trkpt lat="45.7864259" lon="11.101863"><ele>699.0</ele><time>2026-04-25T15:38:15.232Z</time></trkpt><trkpt lat="45.786491" lon="11.1018409"><ele>699.0</ele><time>2026-04-25T15:38:16.242Z</time></trkpt><trkpt lat="45.7865612" lon="11.1018101"><ele>699.0</ele><time>2026-04-25T15:38:17.236Z</time></trkpt><trkpt lat="45.7866374" lon="11.101787"><ele>699.0</ele><time>2026-04-25T15:38:18.231Z</time></trkpt><trkpt lat="45.7867879" lon="11.1017608"><ele>699.0</ele><time>2026-04-25T15:38:20.346Z</time></trkpt><trkpt lat="45.7869091" lon="11.1016647"><ele>697.5</ele><time>2026-04-25T15:38:22.27Z</time></trkpt><trkpt lat="45.7869728" lon="11.1016173"><ele>696.0</ele><time>2026-04-25T15:38:23.277Z</time></trkpt><trkpt lat="45.7870334" lon="11.101557"><ele>694.5</ele><time>2026-04-25T15:38:24.277Z</time></trkpt><trkpt lat="45.7870979" lon="11.1014626"><ele>693.0</ele><time>2026-04-25T15:38:25.292Z</time></trkpt><trkpt lat="45.7871465" lon="11.1013883"><ele>691.5</ele><time>2026-04-25T15:38:26.286Z</time></trkpt><trkpt lat="45.7871971" lon="11.1013061"><ele>690.0</ele><time>2026-04-25T15:38:27.337Z</time></trkpt><trkpt lat="45.7872445" lon="11.1012142"><ele>690.0</ele><time>2026-04-25T15:38:28.251Z</time></trkpt><trkpt lat="45.7872903" lon="11.1010968"><ele>690.0</ele><time>2026-04-25T15:38:29.242Z</time></trkpt><trkpt lat="45.7873434" lon="11.1009718"><ele>690.0</ele><time>2026-04-25T15:38:30.239Z</time></trkpt><trkpt lat="45.7873698" lon="11.1008332"><ele>690.0</ele><time>2026-04-25T15:38:31.233Z</time></trkpt><trkpt lat="45.7874226" lon="11.1007419"><ele>690.0</ele><time>2026-04-25T15:38:32.237Z</time></trkpt><trkpt lat="45.7874701" lon="11.100658"><ele>687.6666666666666</ele><time>2026-04-25T15:38:33.271Z</time></trkpt><trkpt lat="45.7875169" lon="11.100539"><ele>685.3333333333334</ele><time>2026-04-25T15:38:34.244Z</time></trkpt><trkpt lat="45.7875794" lon="11.100448"><ele>683.0</ele><time>2026-04-25T15:38:35.232Z</time></trkpt><trkpt lat="45.7876328" lon="11.1003508"><ele>680.6666666666667</ele><time>2026-04-25T15:38:36.276Z</time></trkpt><trkpt lat="45.7876908" lon="11.1002631"><ele>678.3333333333334</ele><time>2026-04-25T15:38:37.256Z</time></trkpt><trkpt lat="45.7877528" lon="11.1001788"><ele>676.0</ele><time>2026-04-25T15:38:38.297Z</time></trkpt><trkpt lat="45.7877952" lon="11.1000949"><ele>676.0</ele><time>2026-04-25T15:38:39.249Z</time></trkpt><trkpt lat="45.7878448" lon="11.1000172"><ele>676.0</ele><time>2026-04-25T15:38:40.265Z</time></trkpt><trkpt lat="45.7878949" lon="11.0999424"><ele>676.0</ele><time>2026-04-25T15:38:41.332Z</time></trkpt><trkpt lat="45.7879561" lon="11.0998797"><ele>676.0</ele><time>2026-04-25T15:38:42.259Z</time></trkpt><trkpt lat="45.7880093" lon="11.0998093"><ele>676.0</ele><time>2026-04-25T15:38:43.284Z</time></trkpt><trkpt lat="45.7881067" lon="11.0996762"><ele>676.0</ele><time>2026-04-25T15:38:45.257Z</time></trkpt><trkpt lat="45.7882084" lon="11.0995623"><ele>678.5</ele><time>2026-04-25T15:38:47.245Z</time></trkpt><trkpt lat="45.7882569" lon="11.0994855"><ele>681.0</ele><time>2026-04-25T15:38:48.26Z</time></trkpt><trkpt lat="45.788301" lon="11.0993981"><ele>683.5</ele><time>2026-04-25T15:38:49.303Z</time></trkpt><trkpt lat="45.7883504" lon="11.0992859"><ele>686.0</ele><time>2026-04-25T15:38:50.297Z</time></trkpt><trkpt lat="45.7883923" lon="11.0992016"><ele>688.5</ele><time>2026-04-25T15:38:51.352Z</time></trkpt><trkpt lat="45.7884368" lon="11.0991161"><ele>691.0</ele><time>2026-04-25T15:38:52.318Z</time></trkpt><trkpt lat="45.7884843" lon="11.0990222"><ele>687.8571428571428</ele><time>2026-04-25T15:38:53.28Z</time></trkpt><trkpt lat="45.7885275" lon="11.0989301"><ele>684.7142857142857</ele><time>2026-04-25T15:38:54.355Z</time></trkpt><trkpt lat="45.7885628" lon="11.0988274"><ele>681.5714285714286</ele><time>2026-04-25T15:38:55.319Z</time></trkpt><trkpt lat="45.7885929" lon="11.0987359"><ele>678.4285714285713</ele><time>2026-04-25T15:38:56.336Z</time></trkpt><trkpt lat="45.7886258" lon="11.0986462"><ele>675.2857142857142</ele><time>2026-04-25T15:38:57.288Z</time></trkpt><trkpt lat="45.788667" lon="11.098554"><ele>672.1428571428571</ele><time>2026-04-25T15:38:58.29Z</time></trkpt><trkpt lat="45.7887007" lon="11.0984638"><ele>669.0</ele><time>2026-04-25T15:38:59.295Z</time></trkpt><trkpt lat="45.7887404" lon="11.0983784"><ele>669.0</ele><time>2026-04-25T15:39:00.271Z</time></trkpt><trkpt lat="45.7887745" lon="11.0982786"><ele>669.0</ele><time>2026-04-25T15:39:01.24Z</time></trkpt><trkpt lat="45.7888045" lon="11.0981948"><ele>669.0</ele><time>2026-04-25T15:39:02.237Z</time></trkpt><trkpt lat="45.7888406" lon="11.0980762"><ele>669.0</ele><time>2026-04-25T15:39:03.241Z</time></trkpt><trkpt lat="45.7888766" lon="11.0979466"><ele>669.0</ele><time>2026-04-25T15:39:04.231Z</time></trkpt><trkpt lat="45.7889177" lon="11.0978555"><ele>669.0</ele><time>2026-04-25T15:39:05.217Z</time></trkpt><trkpt lat="45.7889792" lon="11.0976745"><ele>671.3333333333334</ele><time>2026-04-25T15:39:07.245Z</time></trkpt><trkpt lat="45.7889987" lon="11.0975816"><ele>673.6666666666666</ele><time>2026-04-25T15:39:08.246Z</time></trkpt><trkpt lat="45.78903" lon="11.0974857"><ele>676.0</ele><time>2026-04-25T15:39:10.09Z</time></trkpt><trkpt lat="45.7890995" lon="11.0972923"><ele>678.3333333333333</ele><time>2026-04-25T15:39:11.26Z</time></trkpt><trkpt lat="45.7891315" lon="11.0972089"><ele>680.6666666666666</ele><time>2026-04-25T15:39:12.236Z</time></trkpt><trkpt lat="45.7891739" lon="11.097114"><ele>683.0</ele><time>2026-04-25T15:39:13.238Z</time></trkpt><trkpt lat="45.7892049" lon="11.0970232"><ele>684.0</ele><time>2026-04-25T15:39:14.234Z</time></trkpt><trkpt lat="45.7892399" lon="11.0969416"><ele>685.0</ele><time>2026-04-25T15:39:15.232Z</time></trkpt><trkpt lat="45.7892704" lon="11.0968579"><ele>686.0</ele><time>2026-04-25T15:39:16.237Z</time></trkpt><trkpt lat="45.7893058" lon="11.0967759"><ele>687.0</ele><time>2026-04-25T15:39:17.24Z</time></trkpt><trkpt lat="45.7893455" lon="11.0966902"><ele>688.0</ele><time>2026-04-25T15:39:18.238Z</time></trkpt><trkpt lat="45.7893906" lon="11.0966011"><ele>689.0</ele><time>2026-04-25T15:39:19.337Z</time></trkpt><trkpt lat="45.7894266" lon="11.0965159"><ele>690.0</ele><time>2026-04-25T15:39:20.299Z</time></trkpt><trkpt lat="45.7894709" lon="11.096444"><ele>690.0</ele><time>2026-04-25T15:39:21.354Z</time></trkpt><trkpt lat="45.7895061" lon="11.0963207"><ele>690.0</ele><time>2026-04-25T15:39:22.264Z</time></trkpt><trkpt lat="45.7896019" lon="11.0962141"><ele>690.0</ele><time>2026-04-25T15:39:24.3Z</time></trkpt><trkpt lat="45.7896841" lon="11.0961005"><ele>690.0</ele><time>2026-04-25T15:39:26.258Z</time></trkpt><trkpt lat="45.7897592" lon="11.0959962"><ele>690.0</ele><time>2026-04-25T15:39:28.248Z</time></trkpt><trkpt lat="45.7898545" lon="11.0959006"><ele>690.0</ele><time>2026-04-25T15:39:30.27Z</time></trkpt><trkpt lat="45.7899266" lon="11.095824"><ele>690.0</ele><time>2026-04-25T15:39:32.26Z</time></trkpt><trkpt lat="45.7899927" lon="11.0957328"><ele>690.0</ele><time>2026-04-25T15:39:34.226Z</time></trkpt><trkpt lat="45.790024" lon="11.0956486"><ele>690.0</ele><time>2026-04-25T15:39:35.221Z</time></trkpt><trkpt lat="45.7900887" lon="11.0955791"><ele>690.0</ele><time>2026-04-25T15:39:37.242Z</time></trkpt><trkpt lat="45.7901339" lon="11.0954807"><ele>690.0</ele><time>2026-04-25T15:39:39.326Z</time></trkpt><trkpt lat="45.7902014" lon="11.0954214"><ele>690.8571428571429</ele><time>2026-04-25T15:39:41.265Z</time></trkpt><trkpt lat="45.7902679" lon="11.095353"><ele>691.7142857142857</ele><time>2026-04-25T15:39:43.23Z</time></trkpt><trkpt lat="45.7903352" lon="11.0953347"><ele>692.5714285714286</ele><time>2026-04-25T15:39:45.23Z</time></trkpt><trkpt lat="45.7903939" lon="11.0952872"><ele>693.4285714285714</ele><time>2026-04-25T15:39:47.244Z</time></trkpt><trkpt lat="45.7904563" lon="11.0952598"><ele>694.2857142857143</ele><time>2026-04-25T15:39:49.238Z</time></trkpt><trkpt lat="45.7905301" lon="11.0952435"><ele>695.1428571428571</ele><time>2026-04-25T15:39:52.227Z</time></trkpt><trkpt lat="45.7905939" lon="11.0952241"><ele>696.0</ele><time>2026-04-25T15:39:54.23Z</time></trkpt><trkpt lat="45.7906549" lon="11.0951978"><ele>696.0</ele><time>2026-04-25T15:39:56.24Z</time></trkpt><trkpt lat="45.7907177" lon="11.0951678"><ele>696.0</ele><time>2026-04-25T15:39:58.233Z</time></trkpt><trkpt lat="45.7907843" lon="11.0951351"><ele>696.0</ele><time>2026-04-25T15:40:00.256Z</time></trkpt><trkpt lat="45.7908475" lon="11.0951061"><ele>696.0</ele><time>2026-04-25T15:40:02.286Z</time></trkpt><trkpt lat="45.7909209" lon="11.0950775"><ele>696.0</ele><time>2026-04-25T15:40:05.234Z</time></trkpt><trkpt lat="45.7909878" lon="11.0950582"><ele>696.0</ele><time>2026-04-25T15:40:07.27Z</time></trkpt><trkpt lat="45.7910768" lon="11.0950266"><ele>696.0</ele><time>2026-04-25T15:40:10.23Z</time></trkpt><trkpt lat="45.7911577" lon="11.0949917"><ele>694.8333333333334</ele><time>2026-04-25T15:40:13.278Z</time></trkpt><trkpt lat="45.7912261" lon="11.0949511"><ele>693.6666666666666</ele><time>2026-04-25T15:40:16.226Z</time></trkpt><trkpt lat="45.7913097" lon="11.0949158"><ele>692.5</ele><time>2026-04-25T15:40:19.274Z</time></trkpt><trkpt lat="45.7913893" lon="11.094854"><ele>691.3333333333333</ele><time>2026-04-25T15:40:22.278Z</time></trkpt><trkpt lat="45.7914562" lon="11.0947894"><ele>690.1666666666666</ele><time>2026-04-25T15:40:25.238Z</time></trkpt><trkpt lat="45.7915411" lon="11.0947612"><ele>689.0</ele><time>2026-04-25T15:40:28.24Z</time></trkpt><trkpt lat="45.7916191" lon="11.0947186"><ele>690.5</ele><time>2026-04-25T15:40:31.238Z</time></trkpt><trkpt lat="45.791696" lon="11.0946886"><ele>692.0</ele><time>2026-04-25T15:40:34.258Z</time></trkpt><trkpt lat="45.7917764" lon="11.0946673"><ele>693.5</ele><time>2026-04-25T15:40:37.232Z</time></trkpt><trkpt lat="45.7918594" lon="11.0946417"><ele>695.0</ele><time>2026-04-25T15:40:40.265Z</time></trkpt><trkpt lat="45.7919355" lon="11.0945915"><ele>696.5</ele><time>2026-04-25T15:40:43.225Z</time></trkpt><trkpt lat="45.7920227" lon="11.09456"><ele>698.0</ele><time>2026-04-25T15:40:46.238Z</time></trkpt><trkpt lat="45.7921025" lon="11.0945169"><ele>697.9999999999999</ele><time>2026-04-25T15:40:49.267Z</time></trkpt><trkpt lat="45.7921818" lon="11.0944992"><ele>698.0</ele><time>2026-04-25T15:40:52.265Z</time></trkpt><trkpt lat="45.7922521" lon="11.0944795"><ele>698.0</ele><time>2026-04-25T15:40:55.255Z</time></trkpt><trkpt lat="45.7923148" lon="11.0944471"><ele>698.0</ele><time>2026-04-25T15:40:58.237Z</time></trkpt><trkpt lat="45.7923827" lon="11.0944167"><ele>698.0</ele><time>2026-04-25T15:41:02.279Z</time></trkpt><trkpt lat="45.792443" lon="11.0943419"><ele>697.9999999999999</ele><time>2026-04-25T15:41:06.248Z</time></trkpt><trkpt lat="45.7925093" lon="11.0942848"><ele>698.0</ele><time>2026-04-25T15:41:09.257Z</time></trkpt><trkpt lat="45.7925919" lon="11.0942311"><ele>698.0</ele><time>2026-04-25T15:41:12.287Z</time></trkpt><trkpt lat="45.7926712" lon="11.0941921"><ele>698.0</ele><time>2026-04-25T15:41:15.232Z</time></trkpt><trkpt lat="45.7927529" lon="11.0941421"><ele>698.0</ele><time>2026-04-25T15:41:18.237Z</time></trkpt><trkpt lat="45.7928273" lon="11.0940675"><ele>698.0</ele><time>2026-04-25T15:41:21.239Z</time></trkpt><trkpt lat="45.7928971" lon="11.0939845"><ele>698.0</ele><time>2026-04-25T15:41:24.28Z</time></trkpt><trkpt lat="45.7929505" lon="11.0939243"><ele>698.0</ele><time>2026-04-25T15:41:26.232Z</time></trkpt><trkpt lat="45.7930001" lon="11.0938636"><ele>698.8333333333333</ele><time>2026-04-25T15:41:28.287Z</time></trkpt><trkpt lat="45.7930529" lon="11.0937931"><ele>699.6666666666666</ele><time>2026-04-25T15:41:30.264Z</time></trkpt><trkpt lat="45.7931113" lon="11.0937079"><ele>700.5</ele><time>2026-04-25T15:41:32.218Z</time></trkpt><trkpt lat="45.7931671" lon="11.0936299"><ele>701.3333333333334</ele><time>2026-04-25T15:41:34.239Z</time></trkpt><trkpt lat="45.7932444" lon="11.0935533"><ele>702.1666666666667</ele><time>2026-04-25T15:41:37.241Z</time></trkpt><trkpt lat="45.7932903" lon="11.0934857"><ele>703.0</ele><time>2026-04-25T15:41:39.291Z</time></trkpt><trkpt lat="45.7933485" lon="11.0934041"><ele>703.0</ele><time>2026-04-25T15:41:41.229Z</time></trkpt><trkpt lat="45.7934084" lon="11.0933203"><ele>703.0</ele><time>2026-04-25T15:41:43.337Z</time></trkpt><trkpt lat="45.7934709" lon="11.0932287"><ele>703.0</ele><time>2026-04-25T15:41:45.274Z</time></trkpt><trkpt lat="45.7935327" lon="11.0931397"><ele>703.0</ele><time>2026-04-25T15:41:47.241Z</time></trkpt><trkpt lat="45.7935857" lon="11.0930576"><ele>703.0</ele><time>2026-04-25T15:41:49.246Z</time></trkpt><trkpt lat="45.7936444" lon="11.0929731"><ele>703.0</ele><time>2026-04-25T15:41:51.233Z</time></trkpt><trkpt lat="45.7937068" lon="11.0928888"><ele>704.6666666666667</ele><time>2026-04-25T15:41:53.243Z</time></trkpt><trkpt lat="45.7937712" lon="11.0928286"><ele>706.3333333333334</ele><time>2026-04-25T15:41:55.346Z</time></trkpt><trkpt lat="45.7938287" lon="11.0927824"><ele>708.0</ele><time>2026-04-25T15:41:57.239Z</time></trkpt><trkpt lat="45.7939003" lon="11.0927421"><ele>709.6666666666666</ele><time>2026-04-25T15:41:59.235Z</time></trkpt><trkpt lat="45.7939807" lon="11.0927093"><ele>711.3333333333333</ele><time>2026-04-25T15:42:01.242Z</time></trkpt><trkpt lat="45.7940645" lon="11.0926804"><ele>713.0</ele><time>2026-04-25T15:42:03.242Z</time></trkpt><trkpt lat="45.7941421" lon="11.0926539"><ele>713.0</ele><time>2026-04-25T15:42:05.345Z</time></trkpt><trkpt lat="45.7942177" lon="11.0926386"><ele>713.0</ele><time>2026-04-25T15:42:07.242Z</time></trkpt><trkpt lat="45.7942951" lon="11.0926182"><ele>713.0</ele><time>2026-04-25T15:42:09.231Z</time></trkpt><trkpt lat="45.7943802" lon="11.092606"><ele>713.0</ele><time>2026-04-25T15:42:11.258Z</time></trkpt><trkpt lat="45.7944705" lon="11.0926055"><ele>713.0</ele><time>2026-04-25T15:42:13.231Z</time></trkpt><trkpt lat="45.7945344" lon="11.0925841"><ele>713.0</ele><time>2026-04-25T15:42:14.232Z</time></trkpt><trkpt lat="45.7946469" lon="11.092609"><ele>711.5999999999999</ele><time>2026-04-25T15:42:16.85Z</time></trkpt><trkpt lat="45.7947525" lon="11.092639"><ele>710.1999999999999</ele><time>2026-04-25T15:42:18.24Z</time></trkpt><trkpt lat="45.7948486" lon="11.0925908"><ele>708.8</ele><time>2026-04-25T15:42:20.301Z</time></trkpt><trkpt lat="45.7949615" lon="11.0925653"><ele>707.4</ele><time>2026-04-25T15:42:22.291Z</time></trkpt><trkpt lat="45.7950244" lon="11.0925579"><ele>706.0</ele><time>2026-04-25T15:42:23.278Z</time></trkpt><trkpt lat="45.7950865" lon="11.0925417"><ele>706.0</ele><time>2026-04-25T15:42:24.325Z</time></trkpt><trkpt lat="45.7951531" lon="11.0924892"><ele>706.0</ele><time>2026-04-25T15:42:25.275Z</time></trkpt><trkpt lat="45.7952088" lon="11.0924324"><ele>706.0</ele><time>2026-04-25T15:42:26.829Z</time></trkpt><trkpt lat="45.7953023" lon="11.0923703"><ele>706.0</ele><time>2026-04-25T15:42:28.245Z</time></trkpt><trkpt lat="45.7953788" lon="11.0923464"><ele>706.0</ele><time>2026-04-25T15:42:31.222Z</time></trkpt><trkpt lat="45.7954412" lon="11.0923315"><ele>706.0</ele><time>2026-04-25T15:46:35.223Z</time></trkpt><trkpt lat="45.7954997" lon="11.092278"><ele>712.0</ele><time>2026-04-25T15:46:38.254Z</time></trkpt><trkpt lat="45.7955993" lon="11.0922087"><ele>718.0</ele><time>2026-04-25T15:46:41.232Z</time></trkpt><trkpt lat="45.795665" lon="11.0921503"><ele>724.0</ele><time>2026-04-25T15:46:43.34Z</time></trkpt><trkpt lat="45.7957332" lon="11.0920807"><ele>730.0</ele><time>2026-04-25T15:46:45.284Z</time></trkpt><trkpt lat="45.7958124" lon="11.0920113"><ele>736.0</ele><time>2026-04-25T15:46:47.236Z</time></trkpt><trkpt lat="45.795908" lon="11.0919303"><ele>736.0</ele><time>2026-04-25T15:46:49.342Z</time></trkpt><trkpt lat="45.7959807" lon="11.0918519"><ele>736.0</ele><time>2026-04-25T15:46:51.279Z</time></trkpt><trkpt lat="45.7960391" lon="11.0917809"><ele>736.0</ele><time>2026-04-25T15:46:53.224Z</time></trkpt><trkpt lat="45.7961363" lon="11.0917236"><ele>736.0</ele><time>2026-04-25T15:46:55.213Z</time></trkpt><trkpt lat="45.7962425" lon="11.0917192"><ele>736.0</ele><time>2026-04-25T15:46:57.276Z</time></trkpt><trkpt lat="45.796348" lon="11.091713"><ele>728.75</ele><time>2026-04-25T15:46:59.233Z</time></trkpt><trkpt lat="45.7965095" lon="11.0917121"><ele>721.5</ele><time>2026-04-25T15:47:02.254Z</time></trkpt><trkpt lat="45.7965978" lon="11.0916914"><ele>714.25</ele><time>2026-04-25T15:47:04.224Z</time></trkpt><trkpt lat="45.7967386" lon="11.0916657"><ele>707.0</ele><time>2026-04-25T15:47:07.225Z</time></trkpt><trkpt lat="45.7968327" lon="11.0916618"><ele>707.6</ele><time>2026-04-25T15:47:09.283Z</time></trkpt><trkpt lat="45.7969262" lon="11.0916003"><ele>708.2</ele><time>2026-04-25T15:47:11.246Z</time></trkpt><trkpt lat="45.7970022" lon="11.0915065"><ele>708.8</ele><time>2026-04-25T15:47:13.28Z</time></trkpt><trkpt lat="45.7970712" lon="11.0913683"><ele>709.4</ele><time>2026-04-25T15:47:15.289Z</time></trkpt><trkpt lat="45.7971539" lon="11.0912302"><ele>710.0</ele><time>2026-04-25T15:47:17.277Z</time></trkpt><trkpt lat="45.7971982" lon="11.0911627"><ele>710.0</ele><time>2026-04-25T15:47:18.275Z</time></trkpt><trkpt lat="45.7972922" lon="11.0910659"><ele>710.0</ele><time>2026-04-25T15:47:20.228Z</time></trkpt><trkpt lat="45.7973862" lon="11.0909707"><ele>710.0</ele><time>2026-04-25T15:47:22.276Z</time></trkpt><trkpt lat="45.7974443" lon="11.0909222"><ele>710.0</ele><time>2026-04-25T15:47:23.289Z</time></trkpt><trkpt lat="45.7975304" lon="11.0908405"><ele>710.0</ele><time>2026-04-25T15:47:25.273Z</time></trkpt><trkpt lat="45.7976219" lon="11.0907649"><ele>714.25</ele><time>2026-04-25T15:47:27.253Z</time></trkpt><trkpt lat="45.7976965" lon="11.0906908"><ele>718.5</ele><time>2026-04-25T15:47:29.224Z</time></trkpt><trkpt lat="45.7977863" lon="11.0906272"><ele>722.75</ele><time>2026-04-25T15:47:31.297Z</time></trkpt><trkpt lat="45.7979376" lon="11.0905646"><ele>727.0</ele><time>2026-04-25T15:47:34.296Z</time></trkpt><trkpt lat="45.7980294" lon="11.0904879"><ele>727.0</ele><time>2026-04-25T15:47:36.22Z</time></trkpt><trkpt lat="45.7981205" lon="11.0904276"><ele>727.0</ele><time>2026-04-25T15:47:38.236Z</time></trkpt><trkpt lat="45.7982239" lon="11.0904157"><ele>727.0</ele><time>2026-04-25T15:47:40.276Z</time></trkpt><trkpt lat="45.7983179" lon="11.0903909"><ele>727.0</ele><time>2026-04-25T15:47:42.237Z</time></trkpt><trkpt lat="45.7984166" lon="11.0903795"><ele>727.0</ele><time>2026-04-25T15:47:44.233Z</time></trkpt><trkpt lat="45.7985031" lon="11.0903577"><ele>726.5</ele><time>2026-04-25T15:47:46.233Z</time></trkpt><trkpt lat="45.7985983" lon="11.0903813"><ele>726.0</ele><time>2026-04-25T15:47:48.218Z</time></trkpt><trkpt lat="45.798673" lon="11.0903773"><ele>725.5</ele><time>2026-04-25T15:47:50.231Z</time></trkpt><trkpt lat="45.7987385" lon="11.0903784"><ele>725.0</ele><time>2026-04-25T15:47:52.323Z</time></trkpt><trkpt lat="45.7988063" lon="11.0903933"><ele>724.5</ele><time>2026-04-25T15:47:54.266Z</time></trkpt><trkpt lat="45.7989069" lon="11.0903858"><ele>724.0</ele><time>2026-04-25T15:47:57.228Z</time></trkpt><trkpt lat="45.7989902" lon="11.0903805"><ele>724.0</ele><time>2026-04-25T15:47:59.228Z</time></trkpt><trkpt lat="45.7990682" lon="11.0903892"><ele>724.0</ele><time>2026-04-25T15:48:01.226Z</time></trkpt><trkpt lat="45.7991468" lon="11.0904377"><ele>724.0</ele><time>2026-04-25T15:48:03.227Z</time></trkpt><trkpt lat="45.7992352" lon="11.0904966"><ele>724.0</ele><time>2026-04-25T15:48:06.251Z</time></trkpt><trkpt lat="45.7992896" lon="11.0905478"><ele>724.0</ele><time>2026-04-25T15:48:08.24Z</time></trkpt><trkpt lat="45.7993463" lon="11.0906057"><ele>724.0</ele><time>2026-04-25T15:48:11.235Z</time></trkpt><trkpt lat="45.7994155" lon="11.0906387"><ele>725.0</ele><time>2026-04-25T15:48:13.243Z</time></trkpt><trkpt lat="45.7994952" lon="11.0906359"><ele>726.0</ele><time>2026-04-25T15:48:15.242Z</time></trkpt><trkpt lat="45.7995904" lon="11.0906152"><ele>727.0</ele><time>2026-04-25T15:48:18.227Z</time></trkpt><trkpt lat="45.7996545" lon="11.0905941"><ele>728.0</ele><time>2026-04-25T15:48:20.229Z</time></trkpt><trkpt lat="45.7997349" lon="11.0905754"><ele>729.0</ele><time>2026-04-25T15:48:23.234Z</time></trkpt><trkpt lat="45.7998059" lon="11.0905215"><ele>730.0</ele><time>2026-04-25T15:48:26.261Z</time></trkpt><trkpt lat="45.7998568" lon="11.0904661"><ele>730.0</ele><time>2026-04-25T15:48:28.249Z</time></trkpt><trkpt lat="45.7999285" lon="11.0904064"><ele>730.0</ele><time>2026-04-25T15:48:31.241Z</time></trkpt><trkpt lat="45.8000069" lon="11.0903916"><ele>730.0</ele><time>2026-04-25T15:48:34.293Z</time></trkpt><trkpt lat="45.8000772" lon="11.0903506"><ele>730.0</ele><time>2026-04-25T15:48:37.263Z</time></trkpt><trkpt lat="45.8001464" lon="11.090316"><ele>730.0</ele><time>2026-04-25T15:48:41.233Z</time></trkpt><trkpt lat="45.8002119" lon="11.0902617"><ele>730.0</ele><time>2026-04-25T15:48:45.235Z</time></trkpt><trkpt lat="45.8002679" lon="11.0902125"><ele>734.3333333333334</ele><time>2026-04-25T15:48:48.321Z</time></trkpt><trkpt lat="45.8003348" lon="11.0901797"><ele>738.6666666666667</ele><time>2026-04-25T15:48:52.227Z</time></trkpt><trkpt lat="45.8003961" lon="11.0901322"><ele>743.0</ele><time>2026-04-25T15:48:55.227Z</time></trkpt><trkpt lat="45.8004651" lon="11.0900784"><ele>747.3333333333334</ele><time>2026-04-25T15:48:59.288Z</time></trkpt><trkpt lat="45.8005184" lon="11.0900103"><ele>751.6666666666666</ele><time>2026-04-25T15:49:03.231Z</time></trkpt><trkpt lat="45.8005845" lon="11.0899509"><ele>756.0</ele><time>2026-04-25T15:49:07.23Z</time></trkpt><trkpt lat="45.8006529" lon="11.0898795"><ele>756.0</ele><time>2026-04-25T15:49:11.277Z</time></trkpt><trkpt lat="45.8007091" lon="11.0898186"><ele>756.0</ele><time>2026-04-25T15:49:15.231Z</time></trkpt><trkpt lat="45.8007643" lon="11.0897663"><ele>756.0</ele><time>2026-04-25T15:49:19.306Z</time></trkpt><trkpt lat="45.8008188" lon="11.0897174"><ele>756.0</ele><time>2026-04-25T15:49:23.232Z</time></trkpt><trkpt lat="45.8008919" lon="11.0896617"><ele>756.0</ele><time>2026-04-25T15:49:29.234Z</time></trkpt><trkpt lat="45.8009352" lon="11.0895904"><ele>756.0</ele><time>2026-04-25T15:49:33.305Z</time></trkpt><trkpt lat="45.8009934" lon="11.0895352"><ele>756.0</ele><time>2026-04-25T15:49:37.222Z</time></trkpt><trkpt lat="45.8010535" lon="11.0894821"><ele>758.2857142857143</ele><time>2026-04-25T15:49:41.258Z</time></trkpt><trkpt lat="45.8011184" lon="11.0894491"><ele>760.5714285714286</ele><time>2026-04-25T15:49:44.234Z</time></trkpt><trkpt lat="45.8011736" lon="11.0893915"><ele>762.8571428571429</ele><time>2026-04-25T15:49:48.233Z</time></trkpt><trkpt lat="45.8012238" lon="11.0893285"><ele>765.1428571428571</ele><time>2026-04-25T15:49:52.232Z</time></trkpt><trkpt lat="45.801274" lon="11.0892559"><ele>767.4285714285714</ele><time>2026-04-25T15:49:56.264Z</time></trkpt><trkpt lat="45.8013344" lon="11.0891923"><ele>769.7142857142858</ele><time>2026-04-25T15:50:00.229Z</time></trkpt><trkpt lat="45.8014056" lon="11.0891374"><ele>772.0</ele><time>2026-04-25T15:50:04.287Z</time></trkpt><trkpt lat="45.8014774" lon="11.0890699"><ele>772.0000000000001</ele><time>2026-04-25T15:50:08.238Z</time></trkpt><trkpt lat="45.801546" lon="11.0890291"><ele>772.0</ele><time>2026-04-25T15:50:12.222Z</time></trkpt><trkpt lat="45.8016058" lon="11.0889978"><ele>772.0</ele><time>2026-04-25T15:50:16.223Z</time></trkpt><trkpt lat="45.8016643" lon="11.0889315"><ele>772.0</ele><time>2026-04-25T15:50:19.23Z</time></trkpt><trkpt lat="45.8017427" lon="11.0889022"><ele>772.0</ele><time>2026-04-25T15:50:23.23Z</time></trkpt><trkpt lat="45.8018301" lon="11.0888944"><ele>772.0000000000001</ele><time>2026-04-25T15:50:28.237Z</time></trkpt><trkpt lat="45.8018886" lon="11.088858"><ele>772.0</ele><time>2026-04-25T15:50:32.26Z</time></trkpt><trkpt lat="45.8019591" lon="11.0888211"><ele>769.0000000000001</ele><time>2026-04-25T15:50:36.22Z</time></trkpt><trkpt lat="45.8020381" lon="11.0887927"><ele>766.0</ele><time>2026-04-25T15:50:40.235Z</time></trkpt><trkpt lat="45.8021097" lon="11.0887611"><ele>763.0</ele><time>2026-04-25T15:50:44.225Z</time></trkpt><trkpt lat="45.8021832" lon="11.088726"><ele>760.0</ele><time>2026-04-25T15:50:48.28Z</time></trkpt><trkpt lat="45.8022412" lon="11.0886889"><ele>757.0</ele><time>2026-04-25T15:50:51.233Z</time></trkpt><trkpt lat="45.8023159" lon="11.0886761"><ele>754.0000000000001</ele><time>2026-04-25T15:50:55.222Z</time></trkpt><trkpt lat="45.8023877" lon="11.0886523"><ele>751.0</ele><time>2026-04-25T15:50:59.259Z</time></trkpt><trkpt lat="45.8024605" lon="11.0886106"><ele>751.0</ele><time>2026-04-25T15:51:03.23Z</time></trkpt><trkpt lat="45.802518" lon="11.0885424"><ele>751.0</ele><time>2026-04-25T15:51:07.331Z</time></trkpt><trkpt lat="45.8025682" lon="11.0884866"><ele>751.0</ele><time>2026-04-25T15:51:10.238Z</time></trkpt><trkpt lat="45.802631" lon="11.0884466"><ele>751.0</ele><time>2026-04-25T15:51:13.229Z</time></trkpt><trkpt lat="45.8027407" lon="11.0884285"><ele>751.0</ele><time>2026-04-25T15:51:18.226Z</time></trkpt><trkpt lat="45.8028138" lon="11.0884187"><ele>751.0</ele><time>2026-04-25T15:51:21.309Z</time></trkpt><trkpt lat="45.8028945" lon="11.0884205"><ele>746.5</ele><time>2026-04-25T15:51:25.233Z</time></trkpt><trkpt lat="45.8029656" lon="11.0884223"><ele>742.0</ele><time>2026-04-25T15:51:28.257Z</time></trkpt><trkpt lat="45.8030546" lon="11.0884245"><ele>737.5</ele><time>2026-04-25T15:51:31.229Z</time></trkpt><trkpt lat="45.8031345" lon="11.0884106"><ele>733.0</ele><time>2026-04-25T15:51:34.232Z</time></trkpt><trkpt lat="45.8032031" lon="11.0884111"><ele>728.5</ele><time>2026-04-25T15:51:37.243Z</time></trkpt><trkpt lat="45.8032771" lon="11.0883926"><ele>724.0</ele><time>2026-04-25T15:51:40.231Z</time></trkpt><trkpt lat="45.803343" lon="11.0883608"><ele>724.0</ele><time>2026-04-25T15:51:44.267Z</time></trkpt><trkpt lat="45.8034235" lon="11.0883215"><ele>724.0</ele><time>2026-04-25T15:51:48.226Z</time></trkpt><trkpt lat="45.8034757" lon="11.0882653"><ele>724.0</ele><time>2026-04-25T15:51:51.24Z</time></trkpt><trkpt lat="45.8035177" lon="11.0881761"><ele>724.0</ele><time>2026-04-25T15:51:55.237Z</time></trkpt><trkpt lat="45.8035498" lon="11.0880742"><ele>724.0</ele><time>2026-04-25T15:51:59.223Z</time></trkpt><trkpt lat="45.8035792" lon="11.0879693"><ele>724.0</ele><time>2026-04-25T15:52:03.247Z</time></trkpt><trkpt lat="45.8036098" lon="11.0878704"><ele>726.7142857142857</ele><time>2026-04-25T15:52:07.231Z</time></trkpt><trkpt lat="45.8036385" lon="11.0877897"><ele>729.4285714285713</ele><time>2026-04-25T15:52:10.234Z</time></trkpt><trkpt lat="45.8036898" lon="11.087713"><ele>732.1428571428571</ele><time>2026-04-25T15:52:14.23Z</time></trkpt><trkpt lat="45.8037309" lon="11.0876427"><ele>734.8571428571429</ele><time>2026-04-25T15:52:17.219Z</time></trkpt><trkpt lat="45.8037882" lon="11.087564"><ele>737.5714285714286</ele><time>2026-04-25T15:52:21.235Z</time></trkpt><trkpt lat="45.8038366" lon="11.0874961"><ele>740.2857142857143</ele><time>2026-04-25T15:52:25.286Z</time></trkpt><trkpt lat="45.803896" lon="11.087445"><ele>743.0</ele><time>2026-04-25T15:52:29.232Z</time></trkpt><trkpt lat="45.8039535" lon="11.0873747"><ele>745.5</ele><time>2026-04-25T15:52:33.226Z</time></trkpt><trkpt lat="45.8040157" lon="11.0873162"><ele>748.0</ele><time>2026-04-25T15:52:37.262Z</time></trkpt><trkpt lat="45.8040854" lon="11.0872654"><ele>750.5</ele><time>2026-04-25T15:52:41.23Z</time></trkpt><trkpt lat="45.8041292" lon="11.0871906"><ele>753.0</ele><time>2026-04-25T15:52:45.235Z</time></trkpt><trkpt lat="45.8042009" lon="11.0871174"><ele>755.5</ele><time>2026-04-25T15:52:49.242Z</time></trkpt><trkpt lat="45.8042731" lon="11.0870611"><ele>758.0</ele><time>2026-04-25T15:52:53.274Z</time></trkpt><trkpt lat="45.8043445" lon="11.0870087"><ele>758.0</ele><time>2026-04-25T15:52:57.236Z</time></trkpt><trkpt lat="45.8044161" lon="11.0869932"><ele>758.0</ele><time>2026-04-25T15:53:01.289Z</time></trkpt><trkpt lat="45.8044774" lon="11.0869591"><ele>758.0</ele><time>2026-04-25T15:53:04.232Z</time></trkpt><trkpt lat="45.8046326" lon="11.0869484"><ele>758.0</ele><time>2026-04-25T15:53:12.235Z</time></trkpt><trkpt lat="45.8047135" lon="11.0869476"><ele>758.0</ele><time>2026-04-25T15:53:17.23Z</time></trkpt><trkpt lat="45.8048859" lon="11.0869464"><ele>758.0000000000001</ele><time>2026-04-25T15:53:26.291Z</time></trkpt><trkpt lat="45.8049523" lon="11.0869082"><ele>758.0</ele><time>2026-04-25T15:53:30.301Z</time></trkpt><trkpt lat="45.8050173" lon="11.0868717"><ele>758.0</ele><time>2026-04-25T15:53:34.248Z</time></trkpt><trkpt lat="45.8050682" lon="11.0867999"><ele>758.0</ele><time>2026-04-25T15:53:38.229Z</time></trkpt><trkpt lat="45.805116" lon="11.0867343"><ele>758.0</ele><time>2026-04-25T15:53:42.271Z</time></trkpt><trkpt lat="45.8052002" lon="11.0866971"><ele>758.0000000000001</ele><time>2026-04-25T15:53:46.319Z</time></trkpt><trkpt lat="45.8052724" lon="11.0866611"><ele>758.0</ele><time>2026-04-25T15:53:50.254Z</time></trkpt><trkpt lat="45.8053295" lon="11.086582"><ele>762.8571428571429</ele><time>2026-04-25T15:53:54.26Z</time></trkpt><trkpt lat="45.8053836" lon="11.0865319"><ele>767.7142857142858</ele><time>2026-04-25T15:53:58.277Z</time></trkpt><trkpt lat="45.8054398" lon="11.0864893"><ele>772.5714285714287</ele><time>2026-04-25T15:54:02.261Z</time></trkpt><trkpt lat="45.805514" lon="11.0864627"><ele>777.4285714285714</ele><time>2026-04-25T15:54:07.289Z</time></trkpt><trkpt lat="45.8055861" lon="11.0864234"><ele>782.2857142857142</ele><time>2026-04-25T15:54:12.276Z</time></trkpt><trkpt lat="45.8056647" lon="11.0864024"><ele>787.1428571428572</ele><time>2026-04-25T15:54:16.275Z</time></trkpt><trkpt lat="45.8057292" lon="11.0863798"><ele>792.0</ele><time>2026-04-25T15:54:19.247Z</time></trkpt><trkpt lat="45.8057931" lon="11.0863722"><ele>792.0</ele><time>2026-04-25T15:54:23.273Z</time></trkpt><trkpt lat="45.8059166" lon="11.0863038"><ele>792.0</ele><time>2026-04-25T15:54:31.275Z</time></trkpt><trkpt lat="45.8059923" lon="11.0862699"><ele>792.0</ele><time>2026-04-25T15:54:35.278Z</time></trkpt><trkpt lat="45.8060532" lon="11.0862338"><ele>792.0</ele><time>2026-04-25T15:54:39.217Z</time></trkpt><trkpt lat="45.8061182" lon="11.0861897"><ele>792.0</ele><time>2026-04-25T15:54:43.35Z</time></trkpt><trkpt lat="45.8061856" lon="11.0861598"><ele>792.0</ele><time>2026-04-25T15:54:47.309Z</time></trkpt><trkpt lat="45.8062623" lon="11.0861343"><ele>788.8571428571429</ele><time>2026-04-25T15:54:51.232Z</time></trkpt><trkpt lat="45.8063253" lon="11.0861205"><ele>785.7142857142857</ele><time>2026-04-25T15:54:54.267Z</time></trkpt><trkpt lat="45.8063887" lon="11.086089"><ele>782.5714285714286</ele><time>2026-04-25T15:54:57.334Z</time></trkpt><trkpt lat="45.8064497" lon="11.0860338"><ele>779.4285714285714</ele><time>2026-04-25T15:55:01.235Z</time></trkpt><trkpt lat="45.8065255" lon="11.0859834"><ele>776.2857142857142</ele><time>2026-04-25T15:55:05.244Z</time></trkpt><trkpt lat="45.8065886" lon="11.0859422"><ele>773.1428571428571</ele><time>2026-04-25T15:55:08.321Z</time></trkpt><trkpt lat="45.8066567" lon="11.0859059"><ele>770.0</ele><time>2026-04-25T15:55:12.253Z</time></trkpt><trkpt lat="45.806726" lon="11.0858608"><ele>770.0</ele><time>2026-04-25T15:55:16.273Z</time></trkpt><trkpt lat="45.8067882" lon="11.0858022"><ele>770.0</ele><time>2026-04-25T15:55:20.238Z</time></trkpt><trkpt lat="45.8068446" lon="11.0857326"><ele>770.0</ele><time>2026-04-25T15:55:24.266Z</time></trkpt><trkpt lat="45.8069129" lon="11.0856692"><ele>770.0</ele><time>2026-04-25T15:55:29.269Z</time></trkpt><trkpt lat="45.8069689" lon="11.0856127"><ele>770.0</ele><time>2026-04-25T15:55:32.284Z</time></trkpt><trkpt lat="45.8070249" lon="11.0855447"><ele>770.0</ele><time>2026-04-25T15:55:36.282Z</time></trkpt><trkpt lat="45.8070775" lon="11.0854692"><ele>770.0</ele><time>2026-04-25T15:55:39.231Z</time></trkpt><trkpt lat="45.8071247" lon="11.0853974"><ele>771.1666666666667</ele><time>2026-04-25T15:55:42.258Z</time></trkpt><trkpt lat="45.8071595" lon="11.08532"><ele>772.3333333333334</ele><time>2026-04-25T15:55:45.348Z</time></trkpt><trkpt lat="45.8072019" lon="11.0852332"><ele>773.5</ele><time>2026-04-25T15:55:48.364Z</time></trkpt><trkpt lat="45.8072279" lon="11.0851331"><ele>774.6666666666667</ele><time>2026-04-25T15:55:51.247Z</time></trkpt><trkpt lat="45.8072596" lon="11.0850169"><ele>775.8333333333334</ele><time>2026-04-25T15:55:55.294Z</time></trkpt><trkpt lat="45.8072845" lon="11.0849162"><ele>777.0</ele><time>2026-04-25T15:55:58.243Z</time></trkpt><trkpt lat="45.8073013" lon="11.0848097"><ele>777.0</ele><time>2026-04-25T15:56:01.239Z</time></trkpt><trkpt lat="45.8073339" lon="11.0847206"><ele>777.0</ele><time>2026-04-25T15:56:04.243Z</time></trkpt><trkpt lat="45.8073729" lon="11.0846378"><ele>777.0</ele><time>2026-04-25T15:56:07.263Z</time></trkpt><trkpt lat="45.8074336" lon="11.0845565"><ele>777.0</ele><time>2026-04-25T15:56:11.252Z</time></trkpt><trkpt lat="45.8074808" lon="11.0844871"><ele>777.0</ele><time>2026-04-25T15:56:14.269Z</time></trkpt><trkpt lat="45.8075219" lon="11.0844107"><ele>777.0</ele><time>2026-04-25T15:56:17.244Z</time></trkpt><trkpt lat="45.8075608" lon="11.0843317"><ele>777.0</ele><time>2026-04-25T15:56:20.26Z</time></trkpt><trkpt lat="45.8075973" lon="11.0842449"><ele>777.0</ele><time>2026-04-25T15:56:23.264Z</time></trkpt><trkpt lat="45.8076418" lon="11.0841618"><ele>777.0</ele><time>2026-04-25T15:56:26.266Z</time></trkpt><trkpt lat="45.8076582" lon="11.0840495"><ele>777.0</ele><time>2026-04-25T15:56:29.262Z</time></trkpt><trkpt lat="45.8076705" lon="11.0839458"><ele>777.0</ele><time>2026-04-25T15:56:32.269Z</time></trkpt><trkpt lat="45.8076755" lon="11.0838326"><ele>777.0</ele><time>2026-04-25T15:56:35.274Z</time></trkpt><trkpt lat="45.8076469" lon="11.0837131"><ele>777.0</ele><time>2026-04-25T15:56:38.232Z</time></trkpt><trkpt lat="45.8076351" lon="11.0836095"><ele>777.8333333333334</ele><time>2026-04-25T15:56:41.287Z</time></trkpt><trkpt lat="45.8075915" lon="11.0834854"><ele>778.6666666666667</ele><time>2026-04-25T15:56:44.267Z</time></trkpt><trkpt lat="45.807562" lon="11.0833738"><ele>779.5</ele><time>2026-04-25T15:56:47.237Z</time></trkpt><trkpt lat="45.8075515" lon="11.0832804"><ele>780.3333333333334</ele><time>2026-04-25T15:56:49.229Z</time></trkpt><trkpt lat="45.8075385" lon="11.0831558"><ele>781.1666666666667</ele><time>2026-04-25T15:56:51.261Z</time></trkpt><trkpt lat="45.8075296" lon="11.0830473"><ele>782.0</ele><time>2026-04-25T15:56:53.279Z</time></trkpt><trkpt lat="45.8075289" lon="11.082931"><ele>782.7142857142857</ele><time>2026-04-25T15:56:55.279Z</time></trkpt><trkpt lat="45.8075407" lon="11.0828227"><ele>783.4285714285714</ele><time>2026-04-25T15:56:57.286Z</time></trkpt><trkpt lat="45.8075535" lon="11.0827275"><ele>784.1428571428571</ele><time>2026-04-25T15:56:59.281Z</time></trkpt><trkpt lat="45.8075632" lon="11.0826307"><ele>784.8571428571429</ele><time>2026-04-25T15:57:01.279Z</time></trkpt><trkpt lat="45.8075908" lon="11.0825452"><ele>785.5714285714286</ele><time>2026-04-25T15:57:03.292Z</time></trkpt><trkpt lat="45.807632" lon="11.0824676"><ele>786.2857142857142</ele><time>2026-04-25T15:57:05.298Z</time></trkpt><trkpt lat="45.8076943" lon="11.0823953"><ele>787.0</ele><time>2026-04-25T15:57:07.297Z</time></trkpt><trkpt lat="45.8077817" lon="11.082297"><ele>787.5714285714286</ele><time>2026-04-25T15:57:10.277Z</time></trkpt><trkpt lat="45.8078462" lon="11.082213"><ele>788.1428571428571</ele><time>2026-04-25T15:57:13.278Z</time></trkpt><trkpt lat="45.8079091" lon="11.082158"><ele>788.7142857142858</ele><time>2026-04-25T15:57:15.257Z</time></trkpt><trkpt lat="45.8079672" lon="11.082098"><ele>789.2857142857142</ele><time>2026-04-25T15:57:17.26Z</time></trkpt><trkpt lat="45.8080257" lon="11.0820418"><ele>789.8571428571429</ele><time>2026-04-25T15:57:19.262Z</time></trkpt><trkpt lat="45.8080898" lon="11.0820024"><ele>790.4285714285714</ele><time>2026-04-25T15:57:21.279Z</time></trkpt><trkpt lat="45.8081505" lon="11.0819565"><ele>791.0</ele><time>2026-04-25T15:57:23.256Z</time></trkpt><trkpt lat="45.8082324" lon="11.0819133"><ele>791.0000000000001</ele><time>2026-04-25T15:57:25.25Z</time></trkpt><trkpt lat="45.8083137" lon="11.0818655"><ele>791.0</ele><time>2026-04-25T15:57:27.255Z</time></trkpt><trkpt lat="45.8084112" lon="11.0818215"><ele>791.0</ele><time>2026-04-25T15:57:29.244Z</time></trkpt><trkpt lat="45.8084868" lon="11.0817651"><ele>791.0</ele><time>2026-04-25T15:57:31.268Z</time></trkpt><trkpt lat="45.8085583" lon="11.0817101"><ele>791.0000000000001</ele><time>2026-04-25T15:57:33.311Z</time></trkpt><trkpt lat="45.8086387" lon="11.0816655"><ele>791.0</ele><time>2026-04-25T15:57:35.252Z</time></trkpt><trkpt lat="45.8086988" lon="11.0816109"><ele>791.6666666666667</ele><time>2026-04-25T15:57:37.246Z</time></trkpt><trkpt lat="45.8087655" lon="11.0815562"><ele>792.3333333333334</ele><time>2026-04-25T15:57:39.269Z</time></trkpt><trkpt lat="45.8088381" lon="11.0815097"><ele>793.0</ele><time>2026-04-25T15:57:41.255Z</time></trkpt><trkpt lat="45.8089168" lon="11.0814691"><ele>793.6666666666667</ele><time>2026-04-25T15:57:43.275Z</time></trkpt><trkpt lat="45.808997" lon="11.081433"><ele>794.3333333333334</ele><time>2026-04-25T15:57:45.265Z</time></trkpt><trkpt lat="45.8090721" lon="11.0813732"><ele>795.0</ele><time>2026-04-25T15:57:47.269Z</time></trkpt><trkpt lat="45.8091494" lon="11.0813184"><ele>795.0</ele><time>2026-04-25T15:57:49.261Z</time></trkpt><trkpt lat="45.8092205" lon="11.0812792"><ele>795.0</ele><time>2026-04-25T15:57:51.262Z</time></trkpt><trkpt lat="45.8093024" lon="11.0812384"><ele>795.0</ele><time>2026-04-25T15:57:53.259Z</time></trkpt><trkpt lat="45.8093762" lon="11.0811857"><ele>795.0</ele><time>2026-04-25T15:57:55.27Z</time></trkpt><trkpt lat="45.8094554" lon="11.0811301"><ele>795.0</ele><time>2026-04-25T15:57:57.267Z</time></trkpt><trkpt lat="45.8095635" lon="11.0810448"><ele>794.6666666666666</ele><time>2026-04-25T15:58:00.287Z</time></trkpt><trkpt lat="45.8096365" lon="11.0809659"><ele>794.3333333333333</ele><time>2026-04-25T15:58:02.279Z</time></trkpt><trkpt lat="45.809696" lon="11.0808871"><ele>794.0</ele><time>2026-04-25T15:58:04.275Z</time></trkpt><trkpt lat="45.8097586" lon="11.0808097"><ele>793.6666666666666</ele><time>2026-04-25T15:58:06.269Z</time></trkpt><trkpt lat="45.809814" lon="11.080733"><ele>793.3333333333333</ele><time>2026-04-25T15:58:08.252Z</time></trkpt><trkpt lat="45.8098634" lon="11.0806515"><ele>793.0</ele><time>2026-04-25T15:58:10.269Z</time></trkpt><trkpt lat="45.8099105" lon="11.0805716"><ele>793.0000000000001</ele><time>2026-04-25T15:58:12.27Z</time></trkpt><trkpt lat="45.8099535" lon="11.0804936"><ele>793.0</ele><time>2026-04-25T15:58:14.278Z</time></trkpt><trkpt lat="45.8099956" lon="11.080404"><ele>793.0</ele><time>2026-04-25T15:58:16.292Z</time></trkpt><trkpt lat="45.8100291" lon="11.0803235"><ele>793.0</ele><time>2026-04-25T15:58:18.279Z</time></trkpt><trkpt lat="45.8100636" lon="11.0802438"><ele>793.0</ele><time>2026-04-25T15:58:20.255Z</time></trkpt><trkpt lat="45.8101072" lon="11.0801645"><ele>793.0000000000001</ele><time>2026-04-25T15:58:22.233Z</time></trkpt><trkpt lat="45.8101744" lon="11.0800828"><ele>793.0</ele><time>2026-04-25T15:58:25.314Z</time></trkpt><trkpt lat="45.810225" lon="11.0799918"><ele>795.2857142857143</ele><time>2026-04-25T15:58:28.265Z</time></trkpt><trkpt lat="45.8102764" lon="11.0799039"><ele>797.5714285714286</ele><time>2026-04-25T15:58:31.282Z</time></trkpt><trkpt lat="45.8103378" lon="11.0798331"><ele>799.8571428571429</ele><time>2026-04-25T15:58:34.251Z</time></trkpt><trkpt lat="45.8103977" lon="11.0797767"><ele>802.1428571428571</ele><time>2026-04-25T15:58:37.249Z</time></trkpt><trkpt lat="45.8104614" lon="11.0797112"><ele>804.4285714285714</ele><time>2026-04-25T15:58:40.25Z</time></trkpt><trkpt lat="45.8105229" lon="11.0796642"><ele>806.7142857142858</ele><time>2026-04-25T15:58:43.269Z</time></trkpt><trkpt lat="45.8105877" lon="11.0796363"><ele>809.0</ele><time>2026-04-25T15:58:46.249Z</time></trkpt><trkpt lat="45.8106691" lon="11.0796117"><ele>809.0</ele><time>2026-04-25T15:58:49.234Z</time></trkpt><trkpt lat="45.810743" lon="11.0795751"><ele>809.0</ele><time>2026-04-25T15:58:52.319Z</time></trkpt><trkpt lat="45.8108115" lon="11.0795498"><ele>809.0</ele><time>2026-04-25T15:58:55.264Z</time></trkpt><trkpt lat="45.8108909" lon="11.0795496"><ele>809.0</ele><time>2026-04-25T15:58:59.272Z</time></trkpt><trkpt lat="45.8109538" lon="11.0795542"><ele>809.0</ele><time>2026-04-25T15:59:03.269Z</time></trkpt><trkpt lat="45.8110362" lon="11.0795632"><ele>809.0</ele><time>2026-04-25T15:59:07.274Z</time></trkpt><trkpt lat="45.8110999" lon="11.0795522"><ele>809.0</ele><time>2026-04-25T15:59:10.265Z</time></trkpt><trkpt lat="45.8111846" lon="11.0795534"><ele>812.1666666666667</ele><time>2026-04-25T15:59:14.272Z</time></trkpt><trkpt lat="45.8112507" lon="11.0795578"><ele>815.3333333333334</ele><time>2026-04-25T15:59:17.279Z</time></trkpt><trkpt lat="45.8113275" lon="11.0795664"><ele>818.5</ele><time>2026-04-25T15:59:21.262Z</time></trkpt><trkpt lat="45.8114222" lon="11.0795813"><ele>821.6666666666667</ele><time>2026-04-25T15:59:26.295Z</time></trkpt><trkpt lat="45.8114955" lon="11.0796112"><ele>824.8333333333334</ele><time>2026-04-25T15:59:30.261Z</time></trkpt><trkpt lat="45.8115725" lon="11.0796465"><ele>828.0</ele><time>2026-04-25T15:59:34.291Z</time></trkpt><trkpt lat="45.8116383" lon="11.079663"><ele>828.0</ele><time>2026-04-25T15:59:38.254Z</time></trkpt><trkpt lat="45.8116954" lon="11.0797024"><ele>828.0</ele><time>2026-04-25T15:59:42.266Z</time></trkpt><trkpt lat="45.8117659" lon="11.0797318"><ele>828.0</ele><time>2026-04-25T15:59:46.273Z</time></trkpt><trkpt lat="45.8118571" lon="11.0797364"><ele>828.0</ele><time>2026-04-25T15:59:51.264Z</time></trkpt><trkpt lat="45.8119269" lon="11.0797646"><ele>828.0</ele><time>2026-04-25T15:59:55.269Z</time></trkpt><trkpt lat="45.8120003" lon="11.0797907"><ele>828.0</ele><time>2026-04-25T15:59:59.236Z</time></trkpt><trkpt lat="45.812072" lon="11.0798156"><ele>829.5</ele><time>2026-04-25T16:00:03.232Z</time></trkpt><trkpt lat="45.8121435" lon="11.0798614"><ele>831.0</ele><time>2026-04-25T16:00:08.826Z</time></trkpt><trkpt lat="45.8122078" lon="11.0798619"><ele>832.5</ele><time>2026-04-25T16:00:11.249Z</time></trkpt><trkpt lat="45.8122902" lon="11.0798779"><ele>834.0</ele><time>2026-04-25T16:00:15.263Z</time></trkpt><trkpt lat="45.8123762" lon="11.0798702"><ele>835.5</ele><time>2026-04-25T16:00:19.234Z</time></trkpt><trkpt lat="45.8124471" lon="11.0798574"><ele>837.0</ele><time>2026-04-25T16:00:23.266Z</time></trkpt><trkpt lat="45.8125144" lon="11.0798679"><ele>837.0</ele><time>2026-04-25T16:00:27.273Z</time></trkpt><trkpt lat="45.8125771" lon="11.0798861"><ele>837.0</ele><time>2026-04-25T16:00:31.254Z</time></trkpt><trkpt lat="45.8126534" lon="11.0798897"><ele>837.0</ele><time>2026-04-25T16:00:35.277Z</time></trkpt><trkpt lat="45.8127179" lon="11.079892"><ele>837.0</ele><time>2026-04-25T16:00:39.239Z</time></trkpt><trkpt lat="45.8127886" lon="11.0798812"><ele>837.0</ele><time>2026-04-25T16:00:43.236Z</time></trkpt><trkpt lat="45.8128549" lon="11.0798766"><ele>837.0</ele><time>2026-04-25T16:00:47.242Z</time></trkpt><trkpt lat="45.8129198" lon="11.0798643"><ele>837.0</ele><time>2026-04-25T16:00:51.24Z</time></trkpt><trkpt lat="45.8129943" lon="11.079871"><ele>837.8333333333334</ele><time>2026-04-25T16:00:56.256Z</time></trkpt><trkpt lat="45.8130773" lon="11.0798857"><ele>838.6666666666667</ele><time>2026-04-25T16:01:01.262Z</time></trkpt><trkpt lat="45.8131469" lon="11.0798553"><ele>839.5</ele><time>2026-04-25T16:01:05.245Z</time></trkpt><trkpt lat="45.8132149" lon="11.079845"><ele>840.3333333333334</ele><time>2026-04-25T16:01:09.229Z</time></trkpt><trkpt lat="45.8132848" lon="11.0798215"><ele>841.1666666666667</ele><time>2026-04-25T16:01:14.258Z</time></trkpt><trkpt lat="45.813343" lon="11.079782"><ele>842.0</ele><time>2026-04-25T16:01:18.338Z</time></trkpt><trkpt lat="45.813421" lon="11.0797204"><ele>842.0000000000001</ele><time>2026-04-25T16:01:22.334Z</time></trkpt><trkpt lat="45.8134841" lon="11.07969"><ele>842.0</ele><time>2026-04-25T16:01:27.346Z</time></trkpt><trkpt lat="45.8135576" lon="11.0796501"><ele>842.0</ele><time>2026-04-25T16:01:32.265Z</time></trkpt><trkpt lat="45.8136214" lon="11.0796424"><ele>842.0</ele><time>2026-04-25T16:01:35.297Z</time></trkpt><trkpt lat="45.8136836" lon="11.079625"><ele>842.0</ele><time>2026-04-25T16:01:39.288Z</time></trkpt><trkpt lat="45.8137494" lon="11.0795773"><ele>842.0000000000001</ele><time>2026-04-25T16:01:43.347Z</time></trkpt><trkpt lat="45.8138101" lon="11.0795049"><ele>842.0</ele><time>2026-04-25T16:01:47.238Z</time></trkpt><trkpt lat="45.8138853" lon="11.0794567"><ele>840.8333333333334</ele><time>2026-04-25T16:01:51.279Z</time></trkpt><trkpt lat="45.8139609" lon="11.0794305"><ele>839.6666666666667</ele><time>2026-04-25T16:01:56.225Z</time></trkpt><trkpt lat="45.8140443" lon="11.0793987"><ele>838.5</ele><time>2026-04-25T16:02:02.256Z</time></trkpt><trkpt lat="45.8141156" lon="11.079379"><ele>837.3333333333333</ele><time>2026-04-25T16:02:05.227Z</time></trkpt><trkpt lat="45.814192" lon="11.0793656"><ele>836.1666666666666</ele><time>2026-04-25T16:02:10.249Z</time></trkpt><trkpt lat="45.8142625" lon="11.0793549"><ele>835.0</ele><time>2026-04-25T16:02:13.259Z</time></trkpt><trkpt lat="45.8143378" lon="11.0793603"><ele>834.9999999999999</ele><time>2026-04-25T16:02:17.275Z</time></trkpt><trkpt lat="45.8144574" lon="11.0793604"><ele>835.0</ele><time>2026-04-25T16:02:24.254Z</time></trkpt><trkpt lat="45.8145295" lon="11.0793321"><ele>835.0</ele><time>2026-04-25T16:02:28.252Z</time></trkpt><trkpt lat="45.8146066" lon="11.0793026"><ele>835.0</ele><time>2026-04-25T16:02:32.25Z</time></trkpt><trkpt lat="45.8146767" lon="11.079289"><ele>834.9999999999999</ele><time>2026-04-25T16:02:37.255Z</time></trkpt><trkpt lat="45.8147438" lon="11.0792733"><ele>835.0</ele><time>2026-04-25T16:02:41.262Z</time></trkpt><trkpt lat="45.8148213" lon="11.0792469"><ele>835.0000000000001</ele><time>2026-04-25T16:02:47.267Z</time></trkpt><trkpt lat="45.8148804" lon="11.0792099"><ele>835.0</ele><time>2026-04-25T16:02:50.258Z</time></trkpt><trkpt lat="45.8149421" lon="11.0791537"><ele>835.0</ele><time>2026-04-25T16:02:53.256Z</time></trkpt><trkpt lat="45.8149985" lon="11.0790928"><ele>835.0</ele><time>2026-04-25T16:02:57.224Z</time></trkpt><trkpt lat="45.8150554" lon="11.0790483"><ele>835.0</ele><time>2026-04-25T16:03:01.301Z</time></trkpt><trkpt lat="45.8151159" lon="11.0789715"><ele>835.0000000000001</ele><time>2026-04-25T16:03:06.252Z</time></trkpt><trkpt lat="45.8151711" lon="11.0789208"><ele>835.0</ele><time>2026-04-25T16:03:11.222Z</time></trkpt><trkpt lat="45.8152614" lon="11.0788764"><ele>836.0000000000001</ele><time>2026-04-25T16:03:18.247Z</time></trkpt><trkpt lat="45.8153246" lon="11.0788317"><ele>837.0</ele><time>2026-04-25T16:03:21.256Z</time></trkpt><trkpt lat="45.8153747" lon="11.0787378"><ele>838.0</ele><time>2026-04-25T16:03:25.238Z</time></trkpt><trkpt lat="45.8154307" lon="11.0786757"><ele>839.0</ele><time>2026-04-25T16:03:28.248Z</time></trkpt><trkpt lat="45.8154921" lon="11.0786306"><ele>840.0</ele><time>2026-04-25T16:03:31.293Z</time></trkpt><trkpt lat="45.8155562" lon="11.0785591"><ele>841.0000000000001</ele><time>2026-04-25T16:03:35.27Z</time></trkpt><trkpt lat="45.815611" lon="11.0784876"><ele>842.0</ele><time>2026-04-25T16:03:38.228Z</time></trkpt><trkpt lat="45.8156665" lon="11.0783995"><ele>842.0000000000001</ele><time>2026-04-25T16:03:41.23Z</time></trkpt><trkpt lat="45.8157059" lon="11.0783242"><ele>842.0</ele><time>2026-04-25T16:03:43.262Z</time></trkpt><trkpt lat="45.8157526" lon="11.0782505"><ele>842.0</ele><time>2026-04-25T16:03:45.251Z</time></trkpt><trkpt lat="45.8158161" lon="11.0781424"><ele>842.0</ele><time>2026-04-25T16:03:48.259Z</time></trkpt><trkpt lat="45.8158635" lon="11.0780619"><ele>842.0</ele><time>2026-04-25T16:03:50.269Z</time></trkpt><trkpt lat="45.815906" lon="11.0779727"><ele>842.0000000000001</ele><time>2026-04-25T16:03:52.26Z</time></trkpt><trkpt lat="45.8159322" lon="11.0778875"><ele>842.0</ele><time>2026-04-25T16:03:54.236Z</time></trkpt><trkpt lat="45.8159781" lon="11.077774"><ele>837.8333333333334</ele><time>2026-04-25T16:03:57.27Z</time></trkpt><trkpt lat="45.8160158" lon="11.0776966"><ele>833.6666666666667</ele><time>2026-04-25T16:03:59.23Z</time></trkpt><trkpt lat="45.8160679" lon="11.0775791"><ele>829.5</ele><time>2026-04-25T16:04:02.223Z</time></trkpt><trkpt lat="45.8160995" lon="11.0774843"><ele>825.3333333333333</ele><time>2026-04-25T16:04:04.229Z</time></trkpt><trkpt lat="45.816124" lon="11.0773694"><ele>821.1666666666666</ele><time>2026-04-25T16:04:06.229Z</time></trkpt><trkpt lat="45.8161759" lon="11.0772362"><ele>817.0</ele><time>2026-04-25T16:04:08.236Z</time></trkpt><trkpt lat="45.8162051" lon="11.0771034"><ele>815.3333333333333</ele><time>2026-04-25T16:04:10.268Z</time></trkpt><trkpt lat="45.8162397" lon="11.0769295"><ele>813.6666666666666</ele><time>2026-04-25T16:04:12.233Z</time></trkpt><trkpt lat="45.8162556" lon="11.0768351"><ele>812.0</ele><time>2026-04-25T16:04:13.235Z</time></trkpt><trkpt lat="45.8162649" lon="11.0767352"><ele>810.3333333333333</ele><time>2026-04-25T16:04:14.223Z</time></trkpt><trkpt lat="45.8162892" lon="11.0766325"><ele>808.6666666666666</ele><time>2026-04-25T16:04:15.243Z</time></trkpt><trkpt lat="45.816306" lon="11.0765242"><ele>807.0</ele><time>2026-04-25T16:04:16.272Z</time></trkpt><trkpt lat="45.8163203" lon="11.0764089"><ele>807.0</ele><time>2026-04-25T16:04:17.237Z</time></trkpt><trkpt lat="45.8163397" lon="11.0762998"><ele>807.0</ele><time>2026-04-25T16:04:18.258Z</time></trkpt><trkpt lat="45.8163575" lon="11.0761818"><ele>807.0</ele><time>2026-04-25T16:04:19.237Z</time></trkpt><trkpt lat="45.816377" lon="11.0760577"><ele>807.0</ele><time>2026-04-25T16:04:20.246Z</time></trkpt><trkpt lat="45.8163946" lon="11.0759362"><ele>807.0</ele><time>2026-04-25T16:04:21.259Z</time></trkpt><trkpt lat="45.8164245" lon="11.0758125"><ele>807.0</ele><time>2026-04-25T16:04:22.257Z</time></trkpt><trkpt lat="45.8164451" lon="11.075682"><ele>808.2</ele><time>2026-04-25T16:04:23.253Z</time></trkpt><trkpt lat="45.8164728" lon="11.0755523"><ele>809.4000000000001</ele><time>2026-04-25T16:04:24.256Z</time></trkpt><trkpt lat="45.8165091" lon="11.0754227"><ele>810.5999999999999</ele><time>2026-04-25T16:04:25.263Z</time></trkpt><trkpt lat="45.816535" lon="11.0752772"><ele>811.8</ele><time>2026-04-25T16:04:26.237Z</time></trkpt><trkpt lat="45.8165515" lon="11.07513"><ele>813.0</ele><time>2026-04-25T16:04:27.237Z</time></trkpt><trkpt lat="45.8165809" lon="11.0749899"><ele>815.8</ele><time>2026-04-25T16:04:28.266Z</time></trkpt><trkpt lat="45.8166038" lon="11.0748365"><ele>818.5999999999999</ele><time>2026-04-25T16:04:29.267Z</time></trkpt><trkpt lat="45.8166266" lon="11.0746959"><ele>821.4000000000001</ele><time>2026-04-25T16:04:30.275Z</time></trkpt><trkpt lat="45.816667" lon="11.0745445"><ele>824.2</ele><time>2026-04-25T16:04:31.284Z</time></trkpt><trkpt lat="45.8167031" lon="11.0743947"><ele>827.0</ele><time>2026-04-25T16:04:32.27Z</time></trkpt><trkpt lat="45.8167439" lon="11.0742488"><ele>827.0</ele><time>2026-04-25T16:04:33.265Z</time></trkpt><trkpt lat="45.8167953" lon="11.0741096"><ele>827.0</ele><time>2026-04-25T16:04:34.25Z</time></trkpt><trkpt lat="45.8168507" lon="11.0739731"><ele>827.0</ele><time>2026-04-25T16:04:35.26Z</time></trkpt><trkpt lat="45.816918" lon="11.0738528"><ele>827.0</ele><time>2026-04-25T16:04:36.239Z</time></trkpt><trkpt lat="45.8170649" lon="11.073615"><ele>826.8</ele><time>2026-04-25T16:04:38.238Z</time></trkpt><trkpt lat="45.8171453" lon="11.0735115"><ele>826.6</ele><time>2026-04-25T16:04:39.258Z</time></trkpt><trkpt lat="45.817223" lon="11.0734079"><ele>826.4</ele><time>2026-04-25T16:04:40.262Z</time></trkpt><trkpt lat="45.8172921" lon="11.0732993"><ele>826.1999999999999</ele><time>2026-04-25T16:04:41.251Z</time></trkpt><trkpt lat="45.8173819" lon="11.0732113"><ele>826.0</ele><time>2026-04-25T16:04:42.245Z</time></trkpt><trkpt lat="45.817474" lon="11.0731134"><ele>826.0</ele><time>2026-04-25T16:04:43.273Z</time></trkpt><trkpt lat="45.8175445" lon="11.0730073"><ele>826.0</ele><time>2026-04-25T16:04:44.265Z</time></trkpt><trkpt lat="45.8176232" lon="11.0729058"><ele>826.0</ele><time>2026-04-25T16:04:45.254Z</time></trkpt><trkpt lat="45.8177068" lon="11.072805"><ele>826.0</ele><time>2026-04-25T16:04:46.272Z</time></trkpt><trkpt lat="45.8177912" lon="11.0727098"><ele>826.0</ele><time>2026-04-25T16:04:47.26Z</time></trkpt><trkpt lat="45.8178805" lon="11.0726178"><ele>829.1999999999999</ele><time>2026-04-25T16:04:48.271Z</time></trkpt><trkpt lat="45.8179704" lon="11.0725266"><ele>832.4</ele><time>2026-04-25T16:04:49.27Z</time></trkpt><trkpt lat="45.8180631" lon="11.0724525"><ele>835.6</ele><time>2026-04-25T16:04:50.265Z</time></trkpt><trkpt lat="45.8181553" lon="11.0723817"><ele>838.8</ele><time>2026-04-25T16:04:51.264Z</time></trkpt><trkpt lat="45.8182627" lon="11.0723283"><ele>842.0</ele><time>2026-04-25T16:04:52.252Z</time></trkpt><trkpt lat="45.8183618" lon="11.0722858"><ele>842.0</ele><time>2026-04-25T16:04:53.257Z</time></trkpt><trkpt lat="45.8184535" lon="11.0722565"><ele>842.0</ele><time>2026-04-25T16:04:54.275Z</time></trkpt><trkpt lat="45.8185478" lon="11.0722181"><ele>842.0</ele><time>2026-04-25T16:04:55.258Z</time></trkpt><trkpt lat="45.8186346" lon="11.0721824"><ele>842.0</ele><time>2026-04-25T16:04:56.262Z</time></trkpt><trkpt lat="45.8187221" lon="11.0721526"><ele>842.0</ele><time>2026-04-25T16:04:57.271Z</time></trkpt><trkpt lat="45.8188111" lon="11.0721138"><ele>838.3333333333334</ele><time>2026-04-25T16:04:58.256Z</time></trkpt><trkpt lat="45.8188914" lon="11.0720883"><ele>834.6666666666667</ele><time>2026-04-25T16:04:59.271Z</time></trkpt><trkpt lat="45.8189779" lon="11.0720593"><ele>831.0</ele><time>2026-04-25T16:05:00.27Z</time></trkpt><trkpt lat="45.8190602" lon="11.0720318"><ele>827.3333333333333</ele><time>2026-04-25T16:05:01.268Z</time></trkpt><trkpt lat="45.8191397" lon="11.071995"><ele>823.6666666666666</ele><time>2026-04-25T16:05:02.269Z</time></trkpt><trkpt lat="45.8192186" lon="11.071967"><ele>820.0</ele><time>2026-04-25T16:05:03.271Z</time></trkpt><trkpt lat="45.8192924" lon="11.0719092"><ele>816.1666666666666</ele><time>2026-04-25T16:05:04.268Z</time></trkpt><trkpt lat="45.8193597" lon="11.07186"><ele>812.3333333333333</ele><time>2026-04-25T16:05:05.257Z</time></trkpt><trkpt lat="45.8194262" lon="11.0717912"><ele>808.5</ele><time>2026-04-25T16:05:06.23Z</time></trkpt><trkpt lat="45.8195116" lon="11.0716549"><ele>804.6666666666667</ele><time>2026-04-25T16:05:08.234Z</time></trkpt><trkpt lat="45.819572" lon="11.0715794"><ele>800.8333333333334</ele><time>2026-04-25T16:05:09.273Z</time></trkpt><trkpt lat="45.8196109" lon="11.0715044"><ele>797.0</ele><time>2026-04-25T16:05:10.283Z</time></trkpt><trkpt lat="45.8196492" lon="11.0714229"><ele>797.0000000000001</ele><time>2026-04-25T16:05:11.269Z</time></trkpt><trkpt lat="45.8196897" lon="11.0713416"><ele>797.0</ele><time>2026-04-25T16:05:12.269Z</time></trkpt><trkpt lat="45.8197077" lon="11.0712516"><ele>797.0</ele><time>2026-04-25T16:05:13.266Z</time></trkpt><trkpt lat="45.8197594" lon="11.0710853"><ele>797.0</ele><time>2026-04-25T16:05:15.277Z</time></trkpt><trkpt lat="45.8197838" lon="11.0710016"><ele>797.0000000000001</ele><time>2026-04-25T16:05:16.247Z</time></trkpt><trkpt lat="45.8198066" lon="11.0709001"><ele>797.0</ele><time>2026-04-25T16:05:17.285Z</time></trkpt><trkpt lat="45.8198319" lon="11.0708133"><ele>801.4000000000001</ele><time>2026-04-25T16:05:18.284Z</time></trkpt><trkpt lat="45.81988" lon="11.0706501"><ele>805.8000000000001</ele><time>2026-04-25T16:05:20.281Z</time></trkpt><trkpt lat="45.8199157" lon="11.0705717"><ele>810.2</ele><time>2026-04-25T16:05:21.266Z</time></trkpt><trkpt lat="45.8199963" lon="11.0704214"><ele>814.6</ele><time>2026-04-25T16:05:23.273Z</time></trkpt><trkpt lat="45.8200825" lon="11.0703103"><ele>819.0</ele><time>2026-04-25T16:05:25.29Z</time></trkpt><trkpt lat="45.8201717" lon="11.0702088"><ele>819.8000000000001</ele><time>2026-04-25T16:05:27.27Z</time></trkpt><trkpt lat="45.8202712" lon="11.070135"><ele>820.6</ele><time>2026-04-25T16:05:29.275Z</time></trkpt><trkpt lat="45.820376" lon="11.0700923"><ele>821.4</ele><time>2026-04-25T16:05:31.249Z</time></trkpt><trkpt lat="45.8204815" lon="11.0700498"><ele>822.2</ele><time>2026-04-25T16:05:33.281Z</time></trkpt><trkpt lat="45.8205491" lon="11.0700274"><ele>823.0</ele><time>2026-04-25T16:05:34.293Z</time></trkpt><trkpt lat="45.8206635" lon="11.0700266"><ele>823.0</ele><time>2026-04-25T16:05:36.278Z</time></trkpt><trkpt lat="45.8207675" lon="11.0700495"><ele>823.0</ele><time>2026-04-25T16:05:38.255Z</time></trkpt><trkpt lat="45.8208731" lon="11.0700651"><ele>823.0</ele><time>2026-04-25T16:05:40.281Z</time></trkpt><trkpt lat="45.8209292" lon="11.0701088"><ele>823.0</ele><time>2026-04-25T16:05:41.298Z</time></trkpt><trkpt lat="45.8210247" lon="11.0701806"><ele>823.0</ele><time>2026-04-25T16:05:43.279Z</time></trkpt><trkpt lat="45.8210843" lon="11.0702292"><ele>824.5</ele><time>2026-04-25T16:05:44.26Z</time></trkpt><trkpt lat="45.8211961" lon="11.0702889"><ele>826.0</ele><time>2026-04-25T16:05:46.289Z</time></trkpt><trkpt lat="45.8212921" lon="11.070386"><ele>827.5</ele><time>2026-04-25T16:05:48.234Z</time></trkpt><trkpt lat="45.8213958" lon="11.0704787"><ele>829.0</ele><time>2026-04-25T16:05:50.244Z</time></trkpt><trkpt lat="45.821486" lon="11.0705663"><ele>829.0</ele><time>2026-04-25T16:05:52.267Z</time></trkpt><trkpt lat="45.8215798" lon="11.0706491"><ele>829.0</ele><time>2026-04-25T16:05:54.234Z</time></trkpt><trkpt lat="45.8216819" lon="11.0707306"><ele>829.0</ele><time>2026-04-25T16:05:56.233Z</time></trkpt><trkpt lat="45.8217771" lon="11.0707997"><ele>829.0</ele><time>2026-04-25T16:05:58.262Z</time></trkpt><trkpt lat="45.8218704" lon="11.0708912"><ele>829.0</ele><time>2026-04-25T16:06:00.261Z</time></trkpt><trkpt lat="45.8219739" lon="11.0709876"><ele>823.25</ele><time>2026-04-25T16:06:02.239Z</time></trkpt><trkpt lat="45.8220738" lon="11.0710639"><ele>817.5</ele><time>2026-04-25T16:06:04.267Z</time></trkpt><trkpt lat="45.82219" lon="11.0710986"><ele>811.75</ele><time>2026-04-25T16:06:06.238Z</time></trkpt><trkpt lat="45.8223031" lon="11.0710878"><ele>806.0</ele><time>2026-04-25T16:06:08.272Z</time></trkpt><trkpt lat="45.8224164" lon="11.0710416"><ele>806.0</ele><time>2026-04-25T16:06:10.245Z</time></trkpt><trkpt lat="45.822527" lon="11.0709724"><ele>806.0</ele><time>2026-04-25T16:06:12.274Z</time></trkpt><trkpt lat="45.8226328" lon="11.0708769"><ele>806.0</ele><time>2026-04-25T16:06:14.278Z</time></trkpt><trkpt lat="45.8227437" lon="11.070764"><ele>806.0</ele><time>2026-04-25T16:06:16.263Z</time></trkpt><trkpt lat="45.8227999" lon="11.0707149"><ele>806.0</ele><time>2026-04-25T16:06:17.239Z</time></trkpt><trkpt lat="45.8228987" lon="11.0706077"><ele>804.3333333333334</ele><time>2026-04-25T16:06:19.239Z</time></trkpt><trkpt lat="45.8229818" lon="11.0704639"><ele>802.6666666666667</ele><time>2026-04-25T16:06:21.279Z</time></trkpt><trkpt lat="45.8230282" lon="11.070392"><ele>801.0</ele><time>2026-04-25T16:06:22.279Z</time></trkpt><trkpt lat="45.8230796" lon="11.0703169"><ele>799.3333333333333</ele><time>2026-04-25T16:06:23.26Z</time></trkpt><trkpt lat="45.8231378" lon="11.0702348"><ele>797.6666666666666</ele><time>2026-04-25T16:06:24.232Z</time></trkpt><trkpt lat="45.8231891" lon="11.0701456"><ele>796.0</ele><time>2026-04-25T16:06:25.256Z</time></trkpt><trkpt lat="45.8232431" lon="11.0700543"><ele>795.9999999999999</ele><time>2026-04-25T16:06:26.275Z</time></trkpt><trkpt lat="45.8232983" lon="11.0699827"><ele>796.0</ele><time>2026-04-25T16:06:27.273Z</time></trkpt><trkpt lat="45.8233571" lon="11.0698947"><ele>796.0</ele><time>2026-04-25T16:06:28.265Z</time></trkpt><trkpt lat="45.823414" lon="11.0698163"><ele>796.0</ele><time>2026-04-25T16:06:29.28Z</time></trkpt><trkpt lat="45.8234681" lon="11.0697195"><ele>795.9999999999999</ele><time>2026-04-25T16:06:30.272Z</time></trkpt><trkpt lat="45.8235298" lon="11.0696233"><ele>796.0</ele><time>2026-04-25T16:06:31.262Z</time></trkpt><trkpt lat="45.8235856" lon="11.0695053"><ele>793.8</ele><time>2026-04-25T16:06:32.234Z</time></trkpt><trkpt lat="45.8236516" lon="11.0694049"><ele>791.5999999999999</ele><time>2026-04-25T16:06:33.253Z</time></trkpt><trkpt lat="45.823718" lon="11.0693034"><ele>789.4</ele><time>2026-04-25T16:06:34.263Z</time></trkpt><trkpt lat="45.8237879" lon="11.0691969"><ele>787.2</ele><time>2026-04-25T16:06:35.292Z</time></trkpt><trkpt lat="45.8238561" lon="11.0691008"><ele>785.0</ele><time>2026-04-25T16:06:36.283Z</time></trkpt><trkpt lat="45.8239114" lon="11.0689857"><ele>785.0</ele><time>2026-04-25T16:06:37.275Z</time></trkpt><trkpt lat="45.8239744" lon="11.0688637"><ele>785.0</ele><time>2026-04-25T16:06:38.262Z</time></trkpt><trkpt lat="45.8240359" lon="11.0687462"><ele>785.0</ele><time>2026-04-25T16:06:39.283Z</time></trkpt><trkpt lat="45.824086" lon="11.068614"><ele>785.0</ele><time>2026-04-25T16:06:40.255Z</time></trkpt><trkpt lat="45.8241303" lon="11.0684672"><ele>785.0</ele><time>2026-04-25T16:06:41.246Z</time></trkpt><trkpt lat="45.8241585" lon="11.06831"><ele>786.2</ele><time>2026-04-25T16:06:42.283Z</time></trkpt><trkpt lat="45.8241686" lon="11.0681628"><ele>787.4</ele><time>2026-04-25T16:06:43.273Z</time></trkpt><trkpt lat="45.8241746" lon="11.068013"><ele>788.5999999999999</ele><time>2026-04-25T16:06:44.23Z</time></trkpt><trkpt lat="45.8241954" lon="11.0678673"><ele>789.8</ele><time>2026-04-25T16:06:45.262Z</time></trkpt><trkpt lat="45.8242299" lon="11.0677119"><ele>791.0</ele><time>2026-04-25T16:06:46.304Z</time></trkpt><trkpt lat="45.8242749" lon="11.0675602"><ele>794.1999999999999</ele><time>2026-04-25T16:06:47.237Z</time></trkpt><trkpt lat="45.8243536" lon="11.0674418"><ele>797.4</ele><time>2026-04-25T16:06:48.239Z</time></trkpt><trkpt lat="45.8244539" lon="11.0673492"><ele>800.6</ele><time>2026-04-25T16:06:49.254Z</time></trkpt><trkpt lat="45.8245571" lon="11.0672867"><ele>803.8</ele><time>2026-04-25T16:06:50.24Z</time></trkpt><trkpt lat="45.8246503" lon="11.0672238"><ele>807.0</ele><time>2026-04-25T16:06:51.227Z</time></trkpt><trkpt lat="45.8247608" lon="11.0671922"><ele>807.0</ele><time>2026-04-25T16:06:52.231Z</time></trkpt><trkpt lat="45.8248798" lon="11.0671707"><ele>807.0</ele><time>2026-04-25T16:06:53.271Z</time></trkpt><trkpt lat="45.82499" lon="11.0671457"><ele>807.0</ele><time>2026-04-25T16:06:54.239Z</time></trkpt><trkpt lat="45.8251036" lon="11.0671288"><ele>807.0</ele><time>2026-04-25T16:06:55.232Z</time></trkpt><trkpt lat="45.8252279" lon="11.0671389"><ele>810.75</ele><time>2026-04-25T16:06:56.267Z</time></trkpt><trkpt lat="45.825347" lon="11.0671608"><ele>814.5</ele><time>2026-04-25T16:06:57.272Z</time></trkpt><trkpt lat="45.8254556" lon="11.0672136"><ele>818.25</ele><time>2026-04-25T16:06:58.248Z</time></trkpt><trkpt lat="45.8255571" lon="11.067278"><ele>822.0</ele><time>2026-04-25T16:06:59.236Z</time></trkpt><trkpt lat="45.8256515" lon="11.0673852"><ele>813.6</ele><time>2026-04-25T16:07:00.263Z</time></trkpt><trkpt lat="45.8257398" lon="11.0674687"><ele>805.2</ele><time>2026-04-25T16:07:01.221Z</time></trkpt><trkpt lat="45.8258325" lon="11.0675558"><ele>796.8</ele><time>2026-04-25T16:07:02.264Z</time></trkpt><trkpt lat="45.825932" lon="11.0676246"><ele>788.4</ele><time>2026-04-25T16:07:03.27Z</time></trkpt><trkpt lat="45.8260431" lon="11.067676"><ele>780.0</ele><time>2026-04-25T16:07:04.269Z</time></trkpt><trkpt lat="45.8261566" lon="11.0676875"><ele>780.0</ele><time>2026-04-25T16:07:05.27Z</time></trkpt><trkpt lat="45.8262712" lon="11.0676981"><ele>780.0</ele><time>2026-04-25T16:07:06.255Z</time></trkpt><trkpt lat="45.8263941" lon="11.0676957"><ele>780.0</ele><time>2026-04-25T16:07:07.225Z</time></trkpt><trkpt lat="45.8265061" lon="11.067668"><ele>780.0</ele><time>2026-04-25T16:07:08.253Z</time></trkpt><trkpt lat="45.8266146" lon="11.067646"><ele>780.0</ele><time>2026-04-25T16:07:09.234Z</time></trkpt><trkpt lat="45.826719" lon="11.0676168"><ele>780.0</ele><time>2026-04-25T16:07:10.29Z</time></trkpt><trkpt lat="45.8268339" lon="11.0675778"><ele>780.0</ele><time>2026-04-25T16:07:11.274Z</time></trkpt><trkpt lat="45.8269435" lon="11.0675497"><ele>780.0</ele><time>2026-04-25T16:07:12.237Z</time></trkpt><trkpt lat="45.8270604" lon="11.0675184"><ele>777.6</ele><time>2026-04-25T16:07:13.264Z</time></trkpt><trkpt lat="45.8271748" lon="11.0674735"><ele>775.2</ele><time>2026-04-25T16:07:14.228Z</time></trkpt><trkpt lat="45.8272805" lon="11.0674472"><ele>772.8</ele><time>2026-04-25T16:07:15.227Z</time></trkpt><trkpt lat="45.827387" lon="11.0674173"><ele>770.4</ele><time>2026-04-25T16:07:16.266Z</time></trkpt><trkpt lat="45.8274934" lon="11.0673775"><ele>768.0</ele><time>2026-04-25T16:07:17.279Z</time></trkpt><trkpt lat="45.8275997" lon="11.0673564"><ele>770.8</ele><time>2026-04-25T16:07:18.243Z</time></trkpt><trkpt lat="45.8277042" lon="11.0673409"><ele>773.5999999999999</ele><time>2026-04-25T16:07:19.246Z</time></trkpt><trkpt lat="45.8278182" lon="11.0673234"><ele>776.4000000000001</ele><time>2026-04-25T16:07:20.272Z</time></trkpt><trkpt lat="45.8279271" lon="11.0673091"><ele>779.2</ele><time>2026-04-25T16:07:21.262Z</time></trkpt><trkpt lat="45.8280311" lon="11.0672869"><ele>782.0</ele><time>2026-04-25T16:07:22.237Z</time></trkpt><trkpt lat="45.8281406" lon="11.0672623"><ele>782.0</ele><time>2026-04-25T16:07:23.239Z</time></trkpt><trkpt lat="45.8282555" lon="11.0672288"><ele>782.0</ele><time>2026-04-25T16:07:24.234Z</time></trkpt><trkpt lat="45.8283652" lon="11.0672029"><ele>782.0</ele><time>2026-04-25T16:07:25.285Z</time></trkpt><trkpt lat="45.8284809" lon="11.0671868"><ele>782.0</ele><time>2026-04-25T16:07:26.324Z</time></trkpt><trkpt lat="45.8285835" lon="11.0671203"><ele>775.0</ele><time>2026-04-25T16:07:27.286Z</time></trkpt><trkpt lat="45.8286969" lon="11.067107"><ele>768.0</ele><time>2026-04-25T16:07:28.228Z</time></trkpt><trkpt lat="45.8289132" lon="11.0670062"><ele>761.0</ele><time>2026-04-25T16:07:30.263Z</time></trkpt><trkpt lat="45.8290235" lon="11.0669672"><ele>761.0</ele><time>2026-04-25T16:07:31.281Z</time></trkpt><trkpt lat="45.8291441" lon="11.0668948"><ele>761.0</ele><time>2026-04-25T16:07:32.268Z</time></trkpt><trkpt lat="45.829263" lon="11.0668285"><ele>761.0</ele><time>2026-04-25T16:07:33.257Z</time></trkpt><trkpt lat="45.8293644" lon="11.0667431"><ele>761.0</ele><time>2026-04-25T16:07:34.255Z</time></trkpt><trkpt lat="45.829453" lon="11.0666341"><ele>752.25</ele><time>2026-04-25T16:07:35.232Z</time></trkpt><trkpt lat="45.8295428" lon="11.0664989"><ele>743.5</ele><time>2026-04-25T16:07:36.233Z</time></trkpt><trkpt lat="45.8296101" lon="11.0663312"><ele>734.75</ele><time>2026-04-25T16:07:37.227Z</time></trkpt><trkpt lat="45.8296543" lon="11.06618"><ele>726.0</ele><time>2026-04-25T16:07:38.225Z</time></trkpt><trkpt lat="45.8296875" lon="11.0660105"><ele>726.0</ele><time>2026-04-25T16:07:39.238Z</time></trkpt><trkpt lat="45.8297082" lon="11.0658405"><ele>726.0</ele><time>2026-04-25T16:07:40.244Z</time></trkpt><trkpt lat="45.8297065" lon="11.065672"><ele>726.0</ele><time>2026-04-25T16:07:41.242Z</time></trkpt><trkpt lat="45.8297212" lon="11.0654945"><ele>726.0</ele><time>2026-04-25T16:07:42.245Z</time></trkpt><trkpt lat="45.8297333" lon="11.0653253"><ele>722.6666666666666</ele><time>2026-04-25T16:07:43.256Z</time></trkpt><trkpt lat="45.8297387" lon="11.0651644"><ele>719.3333333333333</ele><time>2026-04-25T16:07:44.233Z</time></trkpt><trkpt lat="45.829757" lon="11.0649901"><ele>716.0</ele><time>2026-04-25T16:07:45.249Z</time></trkpt><trkpt lat="45.829753" lon="11.0646746"><ele>715.4</ele><time>2026-04-25T16:07:47.237Z</time></trkpt><trkpt lat="45.8297489" lon="11.0645134"><ele>714.8</ele><time>2026-04-25T16:07:48.24Z</time></trkpt><trkpt lat="45.8297395" lon="11.0643534"><ele>714.1999999999999</ele><time>2026-04-25T16:07:49.257Z</time></trkpt><trkpt lat="45.8297696" lon="11.0642048"><ele>713.5999999999999</ele><time>2026-04-25T16:07:50.29Z</time></trkpt><trkpt lat="45.829793" lon="11.0640518"><ele>713.0</ele><time>2026-04-25T16:07:51.346Z</time></trkpt><trkpt lat="45.8298177" lon="11.0639139"><ele>713.0</ele><time>2026-04-25T16:07:52.269Z</time></trkpt><trkpt lat="45.8298597" lon="11.0637745"><ele>713.0</ele><time>2026-04-25T16:07:53.278Z</time></trkpt><trkpt lat="45.8299129" lon="11.0636439"><ele>713.0</ele><time>2026-04-25T16:07:54.352Z</time></trkpt><trkpt lat="45.8299632" lon="11.063499"><ele>713.0</ele><time>2026-04-25T16:07:55.262Z</time></trkpt><trkpt lat="45.8300146" lon="11.0633546"><ele>713.0</ele><time>2026-04-25T16:07:56.258Z</time></trkpt><trkpt lat="45.8300956" lon="11.0632527"><ele>716.0</ele><time>2026-04-25T16:07:57.27Z</time></trkpt><trkpt lat="45.8301877" lon="11.063138"><ele>719.0</ele><time>2026-04-25T16:07:58.295Z</time></trkpt><trkpt lat="45.8302581" lon="11.063048"><ele>722.0</ele><time>2026-04-25T16:07:59.268Z</time></trkpt><trkpt lat="45.8303527" lon="11.0629815"><ele>725.0</ele><time>2026-04-25T16:08:00.282Z</time></trkpt><trkpt lat="45.8304479" lon="11.0629211"><ele>728.0</ele><time>2026-04-25T16:08:01.282Z</time></trkpt><trkpt lat="45.8305471" lon="11.062873"><ele>728.0</ele><time>2026-04-25T16:08:02.232Z</time></trkpt><trkpt lat="45.8306351" lon="11.0628222"><ele>728.0</ele><time>2026-04-25T16:08:03.284Z</time></trkpt><trkpt lat="45.8307277" lon="11.0627585"><ele>728.0</ele><time>2026-04-25T16:08:04.27Z</time></trkpt><trkpt lat="45.8308066" lon="11.0627303"><ele>728.0</ele><time>2026-04-25T16:08:05.289Z</time></trkpt><trkpt lat="45.8308964" lon="11.062712"><ele>728.0</ele><time>2026-04-25T16:08:06.342Z</time></trkpt><trkpt lat="45.8310723" lon="11.0627228"><ele>733.2</ele><time>2026-04-25T16:08:08.293Z</time></trkpt><trkpt lat="45.8311479" lon="11.0627387"><ele>738.4</ele><time>2026-04-25T16:08:09.271Z</time></trkpt><trkpt lat="45.8312733" lon="11.0627672"><ele>743.6</ele><time>2026-04-25T16:08:11.256Z</time></trkpt><trkpt lat="45.8313947" lon="11.062789"><ele>748.8000000000001</ele><time>2026-04-25T16:08:13.313Z</time></trkpt><trkpt lat="45.8315096" lon="11.0628254"><ele>754.0</ele><time>2026-04-25T16:08:15.255Z</time></trkpt><trkpt lat="45.8316039" lon="11.0628964"><ele>754.0</ele><time>2026-04-25T16:08:17.235Z</time></trkpt><trkpt lat="45.8316916" lon="11.062974"><ele>754.0</ele><time>2026-04-25T16:08:19.252Z</time></trkpt><trkpt lat="45.8317707" lon="11.0630533"><ele>754.0</ele><time>2026-04-25T16:08:21.237Z</time></trkpt><trkpt lat="45.831866" lon="11.0631597"><ele>754.0</ele><time>2026-04-25T16:08:24.233Z</time></trkpt><trkpt lat="45.8319192" lon="11.063249"><ele>754.0</ele><time>2026-04-25T16:08:27.234Z</time></trkpt><trkpt lat="45.8319655" lon="11.0633471"><ele>755.1428571428571</ele><time>2026-04-25T16:08:31.236Z</time></trkpt><trkpt lat="45.8320348" lon="11.0634194"><ele>756.2857142857142</ele><time>2026-04-25T16:08:34.328Z</time></trkpt><trkpt lat="45.8320682" lon="11.0635084"><ele>757.4285714285713</ele><time>2026-04-25T16:08:38.232Z</time></trkpt><trkpt lat="45.8321121" lon="11.0635855"><ele>758.5714285714286</ele><time>2026-04-25T16:08:42.237Z</time></trkpt><trkpt lat="45.8321644" lon="11.0636691"><ele>759.7142857142858</ele><time>2026-04-25T16:08:46.252Z</time></trkpt><trkpt lat="45.8322223" lon="11.0637135"><ele>760.8571428571428</ele><time>2026-04-25T16:08:50.256Z</time></trkpt><trkpt lat="45.8322939" lon="11.0637432"><ele>762.0</ele><time>2026-04-25T16:08:55.281Z</time></trkpt><trkpt lat="45.8323633" lon="11.0637796"><ele>762.0</ele><time>2026-04-25T16:08:58.26Z</time></trkpt><trkpt lat="45.8324391" lon="11.0638053"><ele>762.0</ele><time>2026-04-25T16:09:01.237Z</time></trkpt><trkpt lat="45.8325525" lon="11.0638009"><ele>762.0</ele><time>2026-04-25T16:09:05.297Z</time></trkpt><trkpt lat="45.8326341" lon="11.0637979"><ele>762.0</ele><time>2026-04-25T16:09:08.275Z</time></trkpt><trkpt lat="45.832706" lon="11.0637772"><ele>762.0</ele><time>2026-04-25T16:09:11.289Z</time></trkpt><trkpt lat="45.8327718" lon="11.0637592"><ele>762.0</ele><time>2026-04-25T16:09:14.29Z</time></trkpt><trkpt lat="45.8328345" lon="11.0637374"><ele>763.8571428571428</ele><time>2026-04-25T16:09:17.296Z</time></trkpt><trkpt lat="45.8328962" lon="11.0637182"><ele>765.7142857142858</ele><time>2026-04-25T16:09:20.267Z</time></trkpt><trkpt lat="45.8329589" lon="11.0636958"><ele>767.5714285714286</ele><time>2026-04-25T16:09:23.291Z</time></trkpt><trkpt lat="45.8330225" lon="11.0636767"><ele>769.4285714285713</ele><time>2026-04-25T16:09:26.264Z</time></trkpt><trkpt lat="45.833092" lon="11.0636568"><ele>771.2857142857142</ele><time>2026-04-25T16:09:29.271Z</time></trkpt><trkpt lat="45.833159" lon="11.0636177"><ele>773.1428571428571</ele><time>2026-04-25T16:09:32.272Z</time></trkpt><trkpt lat="45.8332328" lon="11.0635971"><ele>775.0</ele><time>2026-04-25T16:09:36.278Z</time></trkpt><trkpt lat="45.8333149" lon="11.0635821"><ele>774.9999999999999</ele><time>2026-04-25T16:09:40.273Z</time></trkpt><trkpt lat="45.8333819" lon="11.0635653"><ele>775.0</ele><time>2026-04-25T16:09:43.285Z</time></trkpt><trkpt lat="45.8334518" lon="11.063565"><ele>775.0</ele><time>2026-04-25T16:09:46.282Z</time></trkpt><trkpt lat="45.8335255" lon="11.0635739"><ele>775.0</ele><time>2026-04-25T16:09:50.278Z</time></trkpt><trkpt lat="45.8336076" lon="11.0635984"><ele>774.9999999999999</ele><time>2026-04-25T16:09:54.272Z</time></trkpt><trkpt lat="45.8336787" lon="11.0636343"><ele>775.0</ele><time>2026-04-25T16:09:58.249Z</time></trkpt><trkpt lat="45.8337514" lon="11.0636796"><ele>776.4285714285713</ele><time>2026-04-25T16:10:02.233Z</time></trkpt><trkpt lat="45.8338254" lon="11.0637268"><ele>777.8571428571429</ele><time>2026-04-25T16:10:06.238Z</time></trkpt><trkpt lat="45.8339012" lon="11.0637598"><ele>779.2857142857142</ele><time>2026-04-25T16:10:10.232Z</time></trkpt><trkpt lat="45.8339722" lon="11.0637787"><ele>780.7142857142857</ele><time>2026-04-25T16:10:14.23Z</time></trkpt><trkpt lat="45.8340507" lon="11.0638005"><ele>782.1428571428571</ele><time>2026-04-25T16:10:18.233Z</time></trkpt><trkpt lat="45.8341145" lon="11.0638265"><ele>783.5714285714286</ele><time>2026-04-25T16:10:21.233Z</time></trkpt><trkpt lat="45.8341826" lon="11.0638521"><ele>785.0</ele><time>2026-04-25T16:10:24.231Z</time></trkpt><trkpt lat="45.8342505" lon="11.0638644"><ele>783.7142857142858</ele><time>2026-04-25T16:10:27.236Z</time></trkpt><trkpt lat="45.8343397" lon="11.0638773"><ele>782.4285714285713</ele><time>2026-04-25T16:10:31.234Z</time></trkpt><trkpt lat="45.8344072" lon="11.0638871"><ele>781.1428571428571</ele><time>2026-04-25T16:10:34.242Z</time></trkpt><trkpt lat="45.8344757" lon="11.063874"><ele>779.8571428571429</ele><time>2026-04-25T16:10:37.227Z</time></trkpt><trkpt lat="45.8345488" lon="11.0638654"><ele>778.5714285714287</ele><time>2026-04-25T16:10:40.226Z</time></trkpt><trkpt lat="45.8346119" lon="11.0638412"><ele>777.2857142857142</ele><time>2026-04-25T16:10:43.284Z</time></trkpt><trkpt lat="45.8346812" lon="11.0638224"><ele>776.0</ele><time>2026-04-25T16:10:46.29Z</time></trkpt><trkpt lat="45.8347452" lon="11.0637811"><ele>776.0</ele><time>2026-04-25T16:10:49.311Z</time></trkpt><trkpt lat="45.834811" lon="11.06375"><ele>776.0</ele><time>2026-04-25T16:10:52.284Z</time></trkpt><trkpt lat="45.8348761" lon="11.063712"><ele>776.0</ele><time>2026-04-25T16:10:55.299Z</time></trkpt><trkpt lat="45.8349442" lon="11.0636694"><ele>776.0</ele><time>2026-04-25T16:10:58.276Z</time></trkpt><trkpt lat="45.8350084" lon="11.0636208"><ele>776.0</ele><time>2026-04-25T16:11:01.259Z</time></trkpt><trkpt lat="45.8350796" lon="11.0635788"><ele>776.0</ele><time>2026-04-25T16:11:04.272Z</time></trkpt><trkpt lat="45.8351486" lon="11.0635317"><ele>776.0</ele><time>2026-04-25T16:11:07.237Z</time></trkpt><trkpt lat="45.835211" lon="11.0634921"><ele>774.8333333333334</ele><time>2026-04-25T16:11:10.286Z</time></trkpt><trkpt lat="45.8352875" lon="11.0634614"><ele>773.6666666666667</ele><time>2026-04-25T16:11:13.291Z</time></trkpt><trkpt lat="45.8353643" lon="11.0634522"><ele>772.5</ele><time>2026-04-25T16:11:16.273Z</time></trkpt><trkpt lat="45.8354482" lon="11.063443"><ele>771.3333333333333</ele><time>2026-04-25T16:11:19.298Z</time></trkpt><trkpt lat="45.8355323" lon="11.063448"><ele>770.1666666666666</ele><time>2026-04-25T16:11:22.278Z</time></trkpt><trkpt lat="45.8356204" lon="11.0634475"><ele>769.0</ele><time>2026-04-25T16:11:25.26Z</time></trkpt><trkpt lat="45.8357069" lon="11.0634551"><ele>768.9999999999999</ele><time>2026-04-25T16:11:28.313Z</time></trkpt><trkpt lat="45.8357978" lon="11.0634682"><ele>769.0</ele><time>2026-04-25T16:11:31.291Z</time></trkpt><trkpt lat="45.8358799" lon="11.0635038"><ele>769.0</ele><time>2026-04-25T16:11:34.303Z</time></trkpt><trkpt lat="45.8359586" lon="11.0635318"><ele>769.0</ele><time>2026-04-25T16:11:37.292Z</time></trkpt><trkpt lat="45.8360352" lon="11.0635688"><ele>768.9999999999999</ele><time>2026-04-25T16:11:40.286Z</time></trkpt><trkpt lat="45.8361213" lon="11.0635969"><ele>769.0</ele><time>2026-04-25T16:11:43.29Z</time></trkpt><trkpt lat="45.836209" lon="11.0636094"><ele>771.6666666666666</ele><time>2026-04-25T16:11:46.289Z</time></trkpt><trkpt lat="45.8362904" lon="11.0636313"><ele>774.3333333333333</ele><time>2026-04-25T16:11:49.284Z</time></trkpt><trkpt lat="45.8363787" lon="11.0636485"><ele>777.0</ele><time>2026-04-25T16:11:52.296Z</time></trkpt><trkpt lat="45.8364661" lon="11.0636701"><ele>779.6666666666667</ele><time>2026-04-25T16:11:55.29Z</time></trkpt><trkpt lat="45.8365283" lon="11.0636897"><ele>782.3333333333334</ele><time>2026-04-25T16:11:57.25Z</time></trkpt><trkpt lat="45.8366163" lon="11.0637138"><ele>785.0</ele><time>2026-04-25T16:12:00.298Z</time></trkpt><trkpt lat="45.8367063" lon="11.0637378"><ele>785.0000000000001</ele><time>2026-04-25T16:12:03.276Z</time></trkpt><trkpt lat="45.8367947" lon="11.0637542"><ele>785.0</ele><time>2026-04-25T16:12:06.278Z</time></trkpt><trkpt lat="45.8368846" lon="11.0637736"><ele>785.0</ele><time>2026-04-25T16:12:09.295Z</time></trkpt><trkpt lat="45.8369483" lon="11.0637895"><ele>785.0</ele><time>2026-04-25T16:12:11.303Z</time></trkpt><trkpt lat="45.8370117" lon="11.0638117"><ele>785.0000000000001</ele><time>2026-04-25T16:12:13.298Z</time></trkpt><trkpt lat="45.8371011" lon="11.0638356"><ele>785.0</ele><time>2026-04-25T16:12:16.253Z</time></trkpt><trkpt lat="45.8371684" lon="11.063845"><ele>785.3333333333334</ele><time>2026-04-25T16:12:18.278Z</time></trkpt><trkpt lat="45.8372525" lon="11.0638511"><ele>785.6666666666667</ele><time>2026-04-25T16:12:21.238Z</time></trkpt><trkpt lat="45.837325" lon="11.063865"><ele>786.0</ele><time>2026-04-25T16:12:24.317Z</time></trkpt><trkpt lat="45.8374084" lon="11.063872"><ele>786.3333333333333</ele><time>2026-04-25T16:12:27.266Z</time></trkpt><trkpt lat="45.8374965" lon="11.0639006"><ele>786.6666666666666</ele><time>2026-04-25T16:12:30.255Z</time></trkpt><trkpt lat="45.8375861" lon="11.0638986"><ele>787.0</ele><time>2026-04-25T16:12:33.291Z</time></trkpt><trkpt lat="45.8376707" lon="11.063908"><ele>786.9999999999999</ele><time>2026-04-25T16:12:36.289Z</time></trkpt><trkpt lat="45.8377442" lon="11.0639397"><ele>787.0</ele><time>2026-04-25T16:12:38.295Z</time></trkpt><trkpt lat="45.8378311" lon="11.0639257"><ele>787.0</ele><time>2026-04-25T16:12:41.29Z</time></trkpt><trkpt lat="45.8379152" lon="11.0639109"><ele>787.0</ele><time>2026-04-25T16:12:44.287Z</time></trkpt><trkpt lat="45.8379908" lon="11.0638975"><ele>786.9999999999999</ele><time>2026-04-25T16:12:47.239Z</time></trkpt><trkpt lat="45.8380648" lon="11.0638763"><ele>787.0</ele><time>2026-04-25T16:12:50.284Z</time></trkpt><trkpt lat="45.8381447" lon="11.0638645"><ele>786.9999999999999</ele><time>2026-04-25T16:12:53.284Z</time></trkpt><trkpt lat="45.8382225" lon="11.0638545"><ele>787.0</ele><time>2026-04-25T16:12:56.288Z</time></trkpt><trkpt lat="45.8383091" lon="11.0638539"><ele>787.0</ele><time>2026-04-25T16:12:59.301Z</time></trkpt><trkpt lat="45.8383911" lon="11.06384"><ele>787.0</ele><time>2026-04-25T16:13:02.308Z</time></trkpt><trkpt lat="45.8384552" lon="11.0638317"><ele>786.9999999999999</ele><time>2026-04-25T16:13:04.284Z</time></trkpt><trkpt lat="45.8385241" lon="11.0638237"><ele>787.0</ele><time>2026-04-25T16:13:06.297Z</time></trkpt><trkpt lat="45.8386078" lon="11.0638201"><ele>785.4999999999999</ele><time>2026-04-25T16:13:09.292Z</time></trkpt><trkpt lat="45.8386814" lon="11.0638035"><ele>784.0</ele><time>2026-04-25T16:13:12.241Z</time></trkpt><trkpt lat="45.8387599" lon="11.0638025"><ele>782.5</ele><time>2026-04-25T16:13:15.297Z</time></trkpt><trkpt lat="45.8388409" lon="11.0637975"><ele>781.0</ele><time>2026-04-25T16:13:19.291Z</time></trkpt><trkpt lat="45.8389071" lon="11.0637858"><ele>779.4999999999999</ele><time>2026-04-25T16:13:22.298Z</time></trkpt><trkpt lat="45.838986" lon="11.0637527"><ele>778.0</ele><time>2026-04-25T16:13:25.292Z</time></trkpt><trkpt lat="45.8391291" lon="11.063761"><ele>778.0</ele><time>2026-04-25T16:13:27.303Z</time></trkpt><trkpt lat="45.8391937" lon="11.063744"><ele>778.0</ele><time>2026-04-25T16:13:29.263Z</time></trkpt><trkpt lat="45.8392544" lon="11.06372"><ele>778.0</ele><time>2026-04-25T16:13:31.259Z</time></trkpt><trkpt lat="45.8393241" lon="11.0636948"><ele>778.0</ele><time>2026-04-25T16:13:33.284Z</time></trkpt><trkpt lat="45.8393898" lon="11.0636707"><ele>778.0</ele><time>2026-04-25T16:13:35.261Z</time></trkpt><trkpt lat="45.8394535" lon="11.063642"><ele>778.0</ele><time>2026-04-25T16:13:37.225Z</time></trkpt><trkpt lat="45.8395285" lon="11.0636055"><ele>778.0</ele><time>2026-04-25T16:13:40.278Z</time></trkpt><trkpt lat="45.839587" lon="11.0635604"><ele>777.4285714285714</ele><time>2026-04-25T16:13:42.267Z</time></trkpt><trkpt lat="45.8396504" lon="11.0635087"><ele>776.8571428571428</ele><time>2026-04-25T16:13:44.272Z</time></trkpt><trkpt lat="45.8397045" lon="11.0634489"><ele>776.2857142857142</ele><time>2026-04-25T16:13:46.277Z</time></trkpt><trkpt lat="45.8397683" lon="11.0634019"><ele>775.7142857142858</ele><time>2026-04-25T16:13:48.23Z</time></trkpt><trkpt lat="45.8398334" lon="11.0633414"><ele>775.1428571428571</ele><time>2026-04-25T16:13:50.238Z</time></trkpt><trkpt lat="45.8398984" lon="11.0632838"><ele>774.5714285714286</ele><time>2026-04-25T16:13:52.274Z</time></trkpt><trkpt lat="45.839966" lon="11.0632437"><ele>774.0</ele><time>2026-04-25T16:13:54.273Z</time></trkpt><trkpt lat="45.8400379" lon="11.0631993"><ele>773.3333333333334</ele><time>2026-04-25T16:13:56.279Z</time></trkpt><trkpt lat="45.8401363" lon="11.06316"><ele>772.6666666666667</ele><time>2026-04-25T16:13:58.292Z</time></trkpt><trkpt lat="45.8401963" lon="11.0631178"><ele>772.0</ele><time>2026-04-25T16:14:00.272Z</time></trkpt><trkpt lat="45.8402377" lon="11.0630427"><ele>771.3333333333334</ele><time>2026-04-25T16:14:02.276Z</time></trkpt><trkpt lat="45.8403104" lon="11.0629616"><ele>770.6666666666667</ele><time>2026-04-25T16:14:04.33Z</time></trkpt><trkpt lat="45.8403791" lon="11.0628892"><ele>770.0</ele><time>2026-04-25T16:14:06.257Z</time></trkpt><trkpt lat="45.8404605" lon="11.0628153"><ele>770.0000000000001</ele><time>2026-04-25T16:14:08.299Z</time></trkpt><trkpt lat="45.8405525" lon="11.0627532"><ele>770.0</ele><time>2026-04-25T16:14:10.346Z</time></trkpt><trkpt lat="45.8405978" lon="11.0626891"><ele>770.0</ele><time>2026-04-25T16:14:11.293Z</time></trkpt><trkpt lat="45.8406517" lon="11.0626421"><ele>770.0</ele><time>2026-04-25T16:14:12.23Z</time></trkpt><trkpt lat="45.8407386" lon="11.0625728"><ele>770.0000000000001</ele><time>2026-04-25T16:14:14.34Z</time></trkpt><trkpt lat="45.8408274" lon="11.062493"><ele>770.0</ele><time>2026-04-25T16:14:16.244Z</time></trkpt><trkpt lat="45.8409466" lon="11.0623957"><ele>769.3333333333334</ele><time>2026-04-25T16:14:18.239Z</time></trkpt><trkpt lat="45.8409982" lon="11.0623417"><ele>768.6666666666667</ele><time>2026-04-25T16:14:19.289Z</time></trkpt><trkpt lat="45.8411227" lon="11.0622857"><ele>768.0</ele><time>2026-04-25T16:14:21.231Z</time></trkpt><trkpt lat="45.8411881" lon="11.062249"><ele>767.3333333333334</ele><time>2026-04-25T16:14:22.226Z</time></trkpt><trkpt lat="45.8412657" lon="11.0622014"><ele>766.6666666666667</ele><time>2026-04-25T16:14:23.348Z</time></trkpt><trkpt lat="45.8413398" lon="11.0621806"><ele>766.0</ele><time>2026-04-25T16:14:24.254Z</time></trkpt><trkpt lat="45.8414176" lon="11.0621608"><ele>766.0</ele><time>2026-04-25T16:14:25.276Z</time></trkpt><trkpt lat="45.8414784" lon="11.0621088"><ele>766.0</ele><time>2026-04-25T16:14:26.281Z</time></trkpt><trkpt lat="45.8415634" lon="11.0620915"><ele>766.0</ele><time>2026-04-25T16:14:27.278Z</time></trkpt><trkpt lat="45.8416337" lon="11.0620675"><ele>766.0</ele><time>2026-04-25T16:14:28.289Z</time></trkpt><trkpt lat="45.8417109" lon="11.0620455"><ele>766.0</ele><time>2026-04-25T16:14:29.3Z</time></trkpt><trkpt lat="45.841778" lon="11.0620218"><ele>766.0</ele><time>2026-04-25T16:14:30.302Z</time></trkpt><trkpt lat="45.8419085" lon="11.061974"><ele>764.7142857142857</ele><time>2026-04-25T16:14:32.301Z</time></trkpt><trkpt lat="45.8419715" lon="11.0619504"><ele>763.4285714285713</ele><time>2026-04-25T16:14:33.303Z</time></trkpt><trkpt lat="45.8420407" lon="11.0619193"><ele>762.1428571428571</ele><time>2026-04-25T16:14:34.262Z</time></trkpt><trkpt lat="45.8421288" lon="11.061891"><ele>760.8571428571429</ele><time>2026-04-25T16:14:35.313Z</time></trkpt><trkpt lat="45.8421909" lon="11.0618691"><ele>759.5714285714286</ele><time>2026-04-25T16:14:36.233Z</time></trkpt><trkpt lat="45.842254" lon="11.0618453"><ele>758.2857142857143</ele><time>2026-04-25T16:14:37.238Z</time></trkpt><trkpt lat="45.8423198" lon="11.0618138"><ele>757.0</ele><time>2026-04-25T16:14:38.244Z</time></trkpt><trkpt lat="45.8423782" lon="11.0617782"><ele>757.0</ele><time>2026-04-25T16:14:39.318Z</time></trkpt><trkpt lat="45.8424808" lon="11.0617366"><ele>757.0</ele><time>2026-04-25T16:14:41.246Z</time></trkpt><trkpt lat="45.8426479" lon="11.0616377"><ele>757.0</ele><time>2026-04-25T16:14:44.271Z</time></trkpt><trkpt lat="45.8427145" lon="11.0616001"><ele>757.0</ele><time>2026-04-25T16:14:45.263Z</time></trkpt><trkpt lat="45.842771" lon="11.0615421"><ele>757.0</ele><time>2026-04-25T16:14:46.272Z</time></trkpt><trkpt lat="45.8428342" lon="11.0615196"><ele>758.1666666666667</ele><time>2026-04-25T16:14:47.257Z</time></trkpt><trkpt lat="45.8428937" lon="11.06149"><ele>759.3333333333334</ele><time>2026-04-25T16:14:48.26Z</time></trkpt><trkpt lat="45.843019" lon="11.0614099"><ele>760.5</ele><time>2026-04-25T16:14:50.295Z</time></trkpt><trkpt lat="45.8431182" lon="11.0613255"><ele>761.6666666666666</ele><time>2026-04-25T16:14:52.261Z</time></trkpt><trkpt lat="45.8431775" lon="11.0612829"><ele>762.8333333333333</ele><time>2026-04-25T16:14:53.267Z</time></trkpt><trkpt lat="45.8432354" lon="11.0612463"><ele>764.0</ele><time>2026-04-25T16:14:54.344Z</time></trkpt><trkpt lat="45.8432971" lon="11.0612063"><ele>764.0</ele><time>2026-04-25T16:14:55.276Z</time></trkpt><trkpt lat="45.8433543" lon="11.0611544"><ele>764.0</ele><time>2026-04-25T16:14:56.262Z</time></trkpt><trkpt lat="45.8434158" lon="11.0611107"><ele>764.0</ele><time>2026-04-25T16:14:57.279Z</time></trkpt><trkpt lat="45.8434757" lon="11.0610495"><ele>764.0</ele><time>2026-04-25T16:14:58.275Z</time></trkpt><trkpt lat="45.8435333" lon="11.0609877"><ele>764.0</ele><time>2026-04-25T16:14:59.29Z</time></trkpt><trkpt lat="45.8435953" lon="11.0609356"><ele>764.0</ele><time>2026-04-25T16:15:00.293Z</time></trkpt><trkpt lat="45.8436672" lon="11.060881"><ele>764.0</ele><time>2026-04-25T16:15:01.254Z</time></trkpt><trkpt lat="45.8437455" lon="11.060823"><ele>764.5</ele><time>2026-04-25T16:15:02.259Z</time></trkpt><trkpt lat="45.8438201" lon="11.0607732"><ele>765.0</ele><time>2026-04-25T16:15:03.239Z</time></trkpt><trkpt lat="45.843903" lon="11.0607086"><ele>765.5</ele><time>2026-04-25T16:15:04.268Z</time></trkpt><trkpt lat="45.8439848" lon="11.0606462"><ele>766.0</ele><time>2026-04-25T16:15:05.236Z</time></trkpt><trkpt lat="45.8441522" lon="11.0605074"><ele>766.0</ele><time>2026-04-25T16:15:07.255Z</time></trkpt><trkpt lat="45.8442262" lon="11.060434"><ele>766.0</ele><time>2026-04-25T16:15:08.27Z</time></trkpt><trkpt lat="45.8443121" lon="11.060355"><ele>766.0</ele><time>2026-04-25T16:15:09.247Z</time></trkpt><trkpt lat="45.8443762" lon="11.0602497"><ele>766.0</ele><time>2026-04-25T16:15:10.277Z</time></trkpt><trkpt lat="45.8444424" lon="11.060136"><ele>766.0</ele><time>2026-04-25T16:15:11.289Z</time></trkpt><trkpt lat="45.8445031" lon="11.0600198"><ele>764.5999999999999</ele><time>2026-04-25T16:15:12.336Z</time></trkpt><trkpt lat="45.8445659" lon="11.0599067"><ele>763.2</ele><time>2026-04-25T16:15:13.297Z</time></trkpt><trkpt lat="45.8446372" lon="11.0597807"><ele>761.8</ele><time>2026-04-25T16:15:14.282Z</time></trkpt><trkpt lat="45.8447109" lon="11.0596611"><ele>760.4000000000001</ele><time>2026-04-25T16:15:15.3Z</time></trkpt><trkpt lat="45.8447914" lon="11.0595605"><ele>759.0</ele><time>2026-04-25T16:15:16.277Z</time></trkpt><trkpt lat="45.8448926" lon="11.0594637"><ele>759.0</ele><time>2026-04-25T16:15:17.342Z</time></trkpt><trkpt lat="45.8449952" lon="11.0594008"><ele>759.0</ele><time>2026-04-25T16:15:18.294Z</time></trkpt><trkpt lat="45.8451011" lon="11.0593761"><ele>759.0</ele><time>2026-04-25T16:15:19.277Z</time></trkpt><trkpt lat="45.8452033" lon="11.0593548"><ele>759.0</ele><time>2026-04-25T16:15:20.255Z</time></trkpt><trkpt lat="45.8452961" lon="11.0593167"><ele>759.0</ele><time>2026-04-25T16:15:21.245Z</time></trkpt><trkpt lat="45.8453995" lon="11.0592733"><ele>758.0</ele><time>2026-04-25T16:15:22.275Z</time></trkpt><trkpt lat="45.8455024" lon="11.0592318"><ele>757.0</ele><time>2026-04-25T16:15:23.261Z</time></trkpt><trkpt lat="45.8455929" lon="11.0592017"><ele>756.0</ele><time>2026-04-25T16:15:24.279Z</time></trkpt><trkpt lat="45.8456771" lon="11.0591241"><ele>755.0</ele><time>2026-04-25T16:15:25.297Z</time></trkpt><trkpt lat="45.8457585" lon="11.0591195"><ele>754.0</ele><time>2026-04-25T16:15:26.288Z</time></trkpt><trkpt lat="45.8458486" lon="11.0590836"><ele>756.0</ele><time>2026-04-25T16:15:27.249Z</time></trkpt><trkpt lat="45.8459361" lon="11.0590761"><ele>758.0</ele><time>2026-04-25T16:15:28.27Z</time></trkpt><trkpt lat="45.8460482" lon="11.0590807"><ele>760.0</ele><time>2026-04-25T16:15:29.27Z</time></trkpt><trkpt lat="45.8461297" lon="11.0590941"><ele>762.0</ele><time>2026-04-25T16:15:30.257Z</time></trkpt><trkpt lat="45.8462054" lon="11.0591209"><ele>764.0</ele><time>2026-04-25T16:15:31.237Z</time></trkpt><trkpt lat="45.8462717" lon="11.0591704"><ele>766.0</ele><time>2026-04-25T16:15:32.233Z</time></trkpt><trkpt lat="45.8463346" lon="11.0592224"><ele>766.0</ele><time>2026-04-25T16:15:33.225Z</time></trkpt><trkpt lat="45.8464002" lon="11.0592761"><ele>766.0</ele><time>2026-04-25T16:15:34.221Z</time></trkpt><trkpt lat="45.8464658" lon="11.0592996"><ele>766.0</ele><time>2026-04-25T16:15:35.222Z</time></trkpt><trkpt lat="45.8465828" lon="11.0593659"><ele>766.0</ele><time>2026-04-25T16:15:37.232Z</time></trkpt><trkpt lat="45.8466416" lon="11.059419"><ele>766.0</ele><time>2026-04-25T16:15:38.236Z</time></trkpt><trkpt lat="45.846705" lon="11.0594643"><ele>766.0</ele><time>2026-04-25T16:15:39.23Z</time></trkpt><trkpt lat="45.8467773" lon="11.0595004"><ele>762.8333333333334</ele><time>2026-04-25T16:15:40.227Z</time></trkpt><trkpt lat="45.8468394" lon="11.0595206"><ele>759.6666666666667</ele><time>2026-04-25T16:15:41.234Z</time></trkpt><trkpt lat="45.8468996" lon="11.0595599"><ele>756.5</ele><time>2026-04-25T16:15:42.237Z</time></trkpt><trkpt lat="45.8470246" lon="11.0595637"><ele>753.3333333333334</ele><time>2026-04-25T16:15:44.234Z</time></trkpt><trkpt lat="45.847089" lon="11.0595701"><ele>750.1666666666666</ele><time>2026-04-25T16:15:45.232Z</time></trkpt><trkpt lat="45.8471585" lon="11.0595376"><ele>747.0</ele><time>2026-04-25T16:15:46.234Z</time></trkpt><trkpt lat="45.8472742" lon="11.059463"><ele>747.0</ele><time>2026-04-25T16:15:48.237Z</time></trkpt><trkpt lat="45.8473446" lon="11.0594044"><ele>747.0</ele><time>2026-04-25T16:15:49.229Z</time></trkpt><trkpt lat="45.8474076" lon="11.0594021"><ele>747.0</ele><time>2026-04-25T16:15:50.23Z</time></trkpt><trkpt lat="45.8474562" lon="11.0593408"><ele>747.0</ele><time>2026-04-25T16:15:51.23Z</time></trkpt><trkpt lat="45.8475219" lon="11.0593065"><ele>747.0</ele><time>2026-04-25T16:15:52.228Z</time></trkpt><trkpt lat="45.8476356" lon="11.0592547"><ele>747.0</ele><time>2026-04-25T16:15:54.231Z</time></trkpt><trkpt lat="45.8476947" lon="11.0592165"><ele>744.5</ele><time>2026-04-25T16:15:55.232Z</time></trkpt><trkpt lat="45.8477677" lon="11.0591743"><ele>742.0</ele><time>2026-04-25T16:15:56.231Z</time></trkpt><trkpt lat="45.8478292" lon="11.059135"><ele>739.5</ele><time>2026-04-25T16:15:57.238Z</time></trkpt><trkpt lat="45.8478896" lon="11.0590869"><ele>737.0</ele><time>2026-04-25T16:15:58.238Z</time></trkpt><trkpt lat="45.8479896" lon="11.0590183"><ele>734.5</ele><time>2026-04-25T16:16:00.236Z</time></trkpt><trkpt lat="45.84805" lon="11.0589872"><ele>732.0</ele><time>2026-04-25T16:16:01.241Z</time></trkpt><trkpt lat="45.8481208" lon="11.0589799"><ele>736.8333333333334</ele><time>2026-04-25T16:16:02.25Z</time></trkpt><trkpt lat="45.8482173" lon="11.0589778"><ele>741.6666666666666</ele><time>2026-04-25T16:16:04.226Z</time></trkpt><trkpt lat="45.8482867" lon="11.0589439"><ele>746.5</ele><time>2026-04-25T16:16:05.233Z</time></trkpt><trkpt lat="45.8483624" lon="11.0589384"><ele>751.3333333333333</ele><time>2026-04-25T16:16:06.234Z</time></trkpt><trkpt lat="45.8484465" lon="11.0589312"><ele>756.1666666666666</ele><time>2026-04-25T16:16:08.318Z</time></trkpt><trkpt lat="45.8485344" lon="11.0589441"><ele>761.0</ele><time>2026-04-25T16:16:10.328Z</time></trkpt><trkpt lat="45.8486385" lon="11.0589457"><ele>761.0</ele><time>2026-04-25T16:16:12.338Z</time></trkpt><trkpt lat="45.8487295" lon="11.0589193"><ele>761.0</ele><time>2026-04-25T16:16:14.228Z</time></trkpt><trkpt lat="45.8488276" lon="11.0589191"><ele>761.0</ele><time>2026-04-25T16:16:16.236Z</time></trkpt><trkpt lat="45.8489221" lon="11.0589066"><ele>761.0</ele><time>2026-04-25T16:16:19.087Z</time></trkpt><trkpt lat="45.8490124" lon="11.0588538"><ele>761.0</ele><time>2026-04-25T16:16:20.318Z</time></trkpt><trkpt lat="45.8490758" lon="11.0588401"><ele>761.0</ele><time>2026-04-25T16:16:21.274Z</time></trkpt><trkpt lat="45.8491839" lon="11.0587943"><ele>761.0</ele><time>2026-04-25T16:16:23.253Z</time></trkpt><trkpt lat="45.8492508" lon="11.0587753"><ele>761.0</ele><time>2026-04-25T16:16:24.238Z</time></trkpt><trkpt lat="45.849363" lon="11.0587399"><ele>761.0</ele><time>2026-04-25T16:16:26.238Z</time></trkpt><trkpt lat="45.8494278" lon="11.0587102"><ele>761.0</ele><time>2026-04-25T16:16:27.272Z</time></trkpt><trkpt lat="45.8495327" lon="11.0586548"><ele>761.0</ele><time>2026-04-25T16:16:29.285Z</time></trkpt><trkpt lat="45.8496533" lon="11.0586645"><ele>761.4</ele><time>2026-04-25T16:16:31.282Z</time></trkpt><trkpt lat="45.8497855" lon="11.0586639"><ele>761.8</ele><time>2026-04-25T16:16:33.261Z</time></trkpt><trkpt lat="45.8498629" lon="11.0586568"><ele>762.1999999999999</ele><time>2026-04-25T16:16:34.264Z</time></trkpt><trkpt lat="45.8499295" lon="11.0586749"><ele>762.5999999999999</ele><time>2026-04-25T16:16:35.237Z</time></trkpt><trkpt lat="45.8500493" lon="11.058724"><ele>763.0</ele><time>2026-04-25T16:16:37.24Z</time></trkpt><trkpt lat="45.8501766" lon="11.0587719"><ele>764.25</ele><time>2026-04-25T16:16:39.242Z</time></trkpt><trkpt lat="45.8503084" lon="11.0587695"><ele>765.5</ele><time>2026-04-25T16:16:41.245Z</time></trkpt><trkpt lat="45.8504277" lon="11.0587897"><ele>766.75</ele><time>2026-04-25T16:16:43.239Z</time></trkpt><trkpt lat="45.850526" lon="11.0587859"><ele>768.0</ele><time>2026-04-25T16:16:45.237Z</time></trkpt><trkpt lat="45.850643" lon="11.058822"><ele>768.0</ele><time>2026-04-25T16:16:47.269Z</time></trkpt><trkpt lat="45.8507111" lon="11.0588372"><ele>768.0</ele><time>2026-04-25T16:16:48.233Z</time></trkpt><trkpt lat="45.8508856" lon="11.0589003"><ele>768.0</ele><time>2026-04-25T16:16:51.262Z</time></trkpt><trkpt lat="45.8509868" lon="11.0589209"><ele>768.0</ele><time>2026-04-25T16:16:53.237Z</time></trkpt><trkpt lat="45.8510533" lon="11.0589417"><ele>768.0</ele><time>2026-04-25T16:16:54.231Z</time></trkpt><trkpt lat="45.8511697" lon="11.0589654"><ele>769.0</ele><time>2026-04-25T16:16:56.224Z</time></trkpt><trkpt lat="45.851237" lon="11.0589877"><ele>770.0</ele><time>2026-04-25T16:16:57.225Z</time></trkpt><trkpt lat="45.8512988" lon="11.0590053"><ele>771.0</ele><time>2026-04-25T16:16:58.228Z</time></trkpt><trkpt lat="45.8513715" lon="11.0590074"><ele>772.0</ele><time>2026-04-25T16:16:59.241Z</time></trkpt><trkpt lat="45.851507" lon="11.0590132"><ele>773.0</ele><time>2026-04-25T16:17:01.235Z</time></trkpt><trkpt lat="45.8515718" lon="11.0590454"><ele>774.0</ele><time>2026-04-25T16:17:02.236Z</time></trkpt><trkpt lat="45.8516479" lon="11.0590764"><ele>774.0</ele><time>2026-04-25T16:17:03.236Z</time></trkpt><trkpt lat="45.8517677" lon="11.0591162"><ele>774.0</ele><time>2026-04-25T16:17:05.227Z</time></trkpt><trkpt lat="45.8518304" lon="11.0591354"><ele>774.0</ele><time>2026-04-25T16:17:06.238Z</time></trkpt><trkpt lat="45.8519099" lon="11.0591511"><ele>774.0</ele><time>2026-04-25T16:17:07.232Z</time></trkpt><trkpt lat="45.8519713" lon="11.0591733"><ele>774.0</ele><time>2026-04-25T16:17:08.232Z</time></trkpt><trkpt lat="45.852099" lon="11.0592305"><ele>768.5</ele><time>2026-04-25T16:17:10.235Z</time></trkpt><trkpt lat="45.8521692" lon="11.0592572"><ele>763.0</ele><time>2026-04-25T16:17:11.217Z</time></trkpt><trkpt lat="45.852238" lon="11.0592677"><ele>757.5</ele><time>2026-04-25T16:17:12.235Z</time></trkpt><trkpt lat="45.8523198" lon="11.0592859"><ele>752.0</ele><time>2026-04-25T16:17:13.24Z</time></trkpt><trkpt lat="45.8523978" lon="11.0593145"><ele>746.5</ele><time>2026-04-25T16:17:14.237Z</time></trkpt><trkpt lat="45.8524788" lon="11.0593412"><ele>741.0</ele><time>2026-04-25T16:17:15.262Z</time></trkpt><trkpt lat="45.8525578" lon="11.0593781"><ele>741.8333333333334</ele><time>2026-04-25T16:17:16.228Z</time></trkpt><trkpt lat="45.8526322" lon="11.0594034"><ele>742.6666666666666</ele><time>2026-04-25T16:17:17.234Z</time></trkpt><trkpt lat="45.8527138" lon="11.0594283"><ele>743.5</ele><time>2026-04-25T16:17:18.239Z</time></trkpt><trkpt lat="45.8527957" lon="11.0594566"><ele>744.3333333333333</ele><time>2026-04-25T16:17:19.242Z</time></trkpt><trkpt lat="45.8528845" lon="11.0594864"><ele>745.1666666666666</ele><time>2026-04-25T16:17:20.237Z</time></trkpt><trkpt lat="45.8529718" lon="11.0595155"><ele>746.0</ele><time>2026-04-25T16:17:21.246Z</time></trkpt><trkpt lat="45.8530641" lon="11.059551"><ele>746.0</ele><time>2026-04-25T16:17:22.236Z</time></trkpt><trkpt lat="45.8531555" lon="11.0595769"><ele>746.0</ele><time>2026-04-25T16:17:23.237Z</time></trkpt><trkpt lat="45.8532516" lon="11.0596045"><ele>746.0</ele><time>2026-04-25T16:17:24.243Z</time></trkpt><trkpt lat="45.8533435" lon="11.0596401"><ele>746.0</ele><time>2026-04-25T16:17:25.232Z</time></trkpt><trkpt lat="45.8534417" lon="11.0596739"><ele>746.0</ele><time>2026-04-25T16:17:26.221Z</time></trkpt><trkpt lat="45.8535463" lon="11.0597093"><ele>746.4</ele><time>2026-04-25T16:17:27.242Z</time></trkpt><trkpt lat="45.8536542" lon="11.0597288"><ele>746.8</ele><time>2026-04-25T16:17:28.236Z</time></trkpt><trkpt lat="45.8537585" lon="11.059775"><ele>747.1999999999999</ele><time>2026-04-25T16:17:29.258Z</time></trkpt><trkpt lat="45.8538636" lon="11.0598177"><ele>747.5999999999999</ele><time>2026-04-25T16:17:30.256Z</time></trkpt><trkpt lat="45.8539777" lon="11.0598511"><ele>748.0</ele><time>2026-04-25T16:17:31.277Z</time></trkpt><trkpt lat="45.8540931" lon="11.0598779"><ele>748.0</ele><time>2026-04-25T16:17:32.256Z</time></trkpt><trkpt lat="45.8542105" lon="11.0599021"><ele>748.0</ele><time>2026-04-25T16:17:33.261Z</time></trkpt><trkpt lat="45.8543315" lon="11.0599297"><ele>748.0</ele><time>2026-04-25T16:17:34.272Z</time></trkpt><trkpt lat="45.8544526" lon="11.0599426"><ele>748.0</ele><time>2026-04-25T16:17:35.249Z</time></trkpt><trkpt lat="45.8545775" lon="11.0599584"><ele>740.75</ele><time>2026-04-25T16:17:36.246Z</time></trkpt><trkpt lat="45.8547054" lon="11.059974"><ele>733.5</ele><time>2026-04-25T16:17:37.258Z</time></trkpt><trkpt lat="45.8548254" lon="11.0599925"><ele>726.25</ele><time>2026-04-25T16:17:38.265Z</time></trkpt><trkpt lat="45.8549531" lon="11.060021"><ele>719.0</ele><time>2026-04-25T16:17:39.27Z</time></trkpt><trkpt lat="45.8550806" lon="11.0600613"><ele>718.5</ele><time>2026-04-25T16:17:40.281Z</time></trkpt><trkpt lat="45.8551981" lon="11.0601005"><ele>718.0</ele><time>2026-04-25T16:17:41.239Z</time></trkpt><trkpt lat="45.8553131" lon="11.0601379"><ele>717.5</ele><time>2026-04-25T16:17:42.246Z</time></trkpt><trkpt lat="45.8554181" lon="11.0601591"><ele>717.0</ele><time>2026-04-25T16:17:43.286Z</time></trkpt><trkpt lat="45.8555357" lon="11.0601833"><ele>717.0</ele><time>2026-04-25T16:17:44.274Z</time></trkpt><trkpt lat="45.855645" lon="11.0602197"><ele>717.0</ele><time>2026-04-25T16:17:45.295Z</time></trkpt><trkpt lat="45.8557392" lon="11.0602851"><ele>717.0</ele><time>2026-04-25T16:17:46.261Z</time></trkpt><trkpt lat="45.8558479" lon="11.0603616"><ele>717.0</ele><time>2026-04-25T16:17:47.264Z</time></trkpt><trkpt lat="45.8559309" lon="11.0604252"><ele>717.0</ele><time>2026-04-25T16:17:48.342Z</time></trkpt><trkpt lat="45.8560045" lon="11.0604948"><ele>718.0</ele><time>2026-04-25T16:17:49.273Z</time></trkpt><trkpt lat="45.8560639" lon="11.0605555"><ele>719.0</ele><time>2026-04-25T16:17:50.269Z</time></trkpt><trkpt lat="45.8561515" lon="11.0606859"><ele>720.0</ele><time>2026-04-25T16:17:53.292Z</time></trkpt><trkpt lat="45.8561212" lon="11.0607815"><ele>721.0</ele><time>2026-04-25T16:17:57.286Z</time></trkpt><trkpt lat="45.8561171" lon="11.0608826"><ele>722.0</ele><time>2026-04-25T16:18:00.245Z</time></trkpt><trkpt lat="45.8561075" lon="11.0609913"><ele>723.0</ele><time>2026-04-25T16:18:04.296Z</time></trkpt><trkpt lat="45.8561552" lon="11.0609173"><ele>723.0000000000001</ele><time>2026-04-25T16:18:10.293Z</time></trkpt><trkpt lat="45.856172" lon="11.0608103"><ele>723.0</ele><time>2026-04-25T16:18:13.307Z</time></trkpt><trkpt lat="45.8562412" lon="11.0607921"><ele>723.0</ele><time>2026-04-25T16:19:11.243Z</time></trkpt><trkpt lat="45.8563048" lon="11.0608013"><ele>723.0</ele><time>2026-04-25T16:19:19.25Z</time></trkpt><trkpt lat="45.8563295" lon="11.060703"><ele>723.0</ele><time>2026-04-25T16:19:27.27Z</time></trkpt><trkpt lat="45.8563644" lon="11.0605912"><ele>723.0000000000001</ele><time>2026-04-25T16:19:31.284Z</time></trkpt><trkpt lat="45.8564053" lon="11.0604991"><ele>723.0</ele><time>2026-04-25T16:19:35.29Z</time></trkpt><trkpt lat="45.8564548" lon="11.0604323"><ele>723.0</ele><time>2026-04-25T16:19:38.258Z</time></trkpt><trkpt lat="45.8565058" lon="11.0603617"><ele>723.0</ele><time>2026-04-25T16:19:43.29Z</time></trkpt><trkpt lat="45.8565745" lon="11.0603298"><ele>723.0</ele><time>2026-04-25T16:19:47.231Z</time></trkpt><trkpt lat="45.8566339" lon="11.0602757"><ele>723.0</ele><time>2026-04-25T16:19:52.237Z</time></trkpt><trkpt lat="45.8566973" lon="11.0602583"><ele>723.0</ele><time>2026-04-25T16:19:56.254Z</time></trkpt><trkpt lat="45.8567998" lon="11.0602626"><ele>723.0</ele><time>2026-04-25T16:20:02.235Z</time></trkpt><trkpt lat="45.8568765" lon="11.0602695"><ele>724.8333333333334</ele><time>2026-04-25T16:20:06.298Z</time></trkpt><trkpt lat="45.8569523" lon="11.0602777"><ele>726.6666666666666</ele><time>2026-04-25T16:20:11.269Z</time></trkpt><trkpt lat="45.8570276" lon="11.0602812"><ele>728.5</ele><time>2026-04-25T16:20:15.269Z</time></trkpt><trkpt lat="45.8570938" lon="11.060284"><ele>730.3333333333333</ele><time>2026-04-25T16:20:19.346Z</time></trkpt><trkpt lat="45.8571589" lon="11.060292"><ele>732.1666666666666</ele><time>2026-04-25T16:20:23.287Z</time></trkpt><trkpt lat="45.8572428" lon="11.0603316"><ele>734.0</ele><time>2026-04-25T16:20:30.286Z</time></trkpt><trkpt lat="45.8573287" lon="11.0603565"><ele>734.0</ele><time>2026-04-25T16:20:35.28Z</time></trkpt><trkpt lat="45.8574231" lon="11.0603777"><ele>734.0</ele><time>2026-04-25T16:20:40.264Z</time></trkpt><trkpt lat="45.8575484" lon="11.0603819"><ele>734.0</ele><time>2026-04-25T16:20:47.288Z</time></trkpt><trkpt lat="45.8576121" lon="11.0604031"><ele>734.0</ele><time>2026-04-25T16:20:51.276Z</time></trkpt><trkpt lat="45.8576788" lon="11.0604176"><ele>734.0</ele><time>2026-04-25T16:20:55.236Z</time></trkpt><trkpt lat="45.8577474" lon="11.0604394"><ele>734.0</ele><time>2026-04-25T16:20:59.289Z</time></trkpt><trkpt lat="45.8578129" lon="11.0604574"><ele>735.2</ele><time>2026-04-25T16:21:03.251Z</time></trkpt><trkpt lat="45.8578776" lon="11.0604601"><ele>736.4000000000001</ele><time>2026-04-25T16:21:07.23Z</time></trkpt><trkpt lat="45.857948" lon="11.0604381"><ele>737.6</ele><time>2026-04-25T16:21:12.274Z</time></trkpt><trkpt lat="45.8580154" lon="11.0604535"><ele>738.8</ele><time>2026-04-25T16:21:17.258Z</time></trkpt><trkpt lat="45.8581005" lon="11.0604807"><ele>740.0</ele><time>2026-04-25T16:21:23.267Z</time></trkpt><trkpt lat="45.8583158" lon="11.0604922"><ele>739.9999999999999</ele><time>2026-04-25T16:21:36.807Z</time></trkpt><trkpt lat="45.8583982" lon="11.0604913"><ele>740.0</ele><time>2026-04-25T16:21:40.277Z</time></trkpt><trkpt lat="45.8584708" lon="11.0604513"><ele>740.0</ele><time>2026-04-25T16:21:44.339Z</time></trkpt><trkpt lat="45.8585417" lon="11.0604308"><ele>740.0</ele><time>2026-04-25T16:21:48.296Z</time></trkpt><trkpt lat="45.8586081" lon="11.0603826"><ele>740.0</ele><time>2026-04-25T16:21:52.289Z</time></trkpt><trkpt lat="45.8586743" lon="11.0603237"><ele>739.9999999999999</ele><time>2026-04-25T16:21:56.289Z</time></trkpt><trkpt lat="45.8587334" lon="11.0602881"><ele>740.0</ele><time>2026-04-25T16:21:59.286Z</time></trkpt><trkpt lat="45.8588035" lon="11.0602458"><ele>739.2857142857142</ele><time>2026-04-25T16:22:02.323Z</time></trkpt><trkpt lat="45.8588689" lon="11.0602486"><ele>738.5714285714286</ele><time>2026-04-25T16:22:08.225Z</time></trkpt><trkpt lat="45.8589463" lon="11.0602202"><ele>737.8571428571429</ele><time>2026-04-25T16:22:12.269Z</time></trkpt><trkpt lat="45.8590056" lon="11.0601879"><ele>737.1428571428571</ele><time>2026-04-25T16:22:15.3Z</time></trkpt><trkpt lat="45.8590793" lon="11.0601554"><ele>736.4285714285714</ele><time>2026-04-25T16:22:19.308Z</time></trkpt><trkpt lat="45.8591545" lon="11.0601108"><ele>735.7142857142857</ele><time>2026-04-25T16:22:23.266Z</time></trkpt><trkpt lat="45.8592196" lon="11.0600643"><ele>735.0</ele><time>2026-04-25T16:22:26.238Z</time></trkpt><trkpt lat="45.8592777" lon="11.0600155"><ele>735.2857142857143</ele><time>2026-04-25T16:22:29.301Z</time></trkpt><trkpt lat="45.8593344" lon="11.0599654"><ele>735.5714285714286</ele><time>2026-04-25T16:22:32.3Z</time></trkpt><trkpt lat="45.8593859" lon="11.0598966"><ele>735.8571428571429</ele><time>2026-04-25T16:22:35.296Z</time></trkpt><trkpt lat="45.859439" lon="11.0598224"><ele>736.1428571428571</ele><time>2026-04-25T16:22:39.279Z</time></trkpt><trkpt lat="45.8594566" lon="11.0597284"><ele>736.4285714285714</ele><time>2026-04-25T16:22:43.283Z</time></trkpt><trkpt lat="45.8594896" lon="11.0596247"><ele>736.7142857142858</ele><time>2026-04-25T16:22:48.243Z</time></trkpt><trkpt lat="45.8595647" lon="11.0596598"><ele>737.0</ele><time>2026-04-25T16:22:52.306Z</time></trkpt><trkpt lat="45.8596193" lon="11.0597324"><ele>733.8</ele><time>2026-04-25T16:40:54.235Z</time></trkpt><trkpt lat="45.859702" lon="11.0596832"><ele>730.6</ele><time>2026-04-25T16:40:56.284Z</time></trkpt><trkpt lat="45.8597897" lon="11.0595798"><ele>727.4</ele><time>2026-04-25T16:40:58.235Z</time></trkpt><trkpt lat="45.8598354" lon="11.059511"><ele>724.1999999999999</ele><time>2026-04-25T16:40:59.246Z</time></trkpt><trkpt lat="45.8599143" lon="11.0594482"><ele>721.0</ele><time>2026-04-25T16:41:01.305Z</time></trkpt><trkpt lat="45.8600553" lon="11.0594751"><ele>718.4</ele><time>2026-04-25T16:41:03.306Z</time></trkpt><trkpt lat="45.860175" lon="11.0595052"><ele>715.8</ele><time>2026-04-25T16:41:05.246Z</time></trkpt><trkpt lat="45.8602899" lon="11.0595539"><ele>713.1999999999999</ele><time>2026-04-25T16:41:07.244Z</time></trkpt><trkpt lat="45.8603588" lon="11.0595993"><ele>710.5999999999999</ele><time>2026-04-25T16:41:09.294Z</time></trkpt><trkpt lat="45.8604471" lon="11.0596367"><ele>708.0</ele><time>2026-04-25T16:41:12.235Z</time></trkpt><trkpt lat="45.8605132" lon="11.0597024"><ele>708.0</ele><time>2026-04-25T16:41:14.237Z</time></trkpt><trkpt lat="45.8605748" lon="11.0597513"><ele>708.0</ele><time>2026-04-25T16:41:15.287Z</time></trkpt><trkpt lat="45.8606651" lon="11.0597816"><ele>708.0</ele><time>2026-04-25T16:41:17.257Z</time></trkpt><trkpt lat="45.8607506" lon="11.0598196"><ele>708.0</ele><time>2026-04-25T16:41:19.31Z</time></trkpt><trkpt lat="45.8608366" lon="11.0598313"><ele>708.0</ele><time>2026-04-25T16:41:21.235Z</time></trkpt><trkpt lat="45.8609305" lon="11.0598166"><ele>708.0</ele><time>2026-04-25T16:41:23.235Z</time></trkpt><trkpt lat="45.861025" lon="11.0598105"><ele>704.8</ele><time>2026-04-25T16:41:25.251Z</time></trkpt><trkpt lat="45.8611359" lon="11.059823"><ele>701.5999999999999</ele><time>2026-04-25T16:41:27.27Z</time></trkpt><trkpt lat="45.8612012" lon="11.0598249"><ele>698.4000000000001</ele><time>2026-04-25T16:41:28.278Z</time></trkpt><trkpt lat="45.8612705" lon="11.0598516"><ele>695.2</ele><time>2026-04-25T16:41:29.242Z</time></trkpt><trkpt lat="45.861407" lon="11.0598888"><ele>692.0</ele><time>2026-04-25T16:41:31.284Z</time></trkpt><trkpt lat="45.8614859" lon="11.059899"><ele>692.0</ele><time>2026-04-25T16:41:32.272Z</time></trkpt><trkpt lat="45.8615549" lon="11.0599142"><ele>692.0</ele><time>2026-04-25T16:41:33.279Z</time></trkpt><trkpt lat="45.8616194" lon="11.0599402"><ele>692.0</ele><time>2026-04-25T16:41:34.282Z</time></trkpt><trkpt lat="45.8616808" lon="11.0599641"><ele>692.0</ele><time>2026-04-25T16:41:35.235Z</time></trkpt><trkpt lat="45.8617505" lon="11.0600142"><ele>692.0</ele><time>2026-04-25T16:41:36.286Z</time></trkpt><trkpt lat="45.8618139" lon="11.0600706"><ele>692.0</ele><time>2026-04-25T16:41:37.267Z</time></trkpt><trkpt lat="45.8618509" lon="11.0601464"><ele>692.0</ele><time>2026-04-25T16:41:38.29Z</time></trkpt><trkpt lat="45.8619398" lon="11.0602248"><ele>696.8333333333333</ele><time>2026-04-25T16:41:40.298Z</time></trkpt><trkpt lat="45.8620241" lon="11.0602676"><ele>701.6666666666666</ele><time>2026-04-25T16:41:42.278Z</time></trkpt><trkpt lat="45.8620881" lon="11.0603509"><ele>706.5</ele><time>2026-04-25T16:41:44.229Z</time></trkpt><trkpt lat="45.8621574" lon="11.06036"><ele>711.3333333333334</ele><time>2026-04-25T16:41:47.236Z</time></trkpt><trkpt lat="45.8621763" lon="11.0602637"><ele>716.1666666666667</ele><time>2026-04-25T16:41:50.229Z</time></trkpt><trkpt lat="45.8622033" lon="11.0601098"><ele>721.0</ele><time>2026-04-25T16:42:16.245Z</time></trkpt><trkpt lat="45.8622291" lon="11.0600135"><ele>720.6666666666667</ele><time>2026-04-25T16:42:19.231Z</time></trkpt><trkpt lat="45.8622054" lon="11.0599257"><ele>720.3333333333334</ele><time>2026-04-25T16:42:21.271Z</time></trkpt><trkpt lat="45.8621839" lon="11.0598394"><ele>720.0</ele><time>2026-04-25T16:42:23.235Z</time></trkpt><trkpt lat="45.8621604" lon="11.0597404"><ele>719.6666666666666</ele><time>2026-04-25T16:42:25.235Z</time></trkpt><trkpt lat="45.8621211" lon="11.0596279"><ele>719.3333333333333</ele><time>2026-04-25T16:42:27.23Z</time></trkpt><trkpt lat="45.8620714" lon="11.0594234"><ele>719.0</ele><time>2026-04-25T16:42:29.284Z</time></trkpt><trkpt lat="45.8620396" lon="11.0592667"><ele>719.0</ele><time>2026-04-25T16:42:31.267Z</time></trkpt><trkpt lat="45.8620775" lon="11.0591941"><ele>719.0</ele><time>2026-04-25T16:42:32.234Z</time></trkpt><trkpt lat="45.8620577" lon="11.0591033"><ele>719.0</ele><time>2026-04-25T16:42:33.233Z</time></trkpt><trkpt lat="45.861984" lon="11.0589772"><ele>719.0</ele><time>2026-04-25T16:42:35.235Z</time></trkpt><trkpt lat="45.8619448" lon="11.0588549"><ele>719.0</ele><time>2026-04-25T16:42:37.23Z</time></trkpt><trkpt lat="45.8619334" lon="11.0587289"><ele>719.0</ele><time>2026-04-25T16:42:38.236Z</time></trkpt><trkpt lat="45.861946" lon="11.0586303"><ele>718.3333333333333</ele><time>2026-04-25T16:42:39.235Z</time></trkpt><trkpt lat="45.8619237" lon="11.0585301"><ele>717.6666666666666</ele><time>2026-04-25T16:42:40.241Z</time></trkpt><trkpt lat="45.8619115" lon="11.0584313"><ele>717.0</ele><time>2026-04-25T16:42:41.355Z</time></trkpt><trkpt lat="45.8619094" lon="11.0583376"><ele>716.3333333333334</ele><time>2026-04-25T16:42:42.293Z</time></trkpt><trkpt lat="45.861922" lon="11.0582396"><ele>715.6666666666667</ele><time>2026-04-25T16:42:43.354Z</time></trkpt><trkpt lat="45.8618985" lon="11.0580481"><ele>715.0</ele><time>2026-04-25T16:42:45.289Z</time></trkpt><trkpt lat="45.8618865" lon="11.0579352"><ele>713.5</ele><time>2026-04-25T16:42:46.292Z</time></trkpt><trkpt lat="45.861852" lon="11.0578389"><ele>712.0</ele><time>2026-04-25T16:42:47.285Z</time></trkpt><trkpt lat="45.8618658" lon="11.0577286"><ele>710.5</ele><time>2026-04-25T16:42:48.287Z</time></trkpt><trkpt lat="45.8618386" lon="11.0575508"><ele>709.0</ele><time>2026-04-25T16:42:50.235Z</time></trkpt><trkpt lat="45.8618425" lon="11.0574334"><ele>707.5</ele><time>2026-04-25T16:42:51.234Z</time></trkpt><trkpt lat="45.8618349" lon="11.0573294"><ele>706.0</ele><time>2026-04-25T16:42:52.287Z</time></trkpt><trkpt lat="45.8618064" lon="11.0572022"><ele>703.8333333333334</ele><time>2026-04-25T16:42:53.285Z</time></trkpt><trkpt lat="45.8617954" lon="11.0570863"><ele>701.6666666666667</ele><time>2026-04-25T16:42:54.284Z</time></trkpt><trkpt lat="45.8618017" lon="11.0569162"><ele>699.5</ele><time>2026-04-25T16:42:56.286Z</time></trkpt><trkpt lat="45.861802" lon="11.0568233"><ele>697.3333333333334</ele><time>2026-04-25T16:42:57.288Z</time></trkpt><trkpt lat="45.8617833" lon="11.0567178"><ele>695.1666666666666</ele><time>2026-04-25T16:42:58.28Z</time></trkpt><trkpt lat="45.8617801" lon="11.0565986"><ele>693.0</ele><time>2026-04-25T16:43:00.272Z</time></trkpt><trkpt lat="45.8617879" lon="11.0564905"><ele>691.2</ele><time>2026-04-25T16:43:02.226Z</time></trkpt><trkpt lat="45.8618377" lon="11.0563416"><ele>689.4</ele><time>2026-04-25T16:43:04.308Z</time></trkpt><trkpt lat="45.8618375" lon="11.0561822"><ele>687.6</ele><time>2026-04-25T16:43:06.279Z</time></trkpt><trkpt lat="45.8618463" lon="11.0560541"><ele>685.8000000000001</ele><time>2026-04-25T16:43:08.255Z</time></trkpt><trkpt lat="45.8618381" lon="11.0559132"><ele>684.0</ele><time>2026-04-25T16:43:10.278Z</time></trkpt><trkpt lat="45.8618236" lon="11.0558245"><ele>682.0</ele><time>2026-04-25T16:43:11.246Z</time></trkpt><trkpt lat="45.8617942" lon="11.0556984"><ele>680.0</ele><time>2026-04-25T16:43:13.269Z</time></trkpt><trkpt lat="45.8617684" lon="11.0555536"><ele>678.0</ele><time>2026-04-25T16:43:15.224Z</time></trkpt><trkpt lat="45.8617402" lon="11.0554192"><ele>676.0</ele><time>2026-04-25T16:43:17.244Z</time></trkpt><trkpt lat="45.8617102" lon="11.0553063"><ele>674.0</ele><time>2026-04-25T16:43:20.306Z</time></trkpt><trkpt lat="45.8616799" lon="11.0551783"><ele>672.1666666666666</ele><time>2026-04-25T16:43:23.227Z</time></trkpt><trkpt lat="45.8616463" lon="11.0550911"><ele>670.3333333333333</ele><time>2026-04-25T16:43:25.228Z</time></trkpt><trkpt lat="45.861617" lon="11.0549917"><ele>668.5</ele><time>2026-04-25T16:43:27.25Z</time></trkpt><trkpt lat="45.8615849" lon="11.0548912"><ele>666.6666666666666</ele><time>2026-04-25T16:43:30.291Z</time></trkpt><trkpt lat="45.86154" lon="11.054777"><ele>664.8333333333334</ele><time>2026-04-25T16:43:33.234Z</time></trkpt><trkpt lat="45.8615057" lon="11.0546861"><ele>663.0</ele><time>2026-04-25T16:43:36.284Z</time></trkpt><trkpt lat="45.8615185" lon="11.0545864"><ele>660.9999999999999</ele><time>2026-04-25T16:43:40.231Z</time></trkpt><trkpt lat="45.861554" lon="11.0545117"><ele>659.0</ele><time>2026-04-25T16:43:43.242Z</time></trkpt><trkpt lat="45.8616079" lon="11.0544455"><ele>657.0</ele><time>2026-04-25T16:43:47.238Z</time></trkpt><trkpt lat="45.8616232" lon="11.0543491"><ele>655.0</ele><time>2026-04-25T16:44:19.3Z</time></trkpt><trkpt lat="45.8616909" lon="11.0543106"><ele>653.0</ele><time>2026-04-25T16:44:55.233Z</time></trkpt><trkpt lat="45.8617526" lon="11.0542885"><ele>650.9999999999999</ele><time>2026-04-25T16:45:00.233Z</time></trkpt><trkpt lat="45.8617782" lon="11.0543758"><ele>649.0</ele><time>2026-04-25T16:45:11.236Z</time></trkpt><trkpt lat="45.8617469" lon="11.0544565"><ele>648.9999999999999</ele><time>2026-04-25T16:45:20.242Z</time></trkpt><trkpt lat="45.861695" lon="11.0545215"><ele>649.0</ele><time>2026-04-25T16:45:39.243Z</time></trkpt><trkpt lat="45.8617021" lon="11.054647"><ele>649.0</ele><time>2026-04-25T16:46:12.236Z</time></trkpt><trkpt lat="45.8617276" lon="11.0547322"><ele>649.0</ele><time>2026-04-25T16:46:21.235Z</time></trkpt><trkpt lat="45.8617832" lon="11.0546854"><ele>649.0</ele><time>2026-04-25T16:46:38.154Z</time></trkpt><trkpt lat="45.8618162" lon="11.0546073"><ele>648.9999999999999</ele><time>2026-04-25T16:46:51.135Z</time></trkpt><trkpt lat="45.861862" lon="11.0546762"><ele>649.0</ele><time>2026-04-25T16:46:59.24Z</time></trkpt><trkpt lat="45.8619369" lon="11.0546888"><ele>650.0</ele><time>2026-04-25T16:47:56.286Z</time></trkpt><trkpt lat="45.8620071" lon="11.054686"><ele>651.0</ele><time>2026-04-25T16:47:59.285Z</time></trkpt><trkpt lat="45.8620856" lon="11.0547563"><ele>652.0</ele><time>2026-04-25T16:48:02.239Z</time></trkpt><trkpt lat="45.8621717" lon="11.0547744"><ele>653.0</ele><time>2026-04-25T16:48:05.301Z</time></trkpt><trkpt lat="45.862244" lon="11.05485"><ele>654.0</ele><time>2026-04-25T16:48:08.247Z</time></trkpt><trkpt lat="45.8623314" lon="11.0548772"><ele>655.0</ele><time>2026-04-25T16:48:11.251Z</time></trkpt><trkpt lat="45.862399" lon="11.0548827"><ele>655.0</ele><time>2026-04-25T16:48:14.278Z</time></trkpt><trkpt lat="45.8624768" lon="11.0548831"><ele>655.0</ele><time>2026-04-25T16:48:16.243Z</time></trkpt><trkpt lat="45.8625387" lon="11.0549245"><ele>655.0</ele><time>2026-04-25T16:48:18.274Z</time></trkpt><trkpt lat="45.8626027" lon="11.0549721"><ele>655.0</ele><time>2026-04-25T16:48:19.295Z</time></trkpt><trkpt lat="45.8627197" lon="11.0550121"><ele>655.0</ele><time>2026-04-25T16:48:21.289Z</time></trkpt><trkpt lat="45.8627852" lon="11.0550188"><ele>655.0</ele><time>2026-04-25T16:48:22.248Z</time></trkpt><trkpt lat="45.8628982" lon="11.0550138"><ele>656.3333333333334</ele><time>2026-04-25T16:48:24.246Z</time></trkpt><trkpt lat="45.8629752" lon="11.0550283"><ele>657.6666666666667</ele><time>2026-04-25T16:48:26.236Z</time></trkpt><trkpt lat="45.863046" lon="11.0550262"><ele>659.0</ele><time>2026-04-25T16:48:28.237Z</time></trkpt><trkpt lat="45.8631671" lon="11.0550001"><ele>660.3333333333334</ele><time>2026-04-25T16:48:30.242Z</time></trkpt><trkpt lat="45.8632756" lon="11.0549971"><ele>661.6666666666666</ele><time>2026-04-25T16:48:32.234Z</time></trkpt><trkpt lat="45.8633385" lon="11.0549685"><ele>663.0</ele><time>2026-04-25T16:48:34.233Z</time></trkpt><trkpt lat="45.8634011" lon="11.054888"><ele>659.1666666666666</ele><time>2026-04-25T16:48:36.303Z</time></trkpt><trkpt lat="45.8634938" lon="11.0548502"><ele>655.3333333333334</ele><time>2026-04-25T16:48:37.238Z</time></trkpt><trkpt lat="45.8635762" lon="11.0547924"><ele>651.5</ele><time>2026-04-25T16:48:39.238Z</time></trkpt><trkpt lat="45.863651" lon="11.0547646"><ele>647.6666666666667</ele><time>2026-04-25T16:48:41.291Z</time></trkpt><trkpt lat="45.8637251" lon="11.0547428"><ele>643.8333333333334</ele><time>2026-04-25T16:48:43.264Z</time></trkpt><trkpt lat="45.8638103" lon="11.0547016"><ele>640.0</ele><time>2026-04-25T16:48:46.242Z</time></trkpt><trkpt lat="45.8638944" lon="11.0546911"><ele>640.0</ele><time>2026-04-25T16:48:50.28Z</time></trkpt><trkpt lat="45.8639678" lon="11.0546465"><ele>640.0</ele><time>2026-04-25T16:48:53.249Z</time></trkpt><trkpt lat="45.8640289" lon="11.054608"><ele>640.0</ele><time>2026-04-25T16:48:56.238Z</time></trkpt><trkpt lat="45.8640988" lon="11.05461"><ele>640.0</ele><time>2026-04-25T16:49:00.242Z</time></trkpt><trkpt lat="45.8641949" lon="11.054629"><ele>640.0</ele><time>2026-04-25T16:49:03.289Z</time></trkpt><trkpt lat="45.8642784" lon="11.0546496"><ele>640.0</ele><time>2026-04-25T16:49:05.293Z</time></trkpt><trkpt lat="45.8643487" lon="11.0547309"><ele>640.1666666666667</ele><time>2026-04-25T16:49:07.245Z</time></trkpt><trkpt lat="45.8644006" lon="11.05482"><ele>640.3333333333334</ele><time>2026-04-25T16:49:09.242Z</time></trkpt><trkpt lat="45.8644602" lon="11.0549051"><ele>640.5</ele><time>2026-04-25T16:49:11.238Z</time></trkpt><trkpt lat="45.8645255" lon="11.0549816"><ele>640.6666666666666</ele><time>2026-04-25T16:49:13.335Z</time></trkpt><trkpt lat="45.8646151" lon="11.0550155"><ele>640.8333333333333</ele><time>2026-04-25T16:49:16.243Z</time></trkpt><trkpt lat="45.8647192" lon="11.0550347"><ele>641.0</ele><time>2026-04-25T16:49:18.244Z</time></trkpt><trkpt lat="45.8648269" lon="11.0550407"><ele>642.4</ele><time>2026-04-25T16:49:20.31Z</time></trkpt><trkpt lat="45.8649225" lon="11.0550363"><ele>643.8</ele><time>2026-04-25T16:49:22.303Z</time></trkpt><trkpt lat="45.8650379" lon="11.0550079"><ele>645.1999999999999</ele><time>2026-04-25T16:49:24.286Z</time></trkpt><trkpt lat="45.8651461" lon="11.0549555"><ele>646.5999999999999</ele><time>2026-04-25T16:49:26.292Z</time></trkpt><trkpt lat="45.8652124" lon="11.0549323"><ele>648.0</ele><time>2026-04-25T16:49:27.29Z</time></trkpt><trkpt lat="45.8652621" lon="11.0548705"><ele>648.0</ele><time>2026-04-25T16:49:28.242Z</time></trkpt><trkpt lat="45.8653558" lon="11.054832"><ele>648.0</ele><time>2026-04-25T16:49:30.281Z</time></trkpt><trkpt lat="45.8654011" lon="11.0547683"><ele>648.0</ele><time>2026-04-25T16:49:33.231Z</time></trkpt><trkpt lat="45.8654648" lon="11.0546848"><ele>648.0</ele><time>2026-04-25T16:49:36.295Z</time></trkpt><trkpt lat="45.8655156" lon="11.0546147"><ele>648.0</ele><time>2026-04-25T16:49:38.301Z</time></trkpt><trkpt lat="45.8655785" lon="11.0545241"><ele>648.0</ele><time>2026-04-25T16:49:40.244Z</time></trkpt><trkpt lat="45.8656334" lon="11.0544454"><ele>648.0</ele><time>2026-04-25T16:49:42.294Z</time></trkpt><trkpt lat="45.865682" lon="11.0543722"><ele>648.0</ele><time>2026-04-25T16:49:45.285Z</time></trkpt><trkpt lat="45.8657299" lon="11.054294"><ele>648.0</ele><time>2026-04-25T16:49:48.29Z</time></trkpt><trkpt lat="45.8657946" lon="11.0542579"><ele>648.0</ele><time>2026-04-25T16:49:51.281Z</time></trkpt><trkpt lat="45.8658688" lon="11.0542246"><ele>648.0</ele><time>2026-04-25T16:49:55.283Z</time></trkpt><trkpt lat="45.8659427" lon="11.05416"><ele>648.0</ele><time>2026-04-25T16:49:58.251Z</time></trkpt><trkpt lat="45.8659951" lon="11.0540956"><ele>648.0</ele><time>2026-04-25T16:50:01.309Z</time></trkpt><trkpt lat="45.8660502" lon="11.0540321"><ele>647.0</ele><time>2026-04-25T16:50:04.24Z</time></trkpt><trkpt lat="45.8661338" lon="11.053984"><ele>646.0</ele><time>2026-04-25T16:50:07.308Z</time></trkpt><trkpt lat="45.8662185" lon="11.0539341"><ele>645.0</ele><time>2026-04-25T16:50:10.244Z</time></trkpt><trkpt lat="45.8662944" lon="11.0538506"><ele>644.0</ele><time>2026-04-25T16:50:13.274Z</time></trkpt><trkpt lat="45.8663418" lon="11.0537195"><ele>643.0</ele><time>2026-04-25T16:50:15.247Z</time></trkpt><trkpt lat="45.8663974" lon="11.0536021"><ele>643.0</ele><time>2026-04-25T16:50:17.244Z</time></trkpt><trkpt lat="45.8664982" lon="11.0534738"><ele>643.0</ele><time>2026-04-25T16:50:19.294Z</time></trkpt><trkpt lat="45.8665566" lon="11.0533477"><ele>643.0</ele><time>2026-04-25T16:50:21.24Z</time></trkpt><trkpt lat="45.8665262" lon="11.0532579"><ele>643.0</ele><time>2026-04-25T16:50:23.237Z</time></trkpt><trkpt lat="45.8664886" lon="11.0531594"><ele>643.0</ele><time>2026-04-25T16:50:25.248Z</time></trkpt><trkpt lat="45.8664312" lon="11.0530935"><ele>643.1666666666667</ele><time>2026-04-25T16:50:28.233Z</time></trkpt><trkpt lat="45.8664132" lon="11.052989"><ele>643.3333333333334</ele><time>2026-04-25T16:50:30.244Z</time></trkpt><trkpt lat="45.8663827" lon="11.0529054"><ele>643.5</ele><time>2026-04-25T16:50:32.239Z</time></trkpt><trkpt lat="45.866335" lon="11.0527987"><ele>643.6666666666666</ele><time>2026-04-25T16:50:34.238Z</time></trkpt><trkpt lat="45.8662975" lon="11.0526954"><ele>643.8333333333333</ele><time>2026-04-25T16:50:36.247Z</time></trkpt><trkpt lat="45.8662701" lon="11.0525992"><ele>644.0</ele><time>2026-04-25T16:50:39.248Z</time></trkpt><trkpt lat="45.866226" lon="11.0524994"><ele>642.1428571428571</ele><time>2026-04-25T16:50:43.24Z</time></trkpt><trkpt lat="45.8661769" lon="11.0524144"><ele>640.2857142857142</ele><time>2026-04-25T16:50:46.23Z</time></trkpt><trkpt lat="45.8661535" lon="11.0523172"><ele>638.4285714285714</ele><time>2026-04-25T16:50:51.296Z</time></trkpt><trkpt lat="45.8661203" lon="11.0522264"><ele>636.5714285714286</ele><time>2026-04-25T16:50:55.247Z</time></trkpt><trkpt lat="45.8660598" lon="11.0521843"><ele>634.7142857142857</ele><time>2026-04-25T16:51:09.292Z</time></trkpt><trkpt lat="45.8660428" lon="11.0520872"><ele>632.8571428571429</ele><time>2026-04-25T16:51:14.302Z</time></trkpt><trkpt lat="45.8660192" lon="11.0519953"><ele>631.0</ele><time>2026-04-25T16:51:17.241Z</time></trkpt><trkpt lat="45.8660174" lon="11.0518882"><ele>631.0</ele><time>2026-04-25T16:51:21.235Z</time></trkpt><trkpt lat="45.86596" lon="11.0518169"><ele>631.0</ele><time>2026-04-25T16:51:24.302Z</time></trkpt><trkpt lat="45.8659405" lon="11.0517134"><ele>631.0</ele><time>2026-04-25T16:51:27.24Z</time></trkpt><trkpt lat="45.865909" lon="11.0516084"><ele>631.0</ele><time>2026-04-25T16:51:30.288Z</time></trkpt><trkpt lat="45.865889" lon="11.0515117"><ele>631.0</ele><time>2026-04-25T16:51:32.237Z</time></trkpt><trkpt lat="45.8658544" lon="11.0514228"><ele>631.0</ele><time>2026-04-25T16:51:35.321Z</time></trkpt><trkpt lat="45.8658188" lon="11.0512863"><ele>622.0</ele><time>2026-04-25T16:52:39.243Z</time></trkpt><trkpt lat="45.8658316" lon="11.0511747"><ele>613.0</ele><time>2026-04-25T16:52:41.242Z</time></trkpt><trkpt lat="45.8658692" lon="11.0510624"><ele>604.0</ele><time>2026-04-25T16:52:44.234Z</time></trkpt><trkpt lat="45.8658719" lon="11.0509583"><ele>595.0</ele><time>2026-04-25T16:52:47.272Z</time></trkpt><trkpt lat="45.8659062" lon="11.0508489"><ele>586.0</ele><time>2026-04-25T16:52:52.248Z</time></trkpt><trkpt lat="45.8658979" lon="11.0507521"><ele>577.0</ele><time>2026-04-25T16:52:55.243Z</time></trkpt><trkpt lat="45.8659232" lon="11.0506328"><ele>574.6666666666667</ele><time>2026-04-25T16:53:00.232Z</time></trkpt><trkpt lat="45.8659346" lon="11.0505267"><ele>572.3333333333334</ele><time>2026-04-25T16:53:03.287Z</time></trkpt><trkpt lat="45.8659909" lon="11.0504472"><ele>570.0</ele><time>2026-04-25T16:53:06.236Z</time></trkpt><trkpt lat="45.8660621" lon="11.0503976"><ele>567.6666666666666</ele><time>2026-04-25T16:53:10.276Z</time></trkpt><trkpt lat="45.8661149" lon="11.0503363"><ele>565.3333333333333</ele><time>2026-04-25T16:53:13.246Z</time></trkpt><trkpt lat="45.8661907" lon="11.0502757"><ele>563.0</ele><time>2026-04-25T16:53:16.241Z</time></trkpt><trkpt lat="45.86618" lon="11.050121"><ele>563.0</ele><time>2026-04-25T16:54:10.243Z</time></trkpt><trkpt lat="45.8661574" lon="11.0500346"><ele>563.0</ele><time>2026-04-25T16:55:01.261Z</time></trkpt><trkpt lat="45.8661944" lon="11.0499472"><ele>563.0</ele><time>2026-04-25T16:55:07.239Z</time></trkpt><trkpt lat="45.8662588" lon="11.049925"><ele>563.0</ele><time>2026-04-25T16:55:11.275Z</time></trkpt><trkpt lat="45.8663192" lon="11.0498963"><ele>563.0</ele><time>2026-04-25T16:55:15.241Z</time></trkpt><trkpt lat="45.8663717" lon="11.0498111"><ele>563.0</ele><time>2026-04-25T16:55:19.326Z</time></trkpt><trkpt lat="45.8664618" lon="11.0497463"><ele>563.0</ele><time>2026-04-25T16:55:23.241Z</time></trkpt><trkpt lat="45.8665388" lon="11.049742"><ele>557.5</ele><time>2026-04-25T16:55:25.246Z</time></trkpt><trkpt lat="45.8666302" lon="11.0497069"><ele>552.0</ele><time>2026-04-25T16:55:28.238Z</time></trkpt><trkpt lat="45.8667" lon="11.0496285"><ele>546.5</ele><time>2026-04-25T16:55:29.245Z</time></trkpt><trkpt lat="45.8667583" lon="11.0495352"><ele>541.0</ele><time>2026-04-25T16:55:31.285Z</time></trkpt><trkpt lat="45.8667763" lon="11.0494273"><ele>535.5</ele><time>2026-04-25T16:55:33.257Z</time></trkpt><trkpt lat="45.8667701" lon="11.0493311"><ele>530.0</ele><time>2026-04-25T16:55:36.236Z</time></trkpt><trkpt lat="45.8667572" lon="11.0492264"><ele>525.1666666666666</ele><time>2026-04-25T16:55:39.246Z</time></trkpt><trkpt lat="45.8667672" lon="11.0491163"><ele>520.3333333333333</ele><time>2026-04-25T16:55:43.241Z</time></trkpt><trkpt lat="45.8667527" lon="11.0490171"><ele>515.5</ele><time>2026-04-25T16:55:47.229Z</time></trkpt><trkpt lat="45.8666795" lon="11.0490092"><ele>510.66666666666663</ele><time>2026-04-25T16:55:50.236Z</time></trkpt><trkpt lat="45.8665923" lon="11.0489479"><ele>505.8333333333333</ele><time>2026-04-25T16:55:53.33Z</time></trkpt><trkpt lat="45.8665271" lon="11.0488827"><ele>501.0</ele><time>2026-04-25T16:55:55.242Z</time></trkpt><trkpt lat="45.8664321" lon="11.0488404"><ele>501.0</ele><time>2026-04-25T16:55:58.238Z</time></trkpt><trkpt lat="45.8663584" lon="11.0487778"><ele>501.0</ele><time>2026-04-25T16:56:00.267Z</time></trkpt><trkpt lat="45.8662921" lon="11.0487166"><ele>501.0</ele><time>2026-04-25T16:56:02.242Z</time></trkpt><trkpt lat="45.8662307" lon="11.0486685"><ele>501.0</ele><time>2026-04-25T16:56:05.238Z</time></trkpt><trkpt lat="45.8661779" lon="11.0485924"><ele>501.0</ele><time>2026-04-25T16:56:08.269Z</time></trkpt><trkpt lat="45.866132" lon="11.048505"><ele>501.0</ele><time>2026-04-25T16:56:12.273Z</time></trkpt><trkpt lat="45.8660676" lon="11.0484541"><ele>501.0</ele><time>2026-04-25T16:56:16.242Z</time></trkpt><trkpt lat="45.8660332" lon="11.0483773"><ele>501.0</ele><time>2026-04-25T16:56:19.235Z</time></trkpt><trkpt lat="45.8660241" lon="11.048284"><ele>501.0</ele><time>2026-04-25T16:56:23.243Z</time></trkpt><trkpt lat="45.8659789" lon="11.0482075"><ele>501.0</ele><time>2026-04-25T16:56:27.241Z</time></trkpt><trkpt lat="45.8660463" lon="11.0482121"><ele>501.0</ele><time>2026-04-25T16:56:37.239Z</time></trkpt><trkpt lat="45.8661124" lon="11.0482352"><ele>501.0</ele><time>2026-04-25T16:56:41.275Z</time></trkpt><trkpt lat="45.866195" lon="11.0482224"><ele>501.0</ele><time>2026-04-25T16:56:45.232Z</time></trkpt><trkpt lat="45.8662605" lon="11.048251"><ele>493.1666666666667</ele><time>2026-04-25T16:56:49.237Z</time></trkpt><trkpt lat="45.8663353" lon="11.0482513"><ele>485.33333333333337</ele><time>2026-04-25T16:56:53.257Z</time></trkpt><trkpt lat="45.8663982" lon="11.0482208"><ele>477.5</ele><time>2026-04-25T16:56:57.228Z</time></trkpt><trkpt lat="45.8664722" lon="11.0481823"><ele>469.6666666666667</ele><time>2026-04-25T16:56:59.236Z</time></trkpt><trkpt lat="45.8665241" lon="11.0481092"><ele>461.83333333333337</ele><time>2026-04-25T16:57:01.265Z</time></trkpt><trkpt lat="45.866585" lon="11.0480577"><ele>454.0</ele><time>2026-04-25T16:57:03.281Z</time></trkpt><trkpt lat="45.8667145" lon="11.0480382"><ele>454.00000000000006</ele><time>2026-04-25T16:57:46.241Z</time></trkpt><trkpt lat="45.8667714" lon="11.0479844"><ele>454.0</ele><time>2026-04-25T16:57:49.298Z</time></trkpt><trkpt lat="45.8668478" lon="11.0479415"><ele>454.0</ele><time>2026-04-25T16:57:52.242Z</time></trkpt><trkpt lat="45.8669238" lon="11.0479012"><ele>454.0</ele><time>2026-04-25T16:57:55.256Z</time></trkpt><trkpt lat="45.8670002" lon="11.0478538"><ele>454.00000000000006</ele><time>2026-04-25T16:57:59.244Z</time></trkpt><trkpt lat="45.8670642" lon="11.0478194"><ele>454.0</ele><time>2026-04-25T16:58:02.245Z</time></trkpt><trkpt lat="45.8671584" lon="11.0478496"><ele>453.6666666666667</ele><time>2026-04-25T16:58:05.333Z</time></trkpt><trkpt lat="45.8672368" lon="11.0478541"><ele>453.33333333333337</ele><time>2026-04-25T16:58:08.244Z</time></trkpt><trkpt lat="45.8673077" lon="11.0478698"><ele>453.0</ele><time>2026-04-25T16:58:12.3Z</time></trkpt><trkpt lat="45.8674425" lon="11.0478758"><ele>452.66666666666663</ele><time>2026-04-25T16:58:18.288Z</time></trkpt><trkpt lat="45.8675097" lon="11.0478582"><ele>452.3333333333333</ele><time>2026-04-25T16:58:21.302Z</time></trkpt><trkpt lat="45.8675844" lon="11.0478271"><ele>452.0</ele><time>2026-04-25T16:58:24.242Z</time></trkpt><trkpt lat="45.8678618" lon="11.0477726"><ele>452.0</ele><time>2026-04-25T16:58:30.228Z</time></trkpt><trkpt lat="45.8679469" lon="11.0477382"><ele>452.00000000000006</ele><time>2026-04-25T16:58:32.239Z</time></trkpt><trkpt lat="45.8680495" lon="11.047679"><ele>452.00000000000006</ele><time>2026-04-25T16:58:34.259Z</time></trkpt><trkpt lat="45.8681542" lon="11.0476554"><ele>452.0</ele><time>2026-04-25T16:58:36.246Z</time></trkpt><trkpt lat="45.8682435" lon="11.0476413"><ele>452.0</ele><time>2026-04-25T16:58:38.247Z</time></trkpt><trkpt lat="45.8683041" lon="11.047608"><ele>451.99999999999994</ele><time>2026-04-25T16:58:40.236Z</time></trkpt><trkpt lat="45.8683138" lon="11.0475056"><ele>452.0</ele><time>2026-04-25T16:58:42.299Z</time></trkpt><trkpt lat="45.8682874" lon="11.0474185"><ele>452.0</ele><time>2026-04-25T16:58:45.239Z</time></trkpt><trkpt lat="45.8682254" lon="11.0473528"><ele>452.0</ele><time>2026-04-25T16:58:49.293Z</time></trkpt><trkpt lat="45.8681647" lon="11.047276"><ele>451.99999999999994</ele><time>2026-04-25T16:58:53.238Z</time></trkpt><trkpt lat="45.8681322" lon="11.0471778"><ele>452.0</ele><time>2026-04-25T16:58:56.277Z</time></trkpt><trkpt lat="45.8681223" lon="11.0470227"><ele>449.8</ele><time>2026-04-25T16:58:58.25Z</time></trkpt><trkpt lat="45.8680605" lon="11.0469247"><ele>447.6</ele><time>2026-04-25T16:59:00.242Z</time></trkpt><trkpt lat="45.8679998" lon="11.0468279"><ele>445.40000000000003</ele><time>2026-04-25T16:59:02.243Z</time></trkpt><trkpt lat="45.8678894" lon="11.0467925"><ele>443.20000000000005</ele><time>2026-04-25T16:59:04.24Z</time></trkpt><trkpt lat="45.8678098" lon="11.0467416"><ele>441.0</ele><time>2026-04-25T16:59:06.245Z</time></trkpt><trkpt lat="45.8677378" lon="11.04665"><ele>437.0</ele><time>2026-04-25T16:59:08.235Z</time></trkpt><trkpt lat="45.8676662" lon="11.0465451"><ele>433.0</ele><time>2026-04-25T16:59:10.243Z</time></trkpt><trkpt lat="45.8676118" lon="11.0464152"><ele>429.0</ele><time>2026-04-25T16:59:12.283Z</time></trkpt><trkpt lat="45.8675889" lon="11.0462506"><ele>425.0</ele><time>2026-04-25T16:59:14.288Z</time></trkpt><trkpt lat="45.8675746" lon="11.0461252"><ele>421.0</ele><time>2026-04-25T16:59:16.291Z</time></trkpt><trkpt lat="45.8675878" lon="11.0459805"><ele>421.00000000000006</ele><time>2026-04-25T16:59:18.233Z</time></trkpt><trkpt lat="45.8676398" lon="11.0459192"><ele>421.0</ele><time>2026-04-25T16:59:19.242Z</time></trkpt><trkpt lat="45.8676845" lon="11.0458368"><ele>421.0</ele><time>2026-04-25T16:59:20.246Z</time></trkpt><trkpt lat="45.8677222" lon="11.045762"><ele>421.0</ele><time>2026-04-25T16:59:21.249Z</time></trkpt><trkpt lat="45.8677505" lon="11.0455762"><ele>421.00000000000006</ele><time>2026-04-25T16:59:23.295Z</time></trkpt><trkpt lat="45.8677756" lon="11.0454851"><ele>421.0</ele><time>2026-04-25T16:59:24.301Z</time></trkpt><trkpt lat="45.8678131" lon="11.0453923"><ele>416.8</ele><time>2026-04-25T16:59:25.302Z</time></trkpt><trkpt lat="45.867877" lon="11.0453314"><ele>412.6</ele><time>2026-04-25T16:59:26.284Z</time></trkpt><trkpt lat="45.8679489" lon="11.0452152"><ele>408.4</ele><time>2026-04-25T16:59:28.306Z</time></trkpt><trkpt lat="45.8679584" lon="11.045003"><ele>404.2</ele><time>2026-04-25T16:59:31.235Z</time></trkpt><trkpt lat="45.8679325" lon="11.044848"><ele>400.0</ele><time>2026-04-25T16:59:33.239Z</time></trkpt><trkpt lat="45.8679461" lon="11.0447572"><ele>397.50000000000006</ele><time>2026-04-25T16:59:34.253Z</time></trkpt><trkpt lat="45.8679355" lon="11.0445757"><ele>395.0</ele><time>2026-04-25T16:59:36.324Z</time></trkpt><trkpt lat="45.8679365" lon="11.0444716"><ele>392.5</ele><time>2026-04-25T16:59:37.3Z</time></trkpt><trkpt lat="45.8679394" lon="11.0443493"><ele>390.0</ele><time>2026-04-25T16:59:38.309Z</time></trkpt><trkpt lat="45.867944" lon="11.0442363"><ele>387.50000000000006</ele><time>2026-04-25T16:59:39.31Z</time></trkpt><trkpt lat="45.8679468" lon="11.0441267"><ele>385.0</ele><time>2026-04-25T16:59:40.303Z</time></trkpt><trkpt lat="45.867956" lon="11.0440133"><ele>383.33333333333337</ele><time>2026-04-25T16:59:41.305Z</time></trkpt><trkpt lat="45.8679526" lon="11.043921"><ele>381.6666666666667</ele><time>2026-04-25T16:59:42.295Z</time></trkpt><trkpt lat="45.8679562" lon="11.0437903"><ele>380.0</ele><time>2026-04-25T16:59:44.28Z</time></trkpt><trkpt lat="45.8679856" lon="11.0436827"><ele>378.33333333333337</ele><time>2026-04-25T16:59:47.242Z</time></trkpt><trkpt lat="45.8680019" lon="11.0435648"><ele>376.6666666666667</ele><time>2026-04-25T16:59:50.278Z</time></trkpt><trkpt lat="45.8680274" lon="11.0434558"><ele>375.0</ele><time>2026-04-25T16:59:52.327Z</time></trkpt><trkpt lat="45.8680538" lon="11.0433388"><ele>373.2</ele><time>2026-04-25T16:59:54.249Z</time></trkpt><trkpt lat="45.8680552" lon="11.0431952"><ele>371.4</ele><time>2026-04-25T16:59:56.273Z</time></trkpt><trkpt lat="45.8680747" lon="11.0431037"><ele>369.6</ele><time>2026-04-25T16:59:58.237Z</time></trkpt><trkpt lat="45.8681131" lon="11.0429668"><ele>367.8</ele><time>2026-04-25T17:00:00.232Z</time></trkpt><trkpt lat="45.8681367" lon="11.0428665"><ele>366.0</ele><time>2026-04-25T17:00:01.277Z</time></trkpt><trkpt lat="45.8681844" lon="11.0427258"><ele>366.0</ele><time>2026-04-25T17:00:03.274Z</time></trkpt><trkpt lat="45.8682115" lon="11.0425907"><ele>366.0</ele><time>2026-04-25T17:00:05.243Z</time></trkpt><trkpt lat="45.8682624" lon="11.042475"><ele>366.0</ele><time>2026-04-25T17:00:07.244Z</time></trkpt><trkpt lat="45.8683122" lon="11.042402"><ele>366.0</ele><time>2026-04-25T17:00:09.232Z</time></trkpt><trkpt lat="45.8683708" lon="11.0423576"><ele>366.0</ele><time>2026-04-25T17:00:11.239Z</time></trkpt><trkpt lat="45.8684791" lon="11.0423257"><ele>366.0</ele><time>2026-04-25T17:00:13.247Z</time></trkpt><trkpt lat="45.8685435" lon="11.0423215"><ele>363.20000000000005</ele><time>2026-04-25T17:00:14.249Z</time></trkpt><trkpt lat="45.8686728" lon="11.0423597"><ele>360.40000000000003</ele><time>2026-04-25T17:00:16.233Z</time></trkpt><trkpt lat="45.8687507" lon="11.0423925"><ele>357.6</ele><time>2026-04-25T17:00:17.237Z</time></trkpt><trkpt lat="45.8688285" lon="11.0424343"><ele>354.8</ele><time>2026-04-25T17:00:18.294Z</time></trkpt><trkpt lat="45.8689107" lon="11.0424667"><ele>352.0</ele><time>2026-04-25T17:00:19.279Z</time></trkpt><trkpt lat="45.8689888" lon="11.042503"><ele>352.0</ele><time>2026-04-25T17:00:20.3Z</time></trkpt><trkpt lat="45.869059" lon="11.0425364"><ele>352.0</ele><time>2026-04-25T17:00:21.308Z</time></trkpt><trkpt lat="45.8691285" lon="11.0425699"><ele>352.0</ele><time>2026-04-25T17:00:22.32Z</time></trkpt><trkpt lat="45.8692353" lon="11.0426029"><ele>352.0</ele><time>2026-04-25T17:00:24.311Z</time></trkpt><trkpt lat="45.869307" lon="11.0425534"><ele>352.0</ele><time>2026-04-25T17:00:26.315Z</time></trkpt><trkpt lat="45.8693573" lon="11.042412"><ele>352.0</ele><time>2026-04-25T17:00:28.236Z</time></trkpt><trkpt lat="45.8693522" lon="11.0423202"><ele>350.6</ele><time>2026-04-25T17:00:29.239Z</time></trkpt><trkpt lat="45.8693215" lon="11.0421983"><ele>349.20000000000005</ele><time>2026-04-25T17:00:30.251Z</time></trkpt><trkpt lat="45.8692875" lon="11.0420714"><ele>347.8</ele><time>2026-04-25T17:00:31.251Z</time></trkpt><trkpt lat="45.8692523" lon="11.041919"><ele>346.4</ele><time>2026-04-25T17:00:32.241Z</time></trkpt><trkpt lat="45.8692126" lon="11.0417714"><ele>345.0</ele><time>2026-04-25T17:00:33.27Z</time></trkpt><trkpt lat="45.8691637" lon="11.0416191"><ele>343.4</ele><time>2026-04-25T17:00:34.274Z</time></trkpt><trkpt lat="45.8691214" lon="11.0414697"><ele>341.8</ele><time>2026-04-25T17:00:35.32Z</time></trkpt><trkpt lat="45.8690882" lon="11.0413192"><ele>340.20000000000005</ele><time>2026-04-25T17:00:36.309Z</time></trkpt><trkpt lat="45.8690567" lon="11.0411727"><ele>338.6</ele><time>2026-04-25T17:00:37.314Z</time></trkpt><trkpt lat="45.8690235" lon="11.0410309"><ele>337.0</ele><time>2026-04-25T17:00:38.331Z</time></trkpt><trkpt lat="45.8689828" lon="11.0409048"><ele>335.6</ele><time>2026-04-25T17:00:39.31Z</time></trkpt><trkpt lat="45.8689513" lon="11.0407738"><ele>334.20000000000005</ele><time>2026-04-25T17:00:40.363Z</time></trkpt><trkpt lat="45.8689181" lon="11.0406298"><ele>332.8</ele><time>2026-04-25T17:00:41.265Z</time></trkpt><trkpt lat="45.8688732" lon="11.0404953"><ele>331.4</ele><time>2026-04-25T17:00:42.263Z</time></trkpt><trkpt lat="45.8688076" lon="11.0403629"><ele>330.0</ele><time>2026-04-25T17:00:43.277Z</time></trkpt><trkpt lat="45.8687444" lon="11.0402145"><ele>330.0</ele><time>2026-04-25T17:00:44.259Z</time></trkpt><trkpt lat="45.868703" lon="11.040085"><ele>330.0</ele><time>2026-04-25T17:00:45.244Z</time></trkpt><trkpt lat="45.8686562" lon="11.0399523"><ele>330.0</ele><time>2026-04-25T17:00:46.225Z</time></trkpt><trkpt lat="45.868632" lon="11.0398596"><ele>330.0</ele><time>2026-04-25T17:00:47.248Z</time></trkpt><trkpt lat="45.8686091" lon="11.0397664"><ele>330.0</ele><time>2026-04-25T17:00:48.287Z</time></trkpt><trkpt lat="45.8685861" lon="11.0396188"><ele>330.0</ele><time>2026-04-25T17:00:50.265Z</time></trkpt><trkpt lat="45.8686341" lon="11.0395295"><ele>327.2</ele><time>2026-04-25T17:00:51.26Z</time></trkpt><trkpt lat="45.8687016" lon="11.0394473"><ele>324.4</ele><time>2026-04-25T17:00:52.283Z</time></trkpt><trkpt lat="45.8687586" lon="11.0393562"><ele>321.6</ele><time>2026-04-25T17:00:53.245Z</time></trkpt><trkpt lat="45.8688038" lon="11.0392578"><ele>318.8</ele><time>2026-04-25T17:00:54.301Z</time></trkpt><trkpt lat="45.8688529" lon="11.0391357"><ele>316.0</ele><time>2026-04-25T17:00:55.263Z</time></trkpt><trkpt lat="45.8688986" lon="11.0390067"><ele>312.40000000000003</ele><time>2026-04-25T17:00:56.293Z</time></trkpt><trkpt lat="45.8689356" lon="11.0388697"><ele>308.8</ele><time>2026-04-25T17:00:57.257Z</time></trkpt><trkpt lat="45.8689718" lon="11.038732"><ele>305.20000000000005</ele><time>2026-04-25T17:00:58.296Z</time></trkpt><trkpt lat="45.8690179" lon="11.0385896"><ele>301.6</ele><time>2026-04-25T17:00:59.275Z</time></trkpt><trkpt lat="45.8690582" lon="11.0384534"><ele>298.0</ele><time>2026-04-25T17:01:00.258Z</time></trkpt><trkpt lat="45.8690995" lon="11.0383465"><ele>299.8</ele><time>2026-04-25T17:01:01.269Z</time></trkpt><trkpt lat="45.8691417" lon="11.0382609"><ele>301.6</ele><time>2026-04-25T17:01:02.269Z</time></trkpt><trkpt lat="45.869181" lon="11.0381783"><ele>303.4</ele><time>2026-04-25T17:01:03.251Z</time></trkpt><trkpt lat="45.8692579" lon="11.0380014"><ele>305.2</ele><time>2026-04-25T17:01:06.29Z</time></trkpt><trkpt lat="45.8693154" lon="11.0378607"><ele>307.0</ele><time>2026-04-25T17:01:08.29Z</time></trkpt><trkpt lat="45.8693515" lon="11.0377712"><ele>307.0</ele><time>2026-04-25T17:01:09.243Z</time></trkpt><trkpt lat="45.8693956" lon="11.0376728"><ele>307.0</ele><time>2026-04-25T17:01:10.267Z</time></trkpt><trkpt lat="45.8694485" lon="11.0375551"><ele>307.0</ele><time>2026-04-25T17:01:11.274Z</time></trkpt><trkpt lat="45.8694951" lon="11.0374305"><ele>307.0</ele><time>2026-04-25T17:01:12.247Z</time></trkpt><trkpt lat="45.8695536" lon="11.037296"><ele>307.0</ele><time>2026-04-25T17:01:13.246Z</time></trkpt><trkpt lat="45.8695974" lon="11.0371509"><ele>301.8</ele><time>2026-04-25T17:01:14.281Z</time></trkpt><trkpt lat="45.8696458" lon="11.0369996"><ele>296.6</ele><time>2026-04-25T17:01:15.279Z</time></trkpt><trkpt lat="45.8697201" lon="11.0368722"><ele>291.40000000000003</ele><time>2026-04-25T17:01:16.284Z</time></trkpt><trkpt lat="45.8697805" lon="11.0367348"><ele>286.2</ele><time>2026-04-25T17:01:17.246Z</time></trkpt><trkpt lat="45.8698325" lon="11.0366149"><ele>281.0</ele><time>2026-04-25T17:01:18.249Z</time></trkpt><trkpt lat="45.8698776" lon="11.0365423"><ele>282.0</ele><time>2026-04-25T17:01:19.278Z</time></trkpt><trkpt lat="45.8699489" lon="11.0364758"><ele>283.0</ele><time>2026-04-25T17:01:20.288Z</time></trkpt><trkpt lat="45.8700256" lon="11.0364215"><ele>284.0</ele><time>2026-04-25T17:01:21.262Z</time></trkpt><trkpt lat="45.8700995" lon="11.0363504"><ele>285.0</ele><time>2026-04-25T17:01:22.286Z</time></trkpt><trkpt lat="45.8701553" lon="11.0362916"><ele>286.0</ele><time>2026-04-25T17:01:23.271Z</time></trkpt><trkpt lat="45.8702346" lon="11.0362584"><ele>287.0</ele><time>2026-04-25T17:01:24.288Z</time></trkpt><trkpt lat="45.8703066" lon="11.036217"><ele>287.0</ele><time>2026-04-25T17:01:25.279Z</time></trkpt><trkpt lat="45.8704268" lon="11.0361606"><ele>287.0</ele><time>2026-04-25T17:01:27.297Z</time></trkpt><trkpt lat="45.870522" lon="11.0361068"><ele>287.0</ele><time>2026-04-25T17:01:29.284Z</time></trkpt><trkpt lat="45.8706267" lon="11.0360666"><ele>287.0</ele><time>2026-04-25T17:01:31.281Z</time></trkpt><trkpt lat="45.8706906" lon="11.036008"><ele>287.0</ele><time>2026-04-25T17:01:33.25Z</time></trkpt><trkpt lat="45.8707793" lon="11.0360052"><ele>287.0</ele><time>2026-04-25T17:01:36.241Z</time></trkpt><trkpt lat="45.8708832" lon="11.0359733"><ele>287.0</ele><time>2026-04-25T17:01:40.288Z</time></trkpt><trkpt lat="45.8709542" lon="11.0359584"><ele>287.0</ele><time>2026-04-25T17:01:44.239Z</time></trkpt><trkpt lat="45.8710346" lon="11.0359405"><ele>287.0</ele><time>2026-04-25T17:01:47.289Z</time></trkpt><trkpt lat="45.8711045" lon="11.0359132"><ele>287.0</ele><time>2026-04-25T17:01:50.239Z</time></trkpt><trkpt lat="45.8711693" lon="11.0358833"><ele>287.0</ele><time>2026-04-25T17:01:53.245Z</time></trkpt><trkpt lat="45.8712463" lon="11.0358603"><ele>287.83333333333337</ele><time>2026-04-25T17:01:56.237Z</time></trkpt><trkpt lat="45.8713077" lon="11.0358279"><ele>288.6666666666667</ele><time>2026-04-25T17:01:59.243Z</time></trkpt><trkpt lat="45.8713845" lon="11.0357973"><ele>289.5</ele><time>2026-04-25T17:02:02.235Z</time></trkpt><trkpt lat="45.8714687" lon="11.0357697"><ele>290.3333333333333</ele><time>2026-04-25T17:02:05.25Z</time></trkpt><trkpt lat="45.8716016" lon="11.0357665"><ele>291.16666666666663</ele><time>2026-04-25T17:02:11.243Z</time></trkpt><trkpt lat="45.871678" lon="11.0357741"><ele>292.0</ele><time>2026-04-25T17:02:13.274Z</time></trkpt><trkpt lat="45.8717892" lon="11.0357866"><ele>288.66666666666663</ele><time>2026-04-25T17:02:16.25Z</time></trkpt><trkpt lat="45.8718594" lon="11.0357928"><ele>285.3333333333333</ele><time>2026-04-25T17:02:18.253Z</time></trkpt><trkpt lat="45.8719319" lon="11.0357768"><ele>282.0</ele><time>2026-04-25T17:02:20.249Z</time></trkpt><trkpt lat="45.8720045" lon="11.035767"><ele>278.6666666666667</ele><time>2026-04-25T17:02:22.246Z</time></trkpt><trkpt lat="45.8721066" lon="11.0357499"><ele>275.33333333333337</ele><time>2026-04-25T17:02:25.27Z</time></trkpt><trkpt lat="45.872172" lon="11.0357414"><ele>272.0</ele><time>2026-04-25T17:02:27.245Z</time></trkpt><trkpt lat="45.8722358" lon="11.0357234"><ele>272.0</ele><time>2026-04-25T17:02:29.279Z</time></trkpt><trkpt lat="45.8723045" lon="11.0356912"><ele>272.0</ele><time>2026-04-25T17:02:31.288Z</time></trkpt><trkpt lat="45.8723793" lon="11.0356682"><ele>272.0</ele><time>2026-04-25T17:02:33.228Z</time></trkpt><trkpt lat="45.8724533" lon="11.0356633"><ele>272.0</ele><time>2026-04-25T17:02:35.277Z</time></trkpt><trkpt lat="45.8725361" lon="11.0356879"><ele>272.0</ele><time>2026-04-25T17:02:37.245Z</time></trkpt><trkpt lat="45.8726255" lon="11.0357251"><ele>272.0</ele><time>2026-04-25T17:02:39.281Z</time></trkpt><trkpt lat="45.87272" lon="11.0357565"><ele>271.83333333333337</ele><time>2026-04-25T17:02:41.282Z</time></trkpt><trkpt lat="45.872812" lon="11.0357876"><ele>271.6666666666667</ele><time>2026-04-25T17:02:43.244Z</time></trkpt><trkpt lat="45.8729094" lon="11.0358073"><ele>271.5</ele><time>2026-04-25T17:02:45.262Z</time></trkpt><trkpt lat="45.8729787" lon="11.0358359"><ele>271.3333333333333</ele><time>2026-04-25T17:02:47.24Z</time></trkpt><trkpt lat="45.8730695" lon="11.0358723"><ele>271.16666666666663</ele><time>2026-04-25T17:02:49.24Z</time></trkpt><trkpt lat="45.8731463" lon="11.0359065"><ele>271.0</ele><time>2026-04-25T17:02:51.263Z</time></trkpt><trkpt lat="45.8732126" lon="11.035927"><ele>271.0</ele><time>2026-04-25T17:02:53.24Z</time></trkpt><trkpt lat="45.8732932" lon="11.0359374"><ele>271.0</ele><time>2026-04-25T17:02:55.236Z</time></trkpt><trkpt lat="45.8733772" lon="11.0359778"><ele>271.0</ele><time>2026-04-25T17:02:59.1Z</time></trkpt><trkpt lat="45.8734459" lon="11.0360238"><ele>271.0</ele><time>2026-04-25T17:03:01.35Z</time></trkpt><trkpt lat="45.8735196" lon="11.0360011"><ele>271.0</ele><time>2026-04-25T17:03:05.227Z</time></trkpt><trkpt lat="45.8735877" lon="11.0360539"><ele>271.0</ele><time>2026-04-25T17:03:07.249Z</time></trkpt><trkpt lat="45.8736476" lon="11.0361532"><ele>268.0</ele><time>2026-04-25T17:03:09.245Z</time></trkpt><trkpt lat="45.8737111" lon="11.0362369"><ele>265.0</ele><time>2026-04-25T17:03:11.237Z</time></trkpt><trkpt lat="45.8737708" lon="11.0363013"><ele>262.0</ele><time>2026-04-25T17:03:13.281Z</time></trkpt><trkpt lat="45.8738277" lon="11.0363594"><ele>259.0</ele><time>2026-04-25T17:03:15.275Z</time></trkpt><trkpt lat="45.873895" lon="11.0364183"><ele>255.99999999999997</ele><time>2026-04-25T17:03:17.247Z</time></trkpt><trkpt lat="45.8739572" lon="11.0364809"><ele>253.0</ele><time>2026-04-25T17:03:19.238Z</time></trkpt><trkpt lat="45.8740185" lon="11.0365339"><ele>252.99999999999997</ele><time>2026-04-25T17:03:21.268Z</time></trkpt><trkpt lat="45.8740856" lon="11.0365897"><ele>253.0</ele><time>2026-04-25T17:03:23.239Z</time></trkpt><trkpt lat="45.8741581" lon="11.0366482"><ele>253.0</ele><time>2026-04-25T17:03:25.299Z</time></trkpt><trkpt lat="45.8742258" lon="11.0367122"><ele>253.0</ele><time>2026-04-25T17:03:27.354Z</time></trkpt><trkpt lat="45.8742872" lon="11.0367808"><ele>252.99999999999997</ele><time>2026-04-25T17:03:29.241Z</time></trkpt><trkpt lat="45.8743604" lon="11.0368274"><ele>253.0</ele><time>2026-04-25T17:03:31.238Z</time></trkpt><trkpt lat="45.8744302" lon="11.0368695"><ele>254.49999999999997</ele><time>2026-04-25T17:03:33.311Z</time></trkpt><trkpt lat="45.8744915" lon="11.0369413"><ele>256.0</ele><time>2026-04-25T17:03:35.28Z</time></trkpt><trkpt lat="45.8745528" lon="11.0370095"><ele>257.5</ele><time>2026-04-25T17:03:37.239Z</time></trkpt><trkpt lat="45.8746127" lon="11.0370689"><ele>259.0</ele><time>2026-04-25T17:03:39.237Z</time></trkpt><trkpt lat="45.8746743" lon="11.0371302"><ele>260.5</ele><time>2026-04-25T17:03:41.241Z</time></trkpt><trkpt lat="45.8747456" lon="11.0372017"><ele>262.0</ele><time>2026-04-25T17:03:45.277Z</time></trkpt><trkpt lat="45.8748101" lon="11.037287"><ele>262.0</ele><time>2026-04-25T17:03:47.25Z</time></trkpt><trkpt lat="45.8748742" lon="11.0373867"><ele>262.0</ele><time>2026-04-25T17:03:49.305Z</time></trkpt><trkpt lat="45.8749305" lon="11.0374882"><ele>262.0</ele><time>2026-04-25T17:03:51.246Z</time></trkpt><trkpt lat="45.8749802" lon="11.0375896"><ele>262.0</ele><time>2026-04-25T17:03:53.248Z</time></trkpt><trkpt lat="45.8750302" lon="11.0376897"><ele>262.0</ele><time>2026-04-25T17:03:55.269Z</time></trkpt><trkpt lat="45.8750729" lon="11.0377902"><ele>262.0</ele><time>2026-04-25T17:03:57.25Z</time></trkpt><trkpt lat="45.8751219" lon="11.0378853"><ele>263.5</ele><time>2026-04-25T17:03:59.287Z</time></trkpt><trkpt lat="45.8751929" lon="11.0379404"><ele>265.0</ele><time>2026-04-25T17:04:01.279Z</time></trkpt><trkpt lat="45.8752656" lon="11.037975"><ele>266.5</ele><time>2026-04-25T17:04:03.258Z</time></trkpt><trkpt lat="45.8753324" lon="11.0379899"><ele>268.0</ele><time>2026-04-25T17:04:05.282Z</time></trkpt><trkpt lat="45.8754115" lon="11.0379696"><ele>269.5</ele><time>2026-04-25T17:04:07.252Z</time></trkpt><trkpt lat="45.8754821" lon="11.0379269"><ele>271.0</ele><time>2026-04-25T17:04:09.273Z</time></trkpt><trkpt lat="45.8755677" lon="11.0379133"><ele>271.0</ele><time>2026-04-25T17:04:12.283Z</time></trkpt><trkpt lat="45.8756625" lon="11.0379169"><ele>271.0</ele><time>2026-04-25T17:04:15.285Z</time></trkpt><trkpt lat="45.8757395" lon="11.0379408"><ele>271.0</ele><time>2026-04-25T17:04:17.286Z</time></trkpt><trkpt lat="45.8758284" lon="11.0379836"><ele>271.0</ele><time>2026-04-25T17:04:19.25Z</time></trkpt><trkpt lat="45.8759164" lon="11.0380594"><ele>271.0</ele><time>2026-04-25T17:04:21.304Z</time></trkpt><trkpt lat="45.8759883" lon="11.0381588"><ele>270.6</ele><time>2026-04-25T17:04:23.282Z</time></trkpt><trkpt lat="45.8760714" lon="11.0382305"><ele>270.20000000000005</ele><time>2026-04-25T17:04:25.253Z</time></trkpt><trkpt lat="45.8761585" lon="11.0383081"><ele>269.79999999999995</ele><time>2026-04-25T17:04:28.28Z</time></trkpt><trkpt lat="45.8762208" lon="11.0383733"><ele>269.4</ele><time>2026-04-25T17:04:30.301Z</time></trkpt><trkpt lat="45.8763106" lon="11.0384561"><ele>269.0</ele><time>2026-04-25T17:04:32.23Z</time></trkpt><trkpt lat="45.876407" lon="11.0385364"><ele>269.0</ele><time>2026-04-25T17:04:34.238Z</time></trkpt><trkpt lat="45.8765068" lon="11.0386337"><ele>269.0</ele><time>2026-04-25T17:04:36.305Z</time></trkpt><trkpt lat="45.8765694" lon="11.038692"><ele>269.0</ele><time>2026-04-25T17:04:37.287Z</time></trkpt><trkpt lat="45.8766347" lon="11.0387465"><ele>269.0</ele><time>2026-04-25T17:04:38.302Z</time></trkpt><trkpt lat="45.8766959" lon="11.0388091"><ele>269.0</ele><time>2026-04-25T17:04:39.289Z</time></trkpt><trkpt lat="45.8767603" lon="11.0388742"><ele>269.0</ele><time>2026-04-25T17:04:40.295Z</time></trkpt><trkpt lat="45.8768307" lon="11.038934"><ele>267.2</ele><time>2026-04-25T17:04:41.231Z</time></trkpt><trkpt lat="45.8769735" lon="11.039078"><ele>265.4</ele><time>2026-04-25T17:04:43.231Z</time></trkpt><trkpt lat="45.8770547" lon="11.0391402"><ele>263.6</ele><time>2026-04-25T17:04:44.299Z</time></trkpt><trkpt lat="45.8771258" lon="11.0392054"><ele>261.8</ele><time>2026-04-25T17:04:45.306Z</time></trkpt><trkpt lat="45.8771905" lon="11.0392807"><ele>260.0</ele><time>2026-04-25T17:04:46.312Z</time></trkpt><trkpt lat="45.8772707" lon="11.0393678"><ele>260.0</ele><time>2026-04-25T17:04:47.299Z</time></trkpt><trkpt lat="45.8773513" lon="11.0394518"><ele>260.0</ele><time>2026-04-25T17:04:48.296Z</time></trkpt><trkpt lat="45.8774255" lon="11.0395411"><ele>260.0</ele><time>2026-04-25T17:04:49.306Z</time></trkpt><trkpt lat="45.8775119" lon="11.0396084"><ele>260.0</ele><time>2026-04-25T17:04:50.303Z</time></trkpt><trkpt lat="45.877591" lon="11.0396852"><ele>260.0</ele><time>2026-04-25T17:04:51.304Z</time></trkpt><trkpt lat="45.8776809" lon="11.0397424"><ele>260.8</ele><time>2026-04-25T17:04:52.299Z</time></trkpt><trkpt lat="45.8777666" lon="11.0398207"><ele>261.6</ele><time>2026-04-25T17:04:53.299Z</time></trkpt><trkpt lat="45.8778463" lon="11.0398973"><ele>262.4</ele><time>2026-04-25T17:04:54.31Z</time></trkpt><trkpt lat="45.8779292" lon="11.0399639"><ele>263.2</ele><time>2026-04-25T17:04:55.3Z</time></trkpt><trkpt lat="45.8780145" lon="11.0400318"><ele>264.0</ele><time>2026-04-25T17:04:56.3Z</time></trkpt><trkpt lat="45.8781008" lon="11.040103"><ele>264.0</ele><time>2026-04-25T17:04:57.313Z</time></trkpt><trkpt lat="45.8781946" lon="11.0401524"><ele>264.0</ele><time>2026-04-25T17:04:58.273Z</time></trkpt><trkpt lat="45.8782833" lon="11.0402047"><ele>264.0</ele><time>2026-04-25T17:04:59.257Z</time></trkpt><trkpt lat="45.8783664" lon="11.0402669"><ele>264.0</ele><time>2026-04-25T17:05:00.274Z</time></trkpt><trkpt lat="45.8784607" lon="11.0403247"><ele>264.0</ele><time>2026-04-25T17:05:01.249Z</time></trkpt><trkpt lat="45.8785525" lon="11.0403818"><ele>258.25</ele><time>2026-04-25T17:05:02.246Z</time></trkpt><trkpt lat="45.8786424" lon="11.0404382"><ele>252.5</ele><time>2026-04-25T17:05:03.272Z</time></trkpt><trkpt lat="45.8787307" lon="11.0404951"><ele>246.75</ele><time>2026-04-25T17:05:04.332Z</time></trkpt><trkpt lat="45.8789177" lon="11.0406104"><ele>241.0</ele><time>2026-04-25T17:05:06.285Z</time></trkpt><trkpt lat="45.8790099" lon="11.0406589"><ele>240.99999999999997</ele><time>2026-04-25T17:05:07.283Z</time></trkpt><trkpt lat="45.8790916" lon="11.0407299"><ele>241.0</ele><time>2026-04-25T17:05:08.292Z</time></trkpt><trkpt lat="45.8791759" lon="11.0407961"><ele>241.0</ele><time>2026-04-25T17:05:09.236Z</time></trkpt><trkpt lat="45.8792593" lon="11.0408546"><ele>241.0</ele><time>2026-04-25T17:05:10.288Z</time></trkpt><trkpt lat="45.8793341" lon="11.0409044"><ele>240.99999999999997</ele><time>2026-04-25T17:05:11.296Z</time></trkpt><trkpt lat="45.8794011" lon="11.0409432"><ele>241.0</ele><time>2026-04-25T17:05:12.282Z</time></trkpt><trkpt lat="45.8794583" lon="11.0409883"><ele>240.8</ele><time>2026-04-25T17:05:13.293Z</time></trkpt><trkpt lat="45.8795175" lon="11.0410328"><ele>240.60000000000002</ele><time>2026-04-25T17:05:14.284Z</time></trkpt><trkpt lat="45.8795943" lon="11.0411338"><ele>240.4</ele><time>2026-04-25T17:05:16.287Z</time></trkpt><trkpt lat="45.8796253" lon="11.041268"><ele>240.2</ele><time>2026-04-25T17:05:18.299Z</time></trkpt><trkpt lat="45.879678" lon="11.041381"><ele>240.0</ele><time>2026-04-25T17:05:20.274Z</time></trkpt><trkpt lat="45.8797311" lon="11.0415174"><ele>240.0</ele><time>2026-04-25T17:05:22.282Z</time></trkpt><trkpt lat="45.8798141" lon="11.0416189"><ele>240.0</ele><time>2026-04-25T17:05:24.295Z</time></trkpt><trkpt lat="45.879876" lon="11.0417253"><ele>240.0</ele><time>2026-04-25T17:05:26.354Z</time></trkpt><trkpt lat="45.8799293" lon="11.0417878"><ele>240.0</ele><time>2026-04-25T17:05:27.343Z</time></trkpt><trkpt lat="45.8799904" lon="11.0418147"><ele>240.0</ele><time>2026-04-25T17:05:28.293Z</time></trkpt><trkpt lat="45.8801058" lon="11.0418469"><ele>239.83333333333334</ele><time>2026-04-25T17:05:30.249Z</time></trkpt><trkpt lat="45.880216" lon="11.0419097"><ele>239.66666666666669</ele><time>2026-04-25T17:05:32.242Z</time></trkpt><trkpt lat="45.8803003" lon="11.0419387"><ele>239.5</ele><time>2026-04-25T17:05:33.312Z</time></trkpt><trkpt lat="45.8803773" lon="11.0419532"><ele>239.33333333333334</ele><time>2026-04-25T17:05:34.257Z</time></trkpt><trkpt lat="45.8804417" lon="11.0420271"><ele>239.16666666666669</ele><time>2026-04-25T17:05:35.298Z</time></trkpt><trkpt lat="45.8804961" lon="11.0420885"><ele>239.0</ele><time>2026-04-25T17:05:36.274Z</time></trkpt><trkpt lat="45.8805592" lon="11.0421695"><ele>239.00000000000003</ele><time>2026-04-25T17:05:37.275Z</time></trkpt><trkpt lat="45.880627" lon="11.0422374"><ele>239.0</ele><time>2026-04-25T17:05:38.276Z</time></trkpt><trkpt lat="45.8807192" lon="11.0422696"><ele>239.0</ele><time>2026-04-25T17:05:39.284Z</time></trkpt><trkpt lat="45.8808012" lon="11.0423256"><ele>239.0</ele><time>2026-04-25T17:05:40.284Z</time></trkpt><trkpt lat="45.88087" lon="11.0423853"><ele>239.00000000000003</ele><time>2026-04-25T17:05:41.272Z</time></trkpt><trkpt lat="45.8809497" lon="11.0424352"><ele>239.0</ele><time>2026-04-25T17:05:42.278Z</time></trkpt><trkpt lat="45.8810214" lon="11.0424828"><ele>239.66666666666669</ele><time>2026-04-25T17:05:43.28Z</time></trkpt><trkpt lat="45.8810882" lon="11.0425291"><ele>240.33333333333334</ele><time>2026-04-25T17:05:44.238Z</time></trkpt><trkpt lat="45.8811592" lon="11.0425625"><ele>241.0</ele><time>2026-04-25T17:05:45.308Z</time></trkpt><trkpt lat="45.8812442" lon="11.0425851"><ele>241.66666666666669</ele><time>2026-04-25T17:05:46.353Z</time></trkpt><trkpt lat="45.8813097" lon="11.0426248"><ele>242.33333333333334</ele><time>2026-04-25T17:05:47.283Z</time></trkpt><trkpt lat="45.881398" lon="11.0426474"><ele>243.0</ele><time>2026-04-25T17:05:48.277Z</time></trkpt><trkpt lat="45.88148" lon="11.042677"><ele>243.0</ele><time>2026-04-25T17:05:49.293Z</time></trkpt><trkpt lat="45.8815603" lon="11.0427193"><ele>243.0</ele><time>2026-04-25T17:05:50.292Z</time></trkpt><trkpt lat="45.881645" lon="11.0427519"><ele>243.0</ele><time>2026-04-25T17:05:51.303Z</time></trkpt><trkpt lat="45.8817195" lon="11.0427885"><ele>243.0</ele><time>2026-04-25T17:05:52.268Z</time></trkpt><trkpt lat="45.8817968" lon="11.0428365"><ele>243.0</ele><time>2026-04-25T17:05:53.296Z</time></trkpt><trkpt lat="45.8818685" lon="11.0428721"><ele>243.0</ele><time>2026-04-25T17:05:54.286Z</time></trkpt><trkpt lat="45.881941" lon="11.0429095"><ele>239.83333333333334</ele><time>2026-04-25T17:05:55.298Z</time></trkpt><trkpt lat="45.8819956" lon="11.042962"><ele>236.66666666666669</ele><time>2026-04-25T17:05:56.341Z</time></trkpt><trkpt lat="45.8821125" lon="11.0430614"><ele>233.5</ele><time>2026-04-25T17:05:58.309Z</time></trkpt><trkpt lat="45.8821692" lon="11.0431181"><ele>230.33333333333334</ele><time>2026-04-25T17:05:59.277Z</time></trkpt><trkpt lat="45.8822315" lon="11.0431686"><ele>227.16666666666669</ele><time>2026-04-25T17:06:00.342Z</time></trkpt><trkpt lat="45.8822909" lon="11.0432209"><ele>224.0</ele><time>2026-04-25T17:06:01.241Z</time></trkpt><trkpt lat="45.8823446" lon="11.0432784"><ele>223.66666666666669</ele><time>2026-04-25T17:06:02.246Z</time></trkpt><trkpt lat="45.8824011" lon="11.0433812"><ele>223.33333333333334</ele><time>2026-04-25T17:06:03.305Z</time></trkpt><trkpt lat="45.8824233" lon="11.0434956"><ele>223.0</ele><time>2026-04-25T17:06:04.356Z</time></trkpt><trkpt lat="45.882452" lon="11.0436011"><ele>222.66666666666669</ele><time>2026-04-25T17:06:05.294Z</time></trkpt><trkpt lat="45.882485" lon="11.0437112"><ele>222.33333333333334</ele><time>2026-04-25T17:06:06.295Z</time></trkpt><trkpt lat="45.8825447" lon="11.0438082"><ele>222.0</ele><time>2026-04-25T17:06:07.246Z</time></trkpt><trkpt lat="45.8827216" lon="11.0439741"><ele>222.0</ele><time>2026-04-25T17:06:09.265Z</time></trkpt><trkpt lat="45.8828144" lon="11.0440257"><ele>222.0</ele><time>2026-04-25T17:06:10.284Z</time></trkpt><trkpt lat="45.882905" lon="11.0440885"><ele>222.0</ele><time>2026-04-25T17:06:11.268Z</time></trkpt><trkpt lat="45.8830078" lon="11.044135"><ele>222.0</ele><time>2026-04-25T17:06:12.282Z</time></trkpt><trkpt lat="45.8831017" lon="11.0441809"><ele>222.0</ele><time>2026-04-25T17:06:13.266Z</time></trkpt><trkpt lat="45.8831859" lon="11.0442257"><ele>221.2</ele><time>2026-04-25T17:06:14.279Z</time></trkpt><trkpt lat="45.883261" lon="11.0442566"><ele>220.39999999999998</ele><time>2026-04-25T17:06:15.278Z</time></trkpt><trkpt lat="45.8833381" lon="11.0443058"><ele>219.60000000000002</ele><time>2026-04-25T17:06:16.271Z</time></trkpt><trkpt lat="45.8834247" lon="11.0443728"><ele>218.8</ele><time>2026-04-25T17:06:18.254Z</time></trkpt><trkpt lat="45.8835181" lon="11.0444105"><ele>218.0</ele><time>2026-04-25T17:06:20.282Z</time></trkpt><trkpt lat="45.883643" lon="11.0444343"><ele>218.00000000000003</ele><time>2026-04-25T17:06:22.288Z</time></trkpt><trkpt lat="45.883723" lon="11.0444661"><ele>218.0</ele><time>2026-04-25T17:06:24.288Z</time></trkpt><trkpt lat="45.883788" lon="11.0444959"><ele>218.0</ele><time>2026-04-25T17:06:26.238Z</time></trkpt><trkpt lat="45.8838683" lon="11.0445409"><ele>218.0</ele><time>2026-04-25T17:06:29.246Z</time></trkpt><trkpt lat="45.8838776" lon="11.0446404"><ele>218.00000000000003</ele><time>2026-04-25T17:06:32.293Z</time></trkpt><trkpt lat="45.8839154" lon="11.0447209"><ele>218.0</ele><time>2026-04-25T17:06:34.244Z</time></trkpt><trkpt lat="45.8840083" lon="11.0447291"><ele>218.0</ele><time>2026-04-25T17:06:37.26Z</time></trkpt><trkpt lat="45.8840417" lon="11.0446317"><ele>218.0</ele><time>2026-04-25T17:06:38.274Z</time></trkpt><trkpt lat="45.8840214" lon="11.0444816"><ele>218.0</ele><time>2026-04-25T17:06:40.237Z</time></trkpt><trkpt lat="45.8839616" lon="11.044305"><ele>218.0</ele><time>2026-04-25T17:06:42.28Z</time></trkpt><trkpt lat="45.8838814" lon="11.0441624"><ele>218.0</ele><time>2026-04-25T17:06:44.27Z</time></trkpt><trkpt lat="45.8838459" lon="11.0440693"><ele>216.83333333333334</ele><time>2026-04-25T17:06:45.308Z</time></trkpt><trkpt lat="45.8838007" lon="11.0439719"><ele>215.66666666666669</ele><time>2026-04-25T17:06:46.273Z</time></trkpt><trkpt lat="45.8837256" lon="11.0438793"><ele>214.5</ele><time>2026-04-25T17:06:47.262Z</time></trkpt><trkpt lat="45.8836758" lon="11.0437831"><ele>213.33333333333331</ele><time>2026-04-25T17:06:48.281Z</time></trkpt><trkpt lat="45.8836235" lon="11.0436741"><ele>212.16666666666666</ele><time>2026-04-25T17:06:49.251Z</time></trkpt><trkpt lat="45.8835754" lon="11.0435654"><ele>211.0</ele><time>2026-04-25T17:06:50.248Z</time></trkpt><trkpt lat="45.883529" lon="11.04347"><ele>210.99999999999997</ele><time>2026-04-25T17:06:51.287Z</time></trkpt><trkpt lat="45.8834853" lon="11.043375"><ele>211.0</ele><time>2026-04-25T17:06:52.299Z</time></trkpt><trkpt lat="45.8834487" lon="11.0432746"><ele>211.0</ele><time>2026-04-25T17:06:53.307Z</time></trkpt><trkpt lat="45.883455" lon="11.0431614"><ele>211.0</ele><time>2026-04-25T17:06:54.304Z</time></trkpt><trkpt lat="45.8834795" lon="11.0430626"><ele>210.99999999999997</ele><time>2026-04-25T17:06:55.312Z</time></trkpt><trkpt lat="45.8835211" lon="11.0429861"><ele>211.0</ele><time>2026-04-25T17:06:56.297Z</time></trkpt><trkpt lat="45.8836366" lon="11.0429705"><ele>210.99999999999997</ele><time>2026-04-25T17:06:58.309Z</time></trkpt><trkpt lat="45.8837364" lon="11.0430433"><ele>211.0</ele><time>2026-04-25T17:07:00.265Z</time></trkpt><trkpt lat="45.8838097" lon="11.0431074"><ele>211.0</ele><time>2026-04-25T17:07:01.298Z</time></trkpt><trkpt lat="45.8838853" lon="11.0431763"><ele>211.0</ele><time>2026-04-25T17:07:02.291Z</time></trkpt><trkpt lat="45.8839465" lon="11.0432226"><ele>210.99999999999997</ele><time>2026-04-25T17:07:03.281Z</time></trkpt><trkpt lat="45.8839945" lon="11.0432993"><ele>211.0</ele><time>2026-04-25T17:07:04.354Z</time></trkpt><trkpt lat="45.8840638" lon="11.0433929"><ele>210.99999999999997</ele><time>2026-04-25T17:07:05.297Z</time></trkpt><trkpt lat="45.8841224" lon="11.0434795"><ele>211.0</ele><time>2026-04-25T17:07:06.301Z</time></trkpt><trkpt lat="45.8841777" lon="11.0435562"><ele>211.0</ele><time>2026-04-25T17:07:07.345Z</time></trkpt><trkpt lat="45.884253" lon="11.043594"><ele>211.0</ele><time>2026-04-25T17:07:08.283Z</time></trkpt><trkpt lat="45.8843181" lon="11.0436263"><ele>210.99999999999997</ele><time>2026-04-25T17:07:09.245Z</time></trkpt><trkpt lat="45.884399" lon="11.0436377"><ele>211.0</ele><time>2026-04-25T17:07:10.244Z</time></trkpt><trkpt lat="45.8845448" lon="11.0435397"><ele>209.99999999999997</ele><time>2026-04-25T17:07:12.303Z</time></trkpt><trkpt lat="45.8846133" lon="11.0434761"><ele>209.0</ele><time>2026-04-25T17:07:13.32Z</time></trkpt><trkpt lat="45.88469" lon="11.0433999"><ele>208.0</ele><time>2026-04-25T17:07:15.276Z</time></trkpt><trkpt lat="45.8847544" lon="11.0433547"><ele>207.0</ele><time>2026-04-25T17:07:17.283Z</time></trkpt><trkpt lat="45.8847818" lon="11.0432432"><ele>205.99999999999997</ele><time>2026-04-25T17:07:20.267Z</time></trkpt><trkpt lat="45.8847572" lon="11.043142"><ele>205.0</ele><time>2026-04-25T17:07:22.246Z</time></trkpt><trkpt lat="45.8847275" lon="11.0430393"><ele>204.2</ele><time>2026-04-25T17:07:24.256Z</time></trkpt><trkpt lat="45.8846809" lon="11.0429282"><ele>203.4</ele><time>2026-04-25T17:07:26.284Z</time></trkpt><trkpt lat="45.8846277" lon="11.0428264"><ele>202.60000000000002</ele><time>2026-04-25T17:07:28.25Z</time></trkpt><trkpt lat="45.8845784" lon="11.042718"><ele>201.8</ele><time>2026-04-25T17:07:30.28Z</time></trkpt><trkpt lat="45.884525" lon="11.0425995"><ele>201.0</ele><time>2026-04-25T17:07:32.287Z</time></trkpt><trkpt lat="45.8844867" lon="11.04247"><ele>200.4</ele><time>2026-04-25T17:07:34.255Z</time></trkpt><trkpt lat="45.8844322" lon="11.0423705"><ele>199.8</ele><time>2026-04-25T17:07:36.307Z</time></trkpt><trkpt lat="45.8844002" lon="11.0422584"><ele>199.20000000000002</ele><time>2026-04-25T17:07:38.235Z</time></trkpt><trkpt lat="45.8843657" lon="11.0421432"><ele>198.60000000000002</ele><time>2026-04-25T17:07:40.252Z</time></trkpt><trkpt lat="45.8843341" lon="11.0419874"><ele>198.0</ele><time>2026-04-25T17:07:42.248Z</time></trkpt><trkpt lat="45.8842878" lon="11.0418393"><ele>198.60000000000002</ele><time>2026-04-25T17:07:44.291Z</time></trkpt><trkpt lat="45.8842122" lon="11.0417423"><ele>199.20000000000002</ele><time>2026-04-25T17:07:46.341Z</time></trkpt><trkpt lat="45.884145" lon="11.0416369"><ele>199.8</ele><time>2026-04-25T17:07:48.27Z</time></trkpt><trkpt lat="45.884057" lon="11.0414921"><ele>200.4</ele><time>2026-04-25T17:07:51.237Z</time></trkpt><trkpt lat="45.8840019" lon="11.0413888"><ele>201.0</ele><time>2026-04-25T17:07:53.243Z</time></trkpt><trkpt lat="45.8839411" lon="11.0412986"><ele>201.0</ele><time>2026-04-25T17:07:55.241Z</time></trkpt><trkpt lat="45.8838638" lon="11.0412143"><ele>201.0</ele><time>2026-04-25T17:07:57.299Z</time></trkpt><trkpt lat="45.8837942" lon="11.0411174"><ele>201.0</ele><time>2026-04-25T17:07:59.284Z</time></trkpt><trkpt lat="45.8837317" lon="11.041015"><ele>201.0</ele><time>2026-04-25T17:08:01.25Z</time></trkpt><trkpt lat="45.8836628" lon="11.0409046"><ele>201.0</ele><time>2026-04-25T17:08:03.317Z</time></trkpt><trkpt lat="45.8835997" lon="11.0407978"><ele>200.8</ele><time>2026-04-25T17:08:05.286Z</time></trkpt><trkpt lat="45.8835433" lon="11.0406931"><ele>200.60000000000002</ele><time>2026-04-25T17:08:07.344Z</time></trkpt><trkpt lat="45.8834826" lon="11.0406098"><ele>200.4</ele><time>2026-04-25T17:08:09.287Z</time></trkpt><trkpt lat="45.8834287" lon="11.0405024"><ele>200.2</ele><time>2026-04-25T17:08:11.224Z</time></trkpt><trkpt lat="45.8833608" lon="11.040336"><ele>200.0</ele><time>2026-04-25T17:08:14.26Z</time></trkpt><trkpt lat="45.8832956" lon="11.0402087"><ele>200.0</ele><time>2026-04-25T17:08:16.282Z</time></trkpt><trkpt lat="45.8832313" lon="11.0400909"><ele>200.0</ele><time>2026-04-25T17:08:18.314Z</time></trkpt><trkpt lat="45.8831636" lon="11.0399919"><ele>200.0</ele><time>2026-04-25T17:08:20.282Z</time></trkpt><trkpt lat="45.8831044" lon="11.0398904"><ele>200.0</ele><time>2026-04-25T17:08:22.321Z</time></trkpt><trkpt lat="45.8830455" lon="11.0397867"><ele>200.0</ele><time>2026-04-25T17:08:24.289Z</time></trkpt><trkpt lat="45.8829941" lon="11.0397111"><ele>199.8</ele><time>2026-04-25T17:08:26.234Z</time></trkpt><trkpt lat="45.8829314" lon="11.03965"><ele>199.6</ele><time>2026-04-25T17:08:28.234Z</time></trkpt><trkpt lat="45.8828776" lon="11.0395639"><ele>199.39999999999998</ele><time>2026-04-25T17:08:30.279Z</time></trkpt><trkpt lat="45.8828234" lon="11.0394529"><ele>199.2</ele><time>2026-04-25T17:08:32.256Z</time></trkpt><trkpt lat="45.8827363" lon="11.0393735"><ele>199.0</ele><time>2026-04-25T17:08:34.27Z</time></trkpt><trkpt lat="45.8826389" lon="11.0392516"><ele>199.39999999999998</ele><time>2026-04-25T17:08:37.237Z</time></trkpt><trkpt lat="45.8825756" lon="11.0391589"><ele>199.8</ele><time>2026-04-25T17:08:39.304Z</time></trkpt><trkpt lat="45.8825122" lon="11.0390697"><ele>200.2</ele><time>2026-04-25T17:08:41.308Z</time></trkpt><trkpt lat="45.8824426" lon="11.0389812"><ele>200.60000000000002</ele><time>2026-04-25T17:08:43.247Z</time></trkpt><trkpt lat="45.8823751" lon="11.0388812"><ele>201.0</ele><time>2026-04-25T17:08:45.309Z</time></trkpt><trkpt lat="45.8823039" lon="11.0388032"><ele>200.33333333333334</ele><time>2026-04-25T17:08:47.269Z</time></trkpt><trkpt lat="45.8822279" lon="11.0387065"><ele>199.66666666666669</ele><time>2026-04-25T17:08:49.266Z</time></trkpt><trkpt lat="45.8821742" lon="11.038585"><ele>199.0</ele><time>2026-04-25T17:08:51.246Z</time></trkpt><trkpt lat="45.882117" lon="11.0385315"><ele>198.33333333333334</ele><time>2026-04-25T17:08:52.252Z</time></trkpt><trkpt lat="45.8820657" lon="11.0384423"><ele>197.66666666666669</ele><time>2026-04-25T17:08:54.238Z</time></trkpt><trkpt lat="45.8820125" lon="11.0383486"><ele>197.0</ele><time>2026-04-25T17:08:56.238Z</time></trkpt><trkpt lat="45.8819567" lon="11.0382606"><ele>196.66666666666669</ele><time>2026-04-25T17:08:58.283Z</time></trkpt><trkpt lat="45.881899" lon="11.0381682"><ele>196.33333333333334</ele><time>2026-04-25T17:09:00.244Z</time></trkpt><trkpt lat="45.8818348" lon="11.0380773"><ele>196.0</ele><time>2026-04-25T17:09:02.291Z</time></trkpt><trkpt lat="45.8817779" lon="11.0379868"><ele>195.66666666666669</ele><time>2026-04-25T17:09:04.294Z</time></trkpt><trkpt lat="45.8817161" lon="11.0378832"><ele>195.33333333333334</ele><time>2026-04-25T17:09:06.36Z</time></trkpt><trkpt lat="45.881658" lon="11.0378064"><ele>195.0</ele><time>2026-04-25T17:09:08.242Z</time></trkpt><trkpt lat="45.8815936" lon="11.0377089"><ele>195.0</ele><time>2026-04-25T17:09:11.297Z</time></trkpt><trkpt lat="45.8815449" lon="11.0376356"><ele>195.0</ele><time>2026-04-25T17:09:13.303Z</time></trkpt><trkpt lat="45.8815085" lon="11.0375537"><ele>195.0</ele><time>2026-04-25T17:09:15.293Z</time></trkpt><trkpt lat="45.8815365" lon="11.037471"><ele>195.0</ele><time>2026-04-25T17:09:18.241Z</time></trkpt><trkpt lat="45.8816145" lon="11.0374597"><ele>195.0</ele><time>2026-04-25T17:09:22.282Z</time></trkpt><trkpt lat="45.8816758" lon="11.0373932"><ele>195.0</ele><time>2026-04-25T17:10:03.236Z</time></trkpt><trkpt lat="45.8816436" lon="11.0373037"><ele>195.0</ele><time>2026-04-25T17:11:03.236Z</time></trkpt><trkpt lat="45.8815772" lon="11.0372561"><ele>195.0</ele><time>2026-04-25T17:11:09.297Z</time></trkpt><trkpt lat="45.8815222" lon="11.0372114"><ele>195.0</ele><time>2026-04-25T17:11:12.244Z</time></trkpt><trkpt lat="45.8815163" lon="11.0371031"><ele>195.0</ele><time>2026-04-25T17:11:16.295Z</time></trkpt><trkpt lat="45.8814559" lon="11.0371308"><ele>195.0</ele><time>2026-04-25T17:11:23.239Z</time></trkpt><trkpt lat="45.8813991" lon="11.0370823"><ele>195.0</ele><time>2026-04-25T17:11:26.24Z</time></trkpt><trkpt lat="45.8813519" lon="11.0369818"><ele>195.0</ele><time>2026-04-25T17:11:29.242Z</time></trkpt><trkpt lat="45.8813239" lon="11.0368607"><ele>195.0</ele><time>2026-04-25T17:11:32.232Z</time></trkpt><trkpt lat="45.8812649" lon="11.0368098"><ele>195.0</ele><time>2026-04-25T17:11:34.239Z</time></trkpt><trkpt lat="45.8812081" lon="11.0367332"><ele>195.0</ele><time>2026-04-25T17:11:36.245Z</time></trkpt><trkpt lat="45.8811776" lon="11.0366258"><ele>195.0</ele><time>2026-04-25T17:11:38.246Z</time></trkpt><trkpt lat="45.8811345" lon="11.0365302"><ele>195.0</ele><time>2026-04-25T17:11:40.242Z</time></trkpt><trkpt lat="45.8810871" lon="11.0364345"><ele>195.0</ele><time>2026-04-25T17:11:42.241Z</time></trkpt><trkpt lat="45.8810223" lon="11.0364304"><ele>195.0</ele><time>2026-04-25T17:11:44.248Z</time></trkpt><trkpt lat="45.8809395" lon="11.036391"><ele>195.0</ele><time>2026-04-25T17:11:46.226Z</time></trkpt><trkpt lat="45.8808663" lon="11.0363871"><ele>195.0</ele><time>2026-04-25T17:11:47.251Z</time></trkpt><trkpt lat="45.8807705" lon="11.0363564"><ele>195.0</ele><time>2026-04-25T17:11:49.238Z</time></trkpt><trkpt lat="45.8806855" lon="11.0362931"><ele>195.0</ele><time>2026-04-25T17:11:50.231Z</time></trkpt><trkpt lat="45.8806341" lon="11.0361855"><ele>195.0</ele><time>2026-04-25T17:11:52.294Z</time></trkpt><trkpt lat="45.8805904" lon="11.0360899"><ele>195.0</ele><time>2026-04-25T17:11:54.251Z</time></trkpt><trkpt lat="45.8805541" lon="11.0360145"><ele>195.0</ele><time>2026-04-25T17:11:56.231Z</time></trkpt><trkpt lat="45.8804715" lon="11.0359695"><ele>195.0</ele><time>2026-04-25T17:11:57.289Z</time></trkpt><trkpt lat="45.8804071" lon="11.0358614"><ele>195.0</ele><time>2026-04-25T17:12:00.273Z</time></trkpt><trkpt lat="45.8803653" lon="11.0357672"><ele>195.0</ele><time>2026-04-25T17:12:02.273Z</time></trkpt><trkpt lat="45.8803143" lon="11.0356798"><ele>195.0</ele><time>2026-04-25T17:12:04.274Z</time></trkpt><trkpt lat="45.8802754" lon="11.0355899"><ele>195.0</ele><time>2026-04-25T17:12:06.273Z</time></trkpt><trkpt lat="45.8803208" lon="11.0354915"><ele>194.71428571428572</ele><time>2026-04-25T17:12:09.282Z</time></trkpt><trkpt lat="45.8803829" lon="11.035453"><ele>194.42857142857142</ele><time>2026-04-25T17:12:11.267Z</time></trkpt><trkpt lat="45.8804502" lon="11.0354091"><ele>194.14285714285717</ele><time>2026-04-25T17:12:13.243Z</time></trkpt><trkpt lat="45.880516" lon="11.0353583"><ele>193.85714285714286</ele><time>2026-04-25T17:12:15.276Z</time></trkpt><trkpt lat="45.880572" lon="11.0353072"><ele>193.57142857142858</ele><time>2026-04-25T17:12:17.372Z</time></trkpt><trkpt lat="45.8806482" lon="11.0352496"><ele>193.2857142857143</ele><time>2026-04-25T17:12:19.274Z</time></trkpt><trkpt lat="45.8807166" lon="11.0351957"><ele>193.0</ele><time>2026-04-25T17:12:21.272Z</time></trkpt><trkpt lat="45.8807949" lon="11.0351342"><ele>192.99999999999997</ele><time>2026-04-25T17:12:23.346Z</time></trkpt><trkpt lat="45.8808844" lon="11.0350642"><ele>193.0</ele><time>2026-04-25T17:12:25.342Z</time></trkpt><trkpt lat="45.8809388" lon="11.0349803"><ele>193.0</ele><time>2026-04-25T17:12:27.285Z</time></trkpt><trkpt lat="45.8809822" lon="11.0348756"><ele>193.0</ele><time>2026-04-25T17:12:30.287Z</time></trkpt><trkpt lat="45.8810511" lon="11.0348111"><ele>192.99999999999997</ele><time>2026-04-25T17:12:33.236Z</time></trkpt><trkpt lat="45.88111" lon="11.0347697"><ele>193.0</ele><time>2026-04-25T17:12:37.266Z</time></trkpt><trkpt lat="45.8811706" lon="11.0347322"><ele>193.0</ele><time>2026-04-25T17:12:43.284Z</time></trkpt></trkseg></trk></gpx>